Sasaki, Shun (2026): Radiosonde measurements from station Abashiri (2025-11) [dataset]. Japan Meteorological Agency, Tokyo, PANGAEA, https://doi.org/10.1594/PANGAEA.992667
Always quote citation above when using data! You can download the citation in several formats below.
Published: 2026-02-26 • DOI registered: 2026-03-27
Other version:
Sasaki, Shun (2026): BSRN Station-to-archive file for station Abashiri (2025-11) [dataset]. ftp://ftp.bsrn.awi.de/abs/abs1125.dat.gz
Project(s):
Coverage:
Latitude: 44.017800 * Longitude: 144.279700
Date/Time Start: 2025-11-01T00:00:00 * Date/Time End: 2025-11-30T23:59:00
Minimum ALTITUDE: 18 m * Maximum ALTITUDE: 26863 m
Event(s):
ABS (Abashiri) * Latitude: 44.017800 * Longitude: 144.279700 * Date/Time: 2021-03-01T00:00:00 * Elevation: 38.0 m * Station info: Abashiri.pdf * Location: Japan * Method/Device: Monitoring station (MONS) * Comment: BSRN station no: 86; Surface type: asphalt; Topography type: flat, rural; Horizon: doi:10.1594/PANGAEA.947000; Station scientist: SASAKI Shun (rrc-jma@met.kishou.go.jp)
Parameter(s):
| # | Name | Short Name | Unit | Principal Investigator | Method/Device | Comment |
|---|---|---|---|---|---|---|
| 1 | DATE/TIME | Date/Time | Sasaki, Shun | Geocode | ||
| 2 | ALTITUDE | Altitude | m | Sasaki, Shun | Geocode | |
| 3 | Pressure, at given altitude | PPPP | hPa | Sasaki, Shun | Radiosonde, Meisei, iMS | |
| 4 | Temperature, air | TTT | °C | Sasaki, Shun | Radiosonde, Meisei, iMS | |
| 5 | Dew/frost point | TdTdTd | °C | Sasaki, Shun | Radiosonde, Meisei, iMS | |
| 6 | Wind direction | dd | deg | Sasaki, Shun | Radiosonde, Meisei, iMS | |
| 7 | Wind speed | ff | m/s | Sasaki, Shun | Radiosonde, Meisei, iMS |
License:
Status:
Curation Level: Enhanced curation (CurationLevelC)
Size:
24089 data points
Data
| 1 Date/Time | 2 Altitude [m] | 3 PPPP [hPa] | 4 TTT [°C] | 5 TdTdTd [°C] | 6 dd [deg] | 7 ff [m/s] |
|---|---|---|---|---|---|---|
| 2025-11-01T00:00 | 6647 | 428 | 141 | 23 | ||
| 2025-11-01T00:01 | 6836 | 417 | -24.1 | -25.4 | ||
| 2025-11-01T00:01 | 6876 | 415 | 137 | 25 | ||
| 2025-11-01T00:02 | 7133 | 400 | 144 | 29 | ||
| 2025-11-01T00:03 | 7363 | 388 | 143 | 33 | ||
| 2025-11-01T00:03 | 7373 | 387 | -26.7 | -28.0 | ||
| 2025-11-01T00:04 | 7649 | 373 | 146 | 35 | ||
| 2025-11-01T00:05 | 7936 | 358 | 147 | 35 | ||
| 2025-11-01T00:06 | 8246 | 343 | 149 | 32 | ||
| 2025-11-01T00:06 | 8338 | 338 | -34.5 | -35.6 | 148 | 34 |
| 2025-11-01T11:30 | 18 | 1000 | 8.9 | 6.3 | 310 | 5 |
| 2025-11-01T11:30 | 24 | 999 | 8.8 | 5.9 | 303 | 2 |
| 2025-11-01T11:30 | 37 | 998 | 225 | 4 | ||
| 2025-11-01T11:30 | 69 | 994 | 308 | 7 | ||
| 2025-11-01T11:30 | 124 | 987 | 327 | 11 | ||
| 2025-11-01T11:31 | 393 | 955 | 5.5 | 4.0 | ||
| 2025-11-01T11:31 | 473 | 946 | 328 | 12 | ||
| 2025-11-01T11:32 | 783 | 911 | 2.7 | 2.0 | ||
| 2025-11-01T11:32 | 816 | 907 | 315 | 12 | ||
| 2025-11-01T11:33 | 1035 | 882 | 1.5 | 0.5 | ||
| 2025-11-01T11:33 | 1113 | 874 | 2.2 | 0.7 | ||
| 2025-11-01T11:33 | 1125 | 873 | 333 | 12 | ||
| 2025-11-01T11:34 | 1480 | 835 | 350 | 11 | ||
| 2025-11-01T11:35 | 1622 | 821 | -0.5 | -1.3 | ||
| 2025-11-01T11:35 | 1869 | 795 | 347 | 10 | ||
| 2025-11-01T11:36 | 2071 | 775 | -2.2 | -3.5 | ||
| 2025-11-01T11:36 | 2142 | 769 | 351 | 10 | ||
| 2025-11-01T11:36 | 2185 | 764 | -1.7 | -3.9 | ||
| 2025-11-01T11:36 | 2251 | 758 | -1.9 | -4.6 | ||
| 2025-11-01T11:36 | 2292 | 754 | -1.4 | -4.9 | ||
| 2025-11-01T11:37 | 2460 | 738 | -1.8 | -6.0 | ||
| 2025-11-01T11:37 | 2488 | 736 | 309 | 9 | ||
| 2025-11-01T11:37 | 2675 | 719 | 288 | 10 | ||
| 2025-11-01T11:38 | 2704 | 716 | -3.1 | -7.4 | ||
| 2025-11-01T11:38 | 3020 | 688 | 277 | 12 | ||
| 2025-11-01T11:39 | 3216 | 671 | -7.8 | -9.7 | ||
| 2025-11-01T11:39 | 3286 | 665 | -7.3 | -10.6 | 272 | 14 |
| 2025-11-01T11:40 | 3630 | 636 | 275 | 15 | ||
| 2025-11-01T11:40 | 3692 | 631 | -10.6 | -12.9 | ||
| 2025-11-01T11:41 | 3850 | 618 | -11.2 | -14.9 | ||
| 2025-11-01T11:41 | 3963 | 609 | 279 | 14 | ||
| 2025-11-01T11:41 | 4009 | 605 | -12.6 | -16.3 | ||
| 2025-11-01T11:41 | 4044 | 603 | -12.2 | -18.6 | ||
| 2025-11-01T11:42 | 4245 | 587 | -12.9 | -22.1 | ||
| 2025-11-01T11:42 | 4250 | 587 | 281 | 15 | ||
| 2025-11-01T11:43 | 4374 | 577 | 270 | 16 | ||
| 2025-11-01T11:43 | 4564 | 563 | -15.3 | -23.6 | ||
| 2025-11-01T11:43 | 4595 | 561 | 271 | 16 | ||
| 2025-11-01T11:44 | 4728 | 551 | 273 | 10 | ||
| 2025-11-01T11:44 | 4734 | 550 | -15.9 | -28.2 | ||
| 2025-11-01T11:44 | 4889 | 539 | 273 | 10 | ||
| 2025-11-01T11:45 | 5010 | 530 | 276 | 9 | ||
| 2025-11-01T11:45 | 5140 | 521 | -19.7 | -27.7 | ||
| 2025-11-01T11:45 | 5222 | 516 | -20.3 | -29.2 | ||
| 2025-11-01T11:46 | 5424 | 502 | 287 | 13 | ||
| 2025-11-01T11:47 | 5847 | 473 | -25.1 | -34.3 | ||
| 2025-11-01T11:47 | 5861 | 472 | 261 | 13 | ||
| 2025-11-01T11:47 | 6117 | 456 | 261 | 15 | ||
| 2025-11-01T11:47 | 6210 | 450 | -28.5 | -34.7 | ||
| 2025-11-01T11:48 | 6324 | 443 | -29.4 | -36.0 | ||
| 2025-11-01T11:48 | 6395 | 438 | 251 | 15 | ||
| 2025-11-01T11:49 | 6669 | 422 | -32.5 | -36.1 | ||
| 2025-11-01T11:49 | 6753 | 417 | 255 | 17 | ||
| 2025-11-01T11:49 | 6781 | 415 | -33.4 | -37.9 | ||
| 2025-11-01T11:50 | 7098 | 397 | 254 | 17 | ||
| 2025-11-01T11:50 | 7197 | 391 | -37.3 | -40.1 | ||
| 2025-11-01T11:50 | 7452 | 377 | -39.7 | -41.5 | ||
| 2025-11-01T11:51 | 7495 | 375 | -40.0 | -42.6 | 253 | 21 |
| 2025-11-01T11:51 | 7785 | 359 | 246 | 23 | ||
| 2025-11-01T11:52 | 8153 | 340 | 246 | 23 | ||
| 2025-11-01T11:53 | 8324 | 331 | 248 | 26 | ||
| 2025-11-01T11:53 | 8535 | 321 | -49.5 | |||
| 2025-11-01T11:54 | 8608 | 317 | 243 | 22 | ||
| 2025-11-01T11:54 | 8769 | 309 | -51.3 | |||
| 2025-11-01T11:54 | 8902 | 303 | 237 | 23 | ||
| 2025-11-01T11:55 | 8953 | 301 | -52.1 | |||
| 2025-11-01T11:55 | 9126 | 293 | 238 | 29 | ||
| 2025-11-01T11:55 | 9160 | 291 | -51.8 | |||
| 2025-11-01T11:55 | 9266 | 287 | 240 | 25 | ||
| 2025-11-01T11:56 | 9435 | 279 | -51.8 | |||
| 2025-11-01T11:56 | 9529 | 275 | -50.2 | |||
| 2025-11-01T11:56 | 9546 | 274 | 223 | 27 | ||
| 2025-11-01T11:57 | 9725 | 267 | 236 | 27 | ||
| 2025-11-01T11:57 | 9950 | 258 | -51.3 | |||
| 2025-11-01T11:58 | 10050 | 254 | -49.5 | |||
| 2025-11-01T11:58 | 10094 | 252 | 230 | 30 | ||
| 2025-11-01T11:58 | 10282 | 245 | -50.7 | |||
| 2025-11-01T11:59 | 10485 | 238 | 236 | 34 | ||
| 2025-11-01T11:59 | 10585 | 234 | -50.2 | |||
| 2025-11-01T11:59 | 10701 | 230 | 236 | 31 | ||
| 2025-11-01T12:00 | 11097 | 216 | 235 | 39 | ||
| 2025-11-01T12:01 | 11433 | 206 | -50.5 | |||
| 2025-11-01T12:01 | 11444 | 205 | 242 | 32 | ||
| 2025-11-01T12:02 | 11692 | 197 | -51.6 | |||
| 2025-11-01T12:02 | 11802 | 194 | 232 | 35 | ||
| 2025-11-01T12:03 | 12089 | 186 | -50.7 | |||
| 2025-11-01T12:03 | 12160 | 184 | 232 | 39 | ||
| 2025-11-01T12:04 | 12262 | 181 | -50.5 | |||
| 2025-11-01T12:04 | 12524 | 174 | 232 | 41 | ||
| 2025-11-01T12:04 | 12568 | 173 | -50.5 | |||
| 2025-11-01T12:05 | 12812 | 166 | -51.5 | |||
| 2025-11-01T12:05 | 12892 | 164 | 231 | 42 | ||
| 2025-11-01T12:06 | 13097 | 159 | -52.6 | |||
| 2025-11-01T12:06 | 13249 | 155 | 235 | 43 | ||
| 2025-11-01T12:07 | 13561 | 148 | 239 | 41 | ||
| 2025-11-01T12:08 | 13647 | 146 | -52.3 | |||
| 2025-11-01T12:08 | 13850 | 142 | 235 | 34 | ||
| 2025-11-01T12:09 | 14171 | 135 | 231 | 33 | ||
| 2025-11-01T12:10 | 14339 | 131 | -52.4 | |||
| 2025-11-01T12:10 | 14529 | 127 | 240 | 34 | ||
| 2025-11-01T12:10 | 14580 | 126 | -53.2 | |||
| 2025-11-01T12:11 | 14801 | 122 | 236 | 28 | ||
| 2025-11-01T12:12 | 15159 | 115 | 227 | 31 | ||
| 2025-11-01T12:12 | 15299 | 113 | -54.9 | |||
| 2025-11-01T12:12 | 15345 | 112 | 233 | 31 | ||
| 2025-11-01T12:13 | 15498 | 110 | -54.9 | |||
| 2025-11-01T12:13 | 15650 | 107 | 242 | 22 | ||
| 2025-11-01T12:14 | 15768 | 105 | -55.5 | |||
| 2025-11-01T12:14 | 15994 | 101 | 231 | 32 | ||
| 2025-11-01T12:15 | 16040 | 101 | -56.2 | |||
| 2025-11-01T12:15 | 16191 | 98 | -55.9 | |||
| 2025-11-01T12:15 | 16302 | 97 | 226 | 32 | ||
| 2025-11-01T12:16 | 16527 | 93 | 225 | 32 | ||
| 2025-11-01T12:16 | 16575 | 92 | -57.4 | |||
| 2025-11-01T12:17 | 16863 | 88 | 233 | 32 | ||
| 2025-11-01T12:17 | 16985 | 87 | -55.8 | |||
| 2025-11-01T12:18 | 17202 | 84 | 227 | 33 | ||
| 2025-11-01T12:19 | 17544 | 79 | -55.9 | |||
| 2025-11-01T12:19 | 17553 | 79 | 220 | 34 | ||
| 2025-11-01T12:19 | 17738 | 77 | -54.5 | |||
| 2025-11-01T12:20 | 17916 | 75 | 218 | 39 | ||
| 2025-11-01T12:21 | 18257 | 71 | 230 | 36 | ||
| 2025-11-01T12:21 | 18302 | 70 | -55.9 | |||
| 2025-11-01T12:22 | 18639 | 67 | 235 | 29 | ||
| 2025-11-01T12:22 | 18852 | 65 | -53.2 | |||
| 2025-11-01T12:23 | 19066 | 63 | 238 | 26 | ||
| 2025-11-01T12:23 | 19180 | 61 | -52.7 | |||
| 2025-11-01T12:23 | 19266 | 61 | 239 | 27 | ||
| 2025-11-01T12:23 | 19339 | 60 | -51.8 | |||
| 2025-11-01T12:24 | 19671 | 57 | 235 | 35 | ||
| 2025-11-01T12:25 | 19796 | 56 | -53.0 | |||
| 2025-11-01T12:25 | 20090 | 53 | 236 | 34 | ||
| 2025-11-01T12:26 | 20268 | 52 | -55.2 | 239 | 33 | |
| 2025-11-01T23:30 | 18 | 1001 | 5.8 | 4.3 | 10 | 1 |
| 2025-11-01T23:30 | 23 | 1001 | 5.7 | 3.9 | 0 | 0 |
| 2025-11-01T23:30 | 107 | 990 | 4.5 | 3.0 | ||
| 2025-11-01T23:31 | 268 | 971 | 3.7 | 2.4 | ||
| 2025-11-01T23:31 | 354 | 961 | 37 | 3 | ||
| 2025-11-01T23:31 | 490 | 945 | 2.1 | 1.5 | ||
| 2025-11-01T23:32 | 525 | 940 | 271 | 3 | ||
| 2025-11-01T23:32 | 599 | 932 | 3.2 | 2.3 | ||
| 2025-11-01T23:32 | 708 | 920 | 217 | 1 | ||
| 2025-11-01T23:32 | 753 | 914 | 3.4 | 2.8 | ||
| 2025-11-01T23:32 | 803 | 909 | 4.1 | 3.2 | ||
| 2025-11-01T23:33 | 1035 | 883 | 268 | 3 | ||
| 2025-11-01T23:33 | 1142 | 872 | 245 | 1 | ||
| 2025-11-01T23:33 | 1174 | 868 | 1.7 | 1.4 | ||
| 2025-11-01T23:34 | 1305 | 854 | 220 | 4 | ||
| 2025-11-01T23:34 | 1386 | 846 | 206 | 6 | ||
| 2025-11-01T23:35 | 1546 | 829 | 0.2 | -0.4 | ||
| 2025-11-01T23:35 | 1648 | 819 | 241 | 8 | ||
| 2025-11-01T23:36 | 1814 | 802 | 243 | 10 | ||
| 2025-11-01T23:36 | 1925 | 791 | -2.3 | -2.9 | ||
| 2025-11-01T23:36 | 1952 | 788 | 252 | 8 | ||
| 2025-11-01T23:36 | 1957 | 787 | -2.3 | -2.7 | ||
| 2025-11-01T23:37 | 2289 | 755 | 280 | 8 | ||
| 2025-11-01T23:38 | 2502 | 735 | -6.0 | -7.5 | ||
| 2025-11-01T23:38 | 2597 | 726 | -6.9 | -11.6 | ||
| 2025-11-01T23:38 | 2618 | 724 | 271 | 7 | ||
| 2025-11-01T23:38 | 2639 | 722 | -7.2 | -13.6 | ||
| 2025-11-01T23:38 | 2681 | 718 | -7.6 | -17.8 | ||
| 2025-11-01T23:39 | 2772 | 710 | -7.2 | -16.1 | ||
| 2025-11-01T23:39 | 2901 | 698 | -7.5 | -16.4 | ||
| 2025-11-01T23:39 | 2946 | 694 | 269 | 8 | ||
| 2025-11-01T23:39 | 2980 | 691 | -7.9 | -14.1 | ||
| 2025-11-01T23:39 | 3094 | 681 | -8.4 | -16.7 | ||
| 2025-11-01T23:40 | 3166 | 675 | -8.8 | -18.3 | ||
| 2025-11-01T23:40 | 3211 | 671 | -8.1 | -19.0 | ||
| 2025-11-01T23:40 | 3285 | 664 | 250 | 8 | ||
| 2025-11-01T23:40 | 3432 | 652 | -9.7 | -19.4 | ||
| 2025-11-01T23:41 | 3541 | 643 | -10.3 | -19.7 | ||
| 2025-11-01T23:41 | 3559 | 641 | 246 | 13 | ||
| 2025-11-01T23:42 | 3886 | 614 | -13.3 | -22.5 | ||
| 2025-11-01T23:42 | 3909 | 613 | 230 | 15 | ||
| 2025-11-01T23:42 | 4047 | 602 | -14.5 | -24.6 | ||
| 2025-11-01T23:42 | 4099 | 597 | -14.8 | -25.7 | ||
| 2025-11-01T23:43 | 4252 | 585 | 232 | 20 | ||
| 2025-11-01T23:43 | 4258 | 585 | -15.8 | -23.4 | ||
| 2025-11-01T23:44 | 4593 | 559 | 239 | 15 | ||
| 2025-11-01T23:44 | 4657 | 555 | -18.8 | -27.3 | ||
| 2025-11-01T23:45 | 4939 | 534 | 237 | 15 | ||
| 2025-11-01T23:45 | 4980 | 531 | -21.7 | -28.3 | ||
| 2025-11-01T23:45 | 5063 | 525 | -22.4 | -31.1 | ||
| 2025-11-01T23:45 | 5177 | 517 | -23.3 | -34.0 | ||
| 2025-11-01T23:46 | 5294 | 509 | 237 | 15 | ||
| 2025-11-01T23:47 | 5593 | 488 | 243 | 18 | ||
| 2025-11-01T23:48 | 5941 | 465 | 241 | 22 | ||
| 2025-11-01T23:49 | 6299 | 442 | 242 | 28 | ||
| 2025-11-01T23:49 | 6525 | 428 | -33.8 | -49.0 | ||
| 2025-11-01T23:50 | 6625 | 422 | 234 | 35 | ||
| 2025-11-01T23:50 | 6857 | 408 | -36.3 | -50.4 | ||
| 2025-11-01T23:51 | 6934 | 404 | 233 | 36 | ||
| 2025-11-01T23:52 | 7237 | 386 | 233 | 38 | ||
| 2025-11-01T23:52 | 7363 | 379 | -39.8 | -56.6 | ||
| 2025-11-01T23:52 | 7409 | 377 | -40.0 | -57.3 | ||
| 2025-11-01T23:53 | 7548 | 369 | 239 | 41 | ||
| 2025-11-01T23:54 | 7889 | 351 | 232 | 42 | ||
| 2025-11-01T23:54 | 8007 | 345 | -43.9 | |||
| 2025-11-01T23:54 | 8165 | 337 | 231 | 44 | ||
| 2025-11-01T23:54 | 8178 | 336 | -44.2 | |||
| 2025-11-01T23:55 | 8242 | 333 | -43.7 | |||
| 2025-11-01T23:55 | 8262 | 332 | 231 | 46 | ||
| 2025-11-01T23:56 | 8667 | 313 | -44.4 | 227 | 44 | |
| 2025-11-01T23:56 | 8849 | 304 | -45.6 | |||
| 2025-11-01T23:56 | 8972 | 299 | 222 | 45 | ||
| 2025-11-01T23:57 | 9149 | 291 | 226 | 49 | ||
| 2025-11-01T23:57 | 9358 | 282 | -47.3 | |||
| 2025-11-01T23:58 | 9453 | 278 | 231 | 46 | ||
| 2025-11-01T23:58 | 9578 | 273 | -46.6 | |||
| 2025-11-01T23:59 | 9824 | 263 | 228 | 44 | ||
| 2025-11-01T23:59 | 9964 | 257 | -48.5 | |||
| 2025-11-01T23:59 | 10079 | 253 | 224 | 46 | ||
| 2025-11-02T00:00 | 10281 | 245 | 228 | 46 | ||
| 2025-11-02T00:00 | 10413 | 240 | -50.2 | |||
| 2025-11-02T00:00 | 10439 | 239 | 229 | 48 | ||
| 2025-11-02T00:01 | 10619 | 233 | -50.8 | |||
| 2025-11-02T00:01 | 10737 | 228 | 226 | 53 | ||
| 2025-11-02T00:01 | 10795 | 226 | -51.7 | |||
| 2025-11-02T00:02 | 10918 | 222 | 230 | 52 | ||
| 2025-11-02T00:02 | 10988 | 220 | -52.1 | |||
| 2025-11-02T00:03 | 11278 | 210 | 234 | 46 | ||
| 2025-11-02T00:03 | 11290 | 210 | -52.7 | |||
| 2025-11-02T00:04 | 11569 | 201 | 232 | 48 | ||
| 2025-11-02T00:04 | 11756 | 195 | -54.1 | |||
| 2025-11-02T00:04 | 11853 | 192 | 237 | 48 | ||
| 2025-11-02T00:05 | 11893 | 191 | -54.2 | |||
| 2025-11-02T00:05 | 12027 | 187 | 239 | 46 | ||
| 2025-11-02T00:05 | 12060 | 186 | -54.6 | |||
| 2025-11-02T00:05 | 12134 | 184 | -53.1 | |||
| 2025-11-02T00:06 | 12336 | 178 | 232 | 43 | ||
| 2025-11-02T00:06 | 12443 | 175 | -54.6 | |||
| 2025-11-02T00:07 | 12687 | 169 | 237 | 42 | ||
| 2025-11-02T00:08 | 12953 | 162 | -55.3 | |||
| 2025-11-02T00:08 | 13070 | 159 | 235 | 44 | ||
| 2025-11-02T00:08 | 13191 | 156 | -55.3 | |||
| 2025-11-02T00:09 | 13328 | 153 | -55.8 | |||
| 2025-11-02T00:09 | 13455 | 150 | 236 | 44 | ||
| 2025-11-02T00:10 | 13763 | 142 | 229 | 46 | ||
| 2025-11-02T00:10 | 13850 | 141 | -56.6 | |||
| 2025-11-02T00:10 | 13928 | 139 | 235 | 49 | ||
| 2025-11-02T00:11 | 14151 | 134 | -55.4 | |||
| 2025-11-02T00:11 | 14233 | 132 | 236 | 53 | ||
| 2025-11-02T00:12 | 14522 | 126 | -54.2 | |||
| 2025-11-02T00:12 | 14622 | 124 | 235 | 51 | ||
| 2025-11-02T00:13 | 14886 | 119 | -53.2 | |||
| 2025-11-02T00:13 | 15074 | 116 | 253 | 47 | ||
| 2025-11-02T00:14 | 15226 | 113 | -53.8 | |||
| 2025-11-02T00:14 | 15391 | 110 | -52.1 | |||
| 2025-11-02T00:14 | 15416 | 110 | 254 | 41 | ||
| 2025-11-02T00:15 | 15480 | 109 | -51.3 | |||
| 2025-11-02T00:15 | 15541 | 108 | 249 | 41 | ||
| 2025-11-02T00:15 | 15589 | 107 | -50.5 | |||
| 2025-11-02T00:15 | 15657 | 106 | 248 | 36 | ||
| 2025-11-02T00:15 | 15701 | 105 | -48.7 | |||
| 2025-11-02T00:16 | 15771 | 104 | 249 | 38 | ||
| 2025-11-02T00:16 | 15779 | 104 | -48.5 | |||
| 2025-11-02T00:16 | 15860 | 103 | -47.1 | |||
| 2025-11-02T00:16 | 15912 | 102 | 247 | 32 | ||
| 2025-11-02T00:16 | 16107 | 99 | -47.6 | |||
| 2025-11-02T00:16 | 16143 | 99 | 247 | 21 | ||
| 2025-11-02T00:17 | 16506 | 93 | 207 | 12 | ||
| 2025-11-02T00:18 | 16788 | 89 | -51.9 | |||
| 2025-11-02T00:18 | 16796 | 89 | 199 | 14 | ||
| 2025-11-02T00:18 | 17017 | 86 | -52.0 | |||
| 2025-11-02T00:18 | 17054 | 86 | 216 | 20 | ||
| 2025-11-02T00:19 | 17453 | 80 | -55.4 | |||
| 2025-11-02T00:19 | 17470 | 80 | 229 | 23 | ||
| 2025-11-02T00:19 | 17587 | 79 | -53.4 | |||
| 2025-11-02T00:20 | 17826 | 76 | 203 | 28 | ||
| 2025-11-02T00:20 | 17981 | 74 | 202 | 28 | ||
| 2025-11-02T00:21 | 18169 | 72 | 200 | 31 | ||
| 2025-11-02T00:21 | 18313 | 70 | -58.1 | |||
| 2025-11-02T00:22 | 18585 | 67 | 222 | 32 | ||
| 2025-11-02T00:23 | 18935 | 64 | 234 | 35 | ||
| 2025-11-02T00:23 | 18970 | 63 | -58.3 | |||
| 2025-11-02T00:24 | 19238 | 61 | 248 | 31 | ||
| 2025-11-02T00:24 | 19269 | 60 | -56.9 | |||
| 2025-11-02T00:24 | 19374 | 59 | -56.3 | |||
| 2025-11-02T00:25 | 19593 | 57 | 238 | 27 | ||
| 2025-11-02T00:25 | 19956 | 54 | -56.1 | |||
| 2025-11-02T00:25 | 19990 | 54 | 232 | 33 | ||
| 2025-11-02T00:26 | 20078 | 53 | -51.5 | |||
| 2025-11-02T00:26 | 20262 | 52 | -51.2 | |||
| 2025-11-02T00:26 | 20338 | 51 | -49.9 | 239 | 39 | |
| 2025-11-02T00:27 | 20518 | 50 | -50.0 | 242 | 36 | |
| 2025-11-02T00:27 | 20653 | 49 | 243 | 36 | ||
| 2025-11-02T00:28 | 20845 | 47 | -45.4 | 231 | 26 | |
| 2025-11-02T00:28 | 21092 | 46 | 218 | 24 | ||
| 2025-11-02T00:29 | 21253 | 45 | -46.3 | |||
| 2025-11-02T00:29 | 21512 | 43 | 212 | 26 | ||
| 2025-11-02T00:30 | 21702 | 42 | 202 | 23 | ||
| 2025-11-02T00:31 | 22154 | 39 | 204 | 25 | ||
| 2025-11-02T00:32 | 22496 | 37 | 221 | 25 | ||
| 2025-11-02T00:33 | 22875 | 35 | 241 | 25 | ||
| 2025-11-02T00:33 | 22948 | 34 | -54.1 | |||
| 2025-11-02T00:33 | 23196 | 33 | 247 | 21 | ||
| 2025-11-02T00:34 | 23414 | 32 | -53.0 | |||
| 2025-11-02T00:34 | 23453 | 32 | 250 | 21 | ||
| 2025-11-02T00:35 | 23748 | 30 | -51.2 | |||
| 2025-11-02T00:35 | 23855 | 30 | 239 | 30 | ||
| 2025-11-02T00:35 | 23932 | 30 | -52.5 | 239 | 31 | |
| 2025-11-02T11:30 | 18 | 1010 | 8.1 | 3.7 | 320 | 2 |
| 2025-11-02T11:30 | 22 | 1010 | 8.1 | 3.4 | 0 | 0 |
| 2025-11-02T11:30 | 98 | 1000 | 312 | 3 | ||
| 2025-11-02T11:31 | 210 | 987 | 318 | 5 | ||
| 2025-11-02T11:32 | 535 | 948 | 319 | 7 | ||
| 2025-11-02T11:32 | 761 | 922 | 1.7 | 0.1 | ||
| 2025-11-02T11:33 | 884 | 908 | 312 | 8 | ||
| 2025-11-02T11:33 | 952 | 901 | 0.2 | -1.7 | ||
| 2025-11-02T11:33 | 1002 | 895 | 332 | 6 | ||
| 2025-11-02T11:33 | 1029 | 892 | 1.1 | -7.9 | ||
| 2025-11-02T11:34 | 1225 | 871 | 14 | 7 | ||
| 2025-11-02T11:34 | 1241 | 869 | 0.2 | -10.9 | ||
| 2025-11-02T11:34 | 1333 | 859 | 2 | 6 | ||
| 2025-11-02T11:34 | 1447 | 847 | 353 | 8 | ||
| 2025-11-02T11:35 | 1555 | 835 | -2.7 | -9.6 | ||
| 2025-11-02T11:35 | 1725 | 818 | 348 | 2 | ||
| 2025-11-02T11:35 | 1785 | 811 | -4.0 | -10.2 | ||
| 2025-11-02T11:36 | 1855 | 804 | 216 | 3 | ||
| 2025-11-02T11:36 | 1934 | 796 | 260 | 3 | ||
| 2025-11-02T11:36 | 1995 | 790 | 300 | 3 | ||
| 2025-11-02T11:36 | 2010 | 789 | -5.3 | -12.5 | ||
| 2025-11-02T11:37 | 2221 | 767 | 299 | 4 | ||
| 2025-11-02T11:37 | 2349 | 755 | 308 | 5 | ||
| 2025-11-02T11:38 | 2655 | 726 | 309 | 6 | ||
| 2025-11-02T11:39 | 2785 | 713 | -11.5 | -15.0 | ||
| 2025-11-02T11:39 | 2832 | 709 | 281 | 5 | ||
| 2025-11-02T11:39 | 2921 | 701 | 271 | 6 | ||
| 2025-11-02T11:40 | 3087 | 686 | 287 | 7 | ||
| 2025-11-02T11:40 | 3134 | 682 | -13.1 | -16.8 | ||
| 2025-11-02T11:40 | 3172 | 678 | -12.5 | -15.9 | ||
| 2025-11-02T11:40 | 3205 | 675 | 246 | 3 | ||
| 2025-11-02T11:40 | 3303 | 667 | -13.0 | -16.0 | ||
| 2025-11-02T11:40 | 3314 | 666 | 235 | 3 | ||
| 2025-11-02T11:41 | 3445 | 654 | 267 | 7 | ||
| 2025-11-02T11:42 | 3786 | 626 | 284 | 10 | ||
| 2025-11-02T11:42 | 3938 | 613 | 263 | 9 | ||
| 2025-11-02T11:43 | 4199 | 592 | 261 | 12 | ||
| 2025-11-02T11:43 | 4257 | 587 | -20.0 | -22.6 | ||
| 2025-11-02T11:44 | 4547 | 565 | 240 | 16 | ||
| 2025-11-02T11:45 | 4908 | 538 | 221 | 21 | ||
| 2025-11-02T11:45 | 4969 | 533 | -24.6 | -27.2 | ||
| 2025-11-02T11:46 | 5281 | 511 | 210 | 19 | ||
| 2025-11-02T11:47 | 5678 | 483 | 209 | 17 | ||
| 2025-11-02T11:48 | 6076 | 456 | 211 | 16 | ||
| 2025-11-02T11:48 | 6262 | 444 | -35.8 | -38.3 | ||
| 2025-11-02T11:48 | 6328 | 440 | 197 | 22 | ||
| 2025-11-02T11:49 | 6523 | 428 | 206 | 22 | ||
| 2025-11-02T11:49 | 6660 | 419 | 214 | 24 | ||
| 2025-11-02T11:49 | 6718 | 416 | -40.0 | -43.2 | ||
| 2025-11-02T11:50 | 7029 | 397 | 219 | 23 | ||
| 2025-11-02T11:51 | 7111 | 392 | -43.3 | |||
| 2025-11-02T11:51 | 7339 | 379 | 214 | 25 | ||
| 2025-11-02T11:51 | 7358 | 378 | -44.6 | |||
| 2025-11-02T11:52 | 7681 | 360 | -46.6 | |||
| 2025-11-02T11:52 | 7687 | 360 | 220 | 35 | ||
| 2025-11-02T11:53 | 7915 | 348 | -46.9 | |||
| 2025-11-02T11:53 | 8000 | 343 | 223 | 39 | ||
| 2025-11-02T11:54 | 8253 | 330 | -47.5 | |||
| 2025-11-02T11:54 | 8273 | 329 | 220 | 44 | ||
| 2025-11-02T11:55 | 8679 | 310 | 227 | 47 | ||
| 2025-11-02T11:55 | 8686 | 309 | -48.5 | |||
| 2025-11-02T11:55 | 8772 | 305 | -48.2 | |||
| 2025-11-02T11:55 | 8958 | 297 | -48.8 | |||
| 2025-11-02T11:56 | 9100 | 291 | 222 | 52 | ||
| 2025-11-02T11:56 | 9332 | 280 | -49.1 | |||
| 2025-11-02T11:57 | 9507 | 273 | 230 | 49 | ||
| 2025-11-02T11:57 | 9542 | 272 | -47.5 | |||
| 2025-11-02T11:58 | 9924 | 256 | 225 | 49 | ||
| 2025-11-02T11:58 | 9980 | 254 | -46.3 | |||
| 2025-11-02T11:58 | 10165 | 247 | -46.9 | |||
| 2025-11-02T11:58 | 10231 | 245 | 226 | 57 | ||
| 2025-11-02T11:59 | 10626 | 231 | 229 | 58 | ||
| 2025-11-02T12:00 | 10686 | 229 | -47.8 | |||
| 2025-11-02T12:00 | 10927 | 220 | 234 | 53 | ||
| 2025-11-02T12:00 | 11014 | 218 | -46.2 | |||
| 2025-11-02T12:01 | 11121 | 214 | -45.5 | |||
| 2025-11-02T12:01 | 11236 | 210 | 232 | 47 | ||
| 2025-11-02T12:02 | 11581 | 200 | 231 | 46 | ||
| 2025-11-02T12:03 | 11781 | 194 | -46.9 | |||
| 2025-11-02T12:03 | 11928 | 190 | 230 | 51 | ||
| 2025-11-02T12:04 | 12103 | 185 | -49.4 | |||
| 2025-11-02T12:04 | 12298 | 179 | 233 | 45 | ||
| 2025-11-02T12:05 | 12461 | 175 | -50.6 | |||
| 2025-11-02T12:05 | 12542 | 173 | 236 | 46 | ||
| 2025-11-02T12:05 | 12682 | 169 | -50.4 | |||
| 2025-11-02T12:06 | 12879 | 164 | 229 | 46 | ||
| 2025-11-02T12:07 | 13222 | 155 | -52.4 | 235 | 45 | |
| 2025-11-02T12:07 | 13356 | 152 | -51.6 | |||
| 2025-11-02T12:08 | 13560 | 148 | 232 | 42 | ||
| 2025-11-02T12:08 | 13751 | 143 | 231 | 43 | ||
| 2025-11-02T12:09 | 14112 | 135 | 228 | 39 | ||
| 2025-11-02T12:09 | 14143 | 135 | -53.5 | |||
| 2025-11-02T12:10 | 14475 | 128 | 237 | 40 | ||
| 2025-11-02T12:11 | 14536 | 127 | -52.8 | |||
| 2025-11-02T12:11 | 14836 | 121 | 236 | 41 | ||
| 2025-11-02T12:12 | 14953 | 119 | -53.8 | |||
| 2025-11-02T12:12 | 15101 | 116 | 238 | 41 | ||
| 2025-11-02T12:13 | 15361 | 112 | -54.8 | |||
| 2025-11-02T12:13 | 15451 | 110 | 238 | 36 | ||
| 2025-11-02T12:14 | 15611 | 107 | -54.1 | |||
| 2025-11-02T12:14 | 15822 | 104 | 249 | 37 | ||
| 2025-11-02T12:14 | 15841 | 104 | -53.8 | |||
| 2025-11-02T12:15 | 16204 | 98 | 252 | 29 | ||
| 2025-11-02T12:15 | 16328 | 96 | -54.9 | |||
| 2025-11-02T12:16 | 16410 | 95 | 243 | 28 | ||
| 2025-11-02T12:16 | 16635 | 91 | 235 | 28 | ||
| 2025-11-02T12:17 | 16930 | 87 | -54.4 | |||
| 2025-11-02T12:17 | 17019 | 86 | 228 | 34 | ||
| 2025-11-02T12:18 | 17122 | 85 | -54.9 | |||
| 2025-11-02T12:18 | 17243 | 83 | 231 | 30 | ||
| 2025-11-02T12:18 | 17423 | 81 | 233 | 26 | ||
| 2025-11-02T12:19 | 17625 | 78 | -56.7 | |||
| 2025-11-02T12:19 | 17789 | 76 | 244 | 35 | ||
| 2025-11-02T12:20 | 17896 | 75 | -56.8 | |||
| 2025-11-02T12:20 | 18016 | 74 | 247 | 34 | ||
| 2025-11-02T12:21 | 18235 | 71 | -55.0 | |||
| 2025-11-02T12:21 | 18347 | 70 | -54.2 | |||
| 2025-11-02T12:21 | 18391 | 69 | 235 | 25 | ||
| 2025-11-02T12:22 | 18616 | 67 | -54.0 | |||
| 2025-11-02T12:22 | 18773 | 65 | 229 | 28 | ||
| 2025-11-02T12:22 | 18901 | 64 | -55.5 | |||
| 2025-11-02T12:23 | 19031 | 63 | -54.5 | 221 | 34 | |
| 2025-11-02T12:23 | 19250 | 61 | -54.7 | |||
| 2025-11-02T12:24 | 19270 | 61 | 227 | 32 | ||
| 2025-11-02T12:24 | 19399 | 59 | -54.2 | |||
| 2025-11-02T12:25 | 19577 | 58 | 235 | 28 | ||
| 2025-11-02T12:25 | 19708 | 57 | -52.8 | |||
| 2025-11-02T12:25 | 19814 | 56 | 225 | 28 | ||
| 2025-11-02T12:25 | 19839 | 55 | -51.8 | |||
| 2025-11-02T12:26 | 20208 | 52 | 221 | 32 | ||
| 2025-11-02T12:27 | 20343 | 51 | -54.5 | |||
| 2025-11-02T12:27 | 20573 | 49 | 234 | 31 | ||
| 2025-11-02T12:28 | 20731 | 48 | -50.8 | |||
| 2025-11-02T12:28 | 20926 | 47 | 239 | 27 | ||
| 2025-11-02T12:29 | 21066 | 46 | -51.0 | |||
| 2025-11-02T12:29 | 21311 | 44 | 233 | 27 | ||
| 2025-11-02T12:30 | 21433 | 43 | -49.0 | |||
| 2025-11-02T12:30 | 21755 | 41 | 234 | 27 | ||
| 2025-11-02T12:31 | 21901 | 40 | -50.2 | |||
| 2025-11-02T12:31 | 22148 | 39 | 233 | 20 | ||
| 2025-11-02T12:32 | 22422 | 37 | -51.2 | |||
| 2025-11-02T12:32 | 22472 | 37 | 227 | 21 | ||
| 2025-11-02T12:32 | 22617 | 36 | 229 | 26 | ||
| 2025-11-02T12:33 | 22876 | 35 | -49.7 | |||
| 2025-11-02T12:33 | 23026 | 34 | 216 | 20 | ||
| 2025-11-02T12:34 | 23444 | 32 | 212 | 23 | ||
| 2025-11-02T12:35 | 23706 | 31 | -54.9 | |||
| 2025-11-02T12:35 | 23836 | 30 | 230 | 25 | ||
| 2025-11-02T12:36 | 24278 | 28 | 256 | 24 | ||
| 2025-11-02T12:37 | 24584 | 27 | -54.5 | |||
| 2025-11-02T12:37 | 24607 | 27 | 248 | 24 | ||
| 2025-11-02T12:37 | 24728 | 26 | -52.2 | |||
| 2025-11-02T12:38 | 24887 | 25 | -53.4 | 247 | 23 | |
| 2025-11-02T23:30 | 18 | 1017 | 6.0 | 0.9 | 350 | 1 |
| 2025-11-02T23:30 | 22 | 1016 | 6.4 | 0.7 | 0 | 0 |
| 2025-11-02T23:31 | 312 | 981 | 355 | 3 | ||
| 2025-11-02T23:31 | 341 | 977 | 2.8 | -1.6 | ||
| 2025-11-02T23:31 | 437 | 966 | 17 | 4 | ||
| 2025-11-02T23:32 | 534 | 954 | 1.7 | -2.8 | ||
| 2025-11-02T23:32 | 588 | 948 | 4 | 7 | ||
| 2025-11-02T23:32 | 783 | 925 | -0.4 | -0.8 | ||
| 2025-11-02T23:32 | 789 | 924 | 343 | 6 | ||
| 2025-11-02T23:33 | 1145 | 884 | 329 | 7 | ||
| 2025-11-02T23:33 | 1199 | 878 | -3.6 | -4.7 | ||
| 2025-11-02T23:34 | 1491 | 846 | 359 | 8 | ||
| 2025-11-02T23:34 | 1546 | 840 | -5.6 | -10.8 | ||
| 2025-11-02T23:35 | 1765 | 817 | -7.1 | -12.2 | ||
| 2025-11-02T23:35 | 1811 | 812 | 355 | 8 | ||
| 2025-11-02T23:35 | 1842 | 809 | -7.5 | -12.8 | ||
| 2025-11-02T23:36 | 1920 | 801 | -7.7 | -14.3 | ||
| 2025-11-02T23:36 | 1972 | 795 | 355 | 10 | ||
| 2025-11-02T23:36 | 2013 | 791 | -7.8 | -12.5 | ||
| 2025-11-02T23:36 | 2110 | 781 | -6.9 | -15.3 | ||
| 2025-11-02T23:36 | 2154 | 777 | -6.0 | -18.7 | ||
| 2025-11-02T23:37 | 2298 | 763 | 336 | 8 | ||
| 2025-11-02T23:37 | 2446 | 748 | -7.8 | -23.2 | ||
| 2025-11-02T23:38 | 2599 | 734 | 325 | 4 | ||
| 2025-11-02T23:38 | 2794 | 715 | 307 | 2 | ||
| 2025-11-02T23:39 | 2932 | 703 | -11.7 | -27.8 | ||
| 2025-11-02T23:39 | 2960 | 700 | 268 | 3 | ||
| 2025-11-02T23:39 | 3219 | 677 | 257 | 4 | ||
| 2025-11-02T23:40 | 3306 | 669 | -14.1 | -35.9 | ||
| 2025-11-02T23:40 | 3463 | 655 | 267 | 11 | ||
| 2025-11-02T23:40 | 3475 | 654 | -15.0 | -39.0 | ||
| 2025-11-02T23:41 | 3800 | 627 | 260 | 10 | ||
| 2025-11-02T23:41 | 3862 | 622 | -17.6 | -39.5 | ||
| 2025-11-02T23:42 | 4134 | 599 | 258 | 11 | ||
| 2025-11-02T23:42 | 4269 | 588 | -21.4 | -38.0 | ||
| 2025-11-02T23:43 | 4364 | 581 | -22.1 | -44.7 | ||
| 2025-11-02T23:43 | 4467 | 573 | 265 | 11 | ||
| 2025-11-02T23:44 | 4703 | 555 | 258 | 16 | ||
| 2025-11-02T23:44 | 4753 | 551 | -25.5 | -34.2 | ||
| 2025-11-02T23:44 | 4842 | 544 | 257 | 15 | ||
| 2025-11-02T23:44 | 4922 | 538 | -26.7 | -33.4 | ||
| 2025-11-02T23:45 | 5016 | 531 | 250 | 16 | ||
| 2025-11-02T23:45 | 5059 | 528 | -27.5 | -36.5 | ||
| 2025-11-02T23:46 | 5398 | 503 | 255 | 20 | ||
| 2025-11-02T23:46 | 5562 | 492 | -31.9 | -42.6 | ||
| 2025-11-02T23:46 | 5587 | 490 | 252 | 21 | ||
| 2025-11-02T23:47 | 5830 | 474 | 258 | 22 | ||
| 2025-11-02T23:48 | 6114 | 455 | -36.6 | -47.1 | ||
| 2025-11-02T23:48 | 6197 | 449 | 255 | 28 | ||
| 2025-11-02T23:49 | 6446 | 433 | -39.2 | -49.2 | ||
| 2025-11-02T23:49 | 6513 | 429 | 254 | 30 | ||
| 2025-11-02T23:49 | 6538 | 428 | -40.0 | -49.6 | ||
| 2025-11-02T23:50 | 6864 | 408 | 250 | 28 | ||
| 2025-11-02T23:50 | 6876 | 407 | -42.8 | |||
| 2025-11-02T23:50 | 7011 | 399 | 245 | 25 | ||
| 2025-11-02T23:51 | 7392 | 377 | 231 | 26 | ||
| 2025-11-02T23:51 | 7469 | 372 | -47.8 | |||
| 2025-11-02T23:52 | 7634 | 363 | -48.7 | |||
| 2025-11-02T23:52 | 7657 | 362 | 230 | 26 | ||
| 2025-11-02T23:52 | 7746 | 357 | -48.1 | |||
| 2025-11-02T23:52 | 7794 | 354 | 233 | 21 | ||
| 2025-11-02T23:52 | 7886 | 349 | -47.9 | |||
| 2025-11-02T23:53 | 8001 | 343 | -47.4 | |||
| 2025-11-02T23:53 | 8091 | 339 | -47.5 | |||
| 2025-11-02T23:53 | 8173 | 334 | 238 | 26 | ||
| 2025-11-02T23:53 | 8205 | 333 | -47.5 | |||
| 2025-11-02T23:54 | 8299 | 328 | -47.1 | |||
| 2025-11-02T23:54 | 8342 | 326 | 245 | 26 | ||
| 2025-11-02T23:54 | 8442 | 321 | -46.4 | |||
| 2025-11-02T23:54 | 8563 | 315 | 248 | 24 | ||
| 2025-11-02T23:54 | 8617 | 313 | -47.2 | |||
| 2025-11-02T23:55 | 8739 | 307 | 250 | 21 | ||
| 2025-11-02T23:55 | 8746 | 307 | -46.5 | |||
| 2025-11-02T23:55 | 8841 | 302 | -45.6 | |||
| 2025-11-02T23:55 | 9026 | 294 | 253 | 21 | ||
| 2025-11-02T23:55 | 9033 | 294 | -45.7 | |||
| 2025-11-02T23:56 | 9100 | 291 | -44.3 | |||
| 2025-11-02T23:56 | 9165 | 288 | 242 | 18 | ||
| 2025-11-02T23:56 | 9343 | 281 | -44.5 | |||
| 2025-11-02T23:56 | 9437 | 277 | 248 | 25 | ||
| 2025-11-02T23:57 | 9463 | 276 | -43.7 | |||
| 2025-11-02T23:57 | 9771 | 263 | -45.4 | |||
| 2025-11-02T23:57 | 9814 | 261 | 243 | 24 | ||
| 2025-11-02T23:58 | 9956 | 256 | -45.4 | |||
| 2025-11-02T23:58 | 10171 | 248 | 241 | 23 | ||
| 2025-11-02T23:59 | 10539 | 235 | 241 | 25 | ||
| 2025-11-03T00:00 | 10926 | 221 | 243 | 26 | ||
| 2025-11-03T00:01 | 11043 | 217 | -46.3 | |||
| 2025-11-03T00:01 | 11292 | 209 | 242 | 28 | ||
| 2025-11-03T00:02 | 11618 | 199 | 243 | 27 | ||
| 2025-11-03T00:03 | 11842 | 193 | -47.3 | |||
| 2025-11-03T00:03 | 11955 | 189 | 238 | 29 | ||
| 2025-11-03T00:04 | 12139 | 184 | -48.9 | |||
| 2025-11-03T00:04 | 12279 | 180 | 237 | 28 | ||
| 2025-11-03T00:05 | 12618 | 171 | 238 | 29 | ||
| 2025-11-03T00:06 | 12795 | 167 | -51.0 | |||
| 2025-11-03T00:06 | 12969 | 162 | 236 | 31 | ||
| 2025-11-03T00:07 | 13181 | 157 | -52.2 | |||
| 2025-11-03T00:07 | 13305 | 154 | 233 | 31 | ||
| 2025-11-03T00:08 | 13646 | 146 | 243 | 32 | ||
| 2025-11-03T00:09 | 13873 | 141 | -52.2 | |||
| 2025-11-03T00:09 | 14002 | 138 | 244 | 30 | ||
| 2025-11-03T00:10 | 14337 | 131 | 238 | 30 | ||
| 2025-11-03T00:11 | 14667 | 125 | -53.0 | |||
| 2025-11-03T00:11 | 14698 | 124 | 239 | 30 | ||
| 2025-11-03T00:12 | 15073 | 117 | 245 | 29 | ||
| 2025-11-03T00:13 | 15306 | 113 | 243 | 29 | ||
| 2025-11-03T00:14 | 15688 | 106 | 245 | 31 | ||
| 2025-11-03T00:14 | 15694 | 106 | -55.1 | |||
| 2025-11-03T00:14 | 15888 | 103 | 254 | 31 | ||
| 2025-11-03T00:15 | 15955 | 102 | -54.5 | |||
| 2025-11-03T00:15 | 16036 | 101 | 253 | 28 | ||
| 2025-11-03T00:15 | 16145 | 99 | -54.5 | |||
| 2025-11-03T00:16 | 16315 | 96 | -54.7 | |||
| 2025-11-03T00:16 | 16414 | 95 | 245 | 28 | ||
| 2025-11-03T00:16 | 16565 | 93 | -55.5 | |||
| 2025-11-03T00:17 | 16724 | 90 | 245 | 33 | ||
| 2025-11-03T00:17 | 16768 | 90 | -55.7 | |||
| 2025-11-03T00:18 | 17107 | 85 | 243 | 26 | ||
| 2025-11-03T00:18 | 17159 | 84 | -55.3 | |||
| 2025-11-03T00:18 | 17348 | 82 | 256 | 27 | ||
| 2025-11-03T00:19 | 17590 | 79 | 261 | 27 | ||
| 2025-11-03T00:19 | 17615 | 79 | -57.1 | |||
| 2025-11-03T00:20 | 17811 | 76 | 249 | 23 | ||
| 2025-11-03T00:20 | 17928 | 75 | -55.3 | |||
| 2025-11-03T00:20 | 18171 | 72 | 237 | 28 | ||
| 2025-11-03T00:21 | 18223 | 71 | -56.4 | |||
| 2025-11-03T00:21 | 18406 | 69 | 234 | 22 | ||
| 2025-11-03T00:21 | 18505 | 68 | -56.3 | |||
| 2025-11-03T00:22 | 18760 | 66 | 228 | 23 | ||
| 2025-11-03T00:22 | 18858 | 65 | -57.0 | |||
| 2025-11-03T00:23 | 19129 | 62 | 237 | 26 | ||
| 2025-11-03T00:24 | 19338 | 60 | -56.2 | |||
| 2025-11-03T00:24 | 19456 | 59 | 236 | 28 | ||
| 2025-11-03T00:25 | 19797 | 56 | -57.1 | |||
| 2025-11-03T00:25 | 19854 | 55 | 239 | 34 | ||
| 2025-11-03T00:25 | 19948 | 54 | -55.0 | |||
| 2025-11-03T00:26 | 20166 | 53 | -53.3 | |||
| 2025-11-03T00:26 | 20216 | 52 | 254 | 29 | ||
| 2025-11-03T00:26 | 20279 | 52 | -52.6 | |||
| 2025-11-03T00:27 | 20452 | 50 | -53.0 | |||
| 2025-11-03T00:27 | 20477 | 50 | 246 | 32 | ||
| 2025-11-03T00:27 | 20717 | 48 | -48.4 | |||
| 2025-11-03T00:27 | 20732 | 48 | 223 | 16 | ||
| 2025-11-03T00:28 | 21006 | 46 | 199 | 17 | ||
| 2025-11-03T00:29 | 21409 | 43 | 201 | 19 | ||
| 2025-11-03T00:30 | 21713 | 41 | -54.3 | |||
| 2025-11-03T00:30 | 21840 | 41 | 224 | 23 | ||
| 2025-11-03T00:31 | 22197 | 38 | 242 | 26 | ||
| 2025-11-03T00:31 | 22279 | 38 | -54.4 | |||
| 2025-11-03T00:31 | 22346 | 38 | 249 | 31 | ||
| 2025-11-03T00:31 | 22487 | 37 | -50.6 | |||
| 2025-11-03T00:32 | 22561 | 36 | 244 | 24 | ||
| 2025-11-03T00:33 | 22953 | 34 | 230 | 25 | ||
| 2025-11-03T00:33 | 23124 | 33 | -47.7 | |||
| 2025-11-03T00:34 | 23327 | 32 | 232 | 25 | ||
| 2025-11-03T00:34 | 23639 | 31 | -49.4 | 235 | 23 | |
| 2025-11-03T00:35 | 23787 | 30 | 226 | 20 | ||
| 2025-11-03T00:35 | 24074 | 29 | 231 | 22 | ||
| 2025-11-03T00:36 | 24164 | 28 | -49.8 | |||
| 2025-11-03T00:36 | 24494 | 27 | 226 | 23 | ||
| 2025-11-03T00:37 | 24667 | 26 | -51.9 | |||
| 2025-11-03T00:37 | 24793 | 26 | 231 | 24 | ||
| 2025-11-03T00:38 | 25197 | 24 | -52.4 | 242 | 21 | |
| 2025-11-03T11:30 | 18 | 1023 | 6.2 | 3.0 | 280 | 1 |
| 2025-11-03T11:30 | 22 | 1022 | 6.3 | 2.2 | 0 | 0 |
| 2025-11-03T11:31 | 316 | 986 | 291 | 4 | ||
| 2025-11-03T11:32 | 554 | 957 | 306 | 5 | ||
| 2025-11-03T11:32 | 589 | 953 | 1.6 | -0.2 | ||
| 2025-11-03T11:33 | 885 | 919 | 335 | 5 | ||
| 2025-11-03T11:33 | 1147 | 889 | -2.6 | -4.0 | ||
| 2025-11-03T11:34 | 1236 | 879 | 333 | 8 | ||
| 2025-11-03T11:34 | 1300 | 872 | -3.7 | -5.4 | ||
| 2025-11-03T11:35 | 1579 | 842 | 316 | 7 | ||
| 2025-11-03T11:35 | 1613 | 838 | -6.3 | -7.0 | ||
| 2025-11-03T11:35 | 1699 | 829 | -7.0 | -9.7 | ||
| 2025-11-03T11:35 | 1746 | 824 | -6.8 | -14.6 | ||
| 2025-11-03T11:35 | 1804 | 818 | -6.2 | -18.2 | ||
| 2025-11-03T11:35 | 1840 | 814 | 328 | 9 | ||
| 2025-11-03T11:36 | 1917 | 806 | -6.5 | -22.9 | ||
| 2025-11-03T11:36 | 2146 | 783 | -6.0 | -41.8 | ||
| 2025-11-03T11:36 | 2199 | 778 | 321 | 10 | ||
| 2025-11-03T11:37 | 2295 | 768 | -6.1 | -38.0 | ||
| 2025-11-03T11:37 | 2396 | 758 | 327 | 8 | ||
| 2025-11-03T11:37 | 2518 | 746 | -6.8 | -29.9 | ||
| 2025-11-03T11:37 | 2575 | 741 | 323 | 9 | ||
| 2025-11-03T11:38 | 2757 | 724 | -7.8 | -30.0 | ||
| 2025-11-03T11:38 | 2870 | 713 | 323 | 7 | ||
| 2025-11-03T11:39 | 3095 | 693 | 298 | 6 | ||
| 2025-11-03T11:39 | 3174 | 686 | 295 | 4 | ||
| 2025-11-03T11:39 | 3270 | 677 | 338 | 5 | ||
| 2025-11-03T11:40 | 3524 | 655 | -12.7 | -32.7 | ||
| 2025-11-03T11:40 | 3571 | 651 | 345 | 9 | ||
| 2025-11-03T11:41 | 3683 | 641 | -13.6 | -34.1 | ||
| 2025-11-03T11:41 | 3748 | 636 | 344 | 6 | ||
| 2025-11-03T11:41 | 3853 | 627 | -14.4 | -37.6 | ||
| 2025-11-03T11:42 | 4105 | 607 | 1 | 11 | ||
| 2025-11-03T11:42 | 4226 | 597 | -15.6 | -45.2 | ||
| 2025-11-03T11:42 | 4337 | 588 | -15.5 | -41.3 | ||
| 2025-11-03T11:43 | 4348 | 587 | 4 | 15 | ||
| 2025-11-03T11:43 | 4459 | 579 | -16.0 | -38.9 | ||
| 2025-11-03T11:43 | 4668 | 563 | 14 | 18 | ||
| 2025-11-03T11:44 | 4834 | 551 | -18.0 | -41.4 | ||
| 2025-11-03T11:44 | 5014 | 538 | 4 | 20 | ||
| 2025-11-03T11:45 | 5245 | 521 | -21.5 | -41.9 | 360 | 18 |
| 2025-11-03T11:46 | 5462 | 506 | 1 | 22 | ||
| 2025-11-03T11:47 | 5799 | 483 | 2 | 20 | ||
| 2025-11-03T11:47 | 5848 | 480 | -25.5 | -44.6 | ||
| 2025-11-03T11:47 | 5977 | 471 | 2 | 22 | ||
| 2025-11-03T11:48 | 6259 | 453 | 4 | 19 | ||
| 2025-11-03T11:48 | 6373 | 446 | -29.4 | -49.8 | ||
| 2025-11-03T11:49 | 6601 | 432 | 359 | 21 | ||
| 2025-11-03T11:50 | 6924 | 413 | 1 | 20 | ||
| 2025-11-03T11:50 | 7004 | 408 | -33.3 | -50.6 | ||
| 2025-11-03T11:51 | 7239 | 394 | 4 | 22 | ||
| 2025-11-03T11:52 | 7519 | 379 | -36.6 | -55.1 | ||
| 2025-11-03T11:52 | 7557 | 377 | 8 | 22 | ||
| 2025-11-03T11:53 | 7874 | 360 | 8 | 23 | ||
| 2025-11-03T11:54 | 8004 | 353 | -40.0 | -60.0 | ||
| 2025-11-03T11:54 | 8191 | 343 | 356 | 21 | ||
| 2025-11-03T11:55 | 8523 | 327 | 356 | 23 | ||
| 2025-11-03T11:55 | 8539 | 326 | -44.0 | |||
| 2025-11-03T11:56 | 8833 | 312 | -45.9 | |||
| 2025-11-03T11:56 | 8844 | 312 | 355 | 23 | ||
| 2025-11-03T11:57 | 9176 | 296 | 355 | 23 | ||
| 2025-11-03T11:58 | 9506 | 282 | 353 | 23 | ||
| 2025-11-03T11:59 | 9833 | 268 | 349 | 21 | ||
| 2025-11-03T12:00 | 10101 | 257 | -52.7 | |||
| 2025-11-03T12:00 | 10130 | 256 | 348 | 23 | ||
| 2025-11-03T12:01 | 10311 | 249 | -53.1 | |||
| 2025-11-03T12:01 | 10416 | 245 | 343 | 24 | ||
| 2025-11-03T12:02 | 10729 | 233 | 344 | 21 | ||
| 2025-11-03T12:02 | 10740 | 233 | -52.9 | |||
| 2025-11-03T12:03 | 11079 | 221 | 337 | 19 | ||
| 2025-11-03T12:04 | 11251 | 215 | -56.1 | |||
| 2025-11-03T12:04 | 11422 | 209 | 330 | 17 | ||
| 2025-11-03T12:04 | 11517 | 206 | -54.0 | |||
| 2025-11-03T12:05 | 11630 | 203 | -53.5 | |||
| 2025-11-03T12:05 | 11690 | 201 | 303 | 13 | ||
| 2025-11-03T12:06 | 11970 | 192 | -55.3 | |||
| 2025-11-03T12:06 | 11990 | 192 | 283 | 19 | ||
| 2025-11-03T12:07 | 12178 | 186 | -52.7 | |||
| 2025-11-03T12:07 | 12300 | 183 | 285 | 18 | ||
| 2025-11-03T12:07 | 12439 | 179 | -52.1 | |||
| 2025-11-03T12:08 | 12640 | 173 | 281 | 20 | ||
| 2025-11-03T12:08 | 12741 | 170 | -53.2 | |||
| 2025-11-03T12:09 | 12897 | 166 | 280 | 22 | ||
| 2025-11-03T12:09 | 12950 | 165 | -52.5 | |||
| 2025-11-03T12:10 | 13246 | 158 | 267 | 15 | ||
| 2025-11-03T12:11 | 13568 | 150 | 252 | 18 | ||
| 2025-11-03T12:11 | 13601 | 149 | -53.8 | |||
| 2025-11-03T12:12 | 13913 | 142 | 252 | 22 | ||
| 2025-11-03T12:13 | 14240 | 135 | -55.9 | |||
| 2025-11-03T12:13 | 14292 | 134 | 257 | 21 | ||
| 2025-11-03T12:13 | 14523 | 129 | -56.6 | |||
| 2025-11-03T12:14 | 14678 | 126 | 268 | 23 | ||
| 2025-11-03T12:14 | 14870 | 122 | -58.6 | |||
| 2025-11-03T12:14 | 14915 | 121 | 276 | 22 | ||
| 2025-11-03T12:15 | 15145 | 117 | 257 | 23 | ||
| 2025-11-03T12:15 | 15248 | 115 | -58.6 | |||
| 2025-11-03T12:16 | 15316 | 114 | 254 | 29 | ||
| 2025-11-03T12:16 | 15371 | 113 | -58.2 | |||
| 2025-11-03T12:16 | 15451 | 111 | -57.8 | |||
| 2025-11-03T12:16 | 15476 | 111 | 260 | 25 | ||
| 2025-11-03T12:17 | 15802 | 105 | 256 | 24 | ||
| 2025-11-03T12:17 | 15852 | 105 | -56.2 | |||
| 2025-11-03T12:18 | 16161 | 100 | 254 | 21 | ||
| 2025-11-03T12:18 | 16329 | 97 | -55.6 | |||
| 2025-11-03T12:19 | 16503 | 94 | -55.4 | |||
| 2025-11-03T12:19 | 16525 | 94 | 255 | 20 | ||
| 2025-11-03T12:20 | 16841 | 89 | 251 | 22 | ||
| 2025-11-03T12:21 | 17139 | 85 | 244 | 23 | ||
| 2025-11-03T12:22 | 17448 | 81 | 245 | 27 | ||
| 2025-11-03T12:23 | 17782 | 77 | -59.8 | |||
| 2025-11-03T12:23 | 17819 | 77 | 258 | 27 | ||
| 2025-11-03T12:23 | 18059 | 74 | -59.6 | |||
| 2025-11-03T12:23 | 18120 | 73 | 253 | 28 | ||
| 2025-11-03T12:24 | 18206 | 72 | -59.9 | |||
| 2025-11-03T12:24 | 18293 | 71 | 260 | 27 | ||
| 2025-11-03T12:24 | 18501 | 69 | 258 | 23 | ||
| 2025-11-03T12:25 | 18696 | 67 | 259 | 21 | ||
| 2025-11-03T12:25 | 18809 | 65 | -58.4 | |||
| 2025-11-03T12:25 | 18888 | 65 | 247 | 21 | ||
| 2025-11-03T12:26 | 18918 | 64 | -57.0 | |||
| 2025-11-03T12:26 | 19097 | 62 | 252 | 25 | ||
| 2025-11-03T12:26 | 19107 | 62 | -57.4 | |||
| 2025-11-03T12:26 | 19242 | 61 | -55.3 | |||
| 2025-11-03T12:27 | 19366 | 60 | 236 | 22 | ||
| 2025-11-03T12:28 | 19742 | 56 | -55.3 | |||
| 2025-11-03T12:28 | 19774 | 56 | 241 | 20 | ||
| 2025-11-03T12:29 | 20158 | 53 | 246 | 23 | ||
| 2025-11-03T12:29 | 20207 | 52 | -54.4 | |||
| 2025-11-03T12:29 | 20309 | 52 | -53.5 | |||
| 2025-11-03T12:29 | 20435 | 51 | 242 | 16 | ||
| 2025-11-03T12:30 | 20639 | 49 | -54.6 | |||
| 2025-11-03T12:30 | 20693 | 49 | 239 | 18 | ||
| 2025-11-03T12:31 | 20837 | 48 | 241 | 18 | ||
| 2025-11-03T12:32 | 21215 | 45 | 252 | 22 | ||
| 2025-11-03T12:32 | 21463 | 43 | -53.5 | |||
| 2025-11-03T12:32 | 21525 | 43 | 265 | 28 | ||
| 2025-11-03T12:33 | 21693 | 42 | -50.9 | |||
| 2025-11-03T12:33 | 21736 | 41 | 248 | 20 | ||
| 2025-11-03T12:34 | 22078 | 39 | 209 | 20 | ||
| 2025-11-03T12:34 | 22195 | 39 | 211 | 24 | ||
| 2025-11-03T12:35 | 22605 | 36 | 227 | 24 | ||
| 2025-11-03T12:35 | 22642 | 36 | -56.3 | |||
| 2025-11-03T12:35 | 22786 | 35 | 237 | 24 | ||
| 2025-11-03T12:36 | 23104 | 33 | 246 | 22 | ||
| 2025-11-03T12:37 | 23464 | 32 | -52.3 | 224 | 24 | |
| 2025-11-03T12:38 | 23674 | 31 | 220 | 20 | ||
| 2025-11-03T12:38 | 23843 | 30 | -52.5 | |||
| 2025-11-03T12:39 | 24104 | 29 | 207 | 25 | ||
| 2025-11-03T12:39 | 24287 | 28 | -54.7 | |||
| 2025-11-03T12:40 | 24520 | 27 | 226 | 24 | ||
| 2025-11-03T12:40 | 24740 | 26 | -53.3 | |||
| 2025-11-03T12:41 | 24866 | 25 | 238 | 21 | ||
| 2025-11-03T12:41 | 25074 | 25 | -51.8 | 247 | 21 | |
| 2025-11-03T12:42 | 25291 | 24 | 249 | 20 | ||
| 2025-11-03T12:42 | 25461 | 23 | -46.3 | |||
| 2025-11-03T12:42 | 25547 | 23 | 219 | 14 | ||
| 2025-11-03T12:43 | 25957 | 22 | 210 | 16 | ||
| 2025-11-03T12:44 | 26398 | 20 | 231 | 13 | ||
| 2025-11-03T12:45 | 26560 | 20 | -52.7 | |||
| 2025-11-03T12:45 | 26606 | 20 | -52.4 | 257 | 15 | |
| 2025-11-03T23:30 | 18 | 1026 | 6.7 | 0.8 | 150 | 2 |
| 2025-11-03T23:30 | 22 | 1025 | 7.1 | 0.5 | 0 | 0 |
| 2025-11-03T23:30 | 26 | 1025 | 7.6 | 0.8 | ||
| 2025-11-03T23:30 | 44 | 1023 | 6.3 | -1.1 | ||
| 2025-11-03T23:30 | 113 | 1014 | 171 | 3 | ||
| 2025-11-03T23:30 | 136 | 1011 | 5.8 | -2.1 | ||
| 2025-11-03T23:31 | 212 | 1002 | 6.0 | -2.6 | ||
| 2025-11-03T23:31 | 469 | 971 | 219 | 6 | ||
| 2025-11-03T23:32 | 794 | 932 | 230 | 3 | ||
| 2025-11-03T23:33 | 955 | 914 | -0.7 | -4.1 | ||
| 2025-11-03T23:33 | 1168 | 890 | 260 | 8 | ||
| 2025-11-03T23:34 | 1398 | 864 | -4.3 | -6.1 | ||
| 2025-11-03T23:34 | 1464 | 857 | -4.7 | -7.5 | ||
| 2025-11-03T23:34 | 1512 | 852 | 267 | 3 | ||
| 2025-11-03T23:34 | 1530 | 850 | -3.3 | -12.2 | ||
| 2025-11-03T23:35 | 1600 | 842 | 282 | 4 | ||
| 2025-11-03T23:35 | 1623 | 840 | -2.9 | -15.9 | ||
| 2025-11-03T23:35 | 1680 | 834 | -1.4 | -25.5 | ||
| 2025-11-03T23:35 | 1756 | 826 | -0.8 | -34.0 | ||
| 2025-11-03T23:35 | 1767 | 825 | 267 | 8 | ||
| 2025-11-03T23:36 | 1969 | 804 | 267 | 8 | ||
| 2025-11-03T23:36 | 2086 | 792 | -2.8 | -32.6 | ||
| 2025-11-03T23:36 | 2286 | 772 | -3.8 | -23.5 | ||
| 2025-11-03T23:37 | 2322 | 769 | 260 | 10 | ||
| 2025-11-03T23:37 | 2424 | 759 | -3.1 | -24.1 | ||
| 2025-11-03T23:37 | 2609 | 741 | -3.8 | -23.0 | ||
| 2025-11-03T23:38 | 2686 | 734 | 249 | 12 | ||
| 2025-11-03T23:38 | 2753 | 728 | -3.6 | -22.3 | ||
| 2025-11-03T23:38 | 2882 | 716 | 256 | 12 | ||
| 2025-11-03T23:39 | 3121 | 695 | -4.0 | -24.3 | ||
| 2025-11-03T23:39 | 3171 | 690 | 251 | 11 | ||
| 2025-11-03T23:40 | 3411 | 670 | 260 | 10 | ||
| 2025-11-03T23:40 | 3501 | 662 | -6.0 | -27.2 | ||
| 2025-11-03T23:40 | 3612 | 653 | 273 | 8 | ||
| 2025-11-03T23:40 | 3739 | 642 | 267 | 8 | ||
| 2025-11-03T23:41 | 3935 | 626 | 272 | 9 | ||
| 2025-11-03T23:42 | 4105 | 613 | 284 | 9 | ||
| 2025-11-03T23:42 | 4295 | 598 | -10.9 | -30.1 | ||
| 2025-11-03T23:42 | 4353 | 593 | 258 | 7 | ||
| 2025-11-03T23:43 | 4477 | 584 | 265 | 8 | ||
| 2025-11-03T23:43 | 4642 | 571 | -13.7 | -29.1 | ||
| 2025-11-03T23:44 | 4823 | 558 | 272 | 8 | ||
| 2025-11-03T23:44 | 4829 | 557 | -14.7 | -35.7 | ||
| 2025-11-03T23:44 | 5012 | 544 | -16.0 | -39.8 | 282 | 8 |
| 2025-11-03T23:45 | 5231 | 528 | 288 | 9 | ||
| 2025-11-03T23:45 | 5371 | 519 | -18.8 | -34.4 | ||
| 2025-11-03T23:45 | 5482 | 511 | -19.1 | -41.4 | ||
| 2025-11-03T23:46 | 5584 | 504 | 294 | 10 | ||
| 2025-11-03T23:46 | 5731 | 494 | -21.0 | -41.5 | ||
| 2025-11-03T23:46 | 5847 | 486 | 288 | 10 | ||
| 2025-11-03T23:46 | 5865 | 485 | -22.1 | -39.0 | ||
| 2025-11-03T23:47 | 6005 | 476 | 292 | 11 | ||
| 2025-11-03T23:47 | 6160 | 466 | 282 | 8 | ||
| 2025-11-03T23:47 | 6202 | 463 | -24.8 | -40.0 | ||
| 2025-11-03T23:48 | 6305 | 457 | -25.5 | -45.2 | ||
| 2025-11-03T23:48 | 6426 | 449 | 299 | 10 | ||
| 2025-11-03T23:48 | 6538 | 442 | -27.4 | -43.6 | ||
| 2025-11-03T23:49 | 6721 | 431 | 306 | 11 | ||
| 2025-11-03T23:49 | 6882 | 421 | 307 | 14 | ||
| 2025-11-03T23:50 | 7001 | 414 | 297 | 11 | ||
| 2025-11-03T23:50 | 7281 | 398 | -34.1 | -45.1 | ||
| 2025-11-03T23:51 | 7359 | 394 | 302 | 13 | ||
| 2025-11-03T23:51 | 7598 | 381 | -37.1 | -46.5 | ||
| 2025-11-03T23:52 | 7705 | 375 | -37.3 | -51.2 | ||
| 2025-11-03T23:52 | 7731 | 373 | 289 | 11 | ||
| 2025-11-03T23:53 | 8116 | 353 | 297 | 10 | ||
| 2025-11-03T23:53 | 8253 | 346 | -40.0 | -59.2 | ||
| 2025-11-03T23:54 | 8456 | 336 | 289 | 12 | ||
| 2025-11-03T23:54 | 8808 | 319 | 296 | 12 | ||
| 2025-11-03T23:55 | 9024 | 309 | 294 | 14 | ||
| 2025-11-03T23:56 | 9411 | 291 | 286 | 14 | ||
| 2025-11-03T23:57 | 9596 | 283 | -50.4 | |||
| 2025-11-03T23:57 | 9825 | 273 | 279 | 14 | ||
| 2025-11-03T23:58 | 10220 | 257 | 274 | 17 | ||
| 2025-11-03T23:59 | 10564 | 243 | 272 | 17 | ||
| 2025-11-04T00:00 | 10814 | 234 | 270 | 19 | ||
| 2025-11-04T00:00 | 10954 | 229 | -59.3 | |||
| 2025-11-04T00:01 | 11142 | 222 | 268 | 21 | ||
| 2025-11-04T00:01 | 11362 | 214 | 265 | 20 | ||
| 2025-11-04T00:02 | 11453 | 211 | -60.5 | |||
| 2025-11-04T00:02 | 11574 | 207 | 253 | 20 | ||
| 2025-11-04T00:02 | 11677 | 204 | -60.5 | |||
| 2025-11-04T00:03 | 11810 | 199 | -59.3 | |||
| 2025-11-04T00:03 | 11874 | 197 | 254 | 22 | ||
| 2025-11-04T00:03 | 11960 | 195 | -59.9 | |||
| 2025-11-04T00:03 | 12029 | 193 | 254 | 21 | ||
| 2025-11-04T00:04 | 12218 | 187 | 248 | 22 | ||
| 2025-11-04T00:05 | 12397 | 182 | 251 | 27 | ||
| 2025-11-04T00:05 | 12447 | 180 | -58.1 | |||
| 2025-11-04T00:06 | 12728 | 172 | 261 | 23 | ||
| 2025-11-04T00:06 | 12984 | 165 | -57.9 | |||
| 2025-11-04T00:07 | 13047 | 164 | 253 | 27 | ||
| 2025-11-04T00:07 | 13230 | 159 | -57.0 | |||
| 2025-11-04T00:08 | 13361 | 156 | 248 | 28 | ||
| 2025-11-04T00:08 | 13583 | 150 | -57.5 | |||
| 2025-11-04T00:09 | 13680 | 148 | 247 | 28 | ||
| 2025-11-04T00:10 | 14001 | 141 | 249 | 29 | ||
| 2025-11-04T00:11 | 14322 | 134 | 255 | 29 | ||
| 2025-11-04T00:12 | 14643 | 127 | 248 | 28 | ||
| 2025-11-04T00:12 | 14679 | 126 | -59.3 | |||
| 2025-11-04T00:12 | 14843 | 123 | -59.2 | |||
| 2025-11-04T00:13 | 14953 | 121 | 251 | 30 | ||
| 2025-11-04T00:14 | 15272 | 115 | 252 | 27 | ||
| 2025-11-04T00:14 | 15309 | 114 | -59.2 | |||
| 2025-11-04T00:15 | 15596 | 109 | 245 | 24 | ||
| 2025-11-04T00:15 | 15640 | 108 | -60.0 | |||
| 2025-11-04T00:16 | 15928 | 103 | 249 | 25 | ||
| 2025-11-04T00:16 | 16139 | 100 | -60.0 | |||
| 2025-11-04T00:16 | 16200 | 99 | 244 | 25 | ||
| 2025-11-04T00:17 | 16484 | 95 | -58.6 | |||
| 2025-11-04T00:17 | 16518 | 94 | 249 | 27 | ||
| 2025-11-04T00:18 | 16591 | 93 | -57.5 | |||
| 2025-11-04T00:18 | 16774 | 90 | 247 | 22 | ||
| 2025-11-04T00:19 | 16935 | 88 | -57.8 | |||
| 2025-11-04T00:19 | 17089 | 86 | 247 | 25 | ||
| 2025-11-04T00:20 | 17367 | 82 | -57.5 | |||
| 2025-11-04T00:20 | 17380 | 82 | 246 | 25 | ||
| 2025-11-04T00:20 | 17617 | 79 | 250 | 24 | ||
| 2025-11-04T00:21 | 17673 | 78 | -58.5 | |||
| 2025-11-04T00:21 | 17843 | 76 | -59.1 | |||
| 2025-11-04T00:21 | 18018 | 74 | 241 | 24 | ||
| 2025-11-04T00:22 | 18179 | 72 | -57.7 | |||
| 2025-11-04T00:22 | 18270 | 71 | 251 | 21 | ||
| 2025-11-04T00:22 | 18432 | 70 | -57.2 | |||
| 2025-11-04T00:23 | 18608 | 68 | 254 | 27 | ||
| 2025-11-04T00:24 | 18817 | 65 | -53.9 | |||
| 2025-11-04T00:24 | 18829 | 65 | 263 | 17 | ||
| 2025-11-04T00:24 | 19080 | 63 | 248 | 13 | ||
| 2025-11-04T00:25 | 19277 | 61 | -55.3 | |||
| 2025-11-04T00:25 | 19348 | 60 | 243 | 15 | ||
| 2025-11-04T00:26 | 19675 | 57 | 230 | 16 | ||
| 2025-11-04T00:26 | 19732 | 57 | -55.9 | |||
| 2025-11-04T00:27 | 20061 | 54 | 219 | 23 | ||
| 2025-11-04T00:28 | 20371 | 51 | 229 | 27 | ||
| 2025-11-04T00:28 | 20395 | 51 | -59.5 | |||
| 2025-11-04T00:28 | 20560 | 50 | 242 | 25 | ||
| 2025-11-04T00:28 | 20660 | 49 | -58.5 | |||
| 2025-11-04T00:29 | 20872 | 47 | 259 | 25 | ||
| 2025-11-04T00:30 | 21286 | 44 | 257 | 19 | ||
| 2025-11-04T00:30 | 21515 | 43 | 258 | 17 | ||
| 2025-11-04T00:31 | 21699 | 42 | -55.4 | |||
| 2025-11-04T00:31 | 21806 | 41 | 241 | 13 | ||
| 2025-11-04T00:32 | 22125 | 39 | 233 | 17 | ||
| 2025-11-04T00:32 | 22177 | 39 | -55.7 | |||
| 2025-11-04T00:33 | 22309 | 38 | 240 | 17 | ||
| 2025-11-04T00:33 | 22395 | 37 | -52.4 | |||
| 2025-11-04T00:33 | 22573 | 36 | -50.1 | |||
| 2025-11-04T00:33 | 22591 | 36 | 238 | 16 | ||
| 2025-11-04T00:34 | 23020 | 34 | 230 | 16 | ||
| 2025-11-04T00:35 | 23375 | 32 | 258 | 14 | ||
| 2025-11-04T00:35 | 23454 | 32 | -51.7 | |||
| 2025-11-04T00:36 | 23750 | 30 | 254 | 19 | ||
| 2025-11-04T00:37 | 24057 | 29 | 265 | 9 | ||
| 2025-11-04T00:37 | 24081 | 29 | -51.1 | |||
| 2025-11-04T00:38 | 24318 | 28 | -50.9 | 231 | 11 | |
| 2025-11-04T11:30 | 18 | 1023 | 7.8 | 3.5 | 90 | 1 |
| 2025-11-04T11:30 | 22 | 1022 | 8.0 | 3.1 | 0 | 0 |
| 2025-11-04T11:30 | 75 | 1016 | 8.4 | 2.2 | ||
| 2025-11-04T11:31 | 206 | 1000 | 8.7 | 1.1 | ||
| 2025-11-04T11:31 | 297 | 989 | 91 | 3 | ||
| 2025-11-04T11:31 | 414 | 975 | 7.3 | -0.2 | ||
| 2025-11-04T11:31 | 456 | 970 | 34 | 1 | ||
| 2025-11-04T11:32 | 578 | 955 | 45 | 3 | ||
| 2025-11-04T11:32 | 693 | 942 | 328 | 1 | ||
| 2025-11-04T11:32 | 761 | 934 | 246 | 3 | ||
| 2025-11-04T11:33 | 936 | 914 | 247 | 3 | ||
| 2025-11-04T11:33 | 1048 | 902 | 205 | 4 | ||
| 2025-11-04T11:33 | 1095 | 896 | 1.1 | -2.7 | ||
| 2025-11-04T11:34 | 1190 | 886 | 0.2 | -3.2 | ||
| 2025-11-04T11:34 | 1195 | 885 | 242 | 6 | ||
| 2025-11-04T11:35 | 1308 | 873 | -0.5 | -3.7 | ||
| 2025-11-04T11:35 | 1373 | 866 | 244 | 10 | ||
| 2025-11-04T11:36 | 1597 | 842 | 253 | 13 | ||
| 2025-11-04T11:36 | 1774 | 823 | -4.5 | -5.2 | ||
| 2025-11-04T11:37 | 1791 | 821 | -4.6 | -7.7 | ||
| 2025-11-04T11:37 | 1825 | 818 | -1.6 | -21.7 | ||
| 2025-11-04T11:37 | 1836 | 817 | -0.6 | -24.1 | ||
| 2025-11-04T11:37 | 1919 | 808 | 256 | 16 | ||
| 2025-11-04T11:37 | 2065 | 794 | -0.3 | -44.3 | ||
| 2025-11-04T11:37 | 2140 | 786 | -0.5 | -40.7 | ||
| 2025-11-04T11:38 | 2329 | 768 | 265 | 13 | ||
| 2025-11-04T11:38 | 2428 | 758 | -2.3 | -31.0 | ||
| 2025-11-04T11:39 | 2796 | 724 | 259 | 14 | ||
| 2025-11-04T11:40 | 3140 | 693 | -7.8 | -24.0 | ||
| 2025-11-04T11:40 | 3243 | 683 | 262 | 17 | ||
| 2025-11-04T11:40 | 3353 | 674 | -9.1 | -21.1 | ||
| 2025-11-04T11:40 | 3431 | 667 | -8.8 | -20.9 | ||
| 2025-11-04T11:41 | 3530 | 659 | -8.0 | -25.5 | ||
| 2025-11-04T11:41 | 3594 | 653 | 256 | 17 | ||
| 2025-11-04T11:42 | 3798 | 636 | -10.4 | -26.7 | ||
| 2025-11-04T11:42 | 3904 | 628 | 252 | 13 | ||
| 2025-11-04T11:42 | 3930 | 625 | -11.5 | -27.6 | ||
| 2025-11-04T11:43 | 4151 | 608 | -13.2 | -28.3 | ||
| 2025-11-04T11:43 | 4236 | 601 | -13.7 | -29.1 | 242 | 12 |
| 2025-11-04T11:43 | 4393 | 589 | -14.9 | -31.5 | ||
| 2025-11-04T11:44 | 4548 | 577 | -16.0 | -32.0 | ||
| 2025-11-04T11:44 | 4590 | 573 | 247 | 15 | ||
| 2025-11-04T11:44 | 4692 | 566 | -17.4 | -28.6 | ||
| 2025-11-04T11:45 | 4937 | 547 | -18.9 | -30.6 | ||
| 2025-11-04T11:45 | 4943 | 547 | 237 | 18 | ||
| 2025-11-04T11:45 | 5118 | 534 | -19.5 | -32.0 | ||
| 2025-11-04T11:46 | 5279 | 523 | 244 | 16 | ||
| 2025-11-04T11:47 | 5505 | 507 | -22.4 | -37.1 | ||
| 2025-11-04T11:47 | 5608 | 500 | 235 | 18 | ||
| 2025-11-04T11:47 | 5646 | 497 | -23.1 | -39.4 | ||
| 2025-11-04T11:47 | 5792 | 487 | -24.1 | -37.8 | ||
| 2025-11-04T11:48 | 5929 | 478 | 244 | 21 | ||
| 2025-11-04T11:49 | 6163 | 463 | -27.0 | -38.4 | ||
| 2025-11-04T11:49 | 6239 | 458 | 242 | 19 | ||
| 2025-11-04T11:50 | 6469 | 444 | 238 | 21 | ||
| 2025-11-04T11:51 | 6785 | 425 | 227 | 20 | ||
| 2025-11-04T11:51 | 6890 | 418 | -32.6 | -45.7 | ||
| 2025-11-04T11:52 | 7099 | 406 | 227 | 20 | ||
| 2025-11-04T11:52 | 7272 | 396 | -35.8 | -46.3 | ||
| 2025-11-04T11:53 | 7404 | 389 | 231 | 20 | ||
| 2025-11-04T11:53 | 7455 | 386 | -36.9 | -51.7 | ||
| 2025-11-04T11:53 | 7545 | 381 | 234 | 22 | ||
| 2025-11-04T11:54 | 7683 | 373 | -38.0 | -52.3 | ||
| 2025-11-04T11:54 | 7841 | 365 | 230 | 20 | ||
| 2025-11-04T11:55 | 7995 | 357 | -40.0 | -55.3 | ||
| 2025-11-04T11:55 | 8169 | 348 | 228 | 19 | ||
| 2025-11-04T11:56 | 8507 | 331 | 233 | 19 | ||
| 2025-11-04T11:57 | 8790 | 317 | -46.8 | |||
| 2025-11-04T11:57 | 8856 | 314 | 227 | 20 | ||
| 2025-11-04T11:58 | 9086 | 303 | -48.7 | |||
| 2025-11-04T11:58 | 9221 | 297 | 231 | 21 | ||
| 2025-11-04T11:59 | 9418 | 288 | -50.9 | |||
| 2025-11-04T11:59 | 9609 | 280 | 242 | 22 | ||
| 2025-11-04T12:00 | 10004 | 263 | 242 | 22 | ||
| 2025-11-04T12:00 | 10121 | 258 | -54.6 | |||
| 2025-11-04T12:01 | 10275 | 252 | 249 | 25 | ||
| 2025-11-04T12:02 | 10551 | 241 | -55.9 | |||
| 2025-11-04T12:02 | 10567 | 241 | 251 | 25 | ||
| 2025-11-04T12:03 | 10845 | 231 | 248 | 26 | ||
| 2025-11-04T12:03 | 10937 | 227 | -56.3 | |||
| 2025-11-04T12:04 | 11088 | 222 | 255 | 30 | ||
| 2025-11-04T12:05 | 11297 | 215 | -55.2 | |||
| 2025-11-04T12:05 | 11350 | 213 | 253 | 25 | ||
| 2025-11-04T12:06 | 11704 | 201 | 239 | 25 | ||
| 2025-11-04T12:06 | 11804 | 198 | -56.7 | |||
| 2025-11-04T12:06 | 11836 | 197 | 243 | 28 | ||
| 2025-11-04T12:06 | 12003 | 192 | -56.8 | |||
| 2025-11-04T12:07 | 12064 | 190 | 249 | 34 | ||
| 2025-11-04T12:07 | 12159 | 187 | -56.6 | |||
| 2025-11-04T12:07 | 12209 | 186 | 251 | 32 | ||
| 2025-11-04T12:07 | 12252 | 185 | -55.4 | |||
| 2025-11-04T12:08 | 12392 | 181 | -55.7 | |||
| 2025-11-04T12:08 | 12435 | 180 | 250 | 32 | ||
| 2025-11-04T12:08 | 12502 | 178 | -54.7 | |||
| 2025-11-04T12:09 | 12592 | 175 | 254 | 35 | ||
| 2025-11-04T12:10 | 12868 | 168 | -53.9 | 247 | 35 | |
| 2025-11-04T12:10 | 13142 | 161 | 255 | 35 | ||
| 2025-11-04T12:11 | 13315 | 156 | -55.4 | |||
| 2025-11-04T12:11 | 13528 | 151 | 259 | 31 | ||
| 2025-11-04T12:12 | 13876 | 143 | 261 | 33 | ||
| 2025-11-04T12:13 | 14020 | 140 | -56.4 | |||
| 2025-11-04T12:13 | 14178 | 137 | 255 | 32 | ||
| 2025-11-04T12:14 | 14253 | 135 | -55.4 | |||
| 2025-11-04T12:14 | 14399 | 132 | -53.9 | |||
| 2025-11-04T12:14 | 14404 | 132 | 261 | 32 | ||
| 2025-11-04T12:15 | 14606 | 128 | -54.6 | |||
| 2025-11-04T12:15 | 14740 | 125 | 259 | 25 | ||
| 2025-11-04T12:16 | 15089 | 118 | 255 | 25 | ||
| 2025-11-04T12:17 | 15229 | 116 | -57.6 | |||
| 2025-11-04T12:17 | 15266 | 115 | 249 | 30 | ||
| 2025-11-04T12:18 | 15551 | 110 | 257 | 33 | ||
| 2025-11-04T12:18 | 15643 | 108 | -56.5 | |||
| 2025-11-04T12:19 | 15816 | 106 | 247 | 29 | ||
| 2025-11-04T12:19 | 15823 | 105 | -56.5 | |||
| 2025-11-04T12:20 | 16114 | 101 | 256 | 29 | ||
| 2025-11-04T12:20 | 16136 | 100 | -56.8 | |||
| 2025-11-04T12:20 | 16231 | 99 | 256 | 26 | ||
| 2025-11-04T12:21 | 16517 | 94 | -59.3 | |||
| 2025-11-04T12:21 | 16593 | 93 | 249 | 27 | ||
| 2025-11-04T12:22 | 16809 | 90 | 251 | 32 | ||
| 2025-11-04T12:22 | 16932 | 88 | -57.0 | |||
| 2025-11-04T12:23 | 17158 | 85 | 265 | 32 | ||
| 2025-11-04T12:23 | 17447 | 82 | 262 | 23 | ||
| 2025-11-04T12:23 | 17479 | 81 | -56.8 | |||
| 2025-11-04T12:24 | 17628 | 79 | 244 | 23 | ||
| 2025-11-04T12:25 | 17982 | 75 | 247 | 24 | ||
| 2025-11-04T12:26 | 18243 | 72 | -56.4 | |||
| 2025-11-04T12:26 | 18359 | 71 | 246 | 24 | ||
| 2025-11-04T12:27 | 18718 | 67 | 248 | 24 | ||
| 2025-11-04T12:27 | 18909 | 65 | 249 | 26 | ||
| 2025-11-04T12:28 | 18940 | 64 | -57.0 | |||
| 2025-11-04T12:28 | 19057 | 63 | 248 | 26 | ||
| 2025-11-04T12:29 | 19314 | 61 | 234 | 20 | ||
| 2025-11-04T12:29 | 19598 | 58 | 247 | 22 | ||
| 2025-11-04T12:30 | 19607 | 58 | -54.0 | |||
| 2025-11-04T12:30 | 19774 | 57 | -53.0 | |||
| 2025-11-04T12:30 | 19880 | 56 | 243 | 23 | ||
| 2025-11-04T12:31 | 20057 | 54 | 250 | 21 | ||
| 2025-11-04T12:31 | 20262 | 52 | -50.7 | |||
| 2025-11-04T12:32 | 20387 | 51 | 263 | 11 | ||
| 2025-11-04T12:32 | 20722 | 49 | 223 | 12 | ||
| 2025-11-04T12:33 | 20989 | 47 | -54.2 | |||
| 2025-11-04T12:33 | 21114 | 46 | 212 | 16 | ||
| 2025-11-04T12:34 | 21518 | 43 | 231 | 20 | ||
| 2025-11-04T12:35 | 21592 | 43 | -54.7 | |||
| 2025-11-04T12:35 | 21899 | 41 | 257 | 17 | ||
| 2025-11-04T12:36 | 22043 | 40 | -53.2 | |||
| 2025-11-04T12:36 | 22245 | 39 | 249 | 13 | ||
| 2025-11-04T12:37 | 22483 | 37 | 239 | 12 | ||
| 2025-11-04T12:37 | 22555 | 37 | -51.2 | |||
| 2025-11-04T12:37 | 22678 | 36 | -50.6 | |||
| 2025-11-04T12:38 | 22843 | 35 | -49.2 | |||
| 2025-11-04T12:38 | 22883 | 35 | 233 | 11 | ||
| 2025-11-04T12:39 | 23328 | 33 | 245 | 13 | ||
| 2025-11-04T12:40 | 23549 | 32 | 251 | 12 | ||
| 2025-11-04T12:40 | 23846 | 30 | 245 | 16 | ||
| 2025-11-04T12:41 | 24070 | 29 | -51.2 | |||
| 2025-11-04T12:41 | 24182 | 29 | -50.3 | |||
| 2025-11-04T12:41 | 24226 | 28 | 259 | 14 | ||
| 2025-11-04T12:42 | 24364 | 28 | 249 | 16 | ||
| 2025-11-04T12:42 | 24486 | 27 | -49.2 | |||
| 2025-11-04T12:42 | 24532 | 27 | 244 | 8 | ||
| 2025-11-04T12:43 | 24633 | 27 | 224 | 4 | ||
| 2025-11-04T12:43 | 24708 | 26 | -47.4 | |||
| 2025-11-04T12:43 | 24758 | 26 | 259 | 3 | ||
| 2025-11-04T12:44 | 25009 | 25 | 227 | 3 | ||
| 2025-11-04T12:44 | 25171 | 25 | 209 | 5 | ||
| 2025-11-04T12:44 | 25304 | 24 | 200 | 9 | ||
| 2025-11-04T12:45 | 25493 | 23 | -51.8 | |||
| 2025-11-04T12:45 | 25633 | 23 | 241 | 9 | ||
| 2025-11-04T12:46 | 25831 | 22 | -52.2 | 227 | 11 | |
| 2025-11-04T23:30 | 18 | 1021 | 11.7 | 6.4 | 140 | 3 |
| 2025-11-04T23:30 | 23 | 1021 | 12.1 | 6.2 | 0 | 0 |
| 2025-11-04T23:30 | 28 | 1020 | 12.5 | 6.5 | ||
| 2025-11-04T23:30 | 55 | 1017 | 11.5 | 5.6 | ||
| 2025-11-04T23:30 | 65 | 1016 | 140 | 3 | ||
| 2025-11-04T23:30 | 124 | 1009 | 11.4 | 5.1 | ||
| 2025-11-04T23:31 | 187 | 1001 | 11.5 | 5.2 | ||
| 2025-11-04T23:31 | 404 | 975 | 130 | 1 | ||
| 2025-11-04T23:32 | 577 | 955 | 8.0 | 4.2 | 222 | 3 |
| 2025-11-04T23:32 | 809 | 929 | 263 | 6 | ||
| 2025-11-04T23:33 | 953 | 913 | 5.2 | 2.9 | ||
| 2025-11-04T23:33 | 970 | 911 | 267 | 8 | ||
| 2025-11-04T23:34 | 1324 | 872 | 276 | 8 | ||
| 2025-11-04T23:34 | 1454 | 858 | 1.0 | 0.9 | ||
| 2025-11-04T23:35 | 1656 | 837 | 272 | 12 | ||
| 2025-11-04T23:35 | 1752 | 826 | -1.0 | -1.7 | ||
| 2025-11-04T23:36 | 1976 | 803 | -1.7 | -3.0 | ||
| 2025-11-04T23:36 | 2019 | 799 | 271 | 11 | ||
| 2025-11-04T23:36 | 2194 | 782 | -2.5 | -4.5 | ||
| 2025-11-04T23:36 | 2281 | 773 | -2.4 | -5.5 | ||
| 2025-11-04T23:37 | 2357 | 766 | 268 | 13 | ||
| 2025-11-04T23:37 | 2484 | 754 | -3.5 | -7.1 | ||
| 2025-11-04T23:37 | 2568 | 746 | -4.1 | -8.4 | ||
| 2025-11-04T23:38 | 2647 | 738 | -4.5 | -10.5 | ||
| 2025-11-04T23:38 | 2692 | 734 | 273 | 17 | ||
| 2025-11-04T23:38 | 2865 | 718 | -6.1 | -12.6 | ||
| 2025-11-04T23:38 | 2951 | 710 | 276 | 19 | ||
| 2025-11-04T23:39 | 2973 | 708 | -6.2 | -21.8 | ||
| 2025-11-04T23:39 | 3096 | 697 | -6.0 | -30.9 | ||
| 2025-11-04T23:39 | 3135 | 693 | -5.7 | -32.5 | ||
| 2025-11-04T23:39 | 3229 | 685 | 286 | 14 | ||
| 2025-11-04T23:40 | 3585 | 655 | 275 | 15 | ||
| 2025-11-04T23:41 | 3706 | 644 | -9.8 | -27.6 | ||
| 2025-11-04T23:41 | 3965 | 623 | 269 | 16 | ||
| 2025-11-04T23:42 | 4115 | 611 | -12.6 | -29.0 | ||
| 2025-11-04T23:42 | 4129 | 610 | 269 | 17 | ||
| 2025-11-04T23:43 | 4519 | 579 | -15.2 | -32.7 | ||
| 2025-11-04T23:43 | 4526 | 579 | 275 | 17 | ||
| 2025-11-04T23:43 | 4795 | 558 | -17.0 | -35.2 | ||
| 2025-11-04T23:44 | 4890 | 551 | 273 | 17 | ||
| 2025-11-04T23:44 | 5082 | 537 | -18.9 | -34.5 | ||
| 2025-11-04T23:45 | 5226 | 527 | 268 | 21 | ||
| 2025-11-04T23:45 | 5311 | 521 | -20.2 | -37.4 | ||
| 2025-11-04T23:46 | 5560 | 504 | 270 | 20 | ||
| 2025-11-04T23:46 | 5793 | 488 | -24.7 | -38.7 | ||
| 2025-11-04T23:47 | 5876 | 482 | 275 | 22 | ||
| 2025-11-04T23:47 | 5993 | 475 | -25.7 | -41.2 | ||
| 2025-11-04T23:47 | 6155 | 464 | 273 | 22 | ||
| 2025-11-04T23:48 | 6310 | 454 | -27.2 | -51.6 | ||
| 2025-11-04T23:48 | 6527 | 441 | 269 | 25 | ||
| 2025-11-04T23:49 | 6911 | 418 | 269 | 24 | ||
| 2025-11-04T23:50 | 6949 | 415 | -31.8 | -56.3 | ||
| 2025-11-04T23:50 | 7187 | 402 | -33.1 | -54.4 | ||
| 2025-11-04T23:50 | 7269 | 397 | 270 | 26 | ||
| 2025-11-04T23:51 | 7599 | 379 | -36.8 | -50.4 | ||
| 2025-11-04T23:51 | 7636 | 377 | 272 | 29 | ||
| 2025-11-04T23:52 | 7717 | 372 | -37.6 | -54.2 | ||
| 2025-11-04T23:52 | 7838 | 366 | -38.5 | -53.5 | ||
| 2025-11-04T23:52 | 7996 | 357 | 270 | 29 | ||
| 2025-11-04T23:52 | 8007 | 357 | -40.0 | -50.1 | ||
| 2025-11-04T23:53 | 8324 | 341 | 272 | 32 | ||
| 2025-11-04T23:54 | 8464 | 333 | 273 | 32 | ||
| 2025-11-04T23:54 | 8588 | 327 | -44.5 | |||
| 2025-11-04T23:55 | 8774 | 318 | 267 | 32 | ||
| 2025-11-04T23:55 | 8892 | 313 | -46.6 | |||
| 2025-11-04T23:56 | 9081 | 304 | 271 | 33 | ||
| 2025-11-04T23:57 | 9402 | 289 | 268 | 34 | ||
| 2025-11-04T23:57 | 9520 | 284 | -50.5 | |||
| 2025-11-04T23:58 | 9750 | 274 | 267 | 36 | ||
| 2025-11-04T23:58 | 10003 | 264 | -53.3 | |||
| 2025-11-04T23:59 | 10117 | 259 | 266 | 35 | ||
| 2025-11-05T00:00 | 10494 | 244 | 263 | 37 | ||
| 2025-11-05T00:00 | 10593 | 241 | -56.2 | |||
| 2025-11-05T00:01 | 10831 | 232 | 264 | 38 | ||
| 2025-11-05T00:02 | 11156 | 220 | 263 | 38 | ||
| 2025-11-05T00:02 | 11205 | 218 | -58.8 | |||
| 2025-11-05T00:03 | 11477 | 209 | 259 | 40 | ||
| 2025-11-05T00:03 | 11575 | 206 | -58.8 | |||
| 2025-11-05T00:04 | 11815 | 198 | 259 | 40 | ||
| 2025-11-05T00:04 | 11850 | 197 | -59.3 | |||
| 2025-11-05T00:04 | 12058 | 191 | -59.4 | 266 | 40 | |
| 2025-11-05T00:05 | 12262 | 184 | 260 | 37 | ||
| 2025-11-05T00:05 | 12340 | 182 | -59.9 | |||
| 2025-11-05T00:06 | 12591 | 175 | 263 | 40 | ||
| 2025-11-05T00:06 | 12691 | 172 | -58.2 | |||
| 2025-11-05T00:07 | 12924 | 166 | 261 | 37 | ||
| 2025-11-05T00:08 | 13157 | 160 | -57.2 | |||
| 2025-11-05T00:08 | 13240 | 158 | 263 | 41 | ||
| 2025-11-05T00:09 | 13557 | 150 | 262 | 40 | ||
| 2025-11-05T00:10 | 13829 | 144 | 261 | 41 | ||
| 2025-11-05T00:10 | 14033 | 139 | -57.0 | |||
| 2025-11-05T00:11 | 14074 | 138 | 262 | 39 | ||
| 2025-11-05T00:12 | 14414 | 131 | 262 | 37 | ||
| 2025-11-05T00:12 | 14584 | 128 | -59.0 | |||
| 2025-11-05T00:13 | 14714 | 125 | -58.1 | |||
| 2025-11-05T00:13 | 14730 | 125 | 254 | 37 | ||
| 2025-11-05T00:13 | 14975 | 120 | -58.1 | |||
| 2025-11-05T00:14 | 15044 | 119 | 256 | 40 | ||
| 2025-11-05T00:15 | 15363 | 113 | 260 | 37 | ||
| 2025-11-05T00:15 | 15515 | 110 | 258 | 36 | ||
| 2025-11-05T00:15 | 15562 | 109 | -59.4 | |||
| 2025-11-05T00:16 | 15873 | 104 | 258 | 36 | ||
| 2025-11-05T00:16 | 15897 | 104 | -60.1 | |||
| 2025-11-05T00:17 | 16149 | 99 | 251 | 37 | ||
| 2025-11-05T00:17 | 16155 | 99 | -59.8 | |||
| 2025-11-05T00:17 | 16374 | 96 | -59.0 | |||
| 2025-11-05T00:18 | 16430 | 95 | 268 | 35 | ||
| 2025-11-05T00:18 | 16663 | 92 | 256 | 30 | ||
| 2025-11-05T00:19 | 16957 | 87 | 249 | 34 | ||
| 2025-11-05T00:20 | 17074 | 86 | -58.8 | |||
| 2025-11-05T00:20 | 17170 | 85 | 259 | 34 | ||
| 2025-11-05T00:20 | 17305 | 83 | -57.6 | |||
| 2025-11-05T00:21 | 17381 | 82 | 263 | 32 | ||
| 2025-11-05T00:21 | 17578 | 79 | -56.6 | |||
| 2025-11-05T00:22 | 17754 | 77 | 269 | 24 | ||
| 2025-11-05T00:22 | 18005 | 74 | 266 | 19 | ||
| 2025-11-05T00:23 | 18146 | 72 | -57.3 | |||
| 2025-11-05T00:23 | 18340 | 70 | 260 | 26 | ||
| 2025-11-05T00:23 | 18378 | 70 | -55.2 | |||
| 2025-11-05T00:24 | 18574 | 68 | 257 | 19 | ||
| 2025-11-05T00:24 | 18775 | 66 | 247 | 19 | ||
| 2025-11-05T00:24 | 18803 | 65 | -54.8 | |||
| 2025-11-05T00:25 | 19063 | 63 | -55.8 | |||
| 2025-11-05T00:25 | 19102 | 62 | 253 | 26 | ||
| 2025-11-05T00:26 | 19283 | 61 | -52.4 | |||
| 2025-11-05T00:26 | 19464 | 59 | 245 | 16 | ||
| 2025-11-05T00:27 | 19823 | 56 | -55.4 | |||
| 2025-11-05T00:27 | 19870 | 55 | 219 | 19 | ||
| 2025-11-05T00:28 | 19973 | 54 | -54.0 | |||
| 2025-11-05T00:28 | 20227 | 52 | -54.2 | |||
| 2025-11-05T00:28 | 20239 | 52 | 238 | 19 | ||
| 2025-11-05T00:29 | 20527 | 50 | 234 | 18 | ||
| 2025-11-05T00:30 | 20790 | 48 | -55.0 | |||
| 2025-11-05T00:30 | 20883 | 47 | 242 | 18 | ||
| 2025-11-05T00:31 | 21090 | 46 | 256 | 18 | ||
| 2025-11-05T00:32 | 21450 | 43 | 252 | 14 | ||
| 2025-11-05T00:32 | 21704 | 42 | -55.3 | 253 | 12 | |
| 2025-11-05T00:33 | 22072 | 39 | 243 | 20 | ||
| 2025-11-05T00:34 | 22411 | 37 | -51.1 | |||
| 2025-11-05T00:34 | 22447 | 37 | 263 | 13 | ||
| 2025-11-05T00:35 | 22863 | 35 | 234 | 13 | ||
| 2025-11-05T00:36 | 23107 | 33 | -52.8 | |||
| 2025-11-05T00:36 | 23205 | 33 | 229 | 13 | ||
| 2025-11-05T00:37 | 23486 | 32 | 193 | 15 | ||
| 2025-11-05T00:37 | 23637 | 31 | -50.6 | |||
| 2025-11-05T00:38 | 23851 | 30 | 211 | 13 | ||
| 2025-11-05T00:39 | 24232 | 28 | -52.4 | 241 | 10 | |
| 2025-11-05T00:39 | 24369 | 28 | -50.0 | |||
| 2025-11-05T00:40 | 24635 | 26 | 238 | 23 | ||
| 2025-11-05T00:40 | 24963 | 25 | 257 | 20 | ||
| 2025-11-05T00:41 | 25203 | 24 | -49.3 | |||
| 2025-11-05T00:41 | 25231 | 24 | 256 | 13 | ||
| 2025-11-05T00:42 | 25367 | 24 | -47.3 | 223 | 8 | |
| 2025-11-05T00:42 | 25442 | 23 | -47.8 | 211 | 9 | |
| 2025-11-05T11:30 | 18 | 1023 | 8.0 | 5.6 | 280 | 1 |
| 2025-11-05T11:30 | 21 | 1022 | 7.7 | 5.2 | 0 | 0 |
| 2025-11-05T11:30 | 35 | 1021 | 7.7 | 4.6 | ||
| 2025-11-05T11:30 | 52 | 1019 | 9.5 | 5.1 | ||
| 2025-11-05T11:30 | 139 | 1008 | 9.3 | 4.1 | ||
| 2025-11-05T11:30 | 160 | 1005 | 307 | 3 | ||
| 2025-11-05T11:31 | 348 | 983 | 329 | 6 | ||
| 2025-11-05T11:31 | 391 | 978 | 7.7 | 2.8 | ||
| 2025-11-05T11:32 | 668 | 945 | 334 | 5 | ||
| 2025-11-05T11:33 | 884 | 921 | 3.3 | 1.5 | ||
| 2025-11-05T11:33 | 889 | 920 | 323 | 3 | ||
| 2025-11-05T11:33 | 1063 | 900 | 298 | 5 | ||
| 2025-11-05T11:33 | 1069 | 900 | 2.3 | -3.2 | ||
| 2025-11-05T11:34 | 1235 | 881 | 255 | 4 | ||
| 2025-11-05T11:34 | 1241 | 881 | 1.6 | -5.8 | ||
| 2025-11-05T11:34 | 1297 | 875 | 1.4 | -3.9 | ||
| 2025-11-05T11:34 | 1325 | 872 | 232 | 4 | ||
| 2025-11-05T11:34 | 1365 | 867 | 1.1 | -5.8 | ||
| 2025-11-05T11:34 | 1410 | 862 | 1.3 | -4.8 | ||
| 2025-11-05T11:35 | 1510 | 852 | 0.7 | -7.8 | ||
| 2025-11-05T11:35 | 1553 | 847 | 0.5 | -10.6 | ||
| 2025-11-05T11:35 | 1622 | 840 | 276 | 8 | ||
| 2025-11-05T11:35 | 1644 | 838 | 0.3 | -17.9 | ||
| 2025-11-05T11:35 | 1692 | 833 | 0.9 | -22.9 | ||
| 2025-11-05T11:36 | 1945 | 807 | 284 | 13 | ||
| 2025-11-05T11:36 | 1978 | 803 | -0.1 | -28.1 | ||
| 2025-11-05T11:37 | 2263 | 775 | 260 | 13 | ||
| 2025-11-05T11:37 | 2305 | 771 | -0.6 | -30.9 | ||
| 2025-11-05T11:38 | 2499 | 752 | 249 | 13 | ||
| 2025-11-05T11:38 | 2549 | 748 | -1.0 | -32.6 | ||
| 2025-11-05T11:38 | 2707 | 733 | 254 | 14 | ||
| 2025-11-05T11:39 | 2799 | 725 | -2.6 | -30.1 | ||
| 2025-11-05T11:39 | 3048 | 702 | 259 | 15 | ||
| 2025-11-05T11:40 | 3204 | 689 | -5.4 | -24.9 | ||
| 2025-11-05T11:40 | 3375 | 674 | 249 | 18 | ||
| 2025-11-05T11:41 | 3440 | 668 | -6.4 | -27.5 | ||
| 2025-11-05T11:41 | 3708 | 645 | 262 | 18 | ||
| 2025-11-05T11:42 | 3867 | 632 | -9.5 | -32.9 | ||
| 2025-11-05T11:42 | 3878 | 631 | 262 | 18 | ||
| 2025-11-05T11:42 | 4081 | 615 | -11.0 | -31.3 | ||
| 2025-11-05T11:43 | 4137 | 610 | 261 | 20 | ||
| 2025-11-05T11:43 | 4160 | 609 | -11.5 | -29.0 | ||
| 2025-11-05T11:44 | 4448 | 586 | 269 | 20 | ||
| 2025-11-05T11:44 | 4664 | 570 | -15.3 | -30.9 | ||
| 2025-11-05T11:45 | 4796 | 560 | 269 | 19 | ||
| 2025-11-05T11:45 | 4830 | 557 | -16.2 | -39.1 | ||
| 2025-11-05T11:45 | 4968 | 547 | -17.4 | -32.8 | ||
| 2025-11-05T11:45 | 5096 | 538 | -18.7 | -27.0 | ||
| 2025-11-05T11:46 | 5142 | 535 | 265 | 19 | ||
| 2025-11-05T11:46 | 5234 | 528 | -19.7 | -27.1 | ||
| 2025-11-05T11:46 | 5285 | 524 | 262 | 21 | ||
| 2025-11-05T11:46 | 5308 | 523 | -20.1 | -30.0 | ||
| 2025-11-05T11:46 | 5394 | 517 | -20.5 | -31.7 | ||
| 2025-11-05T11:46 | 5446 | 513 | -20.9 | -29.0 | ||
| 2025-11-05T11:47 | 5631 | 500 | 265 | 20 | ||
| 2025-11-05T11:47 | 5648 | 499 | -22.5 | -30.1 | ||
| 2025-11-05T11:48 | 5833 | 487 | -24.0 | -31.3 | ||
| 2025-11-05T11:48 | 5968 | 478 | 264 | 23 | ||
| 2025-11-05T11:48 | 6012 | 475 | -25.6 | -31.6 | ||
| 2025-11-05T11:49 | 6299 | 456 | 260 | 22 | ||
| 2025-11-05T11:49 | 6463 | 446 | -29.4 | -35.8 | ||
| 2025-11-05T11:50 | 6591 | 438 | -30.2 | -38.8 | ||
| 2025-11-05T11:50 | 6622 | 436 | 258 | 23 | ||
| 2025-11-05T11:50 | 6670 | 433 | -30.8 | -40.5 | ||
| 2025-11-05T11:50 | 6728 | 430 | -30.6 | -46.8 | ||
| 2025-11-05T11:51 | 6937 | 417 | 267 | 24 | ||
| 2025-11-05T11:51 | 7096 | 408 | 269 | 25 | ||
| 2025-11-05T11:52 | 7173 | 404 | -33.6 | -48.9 | ||
| 2025-11-05T11:52 | 7280 | 398 | -34.3 | -47.5 | ||
| 2025-11-05T11:52 | 7376 | 392 | -35.0 | -46.2 | ||
| 2025-11-05T11:52 | 7402 | 391 | 267 | 26 | ||
| 2025-11-05T11:53 | 7560 | 382 | -35.8 | -51.7 | ||
| 2025-11-05T11:53 | 7722 | 373 | 267 | 27 | ||
| 2025-11-05T11:53 | 7728 | 373 | -36.8 | -53.0 | ||
| 2025-11-05T11:54 | 7902 | 363 | -37.3 | -55.1 | ||
| 2025-11-05T11:54 | 8052 | 356 | 266 | 30 | ||
| 2025-11-05T11:55 | 8176 | 349 | -38.5 | -58.8 | ||
| 2025-11-05T11:55 | 8229 | 347 | 265 | 31 | ||
| 2025-11-05T11:55 | 8368 | 340 | -40.0 | -59.2 | ||
| 2025-11-05T11:56 | 8586 | 329 | 265 | 32 | ||
| 2025-11-05T11:57 | 8921 | 313 | 262 | 30 | ||
| 2025-11-05T11:57 | 8949 | 312 | -44.5 | |||
| 2025-11-05T11:58 | 9271 | 297 | 262 | 33 | ||
| 2025-11-05T11:59 | 9606 | 282 | 261 | 31 | ||
| 2025-11-05T12:00 | 9843 | 272 | -50.4 | |||
| 2025-11-05T12:00 | 9906 | 270 | 255 | 33 | ||
| 2025-11-05T12:01 | 10146 | 260 | 254 | 35 | ||
| 2025-11-05T12:01 | 10230 | 256 | -52.3 | |||
| 2025-11-05T12:02 | 10444 | 248 | -52.9 | |||
| 2025-11-05T12:02 | 10455 | 248 | 252 | 35 | ||
| 2025-11-05T12:03 | 10786 | 235 | 248 | 35 | ||
| 2025-11-05T12:04 | 11101 | 224 | 247 | 41 | ||
| 2025-11-05T12:04 | 11305 | 217 | -58.0 | |||
| 2025-11-05T12:05 | 11435 | 212 | 246 | 45 | ||
| 2025-11-05T12:05 | 11599 | 207 | -58.7 | |||
| 2025-11-05T12:06 | 11784 | 201 | 246 | 46 | ||
| 2025-11-05T12:07 | 12109 | 191 | 248 | 46 | ||
| 2025-11-05T12:07 | 12347 | 184 | -61.4 | |||
| 2025-11-05T12:08 | 12446 | 181 | 254 | 49 | ||
| 2025-11-05T12:08 | 12502 | 179 | -61.0 | |||
| 2025-11-05T12:08 | 12632 | 175 | 260 | 48 | ||
| 2025-11-05T12:09 | 12667 | 174 | -59.5 | |||
| 2025-11-05T12:09 | 12807 | 170 | 258 | 40 | ||
| 2025-11-05T12:10 | 12999 | 165 | 245 | 43 | ||
| 2025-11-05T12:10 | 13009 | 165 | -57.9 | |||
| 2025-11-05T12:11 | 13296 | 158 | 252 | 47 | ||
| 2025-11-05T12:11 | 13511 | 152 | 253 | 43 | ||
| 2025-11-05T12:11 | 13517 | 152 | -59.2 | |||
| 2025-11-05T12:12 | 13761 | 146 | 255 | 47 | ||
| 2025-11-05T12:12 | 13844 | 145 | -59.0 | |||
| 2025-11-05T12:12 | 13909 | 143 | 257 | 44 | ||
| 2025-11-05T12:13 | 14220 | 136 | 253 | 40 | ||
| 2025-11-05T12:14 | 14299 | 134 | -58.7 | |||
| 2025-11-05T12:14 | 14532 | 129 | 250 | 42 | ||
| 2025-11-05T12:15 | 14668 | 127 | -58.1 | |||
| 2025-11-05T12:15 | 14850 | 123 | 257 | 42 | ||
| 2025-11-05T12:16 | 15075 | 119 | -58.7 | |||
| 2025-11-05T12:16 | 15180 | 117 | 258 | 40 | ||
| 2025-11-05T12:17 | 15517 | 111 | 258 | 39 | ||
| 2025-11-05T12:17 | 15534 | 110 | -59.3 | |||
| 2025-11-05T12:18 | 15840 | 105 | 262 | 40 | ||
| 2025-11-05T12:19 | 16148 | 100 | -59.3 | |||
| 2025-11-05T12:19 | 16159 | 100 | 259 | 33 | ||
| 2025-11-05T12:20 | 16374 | 97 | -58.2 | |||
| 2025-11-05T12:20 | 16480 | 95 | 263 | 35 | ||
| 2025-11-05T12:21 | 16739 | 91 | -56.4 | |||
| 2025-11-05T12:21 | 16823 | 90 | 264 | 34 | ||
| 2025-11-05T12:22 | 17023 | 87 | 269 | 32 | ||
| 2025-11-05T12:22 | 17143 | 86 | -56.2 | |||
| 2025-11-05T12:23 | 17271 | 84 | 266 | 27 | ||
| 2025-11-05T12:23 | 17469 | 81 | 266 | 30 | ||
| 2025-11-05T12:23 | 17642 | 79 | 272 | 29 | ||
| 2025-11-05T12:24 | 17791 | 77 | -55.5 | |||
| 2025-11-05T12:24 | 17889 | 76 | 275 | 20 | ||
| 2025-11-05T12:25 | 18111 | 73 | 254 | 17 | ||
| 2025-11-05T12:25 | 18366 | 71 | -58.0 | |||
| 2025-11-05T12:26 | 18475 | 69 | 257 | 27 | ||
| 2025-11-05T12:27 | 18757 | 66 | -53.9 | |||
| 2025-11-05T12:27 | 18796 | 66 | 256 | 25 | ||
| 2025-11-05T12:28 | 19136 | 63 | 260 | 23 | ||
| 2025-11-05T12:29 | 19473 | 59 | 248 | 21 | ||
| 2025-11-05T12:29 | 19595 | 58 | -53.3 | |||
| 2025-11-05T12:29 | 19763 | 57 | -53.0 | |||
| 2025-11-05T12:30 | 19878 | 56 | 258 | 19 | ||
| 2025-11-05T12:31 | 20278 | 52 | 254 | 19 | ||
| 2025-11-05T12:31 | 20413 | 51 | -55.6 | |||
| 2025-11-05T12:31 | 20481 | 51 | 262 | 17 | ||
| 2025-11-05T12:32 | 20634 | 50 | -55.6 | |||
| 2025-11-05T12:32 | 20790 | 48 | 266 | 13 | ||
| 2025-11-05T12:33 | 21030 | 47 | 277 | 12 | ||
| 2025-11-05T12:34 | 21365 | 44 | 241 | 12 | ||
| 2025-11-05T12:34 | 21675 | 42 | -56.3 | |||
| 2025-11-05T12:35 | 21737 | 42 | 226 | 25 | ||
| 2025-11-05T12:35 | 21800 | 41 | -54.5 | |||
| 2025-11-05T12:35 | 21971 | 40 | 236 | 25 | ||
| 2025-11-05T12:36 | 22217 | 39 | 243 | 29 | ||
| 2025-11-05T12:36 | 22267 | 38 | -52.8 | |||
| 2025-11-05T12:37 | 22596 | 36 | 252 | 12 | ||
| 2025-11-05T12:38 | 22889 | 35 | 222 | 14 | ||
| 2025-11-05T12:38 | 23215 | 33 | 242 | 17 | ||
| 2025-11-05T12:39 | 23336 | 33 | -50.5 | |||
| 2025-11-05T12:39 | 23660 | 31 | 266 | 18 | ||
| 2025-11-05T12:40 | 23938 | 30 | 272 | 12 | ||
| 2025-11-05T12:40 | 24074 | 29 | 277 | 17 | ||
| 2025-11-05T12:41 | 24256 | 28 | -52.0 | 269 | 11 | |
| 2025-11-05T23:30 | 18 | 1021 | 6.9 | 2.8 | 110 | 1 |
| 2025-11-05T23:30 | 22 | 1020 | 6.5 | 2.0 | 0 | 0 |
| 2025-11-05T23:30 | 30 | 1019 | 6.0 | 1.5 | ||
| 2025-11-05T23:31 | 174 | 1002 | 5.4 | 1.1 | ||
| 2025-11-05T23:31 | 212 | 997 | 7.4 | 1.3 | ||
| 2025-11-05T23:31 | 229 | 995 | 168 | 3 | ||
| 2025-11-05T23:31 | 448 | 969 | 5.7 | 0.9 | ||
| 2025-11-05T23:31 | 483 | 964 | 148 | 3 | ||
| 2025-11-05T23:32 | 530 | 959 | 5.5 | 0.1 | ||
| 2025-11-05T23:32 | 600 | 951 | 158 | 4 | ||
| 2025-11-05T23:32 | 732 | 936 | 4.1 | -1.1 | ||
| 2025-11-05T23:33 | 910 | 915 | 174 | 4 | ||
| 2025-11-05T23:33 | 956 | 910 | 3.5 | -5.7 | ||
| 2025-11-05T23:33 | 1104 | 894 | 212 | 5 | ||
| 2025-11-05T23:33 | 1110 | 893 | 2.5 | -7.4 | ||
| 2025-11-05T23:33 | 1211 | 882 | 3.1 | -15.5 | ||
| 2025-11-05T23:34 | 1284 | 874 | 258 | 7 | ||
| 2025-11-05T23:34 | 1420 | 859 | 2.1 | -14.5 | ||
| 2025-11-05T23:34 | 1489 | 852 | 2.9 | -21.2 | ||
| 2025-11-05T23:34 | 1495 | 852 | 253 | 9 | ||
| 2025-11-05T23:35 | 1620 | 839 | 240 | 6 | ||
| 2025-11-05T23:35 | 1639 | 837 | 1.6 | -10.6 | ||
| 2025-11-05T23:35 | 1702 | 830 | 1.4 | -13.1 | ||
| 2025-11-05T23:35 | 1894 | 811 | 0.1 | -14.3 | ||
| 2025-11-05T23:35 | 1943 | 806 | 243 | 10 | ||
| 2025-11-05T23:36 | 2040 | 796 | -1.2 | -9.8 | ||
| 2025-11-05T23:36 | 2176 | 782 | -1.9 | -11.5 | ||
| 2025-11-05T23:36 | 2302 | 770 | 244 | 13 | ||
| 2025-11-05T23:37 | 2406 | 760 | -3.6 | -12.8 | ||
| 2025-11-05T23:37 | 2670 | 735 | 237 | 14 | ||
| 2025-11-05T23:38 | 2737 | 729 | -6.4 | -14.6 | ||
| 2025-11-05T23:38 | 2817 | 721 | -6.1 | -22.1 | ||
| 2025-11-05T23:38 | 3031 | 702 | 248 | 11 | ||
| 2025-11-05T23:39 | 3119 | 694 | -7.0 | -30.1 | ||
| 2025-11-05T23:39 | 3195 | 687 | 255 | 12 | ||
| 2025-11-05T23:40 | 3431 | 666 | 246 | 14 | ||
| 2025-11-05T23:40 | 3480 | 662 | -8.0 | -35.4 | ||
| 2025-11-05T23:40 | 3577 | 654 | -8.3 | -25.3 | ||
| 2025-11-05T23:40 | 3645 | 648 | -8.8 | -31.5 | ||
| 2025-11-05T23:40 | 3681 | 645 | -8.9 | -36.1 | ||
| 2025-11-05T23:41 | 3797 | 636 | 252 | 17 | ||
| 2025-11-05T23:41 | 3815 | 634 | -10.0 | -21.3 | ||
| 2025-11-05T23:41 | 3983 | 620 | -11.4 | -25.9 | ||
| 2025-11-05T23:42 | 4142 | 608 | 260 | 17 | ||
| 2025-11-05T23:42 | 4263 | 598 | -13.3 | -32.6 | ||
| 2025-11-05T23:43 | 4490 | 580 | 250 | 19 | ||
| 2025-11-05T23:43 | 4701 | 564 | -16.6 | -35.4 | ||
| 2025-11-05T23:44 | 4845 | 554 | 249 | 20 | ||
| 2025-11-05T23:44 | 4918 | 548 | -17.6 | -42.9 | ||
| 2025-11-05T23:44 | 5137 | 532 | -19.0 | -38.6 | ||
| 2025-11-05T23:44 | 5156 | 531 | 252 | 22 | ||
| 2025-11-05T23:45 | 5429 | 512 | -21.3 | -37.4 | ||
| 2025-11-05T23:45 | 5540 | 504 | 250 | 22 | ||
| 2025-11-05T23:46 | 5711 | 492 | -23.8 | -39.1 | ||
| 2025-11-05T23:46 | 5861 | 482 | 249 | 25 | ||
| 2025-11-05T23:46 | 5884 | 481 | -24.3 | -46.5 | ||
| 2025-11-05T23:47 | 6124 | 465 | 256 | 28 | ||
| 2025-11-05T23:47 | 6165 | 463 | -25.8 | -49.4 | ||
| 2025-11-05T23:48 | 6475 | 443 | 255 | 29 | ||
| 2025-11-05T23:49 | 6743 | 427 | 256 | 30 | ||
| 2025-11-05T23:49 | 6789 | 424 | -30.3 | -47.5 | ||
| 2025-11-05T23:50 | 7100 | 406 | 249 | 31 | ||
| 2025-11-05T23:50 | 7282 | 395 | -33.8 | -52.1 | ||
| 2025-11-05T23:51 | 7461 | 385 | 249 | 32 | ||
| 2025-11-05T23:52 | 7834 | 365 | 248 | 34 | ||
| 2025-11-05T23:52 | 7988 | 357 | -38.9 | -52.6 | ||
| 2025-11-05T23:53 | 8111 | 351 | -40.0 | -52.2 | ||
| 2025-11-05T23:53 | 8205 | 346 | 248 | 34 | ||
| 2025-11-05T23:54 | 8542 | 329 | 250 | 34 | ||
| 2025-11-05T23:54 | 8662 | 323 | -44.7 | |||
| 2025-11-05T23:55 | 8879 | 313 | 246 | 33 | ||
| 2025-11-05T23:56 | 9197 | 298 | 245 | 35 | ||
| 2025-11-05T23:56 | 9203 | 298 | -49.0 | |||
| 2025-11-05T23:57 | 9472 | 286 | -50.5 | |||
| 2025-11-05T23:57 | 9516 | 284 | 240 | 37 | ||
| 2025-11-05T23:58 | 9832 | 271 | 243 | 38 | ||
| 2025-11-05T23:58 | 9898 | 268 | -51.7 | |||
| 2025-11-05T23:59 | 10086 | 260 | -51.1 | |||
| 2025-11-05T23:59 | 10127 | 259 | 239 | 41 | ||
| 2025-11-05T23:59 | 10337 | 250 | 236 | 42 | ||
| 2025-11-06T00:00 | 10666 | 238 | 231 | 46 | ||
| 2025-11-06T00:01 | 10697 | 237 | -53.4 | |||
| 2025-11-06T00:01 | 10988 | 226 | 230 | 49 | ||
| 2025-11-06T00:02 | 11044 | 224 | -54.5 | |||
| 2025-11-06T00:02 | 11329 | 214 | 235 | 45 | ||
| 2025-11-06T00:03 | 11501 | 209 | -56.7 | |||
| 2025-11-06T00:03 | 11665 | 203 | 236 | 47 | ||
| 2025-11-06T00:04 | 11703 | 202 | -56.3 | |||
| 2025-11-06T00:04 | 11839 | 198 | 236 | 51 | ||
| 2025-11-06T00:04 | 12024 | 192 | -55.9 | |||
| 2025-11-06T00:05 | 12053 | 191 | 240 | 48 | ||
| 2025-11-06T00:05 | 12365 | 182 | -57.0 | |||
| 2025-11-06T00:06 | 12398 | 181 | 241 | 49 | ||
| 2025-11-06T00:07 | 12704 | 172 | -58.1 | |||
| 2025-11-06T00:07 | 12720 | 172 | 235 | 43 | ||
| 2025-11-06T00:07 | 12812 | 170 | -57.5 | |||
| 2025-11-06T00:08 | 13051 | 163 | 236 | 48 | ||
| 2025-11-06T00:08 | 13122 | 161 | -59.7 | |||
| 2025-11-06T00:08 | 13229 | 159 | -57.4 | |||
| 2025-11-06T00:09 | 13391 | 155 | 244 | 43 | ||
| 2025-11-06T00:09 | 13666 | 148 | 248 | 48 | ||
| 2025-11-06T00:10 | 13773 | 146 | -58.0 | |||
| 2025-11-06T00:10 | 13937 | 142 | 256 | 43 | ||
| 2025-11-06T00:11 | 14268 | 135 | 260 | 37 | ||
| 2025-11-06T00:11 | 14368 | 132 | -58.8 | |||
| 2025-11-06T00:12 | 14602 | 128 | 253 | 38 | ||
| 2025-11-06T00:12 | 14700 | 126 | -58.8 | |||
| 2025-11-06T00:13 | 14930 | 121 | 257 | 41 | ||
| 2025-11-06T00:14 | 15147 | 117 | -57.7 | |||
| 2025-11-06T00:14 | 15226 | 116 | 258 | 40 | ||
| 2025-11-06T00:15 | 15560 | 110 | 256 | 38 | ||
| 2025-11-06T00:15 | 15603 | 109 | -58.1 | |||
| 2025-11-06T00:16 | 15808 | 105 | 257 | 44 | ||
| 2025-11-06T00:16 | 16024 | 102 | -57.2 | |||
| 2025-11-06T00:17 | 16166 | 100 | 262 | 36 | ||
| 2025-11-06T00:18 | 16520 | 94 | 267 | 36 | ||
| 2025-11-06T00:18 | 16581 | 93 | -57.8 | |||
| 2025-11-06T00:18 | 16787 | 90 | -58.7 | |||
| 2025-11-06T00:19 | 16892 | 89 | 262 | 30 | ||
| 2025-11-06T00:20 | 17247 | 84 | 248 | 32 | ||
| 2025-11-06T00:20 | 17437 | 81 | -58.2 | |||
| 2025-11-06T00:20 | 17534 | 80 | 254 | 34 | ||
| 2025-11-06T00:22 | 17898 | 76 | 256 | 33 | ||
| 2025-11-06T00:22 | 18081 | 73 | -59.0 | |||
| 2025-11-06T00:22 | 18108 | 73 | 259 | 34 | ||
| 2025-11-06T00:23 | 18281 | 71 | -58.9 | |||
| 2025-11-06T00:23 | 18464 | 69 | 262 | 35 | ||
| 2025-11-06T00:23 | 18491 | 69 | -57.1 | |||
| 2025-11-06T00:24 | 18659 | 67 | 273 | 35 | ||
| 2025-11-06T00:25 | 19030 | 63 | 282 | 28 | ||
| 2025-11-06T00:25 | 19090 | 63 | -54.1 | |||
| 2025-11-06T00:25 | 19256 | 61 | 285 | 25 | ||
| 2025-11-06T00:26 | 19580 | 58 | 291 | 21 | ||
| 2025-11-06T00:27 | 19859 | 56 | -55.4 | |||
| 2025-11-06T00:27 | 19882 | 55 | 269 | 17 | ||
| 2025-11-06T00:28 | 20202 | 53 | 269 | 16 | ||
| 2025-11-06T00:28 | 20335 | 52 | -56.7 | |||
| 2025-11-06T00:29 | 20512 | 50 | -56.8 | |||
| 2025-11-06T00:29 | 20547 | 50 | 269 | 18 | ||
| 2025-11-06T00:30 | 20785 | 48 | 259 | 13 | ||
| 2025-11-06T00:30 | 21065 | 46 | -56.8 | |||
| 2025-11-06T00:30 | 21105 | 46 | 224 | 14 | ||
| 2025-11-06T00:31 | 21431 | 43 | 243 | 18 | ||
| 2025-11-06T00:32 | 21596 | 42 | -57.8 | |||
| 2025-11-06T00:32 | 21717 | 41 | -55.0 | |||
| 2025-11-06T00:32 | 21748 | 41 | 275 | 20 | ||
| 2025-11-06T00:33 | 21967 | 40 | 275 | 14 | ||
| 2025-11-06T00:33 | 22197 | 38 | 278 | 12 | ||
| 2025-11-06T00:33 | 22317 | 38 | -52.5 | |||
| 2025-11-06T00:34 | 22350 | 38 | 288 | 15 | ||
| 2025-11-06T00:34 | 22649 | 36 | 255 | 15 | ||
| 2025-11-06T00:35 | 22777 | 35 | -52.9 | |||
| 2025-11-06T00:35 | 22798 | 35 | 253 | 18 | ||
| 2025-11-06T00:35 | 22939 | 34 | -52.9 | 269 | 14 | |
| 2025-11-06T11:30 | 18 | 1013 | 9.9 | 4.7 | 310 | 2 |
| 2025-11-06T11:30 | 22 | 1012 | 9.7 | 4.3 | 0 | 0 |
| 2025-11-06T11:30 | 70 | 1006 | 9.8 | 3.3 | ||
| 2025-11-06T11:30 | 139 | 998 | 10.2 | 2.1 | ||
| 2025-11-06T11:30 | 145 | 997 | 324 | 3 | ||
| 2025-11-06T11:31 | 439 | 963 | 315 | 4 | ||
| 2025-11-06T11:32 | 736 | 928 | 317 | 5 | ||
| 2025-11-06T11:33 | 1113 | 886 | 328 | 5 | ||
| 2025-11-06T11:33 | 1167 | 880 | 0.5 | 0.1 | ||
| 2025-11-06T11:33 | 1218 | 875 | 342 | 4 | ||
| 2025-11-06T11:33 | 1343 | 861 | 296 | 7 | ||
| 2025-11-06T11:34 | 1518 | 842 | 278 | 8 | ||
| 2025-11-06T11:34 | 1538 | 840 | -1.1 | -1.7 | ||
| 2025-11-06T11:35 | 1784 | 815 | 275 | 14 | ||
| 2025-11-06T11:35 | 1904 | 803 | 275 | 15 | ||
| 2025-11-06T11:35 | 2004 | 792 | 271 | 19 | ||
| 2025-11-06T11:36 | 2326 | 761 | 272 | 19 | ||
| 2025-11-06T11:37 | 2660 | 729 | 273 | 17 | ||
| 2025-11-06T11:37 | 2762 | 719 | -7.7 | -9.1 | ||
| 2025-11-06T11:38 | 3004 | 697 | 274 | 18 | ||
| 2025-11-06T11:39 | 3339 | 668 | 276 | 18 | ||
| 2025-11-06T11:39 | 3378 | 664 | -11.3 | -12.9 | ||
| 2025-11-06T11:40 | 3655 | 641 | 275 | 18 | ||
| 2025-11-06T11:41 | 3824 | 627 | -15.4 | -17.5 | ||
| 2025-11-06T11:41 | 3878 | 622 | -15.9 | -21.3 | ||
| 2025-11-06T11:41 | 3912 | 619 | -16.2 | -22.8 | ||
| 2025-11-06T11:41 | 3981 | 613 | 270 | 23 | ||
| 2025-11-06T11:41 | 3987 | 613 | -16.9 | -24.4 | ||
| 2025-11-06T11:41 | 4040 | 609 | -17.3 | -25.9 | ||
| 2025-11-06T11:42 | 4230 | 593 | -19.1 | -28.1 | ||
| 2025-11-06T11:42 | 4314 | 587 | -19.8 | -29.2 | ||
| 2025-11-06T11:42 | 4338 | 585 | 277 | 24 | ||
| 2025-11-06T11:43 | 4600 | 564 | -21.9 | -31.6 | ||
| 2025-11-06T11:43 | 4684 | 558 | 287 | 27 | ||
| 2025-11-06T11:43 | 4701 | 557 | -22.3 | -31.7 | ||
| 2025-11-06T11:44 | 5026 | 533 | 278 | 29 | ||
| 2025-11-06T11:44 | 5077 | 529 | -24.2 | -34.5 | ||
| 2025-11-06T11:45 | 5366 | 508 | 273 | 28 | ||
| 2025-11-06T11:46 | 5691 | 486 | -28.3 | -39.9 | ||
| 2025-11-06T11:46 | 5715 | 484 | 265 | 29 | ||
| 2025-11-06T11:46 | 5802 | 478 | -29.2 | -40.7 | ||
| 2025-11-06T11:47 | 5959 | 468 | -30.5 | -41.0 | ||
| 2025-11-06T11:47 | 6089 | 459 | 263 | 31 | ||
| 2025-11-06T11:48 | 6476 | 435 | 261 | 29 | ||
| 2025-11-06T11:49 | 6831 | 413 | -37.8 | -47.6 | ||
| 2025-11-06T11:49 | 6869 | 411 | 264 | 29 | ||
| 2025-11-06T11:50 | 7082 | 398 | -40.0 | -48.9 | ||
| 2025-11-06T11:50 | 7240 | 389 | 270 | 30 | ||
| 2025-11-06T11:51 | 7539 | 372 | -43.4 | |||
| 2025-11-06T11:51 | 7598 | 369 | 274 | 30 | ||
| 2025-11-06T11:52 | 7726 | 362 | -44.0 | |||
| 2025-11-06T11:52 | 7941 | 351 | 267 | 30 | ||
| 2025-11-06T11:52 | 8024 | 346 | -45.4 | |||
| 2025-11-06T11:53 | 8282 | 333 | 271 | 32 | ||
| 2025-11-06T11:53 | 8324 | 331 | -46.6 | |||
| 2025-11-06T11:54 | 8649 | 315 | -47.8 | 270 | 30 | |
| 2025-11-06T11:55 | 8896 | 304 | -48.7 | |||
| 2025-11-06T11:55 | 9032 | 297 | 265 | 29 | ||
| 2025-11-06T11:56 | 9415 | 280 | 264 | 32 | ||
| 2025-11-06T11:56 | 9480 | 278 | -49.7 | |||
| 2025-11-06T11:57 | 9671 | 270 | -49.8 | |||
| 2025-11-06T11:57 | 9731 | 267 | 247 | 35 | ||
| 2025-11-06T11:57 | 9853 | 262 | -49.9 | |||
| 2025-11-06T11:58 | 10060 | 254 | 248 | 42 | ||
| 2025-11-06T11:58 | 10111 | 252 | -50.1 | |||
| 2025-11-06T11:59 | 10330 | 244 | 258 | 42 | ||
| 2025-11-06T11:59 | 10464 | 239 | -48.0 | |||
| 2025-11-06T11:59 | 10650 | 232 | -47.0 | |||
| 2025-11-06T11:59 | 10668 | 232 | 253 | 32 | ||
| 2025-11-06T12:00 | 10830 | 226 | 249 | 35 | ||
| 2025-11-06T12:01 | 11053 | 219 | -46.7 | |||
| 2025-11-06T12:01 | 11154 | 215 | 237 | 29 | ||
| 2025-11-06T12:01 | 11317 | 210 | 225 | 32 | ||
| 2025-11-06T12:01 | 11430 | 206 | -48.2 | |||
| 2025-11-06T12:02 | 11712 | 198 | 226 | 36 | ||
| 2025-11-06T12:03 | 11921 | 192 | -51.6 | |||
| 2025-11-06T12:03 | 12014 | 189 | 238 | 39 | ||
| 2025-11-06T12:04 | 12332 | 180 | 239 | 35 | ||
| 2025-11-06T12:04 | 12490 | 175 | 241 | 39 | ||
| 2025-11-06T12:04 | 12512 | 175 | -51.4 | |||
| 2025-11-06T12:05 | 12818 | 167 | 247 | 40 | ||
| 2025-11-06T12:05 | 12870 | 165 | -50.7 | |||
| 2025-11-06T12:06 | 13174 | 158 | 244 | 39 | ||
| 2025-11-06T12:07 | 13253 | 156 | -51.1 | |||
| 2025-11-06T12:07 | 13445 | 151 | -52.0 | |||
| 2025-11-06T12:07 | 13486 | 151 | 247 | 45 | ||
| 2025-11-06T12:08 | 13763 | 144 | -51.3 | |||
| 2025-11-06T12:08 | 13779 | 144 | 251 | 45 | ||
| 2025-11-06T12:08 | 13860 | 142 | -50.8 | |||
| 2025-11-06T12:09 | 14028 | 138 | -51.5 | |||
| 2025-11-06T12:09 | 14060 | 138 | 253 | 51 | ||
| 2025-11-06T12:09 | 14142 | 136 | -50.5 | |||
| 2025-11-06T12:10 | 14282 | 133 | 256 | 46 | ||
| 2025-11-06T12:10 | 14336 | 132 | -50.5 | |||
| 2025-11-06T12:10 | 14445 | 130 | -50.4 | |||
| 2025-11-06T12:11 | 14610 | 127 | -50.0 | 257 | 46 | |
| 2025-11-06T12:11 | 14795 | 123 | -49.8 | |||
| 2025-11-06T12:12 | 14947 | 120 | 258 | 42 | ||
| 2025-11-06T12:13 | 15297 | 114 | 252 | 35 | ||
| 2025-11-06T12:13 | 15484 | 111 | -50.4 | |||
| 2025-11-06T12:14 | 15712 | 107 | 233 | 34 | ||
| 2025-11-06T12:14 | 15774 | 106 | -51.2 | |||
| 2025-11-06T12:15 | 16069 | 101 | 232 | 37 | ||
| 2025-11-06T12:15 | 16223 | 99 | -53.7 | |||
| 2025-11-06T12:16 | 16389 | 96 | 246 | 37 | ||
| 2025-11-06T12:17 | 16725 | 91 | 246 | 35 | ||
| 2025-11-06T12:17 | 16917 | 89 | 245 | 37 | ||
| 2025-11-06T12:18 | 17041 | 87 | -55.3 | |||
| 2025-11-06T12:18 | 17232 | 84 | 236 | 37 | ||
| 2025-11-06T12:19 | 17363 | 83 | -56.3 | |||
| 2025-11-06T12:19 | 17533 | 81 | 248 | 36 | ||
| 2025-11-06T12:20 | 17865 | 76 | 258 | 36 | ||
| 2025-11-06T12:21 | 18132 | 73 | -58.5 | |||
| 2025-11-06T12:21 | 18263 | 72 | 263 | 35 | ||
| 2025-11-06T12:22 | 18693 | 67 | 271 | 32 | ||
| 2025-11-06T12:23 | 18890 | 65 | -63.2 | |||
| 2025-11-06T12:23 | 19085 | 63 | 282 | 27 | ||
| 2025-11-06T12:24 | 19244 | 61 | -63.1 | |||
| 2025-11-06T12:24 | 19426 | 59 | 277 | 25 | ||
| 2025-11-06T12:25 | 19646 | 57 | -64.7 | |||
| 2025-11-06T12:25 | 19724 | 57 | 280 | 21 | ||
| 2025-11-06T12:26 | 19764 | 56 | -62.0 | |||
| 2025-11-06T12:26 | 19934 | 55 | -57.9 | |||
| 2025-11-06T12:26 | 19979 | 54 | 229 | 21 | ||
| 2025-11-06T12:27 | 20329 | 51 | 247 | 26 | ||
| 2025-11-06T12:27 | 20437 | 51 | -58.6 | |||
| 2025-11-06T12:28 | 20466 | 50 | -58.9 | 249 | 27 | |
| 2025-11-06T23:30 | 18 | 1011 | 5.6 | 2.8 | 320 | 6 |
| 2025-11-06T23:30 | 27 | 1010 | 5.9 | 3.1 | 318 | 1 |
| 2025-11-06T23:30 | 77 | 1004 | 267 | 3 | ||
| 2025-11-06T23:30 | 93 | 1002 | 312 | 4 | ||
| 2025-11-06T23:30 | 120 | 999 | 4.8 | 1.5 | ||
| 2025-11-06T23:31 | 215 | 987 | 4.0 | 0.5 | ||
| 2025-11-06T23:31 | 252 | 982 | 4.1 | 0.1 | ||
| 2025-11-06T23:31 | 299 | 977 | 296 | 10 | ||
| 2025-11-06T23:31 | 388 | 966 | 3.1 | -0.7 | ||
| 2025-11-06T23:32 | 516 | 951 | 294 | 13 | ||
| 2025-11-06T23:32 | 756 | 923 | 0.4 | -3.5 | ||
| 2025-11-06T23:33 | 844 | 913 | 292 | 14 | ||
| 2025-11-06T23:34 | 1182 | 875 | 290 | 17 | ||
| 2025-11-06T23:34 | 1390 | 852 | -4.9 | -6.6 | ||
| 2025-11-06T23:34 | 1415 | 849 | 292 | 17 | ||
| 2025-11-06T23:35 | 1605 | 829 | -6.7 | -7.2 | ||
| 2025-11-06T23:35 | 1765 | 812 | 302 | 19 | ||
| 2025-11-06T23:36 | 1977 | 790 | -9.4 | -10.3 | ||
| 2025-11-06T23:36 | 2111 | 777 | 299 | 21 | ||
| 2025-11-06T23:36 | 2230 | 765 | -11.1 | -11.6 | ||
| 2025-11-06T23:37 | 2327 | 755 | -11.6 | -13.2 | ||
| 2025-11-06T23:37 | 2480 | 740 | 302 | 20 | ||
| 2025-11-06T23:37 | 2598 | 729 | -12.9 | -20.9 | ||
| 2025-11-06T23:38 | 2638 | 725 | -12.9 | -26.2 | ||
| 2025-11-06T23:38 | 2817 | 708 | 299 | 19 | ||
| 2025-11-06T23:39 | 2991 | 692 | -16.3 | -24.3 | ||
| 2025-11-06T23:39 | 3116 | 681 | 297 | 20 | ||
| 2025-11-06T23:39 | 3131 | 679 | -17.6 | -25.3 | ||
| 2025-11-06T23:40 | 3354 | 659 | -19.7 | -24.8 | ||
| 2025-11-06T23:40 | 3443 | 652 | 292 | 21 | ||
| 2025-11-06T23:40 | 3460 | 650 | -20.6 | -24.0 | ||
| 2025-11-06T23:41 | 3681 | 631 | 287 | 21 | ||
| 2025-11-06T23:41 | 3880 | 614 | -24.2 | -27.4 | ||
| 2025-11-06T23:42 | 4037 | 601 | 288 | 24 | ||
| 2025-11-06T23:42 | 4127 | 593 | -26.2 | -29.0 | ||
| 2025-11-06T23:42 | 4191 | 588 | 289 | 28 | ||
| 2025-11-06T23:43 | 4418 | 570 | -28.8 | -31.2 | ||
| 2025-11-06T23:43 | 4483 | 564 | -29.2 | -32.9 | ||
| 2025-11-06T23:43 | 4519 | 562 | 281 | 31 | ||
| 2025-11-06T23:43 | 4529 | 561 | -29.1 | -36.9 | ||
| 2025-11-06T23:43 | 4564 | 558 | -29.4 | -38.5 | ||
| 2025-11-06T23:44 | 4610 | 555 | -28.9 | -48.7 | ||
| 2025-11-06T23:44 | 4777 | 542 | -29.8 | -54.7 | ||
| 2025-11-06T23:44 | 4832 | 538 | -29.8 | -56.0 | ||
| 2025-11-06T23:44 | 4838 | 537 | 291 | 29 | ||
| 2025-11-06T23:45 | 5118 | 516 | 294 | 33 | ||
| 2025-11-06T23:45 | 5171 | 513 | -31.6 | -57.4 | ||
| 2025-11-06T23:46 | 5405 | 496 | 290 | 33 | ||
| 2025-11-06T23:47 | 5718 | 474 | 292 | 36 | ||
| 2025-11-06T23:47 | 5852 | 465 | 289 | 38 | ||
| 2025-11-06T23:48 | 6076 | 450 | -36.4 | -62.5 | ||
| 2025-11-06T23:48 | 6242 | 440 | 289 | 43 | ||
| 2025-11-06T23:48 | 6363 | 432 | -37.1 | -64.7 | ||
| 2025-11-06T23:49 | 6554 | 420 | 288 | 51 | ||
| 2025-11-06T23:49 | 6632 | 416 | -38.8 | -68.1 | ||
| 2025-11-06T23:49 | 6749 | 409 | 286 | 48 | ||
| 2025-11-06T23:49 | 6827 | 404 | -40.0 | -68.9 | ||
| 2025-11-06T23:50 | 6894 | 400 | -40.3 | |||
| 2025-11-06T23:50 | 6929 | 398 | 286 | 50 | ||
| 2025-11-06T23:50 | 6954 | 397 | -40.0 | |||
| 2025-11-06T23:50 | 7032 | 392 | 285 | 54 | ||
| 2025-11-06T23:51 | 7311 | 376 | -39.4 | |||
| 2025-11-06T23:51 | 7366 | 373 | 286 | 55 | ||
| 2025-11-06T23:52 | 7691 | 356 | 284 | 62 | ||
| 2025-11-06T23:52 | 7755 | 353 | -40.8 | |||
| 2025-11-06T23:53 | 7955 | 342 | 286 | 58 | ||
| 2025-11-06T23:53 | 8132 | 334 | 283 | 58 | ||
| 2025-11-06T23:53 | 8138 | 333 | -41.4 | |||
| 2025-11-06T23:54 | 8262 | 327 | 286 | 61 | ||
| 2025-11-06T23:54 | 8275 | 327 | -41.8 | |||
| 2025-11-06T23:55 | 8583 | 312 | 291 | 56 | ||
| 2025-11-06T23:55 | 8659 | 309 | -43.1 | |||
| 2025-11-06T23:55 | 8833 | 301 | 290 | 49 | ||
| 2025-11-06T23:55 | 8852 | 300 | -43.4 | |||
| 2025-11-06T23:56 | 8988 | 294 | 286 | 46 | ||
| 2025-11-06T23:56 | 9190 | 285 | -44.8 | 281 | 49 | |
| 2025-11-06T23:57 | 9464 | 274 | -44.8 | |||
| 2025-11-06T23:57 | 9541 | 271 | 283 | 48 | ||
| 2025-11-06T23:58 | 9907 | 256 | 281 | 50 | ||
| 2025-11-06T23:59 | 10030 | 251 | -47.7 | |||
| 2025-11-06T23:59 | 10253 | 243 | -47.7 | |||
| 2025-11-06T23:59 | 10286 | 242 | 281 | 43 | ||
| 2025-11-07T00:00 | 10668 | 228 | 275 | 43 | ||
| 2025-11-07T00:00 | 10759 | 225 | -47.7 | |||
| 2025-11-07T00:01 | 10915 | 220 | -46.6 | |||
| 2025-11-07T00:01 | 10979 | 218 | 275 | 40 | ||
| 2025-11-07T00:02 | 11101 | 214 | -46.2 | |||
| 2025-11-07T00:02 | 11158 | 212 | 272 | 42 | ||
| 2025-11-07T00:02 | 11189 | 211 | -45.1 | |||
| 2025-11-07T00:03 | 11426 | 204 | -45.8 | |||
| 2025-11-07T00:03 | 11503 | 201 | 278 | 38 | ||
| 2025-11-07T00:04 | 11841 | 191 | -45.1 | |||
| 2025-11-07T00:04 | 11898 | 190 | 273 | 35 | ||
| 2025-11-07T00:05 | 12230 | 181 | -45.7 | |||
| 2025-11-07T00:05 | 12339 | 178 | 269 | 28 | ||
| 2025-11-07T00:05 | 12355 | 177 | -45.6 | |||
| 2025-11-07T00:05 | 12501 | 173 | 260 | 26 | ||
| 2025-11-07T00:05 | 12534 | 172 | -46.2 | |||
| 2025-11-07T00:06 | 12974 | 161 | 251 | 29 | ||
| 2025-11-07T00:07 | 13372 | 152 | -52.0 | |||
| 2025-11-07T00:07 | 13396 | 151 | 254 | 35 | ||
| 2025-11-07T00:08 | 13598 | 147 | -51.0 | |||
| 2025-11-07T00:08 | 13688 | 145 | 252 | 34 | ||
| 2025-11-07T00:09 | 13935 | 139 | -52.1 | 247 | 33 | |
| 2025-11-07T00:10 | 14192 | 134 | 245 | 33 | ||
| 2025-11-07T00:10 | 14290 | 132 | -50.2 | |||
| 2025-11-07T00:11 | 14528 | 127 | 251 | 37 | ||
| 2025-11-07T00:12 | 14792 | 122 | -50.9 | |||
| 2025-11-07T00:12 | 14911 | 120 | 259 | 30 | ||
| 2025-11-07T00:13 | 15223 | 114 | -52.0 | |||
| 2025-11-07T00:13 | 15274 | 113 | 249 | 34 | ||
| 2025-11-07T00:13 | 15356 | 112 | -52.2 | |||
| 2025-11-07T00:14 | 15566 | 108 | 254 | 36 | ||
| 2025-11-07T00:14 | 15579 | 108 | -51.8 | |||
| 2025-11-07T00:15 | 15749 | 105 | -51.1 | |||
| 2025-11-07T00:15 | 15762 | 105 | 257 | 41 | ||
| 2025-11-07T00:15 | 15854 | 104 | -49.6 | |||
| 2025-11-07T00:16 | 15919 | 103 | 266 | 35 | ||
| 2025-11-07T00:16 | 16035 | 101 | -48.9 | |||
| 2025-11-07T00:16 | 16120 | 99 | 261 | 29 | ||
| 2025-11-07T00:17 | 16283 | 97 | 253 | 27 | ||
| 2025-11-07T00:17 | 16406 | 95 | -48.7 | |||
| 2025-11-07T00:18 | 16703 | 91 | 259 | 33 | ||
| 2025-11-07T00:18 | 16795 | 90 | -51.3 | |||
| 2025-11-07T00:18 | 16918 | 88 | 269 | 32 | ||
| 2025-11-07T00:19 | 17149 | 85 | 268 | 28 | ||
| 2025-11-07T00:19 | 17158 | 85 | -50.0 | |||
| 2025-11-07T00:20 | 17625 | 79 | 260 | 28 | ||
| 2025-11-07T00:20 | 17700 | 78 | -53.7 | |||
| 2025-11-07T00:21 | 18022 | 74 | 265 | 30 | ||
| 2025-11-07T00:21 | 18133 | 73 | -55.0 | |||
| 2025-11-07T00:22 | 18412 | 70 | -54.4 | 263 | 28 | |
| 2025-11-07T00:22 | 18601 | 68 | -53.1 | |||
| 2025-11-07T00:23 | 18851 | 65 | 252 | 31 | ||
| 2025-11-07T00:23 | 18909 | 65 | -54.7 | |||
| 2025-11-07T00:23 | 19062 | 63 | -54.2 | |||
| 2025-11-07T00:23 | 19143 | 62 | 243 | 28 | ||
| 2025-11-07T00:24 | 19381 | 60 | 240 | 32 | ||
| 2025-11-07T00:24 | 19502 | 59 | -55.6 | |||
| 2025-11-07T00:25 | 19720 | 57 | 252 | 27 | ||
| 2025-11-07T00:26 | 19903 | 55 | -53.8 | |||
| 2025-11-07T00:26 | 20032 | 54 | -53.1 | |||
| 2025-11-07T00:26 | 20045 | 54 | 262 | 21 | ||
| 2025-11-07T00:26 | 20237 | 53 | 280 | 8 | ||
| 2025-11-07T00:26 | 20252 | 52 | -52.3 | |||
| 2025-11-07T00:27 | 20547 | 50 | 260 | 3 | ||
| 2025-11-07T00:28 | 20761 | 48 | 270 | 1 | ||
| 2025-11-07T00:28 | 21078 | 46 | 176 | 3 | ||
| 2025-11-07T00:29 | 21249 | 45 | -59.4 | |||
| 2025-11-07T00:29 | 21489 | 43 | 224 | 14 | ||
| 2025-11-07T00:30 | 21737 | 41 | -60.3 | |||
| 2025-11-07T00:30 | 21890 | 40 | 224 | 20 | ||
| 2025-11-07T00:31 | 22014 | 40 | -60.3 | |||
| 2025-11-07T00:31 | 22177 | 39 | 238 | 26 | ||
| 2025-11-07T00:31 | 22305 | 38 | -57.7 | |||
| 2025-11-07T00:31 | 22410 | 37 | -54.0 | |||
| 2025-11-07T00:32 | 22621 | 36 | 253 | 26 | ||
| 2025-11-07T00:33 | 23049 | 34 | 260 | 24 | ||
| 2025-11-07T00:33 | 23221 | 33 | -50.7 | |||
| 2025-11-07T00:34 | 23360 | 32 | 258 | 21 | ||
| 2025-11-07T00:34 | 23374 | 32 | -48.3 | 260 | 21 | |
| 2025-11-07T11:30 | 18 | 1020 | 2.4 | 0.0 | 330 | 1 |
| 2025-11-07T11:30 | 23 | 1019 | 2.3 | -0.3 | 11 | 1 |
| 2025-11-07T11:31 | 292 | 986 | 0.2 | -2.8 | ||
| 2025-11-07T11:31 | 308 | 984 | 37 | 5 | ||
| 2025-11-07T11:31 | 427 | 969 | 21 | 5 | ||
| 2025-11-07T11:32 | 571 | 952 | -1.8 | -5.3 | ||
| 2025-11-07T11:32 | 576 | 951 | 356 | 8 | ||
| 2025-11-07T11:32 | 800 | 925 | 1 | 13 | ||
| 2025-11-07T11:33 | 1013 | 900 | -5.5 | -7.5 | ||
| 2025-11-07T11:33 | 1144 | 885 | 356 | 16 | ||
| 2025-11-07T11:34 | 1279 | 870 | -7.9 | -8.8 | ||
| 2025-11-07T11:34 | 1468 | 849 | 345 | 17 | ||
| 2025-11-07T11:35 | 1628 | 832 | -9.8 | -10.9 | ||
| 2025-11-07T11:35 | 1789 | 815 | 348 | 18 | ||
| 2025-11-07T11:36 | 2092 | 783 | 341 | 18 | ||
| 2025-11-07T11:37 | 2247 | 767 | 341 | 17 | ||
| 2025-11-07T11:37 | 2520 | 740 | 329 | 19 | ||
| 2025-11-07T11:38 | 2627 | 730 | 334 | 22 | ||
| 2025-11-07T11:38 | 2778 | 715 | 330 | 22 | ||
| 2025-11-07T11:38 | 2812 | 712 | -18.7 | -20.5 | ||
| 2025-11-07T11:39 | 2912 | 702 | 319 | 22 | ||
| 2025-11-07T11:39 | 3210 | 675 | 305 | 18 | ||
| 2025-11-07T11:39 | 3260 | 670 | -22.0 | -24.4 | ||
| 2025-11-07T11:40 | 3564 | 643 | 294 | 21 | ||
| 2025-11-07T11:41 | 3675 | 633 | -25.6 | -29.0 | ||
| 2025-11-07T11:41 | 3760 | 625 | 302 | 22 | ||
| 2025-11-07T11:41 | 3778 | 624 | -25.8 | -34.3 | ||
| 2025-11-07T11:41 | 3891 | 614 | 311 | 24 | ||
| 2025-11-07T11:41 | 3975 | 607 | -25.2 | -39.9 | ||
| 2025-11-07T11:42 | 4246 | 585 | 318 | 29 | ||
| 2025-11-07T11:43 | 4481 | 566 | -26.8 | -48.5 | ||
| 2025-11-07T11:43 | 4645 | 553 | 319 | 32 | ||
| 2025-11-07T11:43 | 4757 | 545 | -27.9 | -48.6 | ||
| 2025-11-07T11:44 | 4821 | 540 | 320 | 37 | ||
| 2025-11-07T11:44 | 4867 | 537 | -28.3 | -47.6 | ||
| 2025-11-07T11:44 | 5010 | 526 | 318 | 34 | ||
| 2025-11-07T11:45 | 5242 | 509 | 319 | 35 | ||
| 2025-11-07T11:45 | 5287 | 506 | -30.3 | -49.2 | ||
| 2025-11-07T11:45 | 5369 | 500 | 312 | 39 | ||
| 2025-11-07T11:45 | 5389 | 499 | -29.5 | -53.4 | ||
| 2025-11-07T11:46 | 5532 | 489 | 315 | 41 | ||
| 2025-11-07T11:47 | 5759 | 473 | -30.8 | -58.2 | ||
| 2025-11-07T11:47 | 5864 | 466 | 310 | 42 | ||
| 2025-11-07T11:48 | 6245 | 442 | 311 | 42 | ||
| 2025-11-07T11:49 | 6634 | 418 | 312 | 43 | ||
| 2025-11-07T11:49 | 6786 | 409 | -37.4 | -64.9 | ||
| 2025-11-07T11:50 | 7024 | 395 | 309 | 43 | ||
| 2025-11-07T11:50 | 7126 | 389 | -40.0 | -63.9 | ||
| 2025-11-07T11:51 | 7431 | 372 | 306 | 42 | ||
| 2025-11-07T11:51 | 7519 | 367 | -43.0 | |||
| 2025-11-07T11:52 | 7735 | 355 | 305 | 45 | ||
| 2025-11-07T11:52 | 7947 | 344 | -45.7 | |||
| 2025-11-07T11:52 | 8057 | 339 | 308 | 45 | ||
| 2025-11-07T11:53 | 8258 | 329 | -47.1 | |||
| 2025-11-07T11:53 | 8366 | 323 | 305 | 48 | ||
| 2025-11-07T11:54 | 8511 | 316 | 304 | 48 | ||
| 2025-11-07T11:54 | 8656 | 309 | 304 | 53 | ||
| 2025-11-07T11:54 | 8737 | 305 | -50.3 | |||
| 2025-11-07T11:54 | 8813 | 302 | 305 | 49 | ||
| 2025-11-07T11:54 | 8854 | 300 | -50.0 | |||
| 2025-11-07T11:55 | 8944 | 296 | 306 | 52 | ||
| 2025-11-07T11:55 | 9103 | 289 | -51.5 | |||
| 2025-11-07T11:55 | 9212 | 284 | -51.5 | |||
| 2025-11-07T11:55 | 9307 | 280 | 304 | 51 | ||
| 2025-11-07T11:56 | 9454 | 274 | -51.6 | |||
| 2025-11-07T11:56 | 9538 | 270 | -51.2 | |||
| 2025-11-07T11:56 | 9593 | 268 | 306 | 50 | ||
| 2025-11-07T11:56 | 9702 | 263 | -51.2 | |||
| 2025-11-07T11:57 | 9854 | 257 | 306 | 46 | ||
| 2025-11-07T11:57 | 9977 | 252 | 304 | 43 | ||
| 2025-11-07T11:57 | 10104 | 248 | -51.2 | |||
| 2025-11-07T11:58 | 10249 | 242 | -50.5 | |||
| 2025-11-07T11:58 | 10271 | 241 | 303 | 43 | ||
| 2025-11-07T11:58 | 10387 | 237 | -49.0 | |||
| 2025-11-07T11:58 | 10489 | 233 | -48.4 | |||
| 2025-11-07T11:59 | 10646 | 228 | 302 | 41 | ||
| 2025-11-07T11:59 | 10869 | 220 | -46.8 | |||
| 2025-11-07T11:59 | 10898 | 219 | 303 | 39 | ||
| 2025-11-07T12:00 | 11239 | 208 | 303 | 38 | ||
| 2025-11-07T12:01 | 11615 | 197 | 300 | 35 | ||
| 2025-11-07T12:02 | 11932 | 188 | -47.7 | |||
| 2025-11-07T12:02 | 12008 | 185 | 288 | 36 | ||
| 2025-11-07T12:03 | 12427 | 174 | 286 | 36 | ||
| 2025-11-07T12:04 | 12496 | 172 | -47.7 | |||
| 2025-11-07T12:04 | 12729 | 166 | 288 | 35 | ||
| 2025-11-07T12:04 | 12914 | 162 | -48.1 | |||
| 2025-11-07T12:05 | 13076 | 158 | 279 | 39 | ||
| 2025-11-07T12:05 | 13112 | 157 | -47.9 | |||
| 2025-11-07T12:06 | 13432 | 149 | 281 | 35 | ||
| 2025-11-07T12:06 | 13608 | 145 | -50.8 | |||
| 2025-11-07T12:07 | 13814 | 141 | 275 | 38 | ||
| 2025-11-07T12:07 | 13918 | 139 | -51.8 | |||
| 2025-11-07T12:08 | 14081 | 135 | 283 | 36 | ||
| 2025-11-07T12:08 | 14234 | 132 | 284 | 34 | ||
| 2025-11-07T12:09 | 14559 | 126 | -53.9 | |||
| 2025-11-07T12:09 | 14670 | 123 | -53.1 | |||
| 2025-11-07T12:09 | 14684 | 123 | 274 | 39 | ||
| 2025-11-07T12:10 | 14968 | 118 | -54.6 | |||
| 2025-11-07T12:10 | 15097 | 115 | 274 | 40 | ||
| 2025-11-07T12:10 | 15194 | 114 | -54.2 | |||
| 2025-11-07T12:10 | 15252 | 113 | 275 | 42 | ||
| 2025-11-07T12:11 | 15450 | 109 | -53.5 | |||
| 2025-11-07T12:11 | 15531 | 108 | -51.9 | |||
| 2025-11-07T12:11 | 15585 | 107 | 279 | 43 | ||
| 2025-11-07T12:12 | 15664 | 106 | -51.7 | |||
| 2025-11-07T12:12 | 15770 | 104 | 279 | 43 | ||
| 2025-11-07T12:12 | 15807 | 103 | -50.8 | |||
| 2025-11-07T12:13 | 16099 | 99 | 277 | 40 | ||
| 2025-11-07T12:13 | 16159 | 98 | -50.1 | |||
| 2025-11-07T12:13 | 16377 | 95 | 267 | 36 | ||
| 2025-11-07T12:14 | 16437 | 94 | -50.4 | |||
| 2025-11-07T12:14 | 16780 | 89 | 266 | 43 | ||
| 2025-11-07T12:15 | 16799 | 89 | -50.8 | |||
| 2025-11-07T12:15 | 16997 | 86 | -50.6 | |||
| 2025-11-07T12:15 | 17006 | 86 | 269 | 40 | ||
| 2025-11-07T12:16 | 17268 | 83 | -50.9 | 279 | 40 | |
| 2025-11-07T12:17 | 17639 | 78 | 285 | 43 | ||
| 2025-11-07T12:17 | 17737 | 77 | -53.1 | |||
| 2025-11-07T12:18 | 17978 | 74 | 289 | 36 | ||
| 2025-11-07T12:18 | 18174 | 72 | -51.9 | |||
| 2025-11-07T12:18 | 18328 | 70 | 279 | 32 | ||
| 2025-11-07T12:19 | 18502 | 68 | -53.5 | |||
| 2025-11-07T12:19 | 18580 | 67 | 280 | 31 | ||
| 2025-11-07T12:20 | 18778 | 65 | -50.1 | |||
| 2025-11-07T12:20 | 18899 | 64 | 289 | 22 | ||
| 2025-11-07T12:20 | 19024 | 63 | 284 | 20 | ||
| 2025-11-07T12:20 | 19031 | 63 | -49.4 | |||
| 2025-11-07T12:20 | 19108 | 62 | -48.2 | |||
| 2025-11-07T12:20 | 19155 | 62 | 269 | 12 | ||
| 2025-11-07T12:21 | 19367 | 60 | 270 | 11 | ||
| 2025-11-07T12:21 | 19527 | 58 | 244 | 10 | ||
| 2025-11-07T12:21 | 19674 | 57 | 224 | 17 | ||
| 2025-11-07T12:22 | 19801 | 56 | -53.0 | |||
| 2025-11-07T12:22 | 19965 | 55 | 211 | 14 | ||
| 2025-11-07T12:23 | 20402 | 51 | 228 | 15 | ||
| 2025-11-07T12:24 | 20631 | 49 | 246 | 12 | ||
| 2025-11-07T12:24 | 20948 | 47 | -57.8 | |||
| 2025-11-07T12:25 | 21032 | 46 | 244 | 17 | ||
| 2025-11-07T12:25 | 21324 | 44 | 249 | 26 | ||
| 2025-11-07T12:26 | 21395 | 44 | -58.6 | 248 | 27 | |
| 2025-11-07T23:30 | 18 | 1027 | -1.8 | -3.1 | 140 | 2 |
| 2025-11-07T23:30 | 23 | 1027 | -1.7 | -3.1 | 0 | 0 |
| 2025-11-07T23:30 | 157 | 1009 | 157 | 3 | ||
| 2025-11-07T23:31 | 237 | 999 | -4.1 | -4.8 | ||
| 2025-11-07T23:31 | 329 | 988 | 95 | 3 | ||
| 2025-11-07T23:31 | 383 | 981 | -4.9 | -5.7 | ||
| 2025-11-07T23:32 | 525 | 963 | -5.2 | -5.9 | ||
| 2025-11-07T23:32 | 644 | 949 | -5.2 | -5.6 | ||
| 2025-11-07T23:32 | 654 | 947 | 276 | 2 | ||
| 2025-11-07T23:32 | 708 | 941 | 331 | 4 | ||
| 2025-11-07T23:33 | 884 | 920 | -5.9 | -6.2 | ||
| 2025-11-07T23:33 | 901 | 918 | 341 | 10 | ||
| 2025-11-07T23:33 | 1139 | 891 | 342 | 10 | ||
| 2025-11-07T23:34 | 1287 | 874 | 339 | 13 | ||
| 2025-11-07T23:35 | 1591 | 840 | -10.2 | -11.0 | ||
| 2025-11-07T23:35 | 1641 | 835 | 339 | 14 | ||
| 2025-11-07T23:35 | 1836 | 814 | 334 | 14 | ||
| 2025-11-07T23:36 | 1988 | 798 | -12.6 | -13.5 | ||
| 2025-11-07T23:36 | 2123 | 784 | -13.7 | -14.7 | ||
| 2025-11-07T23:36 | 2168 | 779 | -14.1 | -15.7 | ||
| 2025-11-07T23:36 | 2174 | 778 | 320 | 16 | ||
| 2025-11-07T23:37 | 2226 | 773 | -14.7 | -23.5 | ||
| 2025-11-07T23:37 | 2290 | 767 | -14.3 | -23.9 | ||
| 2025-11-07T23:37 | 2514 | 744 | -14.3 | -23.9 | ||
| 2025-11-07T23:37 | 2519 | 744 | 337 | 21 | ||
| 2025-11-07T23:38 | 2787 | 718 | -14.2 | -25.4 | ||
| 2025-11-07T23:38 | 2834 | 714 | 338 | 22 | ||
| 2025-11-07T23:39 | 3006 | 698 | -14.0 | -26.5 | ||
| 2025-11-07T23:39 | 3159 | 684 | 331 | 23 | ||
| 2025-11-07T23:40 | 3186 | 681 | -13.9 | -26.7 | ||
| 2025-11-07T23:40 | 3472 | 656 | -15.0 | -28.4 | ||
| 2025-11-07T23:40 | 3489 | 654 | 338 | 22 | ||
| 2025-11-07T23:41 | 3810 | 627 | -16.3 | -30.2 | ||
| 2025-11-07T23:41 | 3834 | 625 | 330 | 24 | ||
| 2025-11-07T23:42 | 4210 | 595 | 321 | 24 | ||
| 2025-11-07T23:43 | 4222 | 594 | -17.6 | -33.3 | ||
| 2025-11-07T23:43 | 4496 | 572 | -19.1 | -36.5 | ||
| 2025-11-07T23:43 | 4564 | 567 | -19.6 | -36.9 | ||
| 2025-11-07T23:43 | 4583 | 566 | 322 | 23 | ||
| 2025-11-07T23:44 | 4688 | 558 | -19.8 | -39.9 | ||
| 2025-11-07T23:44 | 4789 | 550 | 325 | 29 | ||
| 2025-11-07T23:45 | 4985 | 536 | 323 | 32 | ||
| 2025-11-07T23:45 | 5141 | 525 | 320 | 32 | ||
| 2025-11-07T23:45 | 5180 | 522 | -22.5 | -43.5 | ||
| 2025-11-07T23:45 | 5264 | 516 | -22.2 | -44.0 | ||
| 2025-11-07T23:46 | 5341 | 510 | 318 | 38 | ||
| 2025-11-07T23:46 | 5529 | 497 | -23.6 | -43.7 | ||
| 2025-11-07T23:47 | 5646 | 490 | 317 | 36 | ||
| 2025-11-07T23:48 | 5923 | 471 | -26.1 | -45.7 | ||
| 2025-11-07T23:48 | 5944 | 470 | 326 | 34 | ||
| 2025-11-07T23:48 | 6149 | 457 | -27.1 | -45.4 | ||
| 2025-11-07T23:49 | 6248 | 450 | 329 | 38 | ||
| 2025-11-07T23:50 | 6552 | 432 | 332 | 40 | ||
| 2025-11-07T23:50 | 6638 | 427 | -29.7 | -49.4 | ||
| 2025-11-07T23:51 | 6869 | 413 | 328 | 43 | ||
| 2025-11-07T23:52 | 7207 | 393 | 329 | 43 | ||
| 2025-11-07T23:52 | 7288 | 389 | -35.2 | -52.2 | ||
| 2025-11-07T23:52 | 7384 | 384 | 328 | 45 | ||
| 2025-11-07T23:53 | 7684 | 367 | -37.8 | -52.9 | ||
| 2025-11-07T23:53 | 7699 | 366 | 326 | 47 | ||
| 2025-11-07T23:54 | 7911 | 355 | -40.0 | -55.7 | ||
| 2025-11-07T23:54 | 8011 | 350 | 325 | 48 | ||
| 2025-11-07T23:55 | 8336 | 334 | 321 | 50 | ||
| 2025-11-07T23:56 | 8641 | 319 | 317 | 50 | ||
| 2025-11-07T23:57 | 8809 | 311 | -47.6 | |||
| 2025-11-07T23:57 | 8918 | 306 | 317 | 53 | ||
| 2025-11-07T23:58 | 9136 | 296 | -50.0 | |||
| 2025-11-07T23:58 | 9185 | 294 | 314 | 53 | ||
| 2025-11-07T23:59 | 9449 | 282 | 316 | 56 | ||
| 2025-11-08T00:00 | 9685 | 272 | -52.8 | |||
| 2025-11-08T00:00 | 9761 | 269 | 313 | 62 | ||
| 2025-11-08T00:01 | 10060 | 256 | 311 | 61 | ||
| 2025-11-08T00:01 | 10079 | 256 | -55.5 | |||
| 2025-11-08T00:02 | 10349 | 245 | 314 | 59 | ||
| 2025-11-08T00:02 | 10354 | 245 | -56.8 | |||
| 2025-11-08T00:03 | 10651 | 233 | 313 | 60 | ||
| 2025-11-08T00:04 | 10981 | 222 | 314 | 55 | ||
| 2025-11-08T00:04 | 10986 | 221 | -59.3 | |||
| 2025-11-08T00:04 | 11088 | 218 | -58.6 | |||
| 2025-11-08T00:05 | 11116 | 217 | 315 | 52 | ||
| 2025-11-08T00:05 | 11203 | 214 | -56.5 | |||
| 2025-11-08T00:05 | 11215 | 213 | 314 | 49 | ||
| 2025-11-08T00:06 | 11470 | 205 | 310 | 54 | ||
| 2025-11-08T00:06 | 11818 | 194 | -60.2 | |||
| 2025-11-08T00:06 | 11830 | 194 | 313 | 49 | ||
| 2025-11-08T00:07 | 11955 | 190 | 312 | 48 | ||
| 2025-11-08T00:07 | 12043 | 187 | -60.8 | |||
| 2025-11-08T00:07 | 12068 | 186 | 313 | 45 | ||
| 2025-11-08T00:08 | 12392 | 177 | -63.1 | |||
| 2025-11-08T00:08 | 12425 | 176 | 307 | 45 | ||
| 2025-11-08T00:09 | 12636 | 170 | -62.0 | |||
| 2025-11-08T00:09 | 12737 | 167 | 298 | 48 | ||
| 2025-11-08T00:09 | 12753 | 167 | -60.4 | |||
| 2025-11-08T00:10 | 12891 | 163 | -58.6 | |||
| 2025-11-08T00:10 | 12999 | 160 | -56.5 | |||
| 2025-11-08T00:10 | 13047 | 159 | 299 | 48 | ||
| 2025-11-08T00:11 | 13271 | 154 | -53.6 | |||
| 2025-11-08T00:11 | 13277 | 153 | 305 | 45 | ||
| 2025-11-08T00:11 | 13426 | 150 | 308 | 44 | ||
| 2025-11-08T00:12 | 13603 | 146 | -54.5 | |||
| 2025-11-08T00:12 | 13621 | 145 | 310 | 39 | ||
| 2025-11-08T00:13 | 13927 | 139 | -56.4 | |||
| 2025-11-08T00:13 | 13979 | 137 | 301 | 38 | ||
| 2025-11-08T00:14 | 14293 | 131 | 300 | 41 | ||
| 2025-11-08T00:14 | 14367 | 129 | -57.5 | |||
| 2025-11-08T00:14 | 14445 | 128 | -56.1 | |||
| 2025-11-08T00:15 | 14588 | 125 | 294 | 41 | ||
| 2025-11-08T00:16 | 14863 | 120 | -56.3 | |||
| 2025-11-08T00:16 | 14894 | 119 | 301 | 39 | ||
| 2025-11-08T00:16 | 15093 | 115 | -55.1 | |||
| 2025-11-08T00:17 | 15220 | 113 | 301 | 37 | ||
| 2025-11-08T00:17 | 15297 | 112 | -55.4 | |||
| 2025-11-08T00:18 | 15526 | 108 | 298 | 37 | ||
| 2025-11-08T00:18 | 15588 | 107 | -55.7 | |||
| 2025-11-08T00:18 | 15643 | 106 | 295 | 36 | ||
| 2025-11-08T00:18 | 15708 | 105 | -55.4 | |||
| 2025-11-08T00:18 | 15783 | 104 | 292 | 34 | ||
| 2025-11-08T00:19 | 15907 | 102 | -55.7 | |||
| 2025-11-08T00:19 | 16026 | 100 | 292 | 39 | ||
| 2025-11-08T00:20 | 16238 | 96 | -55.7 | |||
| 2025-11-08T00:20 | 16271 | 96 | 286 | 33 | ||
| 2025-11-08T00:20 | 16391 | 94 | -53.8 | |||
| 2025-11-08T00:21 | 16544 | 92 | 284 | 33 | ||
| 2025-11-08T00:21 | 16722 | 89 | -53.1 | |||
| 2025-11-08T00:22 | 16896 | 87 | 298 | 32 | ||
| 2025-11-08T00:22 | 17171 | 83 | 296 | 28 | ||
| 2025-11-08T00:23 | 17425 | 80 | -53.7 | |||
| 2025-11-08T00:23 | 17559 | 78 | 285 | 15 | ||
| 2025-11-08T00:24 | 17759 | 76 | 279 | 16 | ||
| 2025-11-08T00:25 | 18078 | 72 | -55.3 | |||
| 2025-11-08T00:25 | 18140 | 72 | 259 | 22 | ||
| 2025-11-08T00:26 | 18440 | 68 | -57.3 | |||
| 2025-11-08T00:26 | 18476 | 68 | 256 | 25 | ||
| 2025-11-08T00:26 | 18589 | 67 | -57.0 | |||
| 2025-11-08T00:27 | 18771 | 65 | -55.0 | |||
| 2025-11-08T00:27 | 18780 | 65 | 262 | 21 | ||
| 2025-11-08T00:28 | 19065 | 62 | 286 | 20 | ||
| 2025-11-08T00:28 | 19262 | 60 | 283 | 16 | ||
| 2025-11-08T00:29 | 19498 | 58 | 272 | 14 | ||
| 2025-11-08T00:29 | 19533 | 58 | -57.4 | |||
| 2025-11-08T00:30 | 19883 | 54 | 248 | 16 | ||
| 2025-11-08T00:30 | 19905 | 54 | -58.0 | |||
| 2025-11-08T00:31 | 20142 | 52 | -57.0 | |||
| 2025-11-08T00:31 | 20253 | 51 | 249 | 24 | ||
| 2025-11-08T00:32 | 20606 | 49 | 271 | 29 | ||
| 2025-11-08T00:32 | 20657 | 48 | -57.2 | |||
| 2025-11-08T00:33 | 20871 | 47 | 280 | 32 | ||
| 2025-11-08T00:34 | 21195 | 44 | 288 | 31 | ||
| 2025-11-08T00:34 | 21400 | 43 | -55.1 | |||
| 2025-11-08T00:34 | 21505 | 42 | -51.7 | |||
| 2025-11-08T00:34 | 21537 | 42 | 269 | 21 | ||
| 2025-11-08T00:35 | 21873 | 40 | 266 | 21 | ||
| 2025-11-08T00:36 | 22086 | 39 | 276 | 18 | ||
| 2025-11-08T00:36 | 22210 | 38 | 281 | 17 | ||
| 2025-11-08T00:36 | 22260 | 38 | -49.0 | |||
| 2025-11-08T00:37 | 22404 | 37 | 261 | 14 | ||
| 2025-11-08T00:37 | 22673 | 35 | 260 | 13 | ||
| 2025-11-08T00:38 | 22809 | 35 | -49.4 | |||
| 2025-11-08T00:38 | 23078 | 33 | 233 | 7 | ||
| 2025-11-08T00:39 | 23316 | 32 | 235 | 7 | ||
| 2025-11-08T00:40 | 23754 | 30 | 229 | 10 | ||
| 2025-11-08T00:41 | 23948 | 29 | -57.5 | |||
| 2025-11-08T00:41 | 24012 | 29 | 258 | 12 | ||
| 2025-11-08T00:41 | 24331 | 27 | -53.8 | |||
| 2025-11-08T00:42 | 24355 | 27 | 261 | 21 | ||
| 2025-11-08T00:42 | 24523 | 26 | -52.2 | |||
| 2025-11-08T00:42 | 24548 | 26 | 257 | 27 | ||
| 2025-11-08T00:43 | 24826 | 25 | 251 | 15 | ||
| 2025-11-08T00:43 | 24957 | 25 | -49.2 | |||
| 2025-11-08T00:43 | 25121 | 24 | 234 | 19 | ||
| 2025-11-08T00:44 | 25367 | 23 | -50.1 | |||
| 2025-11-08T00:44 | 25423 | 23 | 253 | 19 | ||
| 2025-11-08T00:45 | 25599 | 22 | 266 | 16 | ||
| 2025-11-08T00:45 | 25627 | 22 | -47.1 | |||
| 2025-11-08T00:45 | 25810 | 22 | -43.4 | 285 | 11 | |
| 2025-11-08T00:46 | 26004 | 21 | -44.0 | 264 | 10 | |
| 2025-11-08T11:30 | 18 | 1025 | 0.2 | -1.6 | 120 | 1 |
| 2025-11-08T11:30 | 22 | 1024 | 0.4 | -1.7 | 0 | 0 |
| 2025-11-08T11:30 | 84 | 1016 | 0.1 | -2.1 | ||
| 2025-11-08T11:30 | 121 | 1012 | 0.0 | -3.2 | ||
| 2025-11-08T11:30 | 151 | 1008 | 1.3 | -4.4 | ||
| 2025-11-08T11:31 | 305 | 989 | 0.3 | -5.7 | ||
| 2025-11-08T11:31 | 374 | 980 | 213 | 2 | ||
| 2025-11-08T11:31 | 418 | 975 | 0.2 | -6.9 | ||
| 2025-11-08T11:31 | 475 | 968 | 233 | 3 | ||
| 2025-11-08T11:32 | 642 | 948 | 206 | 2 | ||
| 2025-11-08T11:32 | 806 | 929 | -3.2 | -7.7 | ||
| 2025-11-08T11:33 | 1035 | 902 | 182 | 3 | ||
| 2025-11-08T11:33 | 1107 | 894 | -5.9 | -8.2 | ||
| 2025-11-08T11:33 | 1193 | 884 | -5.8 | -10.8 | ||
| 2025-11-08T11:33 | 1213 | 882 | 231 | 4 | ||
| 2025-11-08T11:33 | 1279 | 875 | -4.7 | -19.3 | ||
| 2025-11-08T11:34 | 1378 | 864 | -3.8 | -28.3 | ||
| 2025-11-08T11:34 | 1385 | 863 | 269 | 7 | ||
| 2025-11-08T11:34 | 1551 | 845 | 266 | 6 | ||
| 2025-11-08T11:34 | 1695 | 830 | -3.8 | -29.1 | ||
| 2025-11-08T11:34 | 1735 | 826 | 279 | 5 | ||
| 2025-11-08T11:35 | 1820 | 817 | -4.4 | -29.6 | ||
| 2025-11-08T11:35 | 2053 | 793 | -4.5 | -30.6 | ||
| 2025-11-08T11:35 | 2124 | 786 | 276 | 11 | ||
| 2025-11-08T11:36 | 2168 | 781 | -4.7 | -43.6 | ||
| 2025-11-08T11:36 | 2347 | 764 | -5.1 | -37.2 | ||
| 2025-11-08T11:36 | 2393 | 759 | 286 | 9 | ||
| 2025-11-08T11:36 | 2471 | 752 | -4.3 | -43.3 | ||
| 2025-11-08T11:37 | 2557 | 743 | -4.7 | -43.6 | ||
| 2025-11-08T11:37 | 2597 | 740 | -3.8 | -46.7 | ||
| 2025-11-08T11:37 | 2716 | 729 | 277 | 14 | ||
| 2025-11-08T11:38 | 3017 | 701 | -6.0 | -37.9 | ||
| 2025-11-08T11:38 | 3107 | 693 | 275 | 12 | ||
| 2025-11-08T11:39 | 3484 | 661 | 271 | 13 | ||
| 2025-11-08T11:39 | 3585 | 652 | -10.2 | -42.8 | ||
| 2025-11-08T11:40 | 3871 | 628 | 263 | 15 | ||
| 2025-11-08T11:41 | 4095 | 610 | -14.5 | -34.8 | ||
| 2025-11-08T11:41 | 4160 | 605 | -15.0 | -22.0 | ||
| 2025-11-08T11:41 | 4211 | 601 | 262 | 15 | ||
| 2025-11-08T11:41 | 4311 | 593 | -16.3 | -21.9 | ||
| 2025-11-08T11:42 | 4522 | 576 | -17.7 | -21.1 | ||
| 2025-11-08T11:42 | 4586 | 571 | 254 | 11 | ||
| 2025-11-08T11:42 | 4707 | 562 | -18.8 | -21.4 | ||
| 2025-11-08T11:42 | 4825 | 553 | -19.1 | -21.1 | ||
| 2025-11-08T11:43 | 4996 | 541 | 247 | 19 | ||
| 2025-11-08T11:43 | 5206 | 526 | -21.6 | -22.4 | ||
| 2025-11-08T11:44 | 5334 | 517 | 254 | 19 | ||
| 2025-11-08T11:44 | 5347 | 516 | -21.6 | -23.2 | ||
| 2025-11-08T11:44 | 5466 | 507 | -21.1 | -22.7 | ||
| 2025-11-08T11:44 | 5513 | 504 | 261 | 20 | ||
| 2025-11-08T11:45 | 5637 | 496 | -21.9 | -22.6 | ||
| 2025-11-08T11:45 | 5760 | 488 | 262 | 24 | ||
| 2025-11-08T11:45 | 5928 | 477 | -22.9 | -23.7 | ||
| 2025-11-08T11:46 | 6083 | 467 | 281 | 22 | ||
| 2025-11-08T11:46 | 6089 | 466 | -23.3 | -24.1 | ||
| 2025-11-08T11:46 | 6210 | 459 | 279 | 26 | ||
| 2025-11-08T11:46 | 6256 | 456 | -23.4 | -24.2 | ||
| 2025-11-08T11:47 | 6607 | 434 | 279 | 28 | ||
| 2025-11-08T11:47 | 6627 | 433 | -26.2 | -27.3 | ||
| 2025-11-08T11:47 | 6743 | 426 | -27.1 | -29.1 | ||
| 2025-11-08T11:48 | 6971 | 413 | -29.2 | -33.9 | ||
| 2025-11-08T11:48 | 6997 | 411 | 282 | 29 | ||
| 2025-11-08T11:48 | 7220 | 399 | 283 | 27 | ||
| 2025-11-08T11:49 | 7374 | 390 | -32.5 | -35.6 | ||
| 2025-11-08T11:49 | 7555 | 380 | 275 | 27 | ||
| 2025-11-08T11:50 | 7932 | 360 | -37.4 | -40.3 | ||
| 2025-11-08T11:50 | 7981 | 358 | 269 | 30 | ||
| 2025-11-08T11:51 | 8212 | 346 | -40.0 | -43.1 | ||
| 2025-11-08T11:51 | 8401 | 336 | 265 | 30 | ||
| 2025-11-08T11:52 | 8817 | 316 | 267 | 33 | ||
| 2025-11-08T11:52 | 8873 | 313 | -45.5 | |||
| 2025-11-08T11:53 | 9091 | 303 | 273 | 36 | ||
| 2025-11-08T11:54 | 9464 | 287 | -49.1 | |||
| 2025-11-08T11:54 | 9477 | 286 | 274 | 39 | ||
| 2025-11-08T11:55 | 9867 | 269 | 272 | 39 | ||
| 2025-11-08T11:56 | 10286 | 252 | 275 | 38 | ||
| 2025-11-08T11:57 | 10704 | 236 | 279 | 41 | ||
| 2025-11-08T11:57 | 10711 | 236 | -58.0 | |||
| 2025-11-08T11:58 | 11109 | 222 | 284 | 47 | ||
| 2025-11-08T11:59 | 11324 | 214 | -59.6 | |||
| 2025-11-08T11:59 | 11532 | 207 | 282 | 43 | ||
| 2025-11-08T11:59 | 11665 | 203 | -59.9 | |||
| 2025-11-08T12:00 | 11910 | 195 | 283 | 45 | ||
| 2025-11-08T12:00 | 11975 | 193 | -60.1 | |||
| 2025-11-08T12:01 | 12188 | 186 | -59.6 | |||
| 2025-11-08T12:01 | 12296 | 183 | 282 | 48 | ||
| 2025-11-08T12:02 | 12660 | 173 | 283 | 51 | ||
| 2025-11-08T12:02 | 12845 | 168 | -58.8 | |||
| 2025-11-08T12:03 | 12979 | 164 | 282 | 48 | ||
| 2025-11-08T12:03 | 13045 | 163 | -58.7 | |||
| 2025-11-08T12:03 | 13112 | 161 | 282 | 45 | ||
| 2025-11-08T12:04 | 13406 | 154 | 286 | 44 | ||
| 2025-11-08T12:04 | 13516 | 151 | -58.1 | |||
| 2025-11-08T12:05 | 13579 | 149 | 288 | 41 | ||
| 2025-11-08T12:05 | 13668 | 147 | -58.3 | |||
| 2025-11-08T12:05 | 13823 | 144 | 288 | 41 | ||
| 2025-11-08T12:05 | 13863 | 143 | -59.2 | |||
| 2025-11-08T12:06 | 13954 | 141 | 290 | 44 | ||
| 2025-11-08T12:06 | 14073 | 138 | -58.5 | |||
| 2025-11-08T12:06 | 14150 | 136 | 286 | 37 | ||
| 2025-11-08T12:07 | 14354 | 132 | 283 | 33 | ||
| 2025-11-08T12:07 | 14374 | 132 | -60.0 | |||
| 2025-11-08T12:07 | 14539 | 128 | -59.7 | |||
| 2025-11-08T12:08 | 14715 | 125 | 279 | 33 | ||
| 2025-11-08T12:08 | 14826 | 122 | -60.3 | |||
| 2025-11-08T12:08 | 15046 | 118 | -60.2 | 286 | 35 | |
| 2025-11-08T12:09 | 15235 | 115 | 272 | 35 | ||
| 2025-11-08T12:09 | 15261 | 114 | -58.9 | |||
| 2025-11-08T12:09 | 15347 | 113 | -57.4 | |||
| 2025-11-08T12:10 | 15516 | 110 | 289 | 35 | ||
| 2025-11-08T12:10 | 15645 | 107 | -57.4 | |||
| 2025-11-08T12:10 | 15757 | 106 | 285 | 32 | ||
| 2025-11-08T12:11 | 15872 | 104 | -58.0 | |||
| 2025-11-08T12:11 | 16068 | 100 | -58.8 | |||
| 2025-11-08T12:11 | 16151 | 99 | 278 | 39 | ||
| 2025-11-08T12:11 | 16257 | 97 | -56.9 | |||
| 2025-11-08T12:12 | 16398 | 95 | 277 | 30 | ||
| 2025-11-08T12:13 | 16781 | 90 | 276 | 32 | ||
| 2025-11-08T12:13 | 16916 | 88 | -58.5 | |||
| 2025-11-08T12:14 | 17156 | 85 | 277 | 39 | ||
| 2025-11-08T12:14 | 17320 | 82 | -60.5 | |||
| 2025-11-08T12:15 | 17403 | 81 | 278 | 32 | ||
| 2025-11-08T12:15 | 17412 | 81 | -56.7 | |||
| 2025-11-08T12:15 | 17560 | 79 | -55.1 | |||
| 2025-11-08T12:15 | 17717 | 77 | 281 | 27 | ||
| 2025-11-08T12:16 | 18113 | 73 | 270 | 30 | ||
| 2025-11-08T12:17 | 18421 | 69 | -59.9 | |||
| 2025-11-08T12:17 | 18449 | 69 | 271 | 28 | ||
| 2025-11-08T12:18 | 18804 | 65 | 271 | 30 | ||
| 2025-11-08T12:19 | 18997 | 63 | 274 | 33 | ||
| 2025-11-08T12:20 | 19352 | 60 | -59.8 | |||
| 2025-11-08T12:20 | 19365 | 59 | 296 | 26 | ||
| 2025-11-08T12:20 | 19547 | 58 | 277 | 21 | ||
| 2025-11-08T12:20 | 19633 | 57 | -57.0 | |||
| 2025-11-08T12:21 | 19803 | 55 | 264 | 23 | ||
| 2025-11-08T12:21 | 19956 | 54 | -56.4 | |||
| 2025-11-08T12:22 | 20183 | 52 | 262 | 24 | ||
| 2025-11-08T12:22 | 20240 | 52 | -57.0 | |||
| 2025-11-08T12:23 | 20509 | 50 | 295 | 24 | ||
| 2025-11-08T12:23 | 20523 | 50 | -52.2 | |||
| 2025-11-08T12:23 | 20705 | 48 | 307 | 21 | ||
| 2025-11-08T12:24 | 20910 | 47 | -50.8 | 297 | 11 | |
| 2025-11-08T12:25 | 21314 | 44 | 226 | 11 | ||
| 2025-11-08T12:25 | 21600 | 42 | 235 | 13 | ||
| 2025-11-08T12:26 | 21818 | 41 | 247 | 16 | ||
| 2025-11-08T12:26 | 22061 | 39 | 253 | 18 | ||
| 2025-11-08T12:27 | 22141 | 39 | -54.7 | |||
| 2025-11-08T12:27 | 22396 | 37 | 253 | 25 | ||
| 2025-11-08T12:27 | 22554 | 36 | -53.3 | |||
| 2025-11-08T12:28 | 22755 | 35 | 265 | 17 | ||
| 2025-11-08T12:29 | 23014 | 34 | 254 | 16 | ||
| 2025-11-08T12:29 | 23210 | 33 | -52.7 | |||
| 2025-11-08T12:30 | 23372 | 32 | 293 | 14 | ||
| 2025-11-08T12:30 | 23497 | 31 | -51.7 | |||
| 2025-11-08T12:31 | 23769 | 30 | 253 | 14 | ||
| 2025-11-08T12:31 | 23972 | 29 | 250 | 18 | ||
| 2025-11-08T12:32 | 24385 | 27 | 262 | 18 | ||
| 2025-11-08T12:33 | 24604 | 26 | 268 | 16 | ||
| 2025-11-08T12:33 | 24702 | 26 | -51.8 | |||
| 2025-11-08T12:33 | 24807 | 26 | -49.1 | 269 | 15 | |
| 2025-11-08T12:34 | 25015 | 25 | 276 | 11 | ||
| 2025-11-08T12:34 | 25110 | 24 | -48.6 | 273 | 14 | |
| 2025-11-08T23:30 | 18 | 1016 | 2.9 | 0.6 | 150 | 3 |
| 2025-11-08T23:30 | 23 | 1015 | 3.1 | 0.7 | 0 | 0 |
| 2025-11-08T23:30 | 56 | 1011 | 127 | 3 | ||
| 2025-11-08T23:30 | 116 | 1004 | 152 | 6 | ||
| 2025-11-08T23:31 | 279 | 984 | 2.8 | -0.5 | ||
| 2025-11-08T23:31 | 346 | 976 | 144 | 10 | ||
| 2025-11-08T23:31 | 418 | 967 | 2.8 | 0.9 | ||
| 2025-11-08T23:32 | 506 | 957 | 2.6 | 0.5 | ||
| 2025-11-08T23:32 | 574 | 949 | 178 | 7 | ||
| 2025-11-08T23:32 | 687 | 935 | 2.3 | -0.5 | ||
| 2025-11-08T23:33 | 805 | 922 | 195 | 11 | ||
| 2025-11-08T23:33 | 831 | 919 | 1.8 | -1.3 | ||
| 2025-11-08T23:34 | 1124 | 886 | 188 | 12 | ||
| 2025-11-08T23:34 | 1268 | 870 | -1.6 | -3.5 | ||
| 2025-11-08T23:35 | 1418 | 854 | 211 | 12 | ||
| 2025-11-08T23:35 | 1462 | 849 | -1.6 | -12.6 | ||
| 2025-11-08T23:35 | 1519 | 843 | -1.5 | -9.1 | ||
| 2025-11-08T23:35 | 1640 | 830 | -2.4 | -8.1 | ||
| 2025-11-08T23:36 | 1701 | 824 | 229 | 14 | ||
| 2025-11-08T23:36 | 1705 | 823 | -2.3 | -4.8 | ||
| 2025-11-08T23:36 | 1889 | 805 | -3.3 | -4.0 | ||
| 2025-11-08T23:37 | 2002 | 793 | 244 | 14 | ||
| 2025-11-08T23:37 | 2221 | 772 | -4.9 | -5.3 | ||
| 2025-11-08T23:38 | 2382 | 756 | 239 | 13 | ||
| 2025-11-08T23:38 | 2491 | 745 | -6.2 | -6.6 | ||
| 2025-11-08T23:39 | 2783 | 718 | 262 | 10 | ||
| 2025-11-08T23:39 | 2955 | 702 | -7.9 | -8.7 | ||
| 2025-11-08T23:40 | 3121 | 688 | 243 | 12 | ||
| 2025-11-08T23:41 | 3447 | 659 | 241 | 15 | ||
| 2025-11-08T23:41 | 3542 | 651 | -11.1 | -12.0 | ||
| 2025-11-08T23:41 | 3724 | 636 | 250 | 19 | ||
| 2025-11-08T23:42 | 4008 | 613 | 263 | 18 | ||
| 2025-11-08T23:43 | 4330 | 587 | 262 | 18 | ||
| 2025-11-08T23:44 | 4401 | 581 | -17.6 | -18.8 | ||
| 2025-11-08T23:44 | 4662 | 561 | 262 | 22 | ||
| 2025-11-08T23:45 | 4825 | 549 | -20.4 | -22.1 | ||
| 2025-11-08T23:45 | 5022 | 535 | 253 | 26 | ||
| 2025-11-08T23:46 | 5385 | 509 | 249 | 25 | ||
| 2025-11-08T23:47 | 5403 | 508 | -24.2 | -26.0 | ||
| 2025-11-08T23:47 | 5515 | 500 | -24.8 | -27.8 | ||
| 2025-11-08T23:47 | 5562 | 497 | -25.2 | -29.4 | ||
| 2025-11-08T23:47 | 5580 | 496 | 248 | 21 | ||
| 2025-11-08T23:48 | 5952 | 471 | 255 | 23 | ||
| 2025-11-08T23:49 | 6312 | 447 | 257 | 26 | ||
| 2025-11-08T23:49 | 6385 | 443 | -32.3 | -35.5 | ||
| 2025-11-08T23:50 | 6687 | 424 | 255 | 26 | ||
| 2025-11-08T23:50 | 6718 | 422 | -35.3 | -37.9 | ||
| 2025-11-08T23:50 | 6778 | 419 | -35.9 | -40.6 | ||
| 2025-11-08T23:50 | 6826 | 416 | -36.0 | -43.5 | ||
| 2025-11-08T23:51 | 6961 | 408 | -36.8 | -45.3 | ||
| 2025-11-08T23:51 | 7040 | 403 | 263 | 33 | ||
| 2025-11-08T23:51 | 7161 | 396 | -37.7 | -45.5 | ||
| 2025-11-08T23:52 | 7330 | 387 | -38.4 | -47.7 | ||
| 2025-11-08T23:52 | 7377 | 384 | 263 | 39 | ||
| 2025-11-08T23:53 | 7583 | 372 | -40.0 | -49.1 | ||
| 2025-11-08T23:53 | 7735 | 364 | 265 | 42 | ||
| 2025-11-08T23:54 | 8068 | 347 | 264 | 46 | ||
| 2025-11-08T23:54 | 8157 | 342 | -42.8 | |||
| 2025-11-08T23:55 | 8388 | 331 | 263 | 48 | ||
| 2025-11-08T23:55 | 8529 | 324 | -45.4 | |||
| 2025-11-08T23:56 | 8716 | 315 | 265 | 48 | ||
| 2025-11-08T23:56 | 8796 | 311 | -47.1 | |||
| 2025-11-08T23:57 | 9027 | 300 | 264 | 48 | ||
| 2025-11-08T23:58 | 9341 | 286 | 260 | 50 | ||
| 2025-11-08T23:58 | 9441 | 282 | -50.5 | |||
| 2025-11-08T23:59 | 9633 | 274 | 262 | 51 | ||
| 2025-11-09T00:00 | 9939 | 261 | 261 | 54 | ||
| 2025-11-09T00:01 | 10273 | 248 | 263 | 54 | ||
| 2025-11-09T00:01 | 10358 | 245 | -53.0 | |||
| 2025-11-09T00:02 | 10581 | 236 | -53.0 | |||
| 2025-11-09T00:02 | 10591 | 236 | 264 | 52 | ||
| 2025-11-09T00:03 | 10929 | 224 | 265 | 52 | ||
| 2025-11-09T00:03 | 10970 | 222 | -54.8 | |||
| 2025-11-09T00:04 | 11220 | 214 | 266 | 55 | ||
| 2025-11-09T00:04 | 11406 | 208 | 269 | 54 | ||
| 2025-11-09T00:05 | 11709 | 198 | 270 | 53 | ||
| 2025-11-09T00:05 | 11777 | 196 | -54.2 | |||
| 2025-11-09T00:06 | 11912 | 192 | 267 | 53 | ||
| 2025-11-09T00:07 | 12178 | 184 | -53.8 | |||
| 2025-11-09T00:07 | 12228 | 183 | 270 | 53 | ||
| 2025-11-09T00:08 | 12567 | 173 | 271 | 49 | ||
| 2025-11-09T00:09 | 12911 | 164 | 266 | 49 | ||
| 2025-11-09T00:09 | 13016 | 162 | -55.2 | |||
| 2025-11-09T00:09 | 13114 | 159 | 269 | 52 | ||
| 2025-11-09T00:10 | 13194 | 157 | -55.7 | |||
| 2025-11-09T00:10 | 13325 | 154 | 268 | 51 | ||
| 2025-11-09T00:11 | 13665 | 146 | 269 | 47 | ||
| 2025-11-09T00:12 | 13806 | 143 | -56.6 | |||
| 2025-11-09T00:12 | 13980 | 139 | 269 | 47 | ||
| 2025-11-09T00:13 | 14264 | 133 | 278 | 46 | ||
| 2025-11-09T00:14 | 14438 | 129 | -57.9 | |||
| 2025-11-09T00:14 | 14542 | 127 | 274 | 39 | ||
| 2025-11-09T00:15 | 14750 | 123 | -58.7 | |||
| 2025-11-09T00:15 | 14857 | 121 | 271 | 40 | ||
| 2025-11-09T00:16 | 15202 | 114 | 279 | 35 | ||
| 2025-11-09T00:16 | 15208 | 114 | -58.7 | |||
| 2025-11-09T00:17 | 15564 | 108 | 270 | 34 | ||
| 2025-11-09T00:17 | 15764 | 105 | -60.8 | |||
| 2025-11-09T00:18 | 15938 | 102 | 276 | 31 | ||
| 2025-11-09T00:18 | 16163 | 98 | -61.3 | |||
| 2025-11-09T00:19 | 16302 | 96 | 268 | 35 | ||
| 2025-11-09T00:19 | 16482 | 93 | -58.7 | |||
| 2025-11-09T00:20 | 16616 | 91 | 271 | 35 | ||
| 2025-11-09T00:20 | 16870 | 88 | -58.6 | |||
| 2025-11-09T00:21 | 17009 | 86 | 276 | 35 | ||
| 2025-11-09T00:21 | 17219 | 83 | -57.4 | |||
| 2025-11-09T00:22 | 17367 | 81 | 267 | 26 | ||
| 2025-11-09T00:22 | 17469 | 80 | -56.4 | |||
| 2025-11-09T00:23 | 17721 | 77 | 272 | 26 | ||
| 2025-11-09T00:23 | 17763 | 76 | -56.0 | |||
| 2025-11-09T00:24 | 18117 | 72 | -56.1 | |||
| 2025-11-09T00:24 | 18171 | 71 | 253 | 26 | ||
| 2025-11-09T00:25 | 18587 | 67 | 252 | 31 | ||
| 2025-11-09T00:25 | 18750 | 65 | -59.5 | |||
| 2025-11-09T00:26 | 18887 | 64 | 271 | 30 | ||
| 2025-11-09T00:26 | 18977 | 63 | -56.3 | |||
| 2025-11-09T00:27 | 19225 | 60 | 272 | 28 | ||
| 2025-11-09T00:27 | 19330 | 59 | -57.2 | |||
| 2025-11-09T00:27 | 19437 | 58 | -56.1 | |||
| 2025-11-09T00:28 | 19572 | 57 | 278 | 27 | ||
| 2025-11-09T00:28 | 19866 | 55 | 281 | 30 | ||
| 2025-11-09T00:29 | 19936 | 54 | -56.9 | |||
| 2025-11-09T00:29 | 20237 | 51 | -56.4 | |||
| 2025-11-09T00:29 | 20283 | 51 | 299 | 17 | ||
| 2025-11-09T00:30 | 20617 | 48 | 279 | 7 | ||
| 2025-11-09T00:30 | 20631 | 48 | -56.8 | |||
| 2025-11-09T00:31 | 20777 | 47 | 244 | 7 | ||
| 2025-11-09T00:31 | 21049 | 45 | 232 | 14 | ||
| 2025-11-09T00:32 | 21457 | 42 | 259 | 15 | ||
| 2025-11-09T00:33 | 21671 | 41 | 269 | 15 | ||
| 2025-11-09T00:33 | 21763 | 40 | -54.9 | |||
| 2025-11-09T00:33 | 21939 | 39 | 287 | 16 | ||
| 2025-11-09T00:34 | 22139 | 38 | 283 | 12 | ||
| 2025-11-09T00:34 | 22311 | 37 | 264 | 12 | ||
| 2025-11-09T00:35 | 22330 | 37 | -52.6 | |||
| 2025-11-09T00:35 | 22489 | 36 | 268 | 10 | ||
| 2025-11-09T00:35 | 22614 | 35 | 282 | 10 | ||
| 2025-11-09T00:36 | 22874 | 34 | 271 | 10 | ||
| 2025-11-09T00:36 | 23065 | 33 | 264 | 15 | ||
| 2025-11-09T00:37 | 23370 | 32 | 278 | 11 | ||
| 2025-11-09T00:38 | 23642 | 30 | -52.3 | |||
| 2025-11-09T00:38 | 23662 | 30 | 302 | 4 | ||
| 2025-11-09T00:39 | 24085 | 28 | 291 | 8 | ||
| 2025-11-09T00:40 | 24486 | 27 | 293 | 10 | ||
| 2025-11-09T00:40 | 24608 | 26 | -53.7 | |||
| 2025-11-09T00:40 | 24708 | 26 | 306 | 8 | ||
| 2025-11-09T00:41 | 24808 | 25 | -51.6 | |||
| 2025-11-09T00:41 | 25075 | 24 | -50.8 | |||
| 2025-11-09T00:41 | 25127 | 24 | 337 | 6 | ||
| 2025-11-09T00:42 | 25372 | 23 | 345 | 5 | ||
| 2025-11-09T00:42 | 25516 | 23 | 340 | 3 | ||
| 2025-11-09T00:43 | 25690 | 22 | -52.3 | 304 | 4 | |
| 2025-11-09T00:43 | 25961 | 21 | 47 | 6 | ||
| 2025-11-09T00:43 | 25994 | 21 | -49.7 | |||
| 2025-11-09T00:44 | 26316 | 20 | 58 | 4 | ||
| 2025-11-09T00:45 | 26577 | 19 | 66 | 1 | ||
| 2025-11-09T00:45 | 26682 | 19 | -50.9 | |||
| 2025-11-09T00:45 | 26863 | 18 | -50.1 | 246 | 1 | |
| 2025-11-09T11:30 | 18 | 1000 | 6.9 | 5.4 | 150 | 3 |
| 2025-11-09T11:30 | 22 | 1000 | 6.5 | 5.0 | 0 | 0 |
| 2025-11-09T11:30 | 100 | 990 | 158 | 3 | ||
| 2025-11-09T11:30 | 117 | 988 | 7.2 | 4.3 | ||
| 2025-11-09T11:31 | 228 | 975 | 7.8 | 4.2 | ||
| 2025-11-09T11:31 | 251 | 972 | 176 | 9 | ||
| 2025-11-09T11:31 | 314 | 965 | 7.9 | 3.7 | ||
| 2025-11-09T11:31 | 393 | 956 | 190 | 9 | ||
| 2025-11-09T11:32 | 702 | 920 | 191 | 11 | ||
| 2025-11-09T11:33 | 808 | 909 | 5.4 | 1.9 | ||
| 2025-11-09T11:33 | 980 | 890 | 211 | 17 | ||
| 2025-11-09T11:33 | 1061 | 881 | 4.7 | 1.0 | ||
| 2025-11-09T11:34 | 1239 | 862 | 4.1 | 0.4 | ||
| 2025-11-09T11:34 | 1271 | 858 | 216 | 15 | ||
| 2025-11-09T11:35 | 1431 | 842 | 3.4 | -0.2 | ||
| 2025-11-09T11:35 | 1597 | 825 | 230 | 13 | ||
| 2025-11-09T11:36 | 1836 | 800 | 0.3 | -1.9 | ||
| 2025-11-09T11:36 | 1969 | 787 | -0.3 | -2.7 | ||
| 2025-11-09T11:36 | 1990 | 785 | 237 | 12 | ||
| 2025-11-09T11:36 | 2132 | 771 | -1.0 | -4.0 | ||
| 2025-11-09T11:37 | 2349 | 751 | -2.5 | -5.6 | ||
| 2025-11-09T11:37 | 2403 | 746 | 246 | 15 | ||
| 2025-11-09T11:37 | 2444 | 742 | -3.2 | -7.2 | ||
| 2025-11-09T11:38 | 2597 | 727 | -4.3 | -8.4 | ||
| 2025-11-09T11:38 | 2655 | 722 | 243 | 15 | ||
| 2025-11-09T11:38 | 2832 | 706 | -6.0 | -11.5 | ||
| 2025-11-09T11:39 | 3131 | 679 | 251 | 17 | ||
| 2025-11-09T11:39 | 3272 | 667 | -9.9 | -15.8 | ||
| 2025-11-09T11:39 | 3335 | 662 | -10.2 | -19.4 | ||
| 2025-11-09T11:39 | 3396 | 657 | -10.6 | -22.8 | ||
| 2025-11-09T11:40 | 3462 | 651 | -11.1 | -19.0 | ||
| 2025-11-09T11:40 | 3515 | 646 | 251 | 22 | ||
| 2025-11-09T11:40 | 3687 | 632 | -12.9 | -20.9 | ||
| 2025-11-09T11:40 | 3788 | 624 | -13.5 | -23.4 | ||
| 2025-11-09T11:41 | 3913 | 614 | 232 | 25 | ||
| 2025-11-09T11:41 | 4195 | 591 | 229 | 27 | ||
| 2025-11-09T11:41 | 4211 | 590 | -16.8 | -25.2 | ||
| 2025-11-09T11:42 | 4239 | 588 | -16.8 | -25.7 | ||
| 2025-11-09T11:42 | 4281 | 584 | -17.0 | -18.0 | ||
| 2025-11-09T11:42 | 4339 | 580 | -17.4 | -18.1 | ||
| 2025-11-09T11:42 | 4413 | 574 | -18.0 | -18.6 | ||
| 2025-11-09T11:42 | 4499 | 568 | 233 | 27 | ||
| 2025-11-09T11:42 | 4503 | 567 | -18.9 | -21.2 | ||
| 2025-11-09T11:43 | 4534 | 565 | -19.2 | -23.1 | ||
| 2025-11-09T11:43 | 4573 | 562 | -19.6 | -21.9 | ||
| 2025-11-09T11:43 | 4590 | 561 | -19.7 | -21.7 | ||
| 2025-11-09T11:43 | 4624 | 558 | -20.1 | -24.2 | ||
| 2025-11-09T11:43 | 4653 | 556 | -20.4 | -26.2 | ||
| 2025-11-09T11:43 | 4690 | 553 | -20.7 | -22.8 | ||
| 2025-11-09T11:43 | 4722 | 551 | -20.8 | -22.1 | ||
| 2025-11-09T11:43 | 4750 | 549 | 231 | 28 | ||
| 2025-11-09T11:43 | 4767 | 547 | -21.1 | -23.6 | ||
| 2025-11-09T11:44 | 4792 | 545 | -21.3 | -25.8 | ||
| 2025-11-09T11:44 | 4852 | 541 | 229 | 27 | ||
| 2025-11-09T11:45 | 5039 | 527 | -22.7 | -27.5 | ||
| 2025-11-09T11:45 | 5060 | 526 | -22.9 | -26.7 | ||
| 2025-11-09T11:45 | 5080 | 524 | -22.0 | -24.8 | ||
| 2025-11-09T11:45 | 5100 | 523 | 223 | 26 | ||
| 2025-11-09T11:45 | 5265 | 511 | 221 | 23 | ||
| 2025-11-09T11:46 | 5402 | 502 | -23.9 | -26.1 | ||
| 2025-11-09T11:46 | 5585 | 489 | 221 | 23 | ||
| 2025-11-09T11:47 | 5708 | 481 | 224 | 29 | ||
| 2025-11-09T11:47 | 5853 | 472 | 223 | 33 | ||
| 2025-11-09T11:47 | 5875 | 470 | -28.1 | -30.7 | ||
| 2025-11-09T11:47 | 5947 | 465 | -28.8 | -33.3 | ||
| 2025-11-09T11:48 | 6011 | 461 | -29.4 | -38.5 | ||
| 2025-11-09T11:48 | 6205 | 449 | 229 | 34 | ||
| 2025-11-09T11:48 | 6248 | 446 | -30.9 | -42.8 | ||
| 2025-11-09T11:49 | 6575 | 426 | 229 | 32 | ||
| 2025-11-09T11:49 | 6650 | 421 | -33.4 | -45.1 | ||
| 2025-11-09T11:50 | 6746 | 416 | 232 | 32 | ||
| 2025-11-09T11:50 | 6882 | 408 | 235 | 34 | ||
| 2025-11-09T11:51 | 7123 | 394 | 231 | 32 | ||
| 2025-11-09T11:51 | 7282 | 385 | 228 | 35 | ||
| 2025-11-09T11:51 | 7381 | 379 | -39.4 | -51.0 | ||
| 2025-11-09T11:52 | 7494 | 373 | -40.0 | -52.5 | ||
| 2025-11-09T11:52 | 7515 | 372 | 237 | 36 | ||
| 2025-11-09T11:52 | 7650 | 365 | 240 | 39 | ||
| 2025-11-09T11:53 | 7983 | 347 | 247 | 37 | ||
| 2025-11-09T11:54 | 8325 | 330 | 244 | 43 | ||
| 2025-11-09T11:54 | 8554 | 319 | -46.9 | |||
| 2025-11-09T11:55 | 8738 | 310 | 246 | 48 | ||
| 2025-11-09T11:55 | 8927 | 301 | -48.1 | |||
| 2025-11-09T11:56 | 9152 | 291 | 251 | 47 | ||
| 2025-11-09T11:56 | 9346 | 283 | 253 | 45 | ||
| 2025-11-09T11:56 | 9467 | 277 | 255 | 50 | ||
| 2025-11-09T11:57 | 9625 | 271 | 252 | 48 | ||
| 2025-11-09T11:57 | 9743 | 266 | -50.3 | |||
| 2025-11-09T11:57 | 9823 | 263 | 255 | 51 | ||
| 2025-11-09T11:57 | 9888 | 260 | -50.0 | |||
| 2025-11-09T11:58 | 10166 | 249 | 259 | 51 | ||
| 2025-11-09T11:58 | 10180 | 249 | -51.9 | |||
| 2025-11-09T11:59 | 10385 | 241 | -50.8 | |||
| 2025-11-09T11:59 | 10570 | 234 | 261 | 55 | ||
| 2025-11-09T11:59 | 10603 | 233 | -50.6 | |||
| 2025-11-09T11:59 | 10729 | 228 | 259 | 58 | ||
| 2025-11-09T12:00 | 11051 | 217 | 266 | 62 | ||
| 2025-11-09T12:01 | 11400 | 206 | -50.9 | |||
| 2025-11-09T12:01 | 11427 | 205 | 266 | 61 | ||
| 2025-11-09T12:02 | 11580 | 200 | -51.4 | |||
| 2025-11-09T12:02 | 11654 | 198 | 266 | 56 | ||
| 2025-11-09T12:02 | 11744 | 195 | -50.5 | |||
| 2025-11-09T12:03 | 12007 | 188 | 269 | 58 | ||
| 2025-11-09T12:03 | 12226 | 181 | -51.9 | |||
| 2025-11-09T12:04 | 12333 | 178 | 269 | 55 | ||
| 2025-11-09T12:04 | 12441 | 176 | -50.8 | |||
| 2025-11-09T12:04 | 12544 | 173 | 268 | 53 | ||
| 2025-11-09T12:05 | 12678 | 169 | 269 | 53 | ||
| 2025-11-09T12:06 | 12921 | 163 | -49.9 | |||
| 2025-11-09T12:06 | 12927 | 163 | 272 | 45 | ||
| 2025-11-09T12:06 | 13235 | 155 | -51.4 | |||
| 2025-11-09T12:07 | 13290 | 154 | 271 | 40 | ||
| 2025-11-09T12:07 | 13600 | 147 | -51.2 | |||
| 2025-11-09T12:08 | 13664 | 145 | 258 | 41 | ||
| 2025-11-09T12:08 | 13770 | 143 | -52.0 | |||
| 2025-11-09T12:08 | 13903 | 140 | 263 | 40 | ||
| 2025-11-09T12:08 | 13940 | 139 | -52.2 | |||
| 2025-11-09T12:09 | 14249 | 133 | -53.2 | |||
| 2025-11-09T12:09 | 14261 | 133 | 264 | 35 | ||
| 2025-11-09T12:10 | 14577 | 126 | -54.0 | |||
| 2025-11-09T12:10 | 14619 | 125 | 267 | 32 | ||
| 2025-11-09T12:11 | 14881 | 120 | -55.5 | |||
| 2025-11-09T12:11 | 14942 | 119 | 267 | 37 | ||
| 2025-11-09T12:11 | 14985 | 118 | -53.8 | |||
| 2025-11-09T12:12 | 15391 | 111 | 267 | 26 | ||
| 2025-11-09T12:13 | 15593 | 108 | -57.5 | |||
| 2025-11-09T12:13 | 15784 | 104 | 269 | 27 | ||
| 2025-11-09T12:14 | 15997 | 101 | 273 | 32 | ||
| 2025-11-09T12:14 | 16213 | 98 | -59.0 | |||
| 2025-11-09T12:15 | 16385 | 95 | 268 | 32 | ||
| 2025-11-09T12:15 | 16683 | 90 | 265 | 34 | ||
| 2025-11-09T12:16 | 16970 | 86 | -60.3 | |||
| 2025-11-09T12:16 | 17041 | 85 | -60.1 | |||
| 2025-11-09T12:16 | 17047 | 85 | 269 | 32 | ||
| 2025-11-09T12:17 | 17115 | 84 | -58.5 | |||
| 2025-11-09T12:17 | 17222 | 83 | 258 | 32 | ||
| 2025-11-09T12:17 | 17343 | 81 | -58.8 | |||
| 2025-11-09T12:18 | 17635 | 78 | 272 | 33 | ||
| 2025-11-09T12:18 | 17642 | 78 | -58.2 | |||
| 2025-11-09T12:18 | 17862 | 75 | 273 | 28 | ||
| 2025-11-09T12:19 | 17993 | 73 | -58.2 | |||
| 2025-11-09T12:19 | 18168 | 71 | -54.5 | |||
| 2025-11-09T12:19 | 18304 | 70 | 285 | 27 | ||
| 2025-11-09T12:20 | 18655 | 66 | -53.4 | |||
| 2025-11-09T12:20 | 18693 | 66 | 266 | 19 | ||
| 2025-11-09T12:21 | 18931 | 63 | 254 | 21 | ||
| 2025-11-09T12:21 | 19147 | 61 | 253 | 25 | ||
| 2025-11-09T12:22 | 19333 | 60 | -57.3 | |||
| 2025-11-09T12:22 | 19475 | 58 | 261 | 29 | ||
| 2025-11-09T12:23 | 19653 | 57 | -55.1 | |||
| 2025-11-09T12:23 | 19742 | 56 | 267 | 23 | ||
| 2025-11-09T12:23 | 19873 | 55 | 263 | 16 | ||
| 2025-11-09T12:23 | 20024 | 53 | -53.8 | |||
| 2025-11-09T12:24 | 20075 | 53 | 252 | 17 | ||
| 2025-11-09T12:24 | 20409 | 50 | 256 | 22 | ||
| 2025-11-09T12:25 | 20484 | 50 | -55.3 | |||
| 2025-11-09T12:25 | 20801 | 47 | 274 | 24 | ||
| 2025-11-09T12:26 | 21178 | 45 | 285 | 26 | ||
| 2025-11-09T12:27 | 21425 | 43 | -52.3 | 276 | 18 | |
| 2025-11-09T12:27 | 21657 | 41 | 274 | 20 | ||
| 2025-11-09T12:28 | 21801 | 41 | 274 | 20 | ||
| 2025-11-09T12:28 | 21962 | 40 | -49.9 | |||
| 2025-11-09T12:28 | 22014 | 39 | 292 | 17 | ||
| 2025-11-09T12:29 | 22199 | 38 | 295 | 10 | ||
| 2025-11-09T12:29 | 22535 | 36 | 302 | 7 | ||
| 2025-11-09T12:30 | 22849 | 35 | 235 | 6 | ||
| 2025-11-09T12:31 | 23023 | 34 | 211 | 11 | ||
| 2025-11-09T12:31 | 23040 | 34 | -49.6 | |||
| 2025-11-09T12:32 | 23446 | 32 | 206 | 14 | ||
| 2025-11-09T12:32 | 23573 | 31 | -50.2 | |||
| 2025-11-09T12:32 | 23745 | 30 | 219 | 14 | ||
| 2025-11-09T12:33 | 23941 | 29 | 229 | 12 | ||
| 2025-11-09T12:33 | 24123 | 28 | 251 | 8 | ||
| 2025-11-09T12:34 | 24379 | 27 | 302 | 2 | ||
| 2025-11-09T12:34 | 24503 | 27 | -50.0 | |||
| 2025-11-09T12:35 | 24802 | 26 | -50.6 | |||
| 2025-11-09T12:35 | 24852 | 25 | 183 | 1 | ||
| 2025-11-09T12:35 | 24983 | 25 | 165 | 4 | ||
| 2025-11-09T12:36 | 25142 | 24 | 169 | 6 | ||
| 2025-11-09T12:36 | 25223 | 24 | -49.2 | |||
| 2025-11-09T12:36 | 25304 | 24 | 165 | 8 | ||
| 2025-11-09T12:36 | 25367 | 24 | -49.5 | 173 | 7 | |
| 2025-11-09T23:30 | 18 | 997 | 6.7 | 2.4 | 150 | 2 |
| 2025-11-09T23:30 | 22 | 997 | 6.7 | 2.0 | 0 | 0 |
| 2025-11-09T23:30 | 37 | 995 | 6.8 | 1.3 | ||
| 2025-11-09T23:30 | 80 | 990 | 6.1 | 0.4 | ||
| 2025-11-09T23:31 | 223 | 973 | 6.3 | -1.4 | ||
| 2025-11-09T23:31 | 348 | 958 | 295 | 3 | ||
| 2025-11-09T23:32 | 689 | 918 | 2.1 | -3.0 | ||
| 2025-11-09T23:32 | 746 | 912 | 293 | 6 | ||
| 2025-11-09T23:33 | 1016 | 882 | 311 | 6 | ||
| 2025-11-09T23:34 | 1334 | 847 | -4.0 | -5.0 | ||
| 2025-11-09T23:34 | 1380 | 842 | 298 | 10 | ||
| 2025-11-09T23:34 | 1460 | 834 | -5.0 | -6.7 | ||
| 2025-11-09T23:34 | 1512 | 828 | -5.0 | -8.9 | ||
| 2025-11-09T23:35 | 1731 | 805 | 300 | 10 | ||
| 2025-11-09T23:35 | 1831 | 795 | -7.2 | -10.9 | ||
| 2025-11-09T23:36 | 2072 | 771 | 281 | 10 | ||
| 2025-11-09T23:36 | 2211 | 757 | 285 | 8 | ||
| 2025-11-09T23:36 | 2217 | 756 | -9.5 | -12.9 | ||
| 2025-11-09T23:37 | 2414 | 737 | 263 | 9 | ||
| 2025-11-09T23:37 | 2556 | 724 | -12.3 | -14.0 | ||
| 2025-11-09T23:37 | 2579 | 721 | 269 | 9 | ||
| 2025-11-09T23:38 | 2831 | 698 | -13.9 | -15.7 | ||
| 2025-11-09T23:38 | 2922 | 690 | 256 | 14 | ||
| 2025-11-09T23:39 | 3079 | 675 | -15.5 | -18.6 | ||
| 2025-11-09T23:39 | 3272 | 658 | 270 | 16 | ||
| 2025-11-09T23:40 | 3629 | 628 | 268 | 21 | ||
| 2025-11-09T23:41 | 3843 | 610 | -21.3 | -25.3 | ||
| 2025-11-09T23:41 | 3995 | 597 | 260 | 21 | ||
| 2025-11-09T23:41 | 4100 | 589 | -23.1 | -27.1 | ||
| 2025-11-09T23:42 | 4365 | 568 | 255 | 26 | ||
| 2025-11-09T23:43 | 4586 | 551 | -26.7 | -32.1 | ||
| 2025-11-09T23:43 | 4630 | 547 | 257 | 27 | ||
| 2025-11-09T23:44 | 4903 | 527 | -29.4 | -35.4 | ||
| 2025-11-09T23:44 | 5007 | 519 | 263 | 30 | ||
| 2025-11-09T23:44 | 5110 | 512 | -30.4 | -37.3 | ||
| 2025-11-09T23:44 | 5187 | 506 | -30.9 | -39.2 | ||
| 2025-11-09T23:44 | 5199 | 505 | 257 | 25 | ||
| 2025-11-09T23:45 | 5240 | 503 | -30.6 | -48.9 | ||
| 2025-11-09T23:45 | 5310 | 498 | -30.6 | -50.1 | ||
| 2025-11-09T23:45 | 5368 | 494 | -30.4 | -44.1 | ||
| 2025-11-09T23:45 | 5529 | 482 | -31.3 | -40.5 | ||
| 2025-11-09T23:45 | 5545 | 481 | 250 | 26 | ||
| 2025-11-09T23:46 | 5761 | 467 | -32.3 | -42.4 | ||
| 2025-11-09T23:46 | 5874 | 459 | -32.9 | -43.2 | ||
| 2025-11-09T23:46 | 5893 | 458 | 257 | 26 | ||
| 2025-11-09T23:47 | 6113 | 444 | -34.8 | -44.7 | ||
| 2025-11-09T23:47 | 6159 | 441 | 258 | 29 | ||
| 2025-11-09T23:48 | 6297 | 432 | -35.6 | -47.3 | ||
| 2025-11-09T23:48 | 6397 | 426 | 259 | 31 | ||
| 2025-11-09T23:48 | 6500 | 420 | -36.4 | -51.7 | ||
| 2025-11-09T23:49 | 6782 | 403 | 259 | 29 | ||
| 2025-11-09T23:49 | 6946 | 394 | -40.0 | -55.7 | ||
| 2025-11-09T23:50 | 7185 | 380 | 264 | 28 | ||
| 2025-11-09T23:51 | 7566 | 359 | 255 | 28 | ||
| 2025-11-09T23:51 | 7710 | 351 | -46.6 | |||
| 2025-11-09T23:51 | 7800 | 347 | 254 | 28 | ||
| 2025-11-09T23:52 | 7994 | 337 | 251 | 29 | ||
| 2025-11-09T23:52 | 8041 | 334 | -48.0 | |||
| 2025-11-09T23:52 | 8177 | 327 | -46.9 | 252 | 36 | |
| 2025-11-09T23:53 | 8244 | 324 | -45.5 | |||
| 2025-11-09T23:53 | 8320 | 320 | 257 | 41 | ||
| 2025-11-09T23:53 | 8373 | 318 | -44.9 | |||
| 2025-11-09T23:53 | 8439 | 315 | -44.8 | |||
| 2025-11-09T23:53 | 8517 | 311 | -44.3 | |||
| 2025-11-09T23:54 | 8627 | 306 | -44.0 | |||
| 2025-11-09T23:54 | 8693 | 303 | 260 | 36 | ||
| 2025-11-09T23:54 | 8770 | 300 | -42.5 | |||
| 2025-11-09T23:54 | 8875 | 295 | 255 | 34 | ||
| 2025-11-09T23:54 | 8931 | 292 | -42.5 | |||
| 2025-11-09T23:55 | 9055 | 287 | 256 | 38 | ||
| 2025-11-09T23:55 | 9175 | 282 | -43.4 | |||
| 2025-11-09T23:55 | 9195 | 281 | 257 | 38 | ||
| 2025-11-09T23:56 | 9363 | 274 | 261 | 34 | ||
| 2025-11-09T23:57 | 9736 | 259 | 253 | 34 | ||
| 2025-11-09T23:57 | 9946 | 251 | -44.2 | |||
| 2025-11-09T23:58 | 10101 | 246 | 250 | 36 | ||
| 2025-11-09T23:59 | 10444 | 233 | 248 | 36 | ||
| 2025-11-09T23:59 | 10514 | 231 | -44.4 | |||
| 2025-11-09T23:59 | 10717 | 224 | 251 | 39 | ||
| 2025-11-10T00:00 | 11024 | 214 | 250 | 40 | ||
| 2025-11-10T00:01 | 11165 | 210 | -43.2 | |||
| 2025-11-10T00:01 | 11317 | 205 | 261 | 40 | ||
| 2025-11-10T00:02 | 11547 | 198 | -43.4 | |||
| 2025-11-10T00:02 | 11615 | 196 | 260 | 35 | ||
| 2025-11-10T00:03 | 11956 | 186 | 252 | 37 | ||
| 2025-11-10T00:03 | 12022 | 184 | -45.2 | |||
| 2025-11-10T00:04 | 12321 | 176 | 259 | 38 | ||
| 2025-11-10T00:05 | 12669 | 167 | 260 | 35 | ||
| 2025-11-10T00:06 | 12993 | 159 | 262 | 32 | ||
| 2025-11-10T00:06 | 13025 | 158 | -50.0 | |||
| 2025-11-10T00:07 | 13314 | 151 | 263 | 33 | ||
| 2025-11-10T00:08 | 13455 | 148 | -52.0 | |||
| 2025-11-10T00:08 | 13592 | 145 | 257 | 35 | ||
| 2025-11-10T00:09 | 13834 | 140 | 258 | 32 | ||
| 2025-11-10T00:10 | 14106 | 134 | 253 | 33 | ||
| 2025-11-10T00:10 | 14197 | 132 | -53.0 | |||
| 2025-11-10T00:11 | 14434 | 127 | 249 | 34 | ||
| 2025-11-10T00:11 | 14490 | 126 | -51.9 | |||
| 2025-11-10T00:11 | 14671 | 123 | -52.4 | |||
| 2025-11-10T00:12 | 14789 | 121 | 249 | 40 | ||
| 2025-11-10T00:12 | 14909 | 118 | -52.6 | |||
| 2025-11-10T00:13 | 15143 | 114 | 243 | 36 | ||
| 2025-11-10T00:13 | 15337 | 111 | -55.3 | |||
| 2025-11-10T00:14 | 15540 | 107 | 248 | 37 | ||
| 2025-11-10T00:14 | 15787 | 103 | -56.3 | |||
| 2025-11-10T00:14 | 15899 | 101 | 257 | 40 | ||
| 2025-11-10T00:15 | 15964 | 100 | -57.1 | |||
| 2025-11-10T00:15 | 16052 | 99 | 261 | 38 | ||
| 2025-11-10T00:15 | 16228 | 96 | -58.0 | |||
| 2025-11-10T00:16 | 16312 | 95 | 260 | 34 | ||
| 2025-11-10T00:16 | 16377 | 94 | -58.3 | |||
| 2025-11-10T00:16 | 16513 | 92 | -58.0 | |||
| 2025-11-10T00:17 | 16570 | 91 | 253 | 39 | ||
| 2025-11-10T00:17 | 16597 | 91 | -55.8 | |||
| 2025-11-10T00:17 | 16667 | 90 | 254 | 38 | ||
| 2025-11-10T00:17 | 16675 | 90 | -53.3 | |||
| 2025-11-10T00:17 | 16740 | 89 | -51.4 | |||
| 2025-11-10T00:17 | 16813 | 88 | 266 | 33 | ||
| 2025-11-10T00:18 | 17046 | 85 | 277 | 29 | ||
| 2025-11-10T00:19 | 17286 | 82 | -53.8 | |||
| 2025-11-10T00:19 | 17399 | 80 | 280 | 27 | ||
| 2025-11-10T00:20 | 17672 | 77 | 270 | 16 | ||
| 2025-11-10T00:20 | 17798 | 75 | -53.3 | |||
| 2025-11-10T00:20 | 17883 | 74 | 258 | 11 | ||
| 2025-11-10T00:21 | 17969 | 73 | -51.7 | |||
| 2025-11-10T00:21 | 18232 | 70 | 245 | 15 | ||
| 2025-11-10T00:22 | 18380 | 69 | -53.9 | |||
| 2025-11-10T00:22 | 18600 | 67 | 242 | 22 | ||
| 2025-11-10T00:23 | 18880 | 64 | -56.8 | |||
| 2025-11-10T00:23 | 18992 | 63 | 255 | 29 | ||
| 2025-11-10T00:23 | 19003 | 62 | -53.9 | |||
| 2025-11-10T00:24 | 19119 | 61 | -52.2 | |||
| 2025-11-10T00:24 | 19323 | 59 | -50.7 | |||
| 2025-11-10T00:24 | 19397 | 59 | 259 | 24 | ||
| 2025-11-10T00:25 | 19774 | 55 | 267 | 19 | ||
| 2025-11-10T00:25 | 19820 | 55 | -53.4 | |||
| 2025-11-10T00:26 | 20012 | 53 | -51.9 | |||
| 2025-11-10T00:26 | 20108 | 53 | 241 | 9 | ||
| 2025-11-10T00:27 | 20432 | 50 | 199 | 10 | ||
| 2025-11-10T00:28 | 20777 | 47 | -57.8 | |||
| 2025-11-10T00:28 | 20827 | 47 | 193 | 14 | ||
| 2025-11-10T00:29 | 21170 | 45 | -58.8 | |||
| 2025-11-10T00:29 | 21213 | 44 | 213 | 17 | ||
| 2025-11-10T00:29 | 21416 | 43 | 241 | 18 | ||
| 2025-11-10T00:30 | 21461 | 43 | -55.0 | |||
| 2025-11-10T00:30 | 21613 | 42 | -55.2 | |||
| 2025-11-10T00:30 | 21646 | 41 | 246 | 18 | ||
| 2025-11-10T00:30 | 21788 | 40 | 238 | 14 | ||
| 2025-11-10T00:31 | 21967 | 39 | -51.9 | |||
| 2025-11-10T00:31 | 22131 | 38 | -50.7 | |||
| 2025-11-10T00:31 | 22148 | 38 | 265 | 19 | ||
| 2025-11-10T00:32 | 22465 | 36 | 262 | 5 | ||
| 2025-11-10T00:32 | 22590 | 36 | -50.3 | |||
| 2025-11-10T00:33 | 22740 | 35 | 233 | 3 | ||
| 2025-11-10T00:34 | 23222 | 32 | 217 | 6 | ||
| 2025-11-10T00:35 | 23506 | 31 | 210 | 6 | ||
| 2025-11-10T00:35 | 23754 | 30 | -55.1 | |||
| 2025-11-10T00:35 | 23887 | 29 | 232 | 15 | ||
| 2025-11-10T00:36 | 24092 | 28 | 264 | 13 | ||
| 2025-11-10T00:36 | 24208 | 28 | 271 | 7 | ||
| 2025-11-10T00:36 | 24231 | 28 | -47.0 | |||
| 2025-11-10T00:37 | 24376 | 27 | 195 | 2 | ||
| 2025-11-10T00:37 | 24525 | 27 | 133 | 3 | ||
| 2025-11-10T00:37 | 24698 | 26 | -49.3 | 118 | 4 | |
| 2025-11-10T11:30 | 18 | 1002 | 1.7 | 0.7 | 270 | 3 |
| 2025-11-10T11:30 | 23 | 1002 | 1.8 | 0.2 | 0 | 0 |
| 2025-11-10T11:30 | 60 | 997 | 356 | 3 | ||
| 2025-11-10T11:30 | 120 | 990 | 284 | 4 | ||
| 2025-11-10T11:30 | 129 | 989 | 0.6 | -0.7 | ||
| 2025-11-10T11:31 | 316 | 966 | 299 | 7 | ||
| 2025-11-10T11:31 | 408 | 955 | -1.1 | -1.9 | ||
| 2025-11-10T11:32 | 557 | 937 | 299 | 10 | ||
| 2025-11-10T11:32 | 588 | 934 | -2.5 | -2.9 | ||
| 2025-11-10T11:33 | 833 | 905 | 295 | 15 | ||
| 2025-11-10T11:33 | 1061 | 879 | -5.2 | -6.0 | 312 | 14 |
| 2025-11-10T11:34 | 1354 | 847 | 312 | 12 | ||
| 2025-11-10T11:35 | 1661 | 814 | 315 | 14 | ||
| 2025-11-10T11:36 | 1756 | 804 | -9.3 | -10.4 | ||
| 2025-11-10T11:36 | 1880 | 791 | 323 | 12 | ||
| 2025-11-10T11:37 | 2081 | 771 | 314 | 12 | ||
| 2025-11-10T11:38 | 2385 | 741 | 314 | 15 | ||
| 2025-11-10T11:38 | 2602 | 720 | -15.3 | -16.8 | ||
| 2025-11-10T11:39 | 2728 | 708 | 314 | 13 | ||
| 2025-11-10T11:39 | 2840 | 697 | 311 | 14 | ||
| 2025-11-10T11:40 | 3012 | 681 | -19.1 | -21.8 | ||
| 2025-11-10T11:40 | 3120 | 672 | -19.9 | -27.9 | ||
| 2025-11-10T11:40 | 3130 | 671 | 308 | 18 | ||
| 2025-11-10T11:41 | 3351 | 651 | -20.3 | -33.4 | ||
| 2025-11-10T11:41 | 3472 | 640 | -20.1 | -35.9 | ||
| 2025-11-10T11:41 | 3478 | 640 | 311 | 19 | ||
| 2025-11-10T11:41 | 3571 | 632 | -19.5 | -37.9 | ||
| 2025-11-10T11:42 | 3639 | 626 | 309 | 20 | ||
| 2025-11-10T11:42 | 3712 | 620 | -19.7 | -37.0 | ||
| 2025-11-10T11:42 | 3895 | 605 | -20.7 | -40.0 | ||
| 2025-11-10T11:43 | 3992 | 597 | 303 | 22 | ||
| 2025-11-10T11:43 | 4047 | 593 | -21.0 | -40.3 | ||
| 2025-11-10T11:44 | 4318 | 571 | 306 | 25 | ||
| 2025-11-10T11:44 | 4371 | 567 | -22.3 | -44.8 | ||
| 2025-11-10T11:44 | 4474 | 559 | -21.9 | -44.5 | ||
| 2025-11-10T11:44 | 4631 | 548 | 309 | 27 | ||
| 2025-11-10T11:45 | 4647 | 546 | -22.9 | -41.8 | ||
| 2025-11-10T11:45 | 4952 | 524 | 305 | 28 | ||
| 2025-11-10T11:46 | 5287 | 500 | 302 | 29 | ||
| 2025-11-10T11:47 | 5541 | 483 | -30.0 | -46.7 | ||
| 2025-11-10T11:47 | 5631 | 476 | 300 | 30 | ||
| 2025-11-10T11:48 | 5767 | 467 | -31.2 | -50.0 | ||
| 2025-11-10T11:48 | 5973 | 454 | 298 | 31 | ||
| 2025-11-10T11:49 | 6250 | 436 | 295 | 32 | ||
| 2025-11-10T11:50 | 6396 | 427 | -35.9 | -55.2 | ||
| 2025-11-10T11:50 | 6624 | 414 | 300 | 36 | ||
| 2025-11-10T11:51 | 6860 | 400 | -38.8 | -60.8 | ||
| 2025-11-10T11:51 | 6955 | 394 | 299 | 36 | ||
| 2025-11-10T11:51 | 6987 | 392 | -40.0 | -60.0 | ||
| 2025-11-10T11:52 | 7257 | 377 | 298 | 36 | ||
| 2025-11-10T11:53 | 7341 | 372 | -42.6 | |||
| 2025-11-10T11:53 | 7545 | 361 | 299 | 37 | ||
| 2025-11-10T11:54 | 7663 | 355 | -44.5 | |||
| 2025-11-10T11:54 | 7748 | 350 | 297 | 38 | ||
| 2025-11-10T11:54 | 7783 | 349 | -45.1 | |||
| 2025-11-10T11:55 | 8039 | 336 | -46.0 | 300 | 42 | |
| 2025-11-10T11:56 | 8244 | 325 | -46.5 | |||
| 2025-11-10T11:56 | 8334 | 321 | 301 | 40 | ||
| 2025-11-10T11:56 | 8456 | 315 | -46.8 | |||
| 2025-11-10T11:57 | 8560 | 310 | -46.0 | |||
| 2025-11-10T11:57 | 8637 | 307 | 298 | 40 | ||
| 2025-11-10T11:58 | 8901 | 295 | 296 | 40 | ||
| 2025-11-10T11:58 | 8975 | 291 | -47.0 | |||
| 2025-11-10T11:58 | 9057 | 288 | -45.4 | |||
| 2025-11-10T11:59 | 9159 | 283 | -44.3 | |||
| 2025-11-10T11:59 | 9169 | 283 | 295 | 37 | ||
| 2025-11-10T11:59 | 9267 | 279 | -44.5 | |||
| 2025-11-10T11:59 | 9302 | 277 | 299 | 32 | ||
| 2025-11-10T11:59 | 9379 | 274 | -44.0 | |||
| 2025-11-10T12:00 | 9454 | 271 | 292 | 34 | ||
| 2025-11-10T12:00 | 9574 | 266 | -45.0 | |||
| 2025-11-10T12:00 | 9579 | 266 | 292 | 38 | ||
| 2025-11-10T12:01 | 9868 | 255 | -45.0 | |||
| 2025-11-10T12:01 | 9901 | 254 | 291 | 32 | ||
| 2025-11-10T12:02 | 10230 | 241 | 287 | 33 | ||
| 2025-11-10T12:02 | 10355 | 237 | -46.4 | |||
| 2025-11-10T12:03 | 10580 | 229 | 290 | 35 | ||
| 2025-11-10T12:04 | 10761 | 223 | -46.9 | |||
| 2025-11-10T12:04 | 10794 | 222 | 290 | 40 | ||
| 2025-11-10T12:04 | 11043 | 214 | -47.7 | |||
| 2025-11-10T12:05 | 11129 | 211 | 292 | 34 | ||
| 2025-11-10T12:05 | 11241 | 207 | -49.0 | |||
| 2025-11-10T12:06 | 11444 | 201 | 280 | 34 | ||
| 2025-11-10T12:06 | 11564 | 197 | -49.9 | |||
| 2025-11-10T12:06 | 11625 | 195 | 277 | 36 | ||
| 2025-11-10T12:06 | 11667 | 194 | -48.9 | |||
| 2025-11-10T12:07 | 11863 | 188 | -49.5 | |||
| 2025-11-10T12:07 | 11892 | 188 | 284 | 43 | ||
| 2025-11-10T12:08 | 12157 | 180 | 273 | 38 | ||
| 2025-11-10T12:09 | 12262 | 177 | -47.9 | |||
| 2025-11-10T12:09 | 12497 | 171 | 275 | 43 | ||
| 2025-11-10T12:10 | 12723 | 165 | -49.0 | |||
| 2025-11-10T12:10 | 12824 | 163 | 280 | 38 | ||
| 2025-11-10T12:10 | 12989 | 159 | -49.0 | |||
| 2025-11-10T12:10 | 12997 | 159 | 280 | 34 | ||
| 2025-11-10T12:11 | 13218 | 153 | 274 | 38 | ||
| 2025-11-10T12:12 | 13576 | 145 | -51.6 | |||
| 2025-11-10T12:12 | 13607 | 144 | 274 | 41 | ||
| 2025-11-10T12:13 | 13798 | 140 | -49.8 | |||
| 2025-11-10T12:13 | 13946 | 137 | 277 | 36 | ||
| 2025-11-10T12:14 | 14285 | 130 | 272 | 40 | ||
| 2025-11-10T12:14 | 14313 | 130 | -50.9 | |||
| 2025-11-10T12:15 | 14492 | 126 | -50.6 | |||
| 2025-11-10T12:15 | 14654 | 123 | 273 | 38 | ||
| 2025-11-10T12:16 | 15045 | 116 | 272 | 38 | ||
| 2025-11-10T12:16 | 15077 | 115 | -51.0 | |||
| 2025-11-10T12:17 | 15431 | 109 | 274 | 35 | ||
| 2025-11-10T12:17 | 15489 | 108 | -51.9 | |||
| 2025-11-10T12:17 | 15609 | 106 | 265 | 29 | ||
| 2025-11-10T12:18 | 15800 | 103 | 255 | 29 | ||
| 2025-11-10T12:19 | 16121 | 98 | 263 | 33 | ||
| 2025-11-10T12:20 | 16437 | 93 | -52.8 | |||
| 2025-11-10T12:20 | 16456 | 93 | 258 | 34 | ||
| 2025-11-10T12:21 | 16781 | 89 | 265 | 33 | ||
| 2025-11-10T12:21 | 16855 | 88 | -55.0 | |||
| 2025-11-10T12:21 | 17031 | 85 | 268 | 27 | ||
| 2025-11-10T12:22 | 17317 | 81 | -56.4 | |||
| 2025-11-10T12:22 | 17340 | 81 | 255 | 28 | ||
| 2025-11-10T12:22 | 17522 | 79 | -57.3 | 252 | 34 | |
| 2025-11-10T23:30 | 18 | 1007 | 3.7 | -4.0 | 280 | 4 |
| 2025-11-10T23:30 | 22 | 1007 | 3.8 | -4.9 | 296 | 2 |
| 2025-11-10T23:30 | 84 | 999 | 290 | 3 | ||
| 2025-11-10T23:30 | 191 | 986 | 289 | 4 | ||
| 2025-11-10T23:31 | 321 | 970 | 0.9 | -7.1 | 276 | 6 |
| 2025-11-10T23:31 | 513 | 947 | 280 | 10 | ||
| 2025-11-10T23:32 | 664 | 929 | 285 | 11 | ||
| 2025-11-10T23:32 | 891 | 903 | -4.7 | -8.5 | ||
| 2025-11-10T23:33 | 958 | 895 | 298 | 13 | ||
| 2025-11-10T23:33 | 1237 | 864 | -7.7 | -8.4 | ||
| 2025-11-10T23:34 | 1275 | 860 | 304 | 15 | ||
| 2025-11-10T23:34 | 1608 | 823 | 314 | 15 | ||
| 2025-11-10T23:35 | 1810 | 802 | 318 | 19 | ||
| 2025-11-10T23:36 | 1972 | 785 | -12.2 | -13.4 | ||
| 2025-11-10T23:36 | 2204 | 762 | 324 | 15 | ||
| 2025-11-10T23:37 | 2414 | 741 | -14.7 | -15.7 | ||
| 2025-11-10T23:37 | 2590 | 724 | -16.1 | -17.8 | ||
| 2025-11-10T23:37 | 2618 | 721 | 319 | 15 | ||
| 2025-11-10T23:37 | 2689 | 714 | -16.6 | -20.1 | ||
| 2025-11-10T23:38 | 2869 | 697 | 303 | 19 | ||
| 2025-11-10T23:38 | 2890 | 695 | -17.7 | -22.0 | ||
| 2025-11-10T23:38 | 3068 | 679 | -18.4 | -23.2 | ||
| 2025-11-10T23:39 | 3253 | 662 | 303 | 17 | ||
| 2025-11-10T23:39 | 3338 | 655 | -18.7 | -25.9 | ||
| 2025-11-10T23:39 | 3414 | 648 | 297 | 22 | ||
| 2025-11-10T23:39 | 3445 | 646 | -18.8 | -30.8 | ||
| 2025-11-10T23:40 | 3565 | 635 | -19.6 | -31.5 | ||
| 2025-11-10T23:40 | 3693 | 624 | 297 | 21 | ||
| 2025-11-10T23:41 | 3780 | 617 | -20.2 | -28.8 | ||
| 2025-11-10T23:41 | 3820 | 614 | 298 | 21 | ||
| 2025-11-10T23:41 | 3911 | 606 | 301 | 21 | ||
| 2025-11-10T23:41 | 4003 | 599 | -20.5 | -34.3 | ||
| 2025-11-10T23:42 | 4202 | 583 | 294 | 19 | ||
| 2025-11-10T23:43 | 4424 | 565 | -23.1 | -35.9 | ||
| 2025-11-10T23:43 | 4541 | 556 | 291 | 20 | ||
| 2025-11-10T23:43 | 4606 | 552 | -24.5 | -36.2 | ||
| 2025-11-10T23:43 | 4698 | 545 | -25.3 | -32.5 | ||
| 2025-11-10T23:44 | 4875 | 531 | -26.7 | -33.0 | ||
| 2025-11-10T23:44 | 4893 | 530 | 291 | 20 | ||
| 2025-11-10T23:45 | 5106 | 515 | -28.4 | -33.9 | ||
| 2025-11-10T23:45 | 5244 | 505 | 294 | 22 | ||
| 2025-11-10T23:45 | 5312 | 500 | -29.9 | -37.0 | ||
| 2025-11-10T23:46 | 5592 | 481 | 287 | 22 | ||
| 2025-11-10T23:47 | 5804 | 466 | -34.1 | -41.1 | ||
| 2025-11-10T23:47 | 5937 | 458 | 292 | 21 | ||
| 2025-11-10T23:47 | 6087 | 448 | -36.6 | -42.2 | ||
| 2025-11-10T23:48 | 6253 | 437 | -37.8 | -45.8 | ||
| 2025-11-10T23:48 | 6270 | 436 | 291 | 20 | ||
| 2025-11-10T23:48 | 6358 | 431 | -38.4 | -47.7 | ||
| 2025-11-10T23:49 | 6540 | 419 | -40.0 | -48.2 | ||
| 2025-11-10T23:49 | 6617 | 415 | 290 | 19 | ||
| 2025-11-10T23:50 | 6851 | 400 | -42.2 | |||
| 2025-11-10T23:50 | 6917 | 397 | -41.7 | |||
| 2025-11-10T23:50 | 6923 | 396 | 281 | 21 | ||
| 2025-11-10T23:51 | 7277 | 376 | 286 | 24 | ||
| 2025-11-10T23:51 | 7355 | 371 | -45.0 | |||
| 2025-11-10T23:52 | 7537 | 362 | -45.1 | |||
| 2025-11-10T23:52 | 7633 | 356 | 284 | 29 | ||
| 2025-11-10T23:53 | 7884 | 343 | -46.5 | |||
| 2025-11-10T23:53 | 7988 | 338 | 284 | 30 | ||
| 2025-11-10T23:53 | 8068 | 334 | -46.1 | |||
| 2025-11-10T23:53 | 8153 | 329 | -45.8 | |||
| 2025-11-10T23:54 | 8250 | 325 | 286 | 33 | ||
| 2025-11-10T23:54 | 8368 | 319 | -46.9 | |||
| 2025-11-10T23:55 | 8578 | 309 | 283 | 39 | ||
| 2025-11-10T23:55 | 8589 | 309 | -45.6 | |||
| 2025-11-10T23:56 | 8900 | 294 | 284 | 41 | ||
| 2025-11-10T23:56 | 9013 | 289 | -45.7 | |||
| 2025-11-10T23:56 | 9044 | 288 | 281 | 38 | ||
| 2025-11-10T23:57 | 9286 | 278 | -45.7 | |||
| 2025-11-10T23:57 | 9372 | 274 | 285 | 42 | ||
| 2025-11-10T23:58 | 9691 | 261 | 282 | 45 | ||
| 2025-11-10T23:58 | 9740 | 260 | -45.7 | |||
| 2025-11-10T23:59 | 9941 | 252 | -45.6 | |||
| 2025-11-10T23:59 | 10008 | 249 | 283 | 46 | ||
| 2025-11-10T23:59 | 10087 | 246 | -45.0 | |||
| 2025-11-11T00:00 | 10186 | 243 | -44.2 | |||
| 2025-11-11T00:00 | 10257 | 240 | 283 | 44 | ||
| 2025-11-11T00:00 | 10424 | 234 | -45.7 | |||
| 2025-11-11T00:01 | 10488 | 232 | 284 | 49 | ||
| 2025-11-11T00:01 | 10698 | 225 | -44.4 | |||
| 2025-11-11T00:02 | 10747 | 223 | 284 | 42 | ||
| 2025-11-11T00:03 | 10999 | 215 | -45.5 | |||
| 2025-11-11T00:03 | 11040 | 214 | 277 | 42 | ||
| 2025-11-11T00:04 | 11358 | 204 | 282 | 49 | ||
| 2025-11-11T00:05 | 11664 | 194 | 282 | 48 | ||
| 2025-11-11T00:05 | 11736 | 192 | -48.0 | |||
| 2025-11-11T00:05 | 11856 | 189 | -47.0 | |||
| 2025-11-11T00:06 | 11952 | 186 | 285 | 46 | ||
| 2025-11-11T00:06 | 12183 | 180 | -48.1 | |||
| 2025-11-11T00:07 | 12209 | 179 | 284 | 44 | ||
| 2025-11-11T00:07 | 12497 | 171 | -48.5 | |||
| 2025-11-11T00:08 | 12532 | 170 | 286 | 44 | ||
| 2025-11-11T00:08 | 12640 | 168 | -48.9 | |||
| 2025-11-11T00:08 | 12786 | 164 | 281 | 44 | ||
| 2025-11-11T00:09 | 12928 | 161 | -50.1 | |||
| 2025-11-11T00:09 | 13131 | 156 | 283 | 43 | ||
| 2025-11-11T00:10 | 13226 | 153 | -49.9 | |||
| 2025-11-11T00:10 | 13461 | 148 | 283 | 40 | ||
| 2025-11-11T00:11 | 13775 | 141 | 276 | 40 | ||
| 2025-11-11T00:12 | 14012 | 136 | -52.1 | |||
| 2025-11-11T00:12 | 14101 | 134 | 273 | 42 | ||
| 2025-11-11T00:13 | 14423 | 128 | -53.5 | |||
| 2025-11-11T00:13 | 14440 | 127 | 274 | 45 | ||
| 2025-11-11T00:14 | 14726 | 122 | 276 | 42 | ||
| 2025-11-11T00:15 | 15014 | 116 | 276 | 40 | ||
| 2025-11-11T00:16 | 15202 | 113 | -55.6 | |||
| 2025-11-11T00:16 | 15294 | 111 | 270 | 39 | ||
| 2025-11-11T00:16 | 15392 | 110 | -53.2 | |||
| 2025-11-11T00:17 | 15456 | 109 | -52.6 | |||
| 2025-11-11T00:17 | 15524 | 107 | 266 | 37 | ||
| 2025-11-11T00:18 | 15867 | 102 | -52.9 | |||
| 2025-11-11T00:18 | 15873 | 102 | 266 | 39 | ||
| 2025-11-11T00:19 | 16283 | 95 | 273 | 43 | ||
| 2025-11-11T00:19 | 16536 | 92 | -55.0 | |||
| 2025-11-11T00:20 | 16558 | 91 | 281 | 42 | ||
| 2025-11-11T00:20 | 16882 | 87 | 282 | 33 | ||
| 2025-11-11T00:22 | 17230 | 82 | 268 | 33 | ||
| 2025-11-11T00:22 | 17523 | 79 | 257 | 29 | ||
| 2025-11-11T00:23 | 17627 | 77 | -54.5 | |||
| 2025-11-11T00:23 | 17804 | 75 | 257 | 36 | ||
| 2025-11-11T00:24 | 17934 | 74 | -53.9 | |||
| 2025-11-11T00:24 | 18064 | 72 | 261 | 35 | ||
| 2025-11-11T00:25 | 18218 | 71 | -53.4 | |||
| 2025-11-11T00:25 | 18431 | 68 | -52.7 | |||
| 2025-11-11T00:25 | 18460 | 68 | 274 | 26 | ||
| 2025-11-11T00:26 | 18652 | 66 | -51.7 | |||
| 2025-11-11T00:26 | 18773 | 65 | 262 | 26 | ||
| 2025-11-11T00:26 | 18905 | 63 | 269 | 25 | ||
| 2025-11-11T00:27 | 18977 | 63 | -49.1 | |||
| 2025-11-11T00:27 | 19124 | 61 | 278 | 15 | ||
| 2025-11-11T00:28 | 19375 | 59 | 280 | 10 | ||
| 2025-11-11T00:29 | 19747 | 56 | -53.1 | |||
| 2025-11-11T00:29 | 19774 | 56 | 229 | 9 | ||
| 2025-11-11T00:29 | 20077 | 53 | 252 | 9 | ||
| 2025-11-11T00:30 | 20370 | 51 | 253 | 10 | ||
| 2025-11-11T00:31 | 20509 | 49 | -58.8 | |||
| 2025-11-11T00:31 | 20546 | 49 | 245 | 13 | ||
| 2025-11-11T00:31 | 20702 | 48 | 256 | 14 | ||
| 2025-11-11T00:32 | 20929 | 46 | -56.9 | |||
| 2025-11-11T00:32 | 20945 | 46 | 241 | 17 | ||
| 2025-11-11T00:32 | 21043 | 45 | -52.7 | |||
| 2025-11-11T00:32 | 21069 | 45 | 241 | 21 | ||
| 2025-11-11T00:33 | 21303 | 44 | 259 | 19 | ||
| 2025-11-11T00:34 | 21579 | 42 | -48.8 | |||
| 2025-11-11T00:34 | 21655 | 41 | 264 | 6 | ||
| 2025-11-11T00:34 | 21850 | 40 | 244 | 3 | ||
| 2025-11-11T00:34 | 21881 | 40 | -49.0 | |||
| 2025-11-11T00:35 | 22117 | 39 | 195 | 5 | ||
| 2025-11-11T00:36 | 22480 | 36 | 192 | 14 | ||
| 2025-11-11T00:37 | 22710 | 35 | -54.1 | |||
| 2025-11-11T00:37 | 22862 | 34 | 203 | 17 | ||
| 2025-11-11T00:37 | 22954 | 34 | -52.3 | |||
| 2025-11-11T00:38 | 23227 | 32 | 224 | 12 | ||
| 2025-11-11T00:38 | 23453 | 31 | 215 | 11 | ||
| 2025-11-11T00:38 | 23475 | 31 | -52.3 | |||
| 2025-11-11T00:39 | 23748 | 30 | 211 | 16 | ||
| 2025-11-11T00:39 | 23836 | 30 | -52.3 | |||
| 2025-11-11T00:40 | 23923 | 29 | 234 | 13 | ||
| 2025-11-11T00:40 | 24060 | 29 | 229 | 4 | ||
| 2025-11-11T00:40 | 24085 | 28 | -48.2 | |||
| 2025-11-11T00:40 | 24201 | 28 | 155 | 5 | ||
| 2025-11-11T00:41 | 24367 | 27 | 152 | 8 | ||
| 2025-11-11T00:42 | 24715 | 26 | 237 | 5 | ||
| 2025-11-11T00:42 | 24867 | 25 | -49.5 | |||
| 2025-11-11T00:42 | 24946 | 25 | 290 | 9 | ||
| 2025-11-11T00:43 | 25081 | 24 | 306 | 12 | ||
| 2025-11-11T00:43 | 25272 | 24 | 350 | 7 | ||
| 2025-11-11T00:43 | 25410 | 23 | 16 | 9 | ||
| 2025-11-11T00:44 | 25497 | 23 | -48.9 | |||
| 2025-11-11T00:44 | 25766 | 22 | -50.6 | 17 | 2 | |
| 2025-11-11T11:30 | 18 | 1013 | 0.8 | 0.4 | 270 | 4 |
| 2025-11-11T11:30 | 22 | 1013 | 0.6 | -0.1 | 0 | 0 |
| 2025-11-11T11:30 | 46 | 1010 | 242 | 3 | ||
| 2025-11-11T11:30 | 114 | 1001 | 0.3 | -0.7 | ||
| 2025-11-11T11:30 | 139 | 998 | 277 | 9 | ||
| 2025-11-11T11:31 | 272 | 981 | 304 | 11 | ||
| 2025-11-11T11:31 | 358 | 971 | -1.0 | -1.6 | ||
| 2025-11-11T11:31 | 377 | 969 | 301 | 11 | ||
| 2025-11-11T11:32 | 597 | 942 | -2.2 | -2.9 | ||
| 2025-11-11T11:32 | 664 | 934 | 305 | 13 | ||
| 2025-11-11T11:33 | 987 | 897 | 307 | 13 | ||
| 2025-11-11T11:34 | 1336 | 857 | 321 | 15 | ||
| 2025-11-11T11:35 | 1479 | 842 | -8.2 | -9.5 | ||
| 2025-11-11T11:35 | 1679 | 820 | 315 | 16 | ||
| 2025-11-11T11:36 | 2008 | 786 | 315 | 17 | ||
| 2025-11-11T11:37 | 2147 | 772 | -12.7 | -14.1 | ||
| 2025-11-11T11:37 | 2349 | 752 | 316 | 17 | ||
| 2025-11-11T11:38 | 2681 | 719 | 308 | 15 | ||
| 2025-11-11T11:39 | 2966 | 692 | -19.1 | -21.3 | ||
| 2025-11-11T11:39 | 3043 | 685 | 307 | 15 | ||
| 2025-11-11T11:39 | 3075 | 682 | -19.8 | -26.3 | ||
| 2025-11-11T11:40 | 3246 | 667 | -19.6 | -27.8 | ||
| 2025-11-11T11:40 | 3343 | 658 | 306 | 19 | ||
| 2025-11-11T11:40 | 3420 | 651 | -20.4 | -27.3 | ||
| 2025-11-11T11:41 | 3678 | 629 | -21.6 | -30.1 | ||
| 2025-11-11T11:41 | 3730 | 625 | 302 | 21 | ||
| 2025-11-11T11:42 | 4002 | 602 | -24.1 | -33.9 | ||
| 2025-11-11T11:42 | 4117 | 592 | 301 | 22 | ||
| 2025-11-11T11:43 | 4492 | 562 | -27.6 | -38.7 | ||
| 2025-11-11T11:43 | 4512 | 561 | 305 | 22 | ||
| 2025-11-11T11:44 | 4803 | 539 | -29.1 | -43.0 | ||
| 2025-11-11T11:44 | 4863 | 534 | 304 | 24 | ||
| 2025-11-11T11:45 | 5214 | 508 | 303 | 24 | ||
| 2025-11-11T11:45 | 5314 | 501 | -32.1 | -49.6 | ||
| 2025-11-11T11:46 | 5557 | 484 | 300 | 23 | ||
| 2025-11-11T11:47 | 5805 | 467 | -34.8 | -54.3 | ||
| 2025-11-11T11:47 | 5897 | 461 | 298 | 24 | ||
| 2025-11-11T11:47 | 5977 | 456 | -35.3 | -52.8 | ||
| 2025-11-11T11:48 | 6243 | 439 | 296 | 22 | ||
| 2025-11-11T11:49 | 6514 | 422 | -39.1 | -54.5 | ||
| 2025-11-11T11:49 | 6599 | 417 | 297 | 22 | ||
| 2025-11-11T11:49 | 6642 | 414 | -40.0 | -55.3 | ||
| 2025-11-11T11:50 | 6983 | 394 | 297 | 22 | ||
| 2025-11-11T11:50 | 7022 | 392 | -42.6 | |||
| 2025-11-11T11:51 | 7367 | 372 | 298 | 24 | ||
| 2025-11-11T11:52 | 7639 | 357 | -46.1 | |||
| 2025-11-11T11:52 | 7761 | 350 | 297 | 26 | ||
| 2025-11-11T11:53 | 8089 | 334 | -48.1 | |||
| 2025-11-11T11:53 | 8160 | 330 | 294 | 29 | ||
| 2025-11-11T11:53 | 8232 | 326 | -48.4 | |||
| 2025-11-11T11:54 | 8376 | 319 | -48.3 | |||
| 2025-11-11T11:54 | 8487 | 314 | -47.7 | |||
| 2025-11-11T11:54 | 8552 | 311 | 296 | 33 | ||
| 2025-11-11T11:54 | 8559 | 311 | -46.7 | |||
| 2025-11-11T11:55 | 8882 | 296 | -45.2 | |||
| 2025-11-11T11:55 | 8947 | 293 | 293 | 37 | ||
| 2025-11-11T11:56 | 9085 | 287 | 290 | 39 | ||
| 2025-11-11T11:56 | 9431 | 273 | -43.6 | |||
| 2025-11-11T11:56 | 9438 | 272 | 293 | 41 | ||
| 2025-11-11T11:57 | 9768 | 259 | 294 | 45 | ||
| 2025-11-11T11:57 | 9810 | 258 | -43.5 | |||
| 2025-11-11T11:58 | 9970 | 252 | -43.2 | |||
| 2025-11-11T11:58 | 10011 | 250 | 285 | 46 | ||
| 2025-11-11T11:58 | 10099 | 247 | -42.9 | |||
| 2025-11-11T11:59 | 10297 | 240 | 294 | 48 | ||
| 2025-11-11T11:59 | 10416 | 235 | -42.9 | |||
| 2025-11-11T11:59 | 10488 | 233 | 294 | 49 | ||
| 2025-11-11T11:59 | 10575 | 230 | -43.6 | |||
| 2025-11-11T12:00 | 10646 | 228 | 292 | 52 | ||
| 2025-11-11T12:00 | 10807 | 222 | 289 | 48 | ||
| 2025-11-11T12:00 | 10908 | 219 | -44.2 | |||
| 2025-11-11T12:01 | 11147 | 211 | -45.4 | |||
| 2025-11-11T12:01 | 11153 | 211 | 291 | 51 | ||
| 2025-11-11T12:02 | 11421 | 203 | -43.9 | |||
| 2025-11-11T12:02 | 11531 | 199 | 293 | 47 | ||
| 2025-11-11T12:02 | 11610 | 197 | -43.5 | |||
| 2025-11-11T12:03 | 11876 | 189 | -45.2 | |||
| 2025-11-11T12:03 | 11938 | 188 | 290 | 49 | ||
| 2025-11-11T12:04 | 12215 | 180 | 289 | 45 | ||
| 2025-11-11T12:04 | 12450 | 174 | 286 | 43 | ||
| 2025-11-11T12:05 | 12806 | 165 | 286 | 37 | ||
| 2025-11-11T12:05 | 12871 | 163 | -47.6 | |||
| 2025-11-11T12:06 | 13110 | 157 | 283 | 40 | ||
| 2025-11-11T12:06 | 13179 | 156 | -48.9 | |||
| 2025-11-11T12:07 | 13409 | 150 | 278 | 46 | ||
| 2025-11-11T12:08 | 13628 | 145 | -50.3 | |||
| 2025-11-11T12:08 | 13693 | 144 | 280 | 48 | ||
| 2025-11-11T12:09 | 14033 | 136 | 280 | 48 | ||
| 2025-11-11T12:09 | 14109 | 135 | -52.0 | |||
| 2025-11-11T12:10 | 14334 | 130 | -51.8 | |||
| 2025-11-11T12:10 | 14372 | 130 | 280 | 44 | ||
| 2025-11-11T12:11 | 14614 | 125 | 281 | 43 | ||
| 2025-11-11T12:11 | 14650 | 124 | -51.6 | |||
| 2025-11-11T12:11 | 14771 | 122 | 281 | 38 | ||
| 2025-11-11T12:12 | 14981 | 118 | -51.8 | |||
| 2025-11-11T12:12 | 14987 | 118 | 275 | 35 | ||
| 2025-11-11T12:13 | 15331 | 112 | 278 | 32 | ||
| 2025-11-11T12:14 | 15634 | 107 | -54.3 | |||
| 2025-11-11T12:14 | 15640 | 106 | 278 | 30 | ||
| 2025-11-11T12:14 | 15854 | 103 | -55.0 | |||
| 2025-11-11T12:15 | 16023 | 100 | 280 | 29 | ||
| 2025-11-11T12:16 | 16287 | 96 | -57.2 | |||
| 2025-11-11T12:16 | 16407 | 94 | 267 | 31 | ||
| 2025-11-11T12:17 | 16623 | 91 | -57.8 | |||
| 2025-11-11T12:17 | 16708 | 90 | -55.3 | 270 | 40 | |
| 2025-11-11T12:18 | 16933 | 87 | -53.8 | |||
| 2025-11-11T12:18 | 16955 | 87 | 280 | 39 | ||
| 2025-11-11T12:19 | 17231 | 83 | -52.7 | |||
| 2025-11-11T12:19 | 17330 | 82 | 284 | 34 | ||
| 2025-11-11T12:20 | 17671 | 77 | -54.5 | 293 | 36 | |
| 2025-11-11T12:20 | 17841 | 75 | -53.2 | |||
| 2025-11-11T12:20 | 17950 | 74 | 291 | 28 | ||
| 2025-11-11T12:21 | 18226 | 71 | 287 | 21 | ||
| 2025-11-11T12:22 | 18376 | 69 | -56.2 | 275 | 23 | |
| 2025-11-11T23:30 | 18 | 1019 | 4.8 | -4.0 | 270 | 4 |
| 2025-11-11T23:30 | 23 | 1018 | 4.9 | -4.9 | 0 | 0 |
| 2025-11-11T23:30 | 53 | 1014 | 279 | 3 | ||
| 2025-11-11T23:30 | 163 | 1001 | 284 | 9 | ||
| 2025-11-11T23:31 | 486 | 961 | 279 | 9 | ||
| 2025-11-11T23:32 | 825 | 922 | 299 | 9 | ||
| 2025-11-11T23:33 | 920 | 911 | -3.3 | -8.6 | ||
| 2025-11-11T23:33 | 1153 | 884 | 312 | 10 | ||
| 2025-11-11T23:34 | 1369 | 860 | -7.1 | -8.5 | ||
| 2025-11-11T23:34 | 1481 | 848 | 325 | 9 | ||
| 2025-11-11T23:35 | 1731 | 821 | -9.9 | -10.4 | ||
| 2025-11-11T23:35 | 1813 | 812 | -10.4 | -12.3 | ||
| 2025-11-11T23:35 | 1819 | 812 | 327 | 11 | ||
| 2025-11-11T23:36 | 1852 | 808 | -10.7 | -14.8 | ||
| 2025-11-11T23:36 | 1948 | 798 | 309 | 11 | ||
| 2025-11-11T23:36 | 1975 | 795 | -11.5 | -19.2 | ||
| 2025-11-11T23:36 | 2017 | 791 | -10.1 | -23.0 | ||
| 2025-11-11T23:36 | 2129 | 780 | -9.1 | -26.5 | ||
| 2025-11-11T23:37 | 2171 | 775 | 318 | 18 | ||
| 2025-11-11T23:37 | 2256 | 767 | -7.9 | -36.5 | ||
| 2025-11-11T23:38 | 2498 | 743 | 302 | 19 | ||
| 2025-11-11T23:38 | 2561 | 737 | -9.5 | -36.6 | ||
| 2025-11-11T23:39 | 2853 | 710 | 309 | 20 | ||
| 2025-11-11T23:39 | 3051 | 692 | -12.7 | -40.2 | ||
| 2025-11-11T23:40 | 3197 | 678 | 307 | 24 | ||
| 2025-11-11T23:40 | 3236 | 675 | -13.0 | -40.5 | ||
| 2025-11-11T23:41 | 3508 | 651 | 305 | 24 | ||
| 2025-11-11T23:41 | 3598 | 644 | -14.3 | -39.3 | ||
| 2025-11-11T23:41 | 3694 | 635 | -14.1 | -34.5 | ||
| 2025-11-11T23:42 | 3788 | 628 | 304 | 24 | ||
| 2025-11-11T23:42 | 3953 | 614 | 302 | 27 | ||
| 2025-11-11T23:43 | 4070 | 605 | -15.6 | -24.4 | ||
| 2025-11-11T23:43 | 4100 | 602 | 305 | 28 | ||
| 2025-11-11T23:43 | 4144 | 599 | -15.1 | -24.9 | ||
| 2025-11-11T23:43 | 4214 | 594 | -14.8 | -27.5 | ||
| 2025-11-11T23:43 | 4228 | 592 | 307 | 31 | ||
| 2025-11-11T23:44 | 4476 | 573 | -16.3 | -31.0 | ||
| 2025-11-11T23:44 | 4540 | 568 | 305 | 30 | ||
| 2025-11-11T23:45 | 4859 | 545 | 303 | 30 | ||
| 2025-11-11T23:45 | 4870 | 544 | -19.7 | -30.1 | ||
| 2025-11-11T23:46 | 5143 | 524 | -22.0 | -32.2 | ||
| 2025-11-11T23:46 | 5181 | 521 | 302 | 29 | ||
| 2025-11-11T23:47 | 5416 | 505 | -23.3 | -38.7 | ||
| 2025-11-11T23:47 | 5521 | 498 | 297 | 32 | ||
| 2025-11-11T23:47 | 5555 | 495 | -23.4 | -46.6 | ||
| 2025-11-11T23:48 | 5868 | 475 | 302 | 33 | ||
| 2025-11-11T23:49 | 6127 | 458 | -27.5 | -49.0 | ||
| 2025-11-11T23:49 | 6208 | 453 | 303 | 33 | ||
| 2025-11-11T23:50 | 6542 | 432 | -30.8 | -53.4 | 302 | 34 |
| 2025-11-11T23:51 | 6848 | 414 | 303 | 34 | ||
| 2025-11-11T23:52 | 7157 | 396 | 300 | 34 | ||
| 2025-11-11T23:53 | 7492 | 377 | 297 | 34 | ||
| 2025-11-11T23:53 | 7604 | 371 | -40.0 | -55.7 | ||
| 2025-11-11T23:54 | 7729 | 364 | -40.8 | |||
| 2025-11-11T23:54 | 7786 | 361 | 297 | 33 | ||
| 2025-11-11T23:55 | 8135 | 343 | 296 | 34 | ||
| 2025-11-11T23:56 | 8460 | 327 | -46.2 | |||
| 2025-11-11T23:56 | 8472 | 326 | 296 | 35 | ||
| 2025-11-11T23:57 | 8834 | 309 | 294 | 34 | ||
| 2025-11-11T23:58 | 9171 | 293 | 296 | 36 | ||
| 2025-11-11T23:59 | 9429 | 282 | -53.0 | |||
| 2025-11-11T23:59 | 9499 | 279 | 294 | 35 | ||
| 2025-11-12T00:00 | 9817 | 265 | 291 | 37 | ||
| 2025-11-12T00:00 | 9948 | 260 | -55.2 | |||
| 2025-11-12T00:01 | 10135 | 252 | 292 | 40 | ||
| 2025-11-12T00:02 | 10418 | 241 | -56.3 | |||
| 2025-11-12T00:02 | 10468 | 239 | 287 | 42 | ||
| 2025-11-12T00:02 | 10594 | 235 | -55.1 | |||
| 2025-11-12T00:02 | 10649 | 233 | 287 | 44 | ||
| 2025-11-12T00:03 | 10802 | 227 | -53.4 | |||
| 2025-11-12T00:03 | 10861 | 225 | 282 | 45 | ||
| 2025-11-12T00:04 | 11010 | 220 | 285 | 51 | ||
| 2025-11-12T00:04 | 11199 | 214 | -51.8 | |||
| 2025-11-12T00:04 | 11210 | 213 | 284 | 52 | ||
| 2025-11-12T00:05 | 11365 | 208 | -51.0 | |||
| 2025-11-12T00:05 | 11548 | 203 | 287 | 57 | ||
| 2025-11-12T00:05 | 11597 | 201 | -50.3 | |||
| 2025-11-12T00:06 | 11839 | 194 | 286 | 55 | ||
| 2025-11-12T00:07 | 11999 | 189 | -51.6 | |||
| 2025-11-12T00:07 | 12141 | 185 | -50.9 | 288 | 55 | |
| 2025-11-12T00:08 | 12457 | 176 | 288 | 55 | ||
| 2025-11-12T00:09 | 12728 | 169 | -51.9 | |||
| 2025-11-12T00:09 | 12787 | 167 | 287 | 55 | ||
| 2025-11-12T00:10 | 13092 | 160 | 287 | 58 | ||
| 2025-11-12T00:10 | 13233 | 156 | -53.5 | |||
| 2025-11-12T00:11 | 13398 | 152 | 289 | 55 | ||
| 2025-11-12T00:12 | 13722 | 145 | 287 | 51 | ||
| 2025-11-12T00:12 | 13789 | 143 | -54.6 | |||
| 2025-11-12T00:13 | 14068 | 137 | 285 | 49 | ||
| 2025-11-12T00:13 | 14135 | 136 | -55.5 | |||
| 2025-11-12T00:14 | 14432 | 130 | 289 | 49 | ||
| 2025-11-12T00:15 | 14724 | 124 | -57.7 | |||
| 2025-11-12T00:15 | 14769 | 123 | 294 | 47 | ||
| 2025-11-12T00:16 | 15054 | 117 | -57.5 | |||
| 2025-11-12T00:16 | 15097 | 117 | 296 | 43 | ||
| 2025-11-12T00:17 | 15390 | 111 | 293 | 40 | ||
| 2025-11-12T00:17 | 15573 | 108 | -59.3 | |||
| 2025-11-12T00:18 | 15714 | 106 | 291 | 36 | ||
| 2025-11-12T00:19 | 16035 | 100 | 281 | 38 | ||
| 2025-11-12T00:19 | 16206 | 98 | -59.1 | |||
| 2025-11-12T00:20 | 16265 | 97 | 276 | 35 | ||
| 2025-11-12T00:21 | 16568 | 92 | 277 | 36 | ||
| 2025-11-12T00:21 | 16732 | 90 | 278 | 38 | ||
| 2025-11-12T00:22 | 16861 | 88 | -56.2 | |||
| 2025-11-12T00:22 | 16918 | 87 | 273 | 35 | ||
| 2025-11-12T00:23 | 17142 | 84 | 269 | 37 | ||
| 2025-11-12T00:23 | 17309 | 82 | -55.6 | |||
| 2025-11-12T00:23 | 17326 | 82 | 277 | 34 | ||
| 2025-11-12T00:24 | 17587 | 79 | 279 | 37 | ||
| 2025-11-12T00:24 | 17767 | 76 | -57.5 | |||
| 2025-11-12T00:25 | 17899 | 75 | -56.8 | |||
| 2025-11-12T00:25 | 17978 | 74 | 279 | 29 | ||
| 2025-11-12T00:25 | 18100 | 72 | -55.0 | |||
| 2025-11-12T00:26 | 18335 | 70 | 288 | 26 | ||
| 2025-11-12T00:26 | 18547 | 68 | -53.7 | |||
| 2025-11-12T00:27 | 18626 | 67 | 294 | 15 | ||
| 2025-11-12T00:28 | 18979 | 63 | 274 | 10 | ||
| 2025-11-12T00:29 | 19358 | 59 | 259 | 15 | ||
| 2025-11-12T00:29 | 19510 | 58 | -59.2 | |||
| 2025-11-12T00:30 | 19754 | 56 | 267 | 24 | ||
| 2025-11-12T00:30 | 19844 | 55 | -58.2 | |||
| 2025-11-12T00:30 | 20027 | 53 | -57.7 | 274 | 22 | |
| 2025-11-12T00:30 | 20115 | 53 | -56.5 | 270 | 20 | |
| 2025-11-12T11:30 | 18 | 1016 | 4.3 | -1.5 | 170 | 4 |
| 2025-11-12T11:30 | 23 | 1015 | 4.6 | -2.1 | 170 | 1 |
| 2025-11-12T11:30 | 40 | 1013 | 5.9 | -1.7 | ||
| 2025-11-12T11:30 | 54 | 1011 | 4.9 | -2.4 | ||
| 2025-11-12T11:30 | 59 | 1011 | 177 | 3 | ||
| 2025-11-12T11:30 | 107 | 1005 | 5.4 | -2.4 | ||
| 2025-11-12T11:31 | 227 | 990 | 5.2 | -3.1 | ||
| 2025-11-12T11:31 | 269 | 985 | 204 | 6 | ||
| 2025-11-12T11:31 | 342 | 976 | 4.4 | -3.1 | ||
| 2025-11-12T11:31 | 435 | 965 | 3.7 | -3.6 | ||
| 2025-11-12T11:31 | 460 | 962 | 225 | 6 | ||
| 2025-11-12T11:32 | 710 | 933 | 228 | 3 | ||
| 2025-11-12T11:32 | 883 | 913 | 265 | 4 | ||
| 2025-11-12T11:33 | 1064 | 892 | 215 | 5 | ||
| 2025-11-12T11:33 | 1174 | 880 | -2.9 | -6.2 | ||
| 2025-11-12T11:33 | 1225 | 875 | 259 | 10 | ||
| 2025-11-12T11:34 | 1342 | 862 | -3.0 | -9.9 | ||
| 2025-11-12T11:34 | 1394 | 856 | -1.6 | -15.1 | ||
| 2025-11-12T11:34 | 1398 | 856 | 276 | 11 | ||
| 2025-11-12T11:35 | 1510 | 844 | -2.1 | -18.6 | ||
| 2025-11-12T11:35 | 1586 | 836 | 279 | 14 | ||
| 2025-11-12T11:35 | 1669 | 827 | -2.2 | -24.0 | ||
| 2025-11-12T11:36 | 1930 | 800 | -4.2 | -25.7 | ||
| 2025-11-12T11:36 | 1964 | 797 | 281 | 12 | ||
| 2025-11-12T11:36 | 2044 | 789 | -4.5 | -27.3 | ||
| 2025-11-12T11:37 | 2341 | 759 | -6.0 | -26.5 | ||
| 2025-11-12T11:37 | 2408 | 753 | 275 | 12 | ||
| 2025-11-12T11:38 | 2835 | 712 | 277 | 15 | ||
| 2025-11-12T11:38 | 2889 | 708 | -9.3 | -29.3 | ||
| 2025-11-12T11:38 | 3041 | 694 | -9.2 | -30.5 | ||
| 2025-11-12T11:39 | 3169 | 682 | -9.1 | -26.0 | ||
| 2025-11-12T11:39 | 3226 | 677 | 273 | 20 | ||
| 2025-11-12T11:39 | 3264 | 674 | -9.6 | -20.4 | ||
| 2025-11-12T11:39 | 3356 | 666 | -10.1 | -19.5 | ||
| 2025-11-12T11:40 | 3514 | 652 | -10.6 | -22.2 | ||
| 2025-11-12T11:40 | 3591 | 646 | 273 | 18 | ||
| 2025-11-12T11:40 | 3738 | 634 | -11.8 | -26.7 | ||
| 2025-11-12T11:41 | 3882 | 622 | 274 | 18 | ||
| 2025-11-12T11:42 | 4241 | 593 | 260 | 20 | ||
| 2025-11-12T11:42 | 4461 | 576 | -17.3 | -28.8 | ||
| 2025-11-12T11:43 | 4604 | 565 | 268 | 21 | ||
| 2025-11-12T11:43 | 4701 | 558 | -18.6 | -34.6 | ||
| 2025-11-12T11:44 | 4975 | 538 | 270 | 23 | ||
| 2025-11-12T11:45 | 5352 | 511 | 273 | 21 | ||
| 2025-11-12T11:45 | 5378 | 509 | -22.9 | -42.5 | ||
| 2025-11-12T11:45 | 5455 | 504 | -23.4 | -43.5 | ||
| 2025-11-12T11:45 | 5520 | 499 | -24.0 | -37.7 | ||
| 2025-11-12T11:45 | 5646 | 491 | 269 | 24 | ||
| 2025-11-12T11:46 | 6003 | 467 | 270 | 24 | ||
| 2025-11-12T11:47 | 6288 | 449 | -30.8 | -41.0 | ||
| 2025-11-12T11:47 | 6400 | 442 | 273 | 25 | ||
| 2025-11-12T11:48 | 6671 | 425 | 275 | 25 | ||
| 2025-11-12T11:48 | 6764 | 419 | -35.1 | -43.5 | ||
| 2025-11-12T11:49 | 7075 | 401 | 269 | 26 | ||
| 2025-11-12T11:49 | 7088 | 400 | -38.1 | -44.3 | ||
| 2025-11-12T11:49 | 7174 | 395 | -38.7 | -46.0 | ||
| 2025-11-12T11:49 | 7263 | 390 | 269 | 28 | ||
| 2025-11-12T11:50 | 7295 | 388 | -39.3 | -47.6 | ||
| 2025-11-12T11:50 | 7383 | 383 | -39.1 | -53.2 | ||
| 2025-11-12T11:50 | 7409 | 382 | 273 | 31 | ||
| 2025-11-12T11:50 | 7537 | 375 | -39.4 | -52.3 | ||
| 2025-11-12T11:51 | 7737 | 364 | -40.0 | -54.4 | ||
| 2025-11-12T11:51 | 7743 | 364 | -40.0 | -54.4 | ||
| 2025-11-12T11:51 | 7781 | 362 | 273 | 30 | ||
| 2025-11-12T11:52 | 8173 | 341 | 273 | 36 | ||
| 2025-11-12T11:52 | 8215 | 339 | -43.5 | |||
| 2025-11-12T11:52 | 8305 | 335 | -43.6 | |||
| 2025-11-12T11:53 | 8542 | 323 | -45.4 | |||
| 2025-11-12T11:53 | 8564 | 322 | 272 | 38 | ||
| 2025-11-12T11:54 | 8841 | 309 | -46.6 | |||
| 2025-11-12T11:54 | 8921 | 305 | 269 | 43 | ||
| 2025-11-12T11:54 | 8945 | 304 | -46.7 | |||
| 2025-11-12T11:55 | 9193 | 293 | -48.3 | |||
| 2025-11-12T11:55 | 9276 | 289 | 274 | 45 | ||
| 2025-11-12T11:56 | 9563 | 277 | 273 | 46 | ||
| 2025-11-12T11:56 | 9682 | 272 | -49.9 | |||
| 2025-11-12T11:57 | 9945 | 261 | 275 | 50 | ||
| 2025-11-12T11:57 | 10215 | 250 | -51.6 | |||
| 2025-11-12T11:58 | 10266 | 248 | 274 | 51 | ||
| 2025-11-12T11:59 | 10541 | 238 | 277 | 53 | ||
| 2025-11-12T11:59 | 10590 | 236 | -51.8 | |||
| 2025-11-12T11:59 | 10782 | 229 | 278 | 55 | ||
| 2025-11-12T12:00 | 10931 | 224 | 278 | 58 | ||
| 2025-11-12T12:01 | 11223 | 214 | 278 | 62 | ||
| 2025-11-12T12:01 | 11270 | 213 | -51.4 | |||
| 2025-11-12T12:01 | 11428 | 208 | 279 | 60 | ||
| 2025-11-12T12:02 | 11628 | 201 | -51.2 | |||
| 2025-11-12T12:02 | 11750 | 198 | 275 | 65 | ||
| 2025-11-12T12:03 | 12058 | 188 | 276 | 65 | ||
| 2025-11-12T12:04 | 12147 | 186 | -52.8 | |||
| 2025-11-12T12:04 | 12226 | 184 | 277 | 66 | ||
| 2025-11-12T12:04 | 12374 | 179 | 278 | 71 | ||
| 2025-11-12T12:05 | 12678 | 171 | 279 | 67 | ||
| 2025-11-12T12:05 | 12709 | 170 | -54.0 | |||
| 2025-11-12T12:06 | 12999 | 163 | 278 | 65 | ||
| 2025-11-12T12:06 | 13038 | 162 | -54.7 | |||
| 2025-11-12T12:07 | 13227 | 157 | 280 | 63 | ||
| 2025-11-12T12:08 | 13440 | 152 | 283 | 61 | ||
| 2025-11-12T12:08 | 13464 | 151 | -56.4 | |||
| 2025-11-12T12:08 | 13693 | 146 | -56.0 | |||
| 2025-11-12T12:09 | 13774 | 144 | 285 | 58 | ||
| 2025-11-12T12:10 | 14094 | 137 | 285 | 49 | ||
| 2025-11-12T12:11 | 14385 | 131 | -57.3 | |||
| 2025-11-12T12:11 | 14400 | 131 | 284 | 47 | ||
| 2025-11-12T12:11 | 14664 | 125 | 282 | 45 | ||
| 2025-11-12T12:12 | 14831 | 122 | -57.6 | |||
| 2025-11-12T12:12 | 14962 | 119 | 281 | 44 | ||
| 2025-11-12T12:13 | 15254 | 114 | 285 | 39 | ||
| 2025-11-12T12:14 | 15451 | 111 | -57.8 | |||
| 2025-11-12T12:14 | 15559 | 109 | 278 | 39 | ||
| 2025-11-12T12:15 | 15730 | 106 | 275 | 37 | ||
| 2025-11-12T12:16 | 15896 | 103 | -59.1 | |||
| 2025-11-12T12:16 | 15934 | 102 | 274 | 39 | ||
| 2025-11-12T12:17 | 16228 | 98 | 277 | 43 | ||
| 2025-11-12T12:17 | 16422 | 95 | -60.3 | |||
| 2025-11-12T12:18 | 16526 | 93 | 274 | 41 | ||
| 2025-11-12T12:18 | 16610 | 92 | -59.1 | |||
| 2025-11-12T12:19 | 16818 | 89 | -59.3 | |||
| 2025-11-12T12:19 | 16825 | 89 | 276 | 41 | ||
| 2025-11-12T12:20 | 17149 | 84 | 279 | 40 | ||
| 2025-11-12T12:20 | 17231 | 83 | -58.9 | |||
| 2025-11-12T12:21 | 17519 | 79 | 286 | 40 | ||
| 2025-11-12T12:21 | 17735 | 77 | 288 | 40 | ||
| 2025-11-12T12:21 | 17744 | 77 | -58.8 | |||
| 2025-11-12T12:22 | 18082 | 73 | -58.2 | 282 | 26 | |
| 2025-11-12T12:23 | 18211 | 71 | -56.0 | |||
| 2025-11-12T12:23 | 18376 | 69 | 279 | 30 | ||
| 2025-11-12T12:24 | 18687 | 66 | 289 | 30 | ||
| 2025-11-12T12:25 | 18846 | 64 | -54.0 | |||
| 2025-11-12T12:25 | 18973 | 63 | 293 | 25 | ||
| 2025-11-12T12:25 | 19046 | 62 | -53.8 | |||
| 2025-11-12T12:26 | 19415 | 59 | 280 | 28 | ||
| 2025-11-12T12:27 | 19872 | 55 | 301 | 21 | ||
| 2025-11-12T12:27 | 20023 | 54 | -58.6 | |||
| 2025-11-12T12:28 | 20302 | 51 | 293 | 14 | ||
| 2025-11-12T12:28 | 20445 | 50 | -59.4 | |||
| 2025-11-12T12:29 | 20717 | 48 | 260 | 9 | ||
| 2025-11-12T12:29 | 20896 | 47 | -61.1 | 254 | 13 | |
| 2025-11-12T23:30 | 18 | 1006 | 8.6 | 3.4 | 140 | 3 |
| 2025-11-12T23:30 | 24 | 1006 | 8.6 | 3.0 | 158 | 2 |
| 2025-11-12T23:30 | 41 | 1004 | 186 | 5 | ||
| 2025-11-12T23:30 | 94 | 997 | 235 | 2 | ||
| 2025-11-12T23:31 | 222 | 982 | 132 | 5 | ||
| 2025-11-12T23:31 | 233 | 980 | 7.2 | 2.5 | ||
| 2025-11-12T23:31 | 324 | 970 | 6.6 | 2.3 | ||
| 2025-11-12T23:31 | 366 | 965 | 178 | 11 | ||
| 2025-11-12T23:31 | 490 | 950 | 6.3 | 2.7 | 209 | 11 |
| 2025-11-12T23:32 | 658 | 931 | 5.0 | 2.4 | ||
| 2025-11-12T23:32 | 784 | 917 | 221 | 17 | ||
| 2025-11-12T23:33 | 1039 | 888 | 227 | 20 | ||
| 2025-11-12T23:33 | 1229 | 868 | 0.8 | 0.7 | ||
| 2025-11-12T23:34 | 1424 | 847 | 238 | 25 | ||
| 2025-11-12T23:34 | 1443 | 845 | 0.5 | -2.1 | ||
| 2025-11-12T23:34 | 1524 | 836 | 0.2 | -2.8 | ||
| 2025-11-12T23:35 | 1752 | 813 | 240 | 23 | ||
| 2025-11-12T23:35 | 1767 | 811 | -1.5 | -4.3 | ||
| 2025-11-12T23:35 | 1910 | 797 | -1.6 | -7.7 | ||
| 2025-11-12T23:36 | 1979 | 790 | -1.9 | -9.5 | ||
| 2025-11-12T23:36 | 2054 | 783 | 248 | 18 | ||
| 2025-11-12T23:36 | 2160 | 772 | -1.9 | -13.7 | ||
| 2025-11-12T23:37 | 2372 | 752 | 260 | 19 | ||
| 2025-11-12T23:38 | 2734 | 718 | 259 | 19 | ||
| 2025-11-12T23:39 | 3110 | 684 | 259 | 21 | ||
| 2025-11-12T23:40 | 3350 | 663 | -12.9 | -17.1 | ||
| 2025-11-12T23:40 | 3485 | 651 | 261 | 24 | ||
| 2025-11-12T23:41 | 3707 | 632 | 260 | 25 | ||
| 2025-11-12T23:41 | 3892 | 617 | -17.0 | -20.1 | ||
| 2025-11-12T23:41 | 3944 | 613 | 261 | 29 | ||
| 2025-11-12T23:42 | 4091 | 601 | -18.6 | -21.2 | ||
| 2025-11-12T23:42 | 4359 | 579 | 262 | 28 | ||
| 2025-11-12T23:42 | 4486 | 569 | -22.1 | -23.8 | ||
| 2025-11-12T23:43 | 4631 | 558 | -23.1 | -24.9 | ||
| 2025-11-12T23:43 | 4645 | 557 | 270 | 30 | ||
| 2025-11-12T23:44 | 4941 | 535 | -25.7 | -27.7 | ||
| 2025-11-12T23:44 | 5046 | 527 | 269 | 30 | ||
| 2025-11-12T23:44 | 5084 | 525 | -26.8 | -30.0 | ||
| 2025-11-12T23:45 | 5407 | 501 | -29.5 | -31.2 | ||
| 2025-11-12T23:45 | 5426 | 500 | 263 | 31 | ||
| 2025-11-12T23:45 | 5562 | 491 | -30.7 | -34.8 | ||
| 2025-11-12T23:45 | 5658 | 484 | -31.7 | -35.9 | ||
| 2025-11-12T23:46 | 5772 | 476 | -32.0 | -43.2 | ||
| 2025-11-12T23:46 | 5789 | 475 | 267 | 32 | ||
| 2025-11-12T23:46 | 5834 | 472 | -31.0 | -58.4 | ||
| 2025-11-12T23:47 | 6057 | 457 | 273 | 31 | ||
| 2025-11-12T23:47 | 6074 | 456 | -32.2 | -63.2 | ||
| 2025-11-12T23:47 | 6274 | 444 | -33.1 | -66.9 | ||
| 2025-11-12T23:48 | 6421 | 434 | 275 | 32 | ||
| 2025-11-12T23:49 | 6753 | 414 | -36.1 | -62.3 | ||
| 2025-11-12T23:49 | 6791 | 412 | 265 | 31 | ||
| 2025-11-12T23:49 | 7113 | 393 | 266 | 32 | ||
| 2025-11-12T23:50 | 7242 | 386 | -39.2 | -66.3 | ||
| 2025-11-12T23:50 | 7394 | 377 | -40.0 | -66.9 | ||
| 2025-11-12T23:50 | 7528 | 370 | 267 | 39 | ||
| 2025-11-12T23:51 | 7665 | 363 | -41.5 | |||
| 2025-11-12T23:51 | 7963 | 347 | 269 | 38 | ||
| 2025-11-12T23:52 | 8025 | 344 | -43.4 | |||
| 2025-11-12T23:52 | 8101 | 340 | -43.3 | |||
| 2025-11-12T23:52 | 8245 | 333 | 266 | 39 | ||
| 2025-11-12T23:52 | 8296 | 330 | -44.1 | |||
| 2025-11-12T23:53 | 8544 | 318 | 269 | 45 | ||
| 2025-11-12T23:53 | 8694 | 311 | -44.4 | |||
| 2025-11-12T23:54 | 8774 | 307 | 267 | 46 | ||
| 2025-11-12T23:54 | 9002 | 297 | 271 | 49 | ||
| 2025-11-12T23:54 | 9044 | 295 | -46.2 | |||
| 2025-11-12T23:55 | 9133 | 291 | 270 | 52 | ||
| 2025-11-12T23:55 | 9271 | 285 | -45.4 | |||
| 2025-11-12T23:55 | 9355 | 282 | -45.0 | 268 | 52 | |
| 2025-11-12T23:56 | 9575 | 273 | -44.9 | |||
| 2025-11-12T23:56 | 9761 | 265 | -45.4 | |||
| 2025-11-12T23:56 | 9768 | 265 | 269 | 53 | ||
| 2025-11-12T23:57 | 10010 | 255 | 268 | 58 | ||
| 2025-11-12T23:57 | 10042 | 254 | -46.1 | |||
| 2025-11-12T23:57 | 10239 | 247 | -45.5 | |||
| 2025-11-12T23:58 | 10488 | 238 | 272 | 59 | ||
| 2025-11-12T23:58 | 10669 | 231 | -47.8 | |||
| 2025-11-12T23:59 | 10860 | 225 | -46.2 | |||
| 2025-11-12T23:59 | 10892 | 224 | 273 | 59 | ||
| 2025-11-12T23:59 | 11111 | 216 | -47.3 | |||
| 2025-11-13T00:00 | 11288 | 211 | 268 | 61 | ||
| 2025-11-13T00:00 | 11446 | 206 | -48.7 | |||
| 2025-11-13T00:01 | 11651 | 199 | 275 | 60 | ||
| 2025-11-13T00:01 | 11690 | 198 | -49.3 | |||
| 2025-11-13T00:02 | 11962 | 190 | 274 | 57 | ||
| 2025-11-13T00:02 | 12047 | 188 | -50.0 | |||
| 2025-11-13T00:02 | 12272 | 181 | 275 | 56 | ||
| 2025-11-13T00:03 | 12335 | 180 | -51.0 | |||
| 2025-11-13T00:03 | 12638 | 171 | 275 | 53 | ||
| 2025-11-13T00:04 | 12955 | 163 | 275 | 53 | ||
| 2025-11-13T00:05 | 13049 | 161 | -54.3 | |||
| 2025-11-13T00:05 | 13131 | 159 | 275 | 52 | ||
| 2025-11-13T00:06 | 13352 | 153 | -54.8 | |||
| 2025-11-13T00:06 | 13422 | 152 | 274 | 52 | ||
| 2025-11-13T00:06 | 13534 | 149 | -55.7 | |||
| 2025-11-13T00:06 | 13599 | 147 | 276 | 52 | ||
| 2025-11-13T00:07 | 13832 | 142 | 272 | 48 | ||
| 2025-11-13T00:07 | 13866 | 141 | -56.0 | |||
| 2025-11-13T00:08 | 14160 | 135 | 276 | 52 | ||
| 2025-11-13T00:08 | 14297 | 132 | -57.7 | |||
| 2025-11-13T00:09 | 14473 | 128 | 272 | 49 | ||
| 2025-11-13T00:09 | 14542 | 127 | -58.3 | |||
| 2025-11-13T00:10 | 14752 | 123 | 276 | 50 | ||
| 2025-11-13T00:10 | 14854 | 121 | -58.3 | |||
| 2025-11-13T00:11 | 14977 | 119 | 277 | 50 | ||
| 2025-11-13T00:11 | 15047 | 117 | -56.2 | |||
| 2025-11-13T00:12 | 15108 | 116 | 275 | 45 | ||
| 2025-11-13T00:12 | 15202 | 114 | -55.3 | |||
| 2025-11-13T00:12 | 15314 | 112 | -55.2 | |||
| 2025-11-13T00:12 | 15325 | 112 | 281 | 40 | ||
| 2025-11-13T00:13 | 15504 | 109 | -54.6 | |||
| 2025-11-13T00:13 | 15584 | 108 | 269 | 39 | ||
| 2025-11-13T00:14 | 15658 | 107 | -55.1 | |||
| 2025-11-13T00:14 | 15862 | 103 | 277 | 36 | ||
| 2025-11-13T00:15 | 16021 | 101 | -53.9 | |||
| 2025-11-13T00:15 | 16247 | 97 | 270 | 31 | ||
| 2025-11-13T00:16 | 16448 | 94 | 267 | 32 | ||
| 2025-11-13T00:16 | 16527 | 93 | -55.4 | |||
| 2025-11-13T00:17 | 16891 | 88 | 271 | 37 | ||
| 2025-11-13T00:18 | 17176 | 84 | -59.3 | |||
| 2025-11-13T00:18 | 17337 | 82 | 279 | 36 | ||
| 2025-11-13T00:18 | 17555 | 79 | -61.0 | |||
| 2025-11-13T00:18 | 17577 | 79 | 286 | 37 | ||
| 2025-11-13T00:19 | 18021 | 73 | 294 | 39 | ||
| 2025-11-13T00:20 | 18106 | 72 | -62.4 | |||
| 2025-11-13T00:20 | 18307 | 70 | -61.0 | |||
| 2025-11-13T00:20 | 18329 | 70 | 291 | 36 | ||
| 2025-11-13T00:20 | 18403 | 69 | -57.7 | |||
| 2025-11-13T00:21 | 18601 | 67 | 271 | 29 | ||
| 2025-11-13T00:21 | 18858 | 64 | -60.2 | |||
| 2025-11-13T00:22 | 18959 | 63 | 262 | 32 | ||
| 2025-11-13T00:22 | 18996 | 63 | -60.8 | |||
| 2025-11-13T00:22 | 19110 | 62 | -51.6 | |||
| 2025-11-13T00:23 | 19237 | 60 | 265 | 36 | ||
| 2025-11-13T00:23 | 19270 | 60 | -51.8 | |||
| 2025-11-13T00:24 | 19603 | 57 | 278 | 34 | ||
| 2025-11-13T00:24 | 19796 | 55 | 286 | 29 | ||
| 2025-11-13T00:25 | 20023 | 53 | -52.5 | |||
| 2025-11-13T00:25 | 20082 | 53 | 299 | 22 | ||
| 2025-11-13T00:26 | 20393 | 50 | -54.3 | 292 | 20 | |
| 2025-11-13T00:27 | 20723 | 48 | -51.3 | |||
| 2025-11-13T00:27 | 20735 | 48 | 310 | 11 | ||
| 2025-11-13T00:28 | 21152 | 45 | 309 | 13 | ||
| 2025-11-13T00:29 | 21551 | 42 | 310 | 13 | ||
| 2025-11-13T00:30 | 22014 | 39 | -60.0 | 308 | 13 | |
| 2025-11-13T00:30 | 22146 | 38 | 314 | 13 | ||
| 2025-11-13T00:30 | 22229 | 38 | -54.2 | |||
| 2025-11-13T00:31 | 22331 | 37 | 304 | 7 | ||
| 2025-11-13T00:31 | 22436 | 37 | 245 | 4 | ||
| 2025-11-13T00:31 | 22581 | 36 | -53.2 | 162 | 4 | |
| 2025-11-13T00:32 | 22762 | 35 | 146 | 7 | ||
| 2025-11-13T00:32 | 22930 | 34 | 167 | 5 | ||
| 2025-11-13T00:33 | 23157 | 33 | 211 | 5 | ||
| 2025-11-13T00:33 | 23255 | 32 | -55.9 | |||
| 2025-11-13T00:33 | 23336 | 32 | 224 | 6 | ||
| 2025-11-13T00:33 | 23460 | 31 | -53.4 | |||
| 2025-11-13T00:33 | 23480 | 31 | 252 | 7 | ||
| 2025-11-13T00:34 | 23668 | 30 | -53.4 | |||
| 2025-11-13T00:34 | 23755 | 30 | -49.3 | 262 | 10 | |
| 2025-11-13T00:35 | 23953 | 29 | 249 | 5 | ||
| 2025-11-13T00:35 | 24138 | 28 | 260 | 7 | ||
| 2025-11-13T00:36 | 24594 | 26 | 304 | 8 | ||
| 2025-11-13T00:36 | 24665 | 26 | -51.1 | |||
| 2025-11-13T00:37 | 24976 | 25 | 331 | 12 | ||
| 2025-11-13T00:37 | 25216 | 24 | 3 | 7 | ||
| 2025-11-13T00:38 | 25242 | 24 | -51.9 | |||
| 2025-11-13T00:38 | 25608 | 22 | 357 | 9 | ||
| 2025-11-13T00:39 | 25990 | 21 | 45 | 6 | ||
| 2025-11-13T00:40 | 26115 | 21 | 48 | 6 | ||
| 2025-11-13T00:40 | 26177 | 21 | -53.9 | |||
| 2025-11-13T00:40 | 26273 | 20 | -53.2 | 42 | 9 | |
| 2025-11-13T11:30 | 18 | 1004 | 9.3 | -0.3 | 290 | 6 |
| 2025-11-13T11:30 | 22 | 1003 | 9.4 | -0.8 | 132 | 4 |
| 2025-11-13T11:30 | 29 | 1003 | 122 | 2 | ||
| 2025-11-13T11:30 | 45 | 1001 | 304 | 3 | ||
| 2025-11-13T11:30 | 113 | 992 | 297 | 10 | ||
| 2025-11-13T11:31 | 276 | 973 | 298 | 14 | ||
| 2025-11-13T11:32 | 588 | 937 | 297 | 13 | ||
| 2025-11-13T11:32 | 626 | 932 | 3.9 | -2.7 | ||
| 2025-11-13T11:32 | 767 | 916 | 288 | 12 | ||
| 2025-11-13T11:33 | 1056 | 884 | 281 | 13 | ||
| 2025-11-13T11:34 | 1368 | 850 | -2.7 | -5.3 | ||
| 2025-11-13T11:34 | 1458 | 840 | 270 | 14 | ||
| 2025-11-13T11:34 | 1666 | 819 | -5.5 | -6.6 | ||
| 2025-11-13T11:35 | 1766 | 808 | -6.1 | -7.9 | ||
| 2025-11-13T11:35 | 1843 | 800 | -6.8 | -8.6 | ||
| 2025-11-13T11:35 | 1930 | 791 | 259 | 19 | ||
| 2025-11-13T11:35 | 1978 | 787 | -7.5 | -11.3 | ||
| 2025-11-13T11:36 | 2297 | 755 | -10.5 | -11.8 | 264 | 21 |
| 2025-11-13T11:36 | 2402 | 745 | -11.4 | -11.8 | ||
| 2025-11-13T11:36 | 2464 | 739 | 272 | 18 | ||
| 2025-11-13T11:36 | 2525 | 733 | -12.4 | -14.5 | ||
| 2025-11-13T11:37 | 2701 | 716 | -13.3 | -17.1 | ||
| 2025-11-13T11:37 | 2747 | 712 | -13.7 | -17.7 | ||
| 2025-11-13T11:37 | 2831 | 704 | -12.7 | -24.7 | ||
| 2025-11-13T11:37 | 2844 | 703 | 267 | 22 | ||
| 2025-11-13T11:37 | 2872 | 700 | -12.2 | -31.7 | ||
| 2025-11-13T11:37 | 2912 | 696 | -12.0 | -41.0 | ||
| 2025-11-13T11:37 | 2991 | 689 | -12.1 | -39.8 | ||
| 2025-11-13T11:38 | 3067 | 682 | 272 | 29 | ||
| 2025-11-13T11:38 | 3169 | 673 | -11.9 | -37.4 | ||
| 2025-11-13T11:38 | 3226 | 668 | 269 | 32 | ||
| 2025-11-13T11:39 | 3577 | 638 | -14.7 | -38.7 | ||
| 2025-11-13T11:39 | 3645 | 633 | 271 | 32 | ||
| 2025-11-13T11:39 | 3682 | 630 | -14.6 | -39.6 | ||
| 2025-11-13T11:39 | 3819 | 618 | 270 | 35 | ||
| 2025-11-13T11:40 | 4070 | 598 | 271 | 37 | ||
| 2025-11-13T11:40 | 4284 | 581 | -18.0 | -39.1 | ||
| 2025-11-13T11:41 | 4422 | 571 | 270 | 37 | ||
| 2025-11-13T11:41 | 4566 | 560 | -19.7 | -41.2 | ||
| 2025-11-13T11:42 | 4769 | 545 | 271 | 41 | ||
| 2025-11-13T11:43 | 5076 | 522 | -22.5 | -46.8 | ||
| 2025-11-13T11:43 | 5117 | 519 | 269 | 41 | ||
| 2025-11-13T11:44 | 5465 | 495 | 271 | 42 | ||
| 2025-11-13T11:45 | 5692 | 480 | 270 | 44 | ||
| 2025-11-13T11:45 | 5943 | 463 | -29.4 | -49.8 | ||
| 2025-11-13T11:46 | 6018 | 458 | 269 | 46 | ||
| 2025-11-13T11:47 | 6341 | 438 | 272 | 46 | ||
| 2025-11-13T11:47 | 6612 | 421 | -34.6 | -55.6 | ||
| 2025-11-13T11:48 | 6669 | 418 | 269 | 46 | ||
| 2025-11-13T11:48 | 6877 | 406 | -35.5 | -59.2 | ||
| 2025-11-13T11:49 | 7019 | 398 | 272 | 47 | ||
| 2025-11-13T11:49 | 7181 | 388 | -36.9 | -61.5 | ||
| 2025-11-13T11:49 | 7377 | 377 | 273 | 49 | ||
| 2025-11-13T11:50 | 7384 | 377 | -38.1 | -62.4 | ||
| 2025-11-13T11:50 | 7588 | 366 | 267 | 46 | ||
| 2025-11-13T11:50 | 7693 | 360 | -39.4 | -64.8 | ||
| 2025-11-13T11:50 | 7764 | 357 | -40.0 | -65.3 | ||
| 2025-11-13T11:51 | 7967 | 346 | -41.3 | |||
| 2025-11-13T11:51 | 7979 | 346 | 269 | 52 | ||
| 2025-11-13T11:52 | 8157 | 337 | -42.0 | |||
| 2025-11-13T11:52 | 8326 | 328 | 270 | 56 | ||
| 2025-11-13T11:52 | 8423 | 324 | -43.0 | |||
| 2025-11-13T11:53 | 8569 | 317 | -42.6 | |||
| 2025-11-13T11:53 | 8608 | 315 | -42.0 | |||
| 2025-11-13T11:53 | 8637 | 314 | 272 | 55 | ||
| 2025-11-13T11:53 | 8683 | 312 | -42.3 | |||
| 2025-11-13T11:54 | 8814 | 305 | 270 | 55 | ||
| 2025-11-13T11:54 | 8872 | 303 | -41.2 | |||
| 2025-11-13T11:54 | 8997 | 297 | 269 | 55 | ||
| 2025-11-13T11:55 | 9290 | 285 | -42.9 | |||
| 2025-11-13T11:55 | 9365 | 282 | 264 | 54 | ||
| 2025-11-13T11:56 | 9705 | 268 | 265 | 54 | ||
| 2025-11-13T11:56 | 9767 | 265 | -45.5 | |||
| 2025-11-13T11:57 | 9937 | 259 | -44.7 | |||
| 2025-11-13T11:57 | 10060 | 254 | 267 | 54 | ||
| 2025-11-13T11:57 | 10091 | 253 | -45.0 | |||
| 2025-11-13T11:58 | 10290 | 245 | -46.2 | |||
| 2025-11-13T11:58 | 10314 | 244 | 270 | 57 | ||
| 2025-11-13T11:58 | 10457 | 239 | -43.1 | |||
| 2025-11-13T11:59 | 10652 | 232 | 268 | 56 | ||
| 2025-11-13T11:59 | 10779 | 228 | -43.8 | |||
| 2025-11-13T12:00 | 10967 | 222 | 268 | 56 | ||
| 2025-11-13T12:01 | 11290 | 211 | 268 | 57 | ||
| 2025-11-13T12:01 | 11319 | 210 | -45.7 | |||
| 2025-11-13T12:02 | 11653 | 200 | -47.6 | |||
| 2025-11-13T12:02 | 11664 | 200 | 272 | 59 | ||
| 2025-11-13T12:02 | 11897 | 193 | 272 | 53 | ||
| 2025-11-13T12:03 | 12072 | 188 | -49.4 | |||
| 2025-11-13T12:03 | 12266 | 182 | 271 | 55 | ||
| 2025-11-13T12:04 | 12586 | 173 | 270 | 55 | ||
| 2025-11-13T12:04 | 12625 | 172 | -51.8 | |||
| 2025-11-13T12:05 | 12962 | 164 | 272 | 57 | ||
| 2025-11-13T12:06 | 13247 | 157 | -52.4 | |||
| 2025-11-13T12:06 | 13276 | 156 | 272 | 55 | ||
| 2025-11-13T12:07 | 13520 | 150 | -52.4 | |||
| 2025-11-13T12:07 | 13551 | 149 | 269 | 56 | ||
| 2025-11-13T12:08 | 13820 | 143 | 267 | 53 | ||
| 2025-11-13T12:09 | 14076 | 138 | 271 | 49 | ||
| 2025-11-13T12:09 | 14181 | 136 | 272 | 48 | ||
| 2025-11-13T12:10 | 14387 | 131 | 274 | 46 | ||
| 2025-11-13T12:11 | 14502 | 129 | -54.5 | |||
| 2025-11-13T12:11 | 14708 | 125 | 271 | 41 | ||
| 2025-11-13T12:12 | 15069 | 118 | 272 | 42 | ||
| 2025-11-13T12:12 | 15160 | 116 | -57.1 | |||
| 2025-11-13T12:13 | 15471 | 111 | 262 | 36 | ||
| 2025-11-13T12:14 | 15756 | 106 | -58.3 | |||
| 2025-11-13T12:14 | 15819 | 105 | 261 | 39 | ||
| 2025-11-13T12:15 | 16248 | 98 | 263 | 38 | ||
| 2025-11-13T12:16 | 16764 | 90 | 265 | 37 | ||
| 2025-11-13T12:17 | 17000 | 87 | -64.0 | |||
| 2025-11-13T12:17 | 17141 | 85 | 268 | 44 | ||
| 2025-11-13T12:18 | 17445 | 80 | 271 | 49 | ||
| 2025-11-13T12:18 | 17652 | 78 | -66.8 | |||
| 2025-11-13T12:19 | 17787 | 76 | 266 | 46 | ||
| 2025-11-13T12:19 | 17943 | 74 | -63.3 | |||
| 2025-11-13T12:20 | 18052 | 73 | 269 | 51 | ||
| 2025-11-13T12:20 | 18214 | 71 | 266 | 49 | ||
| 2025-11-13T12:20 | 18225 | 71 | -61.6 | |||
| 2025-11-13T12:21 | 18364 | 69 | -60.6 | |||
| 2025-11-13T12:21 | 18483 | 68 | 266 | 49 | ||
| 2025-11-13T12:21 | 18588 | 67 | -56.1 | |||
| 2025-11-13T12:22 | 18736 | 65 | -52.3 | |||
| 2025-11-13T12:22 | 18781 | 65 | 268 | 49 | ||
| 2025-11-13T12:22 | 18897 | 64 | -50.8 | |||
| 2025-11-13T12:22 | 19026 | 62 | -51.4 | |||
| 2025-11-13T12:22 | 19154 | 61 | -47.4 | |||
| 2025-11-13T12:22 | 19237 | 60 | 275 | 36 | ||
| 2025-11-13T12:23 | 19515 | 58 | -47.8 | |||
| 2025-11-13T12:23 | 19585 | 57 | 276 | 11 | ||
| 2025-11-13T12:23 | 19601 | 57 | -44.5 | |||
| 2025-11-13T12:23 | 19787 | 56 | 273 | 4 | ||
| 2025-11-13T12:23 | 19836 | 55 | 235 | 2 | ||
| 2025-11-13T12:23 | 19910 | 55 | 144 | 3 | ||
| 2025-11-13T12:24 | 20081 | 53 | 107 | 3 | ||
| 2025-11-13T12:24 | 20243 | 52 | 155 | 4 | ||
| 2025-11-13T12:24 | 20294 | 52 | -50.4 | |||
| 2025-11-13T12:24 | 20345 | 51 | 158 | 1 | ||
| 2025-11-13T12:24 | 20411 | 51 | 329 | 3 | ||
| 2025-11-13T12:24 | 20436 | 50 | -50.6 | |||
| 2025-11-13T12:24 | 20566 | 49 | 351 | 3 | ||
| 2025-11-13T12:25 | 20697 | 48 | 318 | 5 | ||
| 2025-11-13T12:25 | 20932 | 47 | 303 | 3 | ||
| 2025-11-13T12:25 | 20968 | 46 | -53.0 | |||
| 2025-11-13T12:25 | 21026 | 46 | 146 | 1 | ||
| 2025-11-13T12:26 | 21157 | 45 | 137 | 4 | ||
| 2025-11-13T12:26 | 21330 | 44 | 181 | 5 | ||
| 2025-11-13T12:27 | 21639 | 42 | 206 | 10 | ||
| 2025-11-13T12:27 | 21688 | 42 | -56.4 | |||
| 2025-11-13T12:28 | 21966 | 40 | 218 | 16 | ||
| 2025-11-13T12:28 | 22180 | 38 | -58.3 | 227 | 17 | |
| 2025-11-13T23:30 | 18 | 1011 | 5.5 | -3.6 | 280 | 4 |
| 2025-11-13T23:30 | 22 | 1010 | 5.5 | -4.1 | 0 | 0 |
| 2025-11-13T23:30 | 53 | 1006 | 289 | 4 | ||
| 2025-11-13T23:31 | 201 | 988 | 289 | 6 | ||
| 2025-11-13T23:31 | 510 | 951 | 291 | 7 | ||
| 2025-11-13T23:32 | 600 | 940 | -0.4 | -6.6 | ||
| 2025-11-13T23:32 | 668 | 932 | 295 | 10 | ||
| 2025-11-13T23:33 | 920 | 903 | 291 | 12 | ||
| 2025-11-13T23:33 | 1008 | 893 | -4.1 | -8.2 | ||
| 2025-11-13T23:33 | 1056 | 888 | 301 | 10 | ||
| 2025-11-13T23:33 | 1196 | 872 | -6.0 | -8.4 | ||
| 2025-11-13T23:33 | 1214 | 870 | 295 | 14 | ||
| 2025-11-13T23:34 | 1309 | 860 | -6.4 | -10.8 | ||
| 2025-11-13T23:34 | 1556 | 833 | 296 | 16 | ||
| 2025-11-13T23:35 | 1708 | 817 | -9.8 | -11.8 | ||
| 2025-11-13T23:35 | 1888 | 798 | 304 | 16 | ||
| 2025-11-13T23:36 | 1983 | 788 | -12.1 | -12.7 | ||
| 2025-11-13T23:36 | 2062 | 780 | -12.3 | -13.2 | ||
| 2025-11-13T23:36 | 2242 | 762 | 308 | 17 | ||
| 2025-11-13T23:37 | 2354 | 750 | 298 | 17 | ||
| 2025-11-13T23:37 | 2365 | 749 | -14.7 | -16.4 | ||
| 2025-11-13T23:37 | 2415 | 744 | -14.7 | -21.5 | ||
| 2025-11-13T23:37 | 2448 | 741 | 289 | 21 | ||
| 2025-11-13T23:37 | 2482 | 738 | -14.8 | -24.4 | ||
| 2025-11-13T23:38 | 2678 | 719 | -14.9 | -29.4 | ||
| 2025-11-13T23:38 | 2764 | 711 | 295 | 23 | ||
| 2025-11-13T23:38 | 2821 | 705 | -14.7 | -31.7 | ||
| 2025-11-13T23:39 | 3007 | 688 | -14.4 | -37.6 | ||
| 2025-11-13T23:39 | 3013 | 688 | 291 | 24 | ||
| 2025-11-13T23:39 | 3058 | 684 | -12.8 | -41.6 | ||
| 2025-11-13T23:39 | 3135 | 677 | -11.5 | -48.4 | ||
| 2025-11-13T23:39 | 3199 | 671 | 294 | 30 | ||
| 2025-11-13T23:39 | 3212 | 670 | -10.4 | -47.6 | ||
| 2025-11-13T23:40 | 3566 | 640 | 294 | 33 | ||
| 2025-11-13T23:40 | 3572 | 639 | -12.0 | -39.7 | ||
| 2025-11-13T23:41 | 3922 | 611 | 288 | 35 | ||
| 2025-11-13T23:41 | 3929 | 610 | -13.8 | -40.0 | ||
| 2025-11-13T23:42 | 4306 | 580 | 283 | 37 | ||
| 2025-11-13T23:43 | 4598 | 558 | -18.7 | -39.0 | ||
| 2025-11-13T23:43 | 4687 | 552 | 283 | 38 | ||
| 2025-11-13T23:44 | 5080 | 523 | 283 | 42 | ||
| 2025-11-13T23:45 | 5300 | 507 | -24.1 | -39.8 | ||
| 2025-11-13T23:45 | 5452 | 497 | 280 | 42 | ||
| 2025-11-13T23:46 | 5801 | 474 | 283 | 42 | ||
| 2025-11-13T23:46 | 5845 | 471 | -28.1 | -40.7 | ||
| 2025-11-13T23:47 | 6143 | 452 | 283 | 42 | ||
| 2025-11-13T23:47 | 6160 | 450 | -29.9 | -45.3 | ||
| 2025-11-13T23:48 | 6502 | 429 | 281 | 42 | ||
| 2025-11-13T23:49 | 6726 | 416 | 281 | 44 | ||
| 2025-11-13T23:49 | 6945 | 403 | -35.6 | -51.0 | ||
| 2025-11-13T23:50 | 7102 | 394 | 278 | 46 | ||
| 2025-11-13T23:50 | 7276 | 384 | -37.8 | -53.4 | ||
| 2025-11-13T23:51 | 7523 | 371 | 276 | 46 | ||
| 2025-11-13T23:51 | 7595 | 367 | -40.0 | -54.8 | ||
| 2025-11-13T23:51 | 7769 | 358 | -41.0 | |||
| 2025-11-13T23:52 | 7937 | 349 | 279 | 46 | ||
| 2025-11-13T23:53 | 8360 | 328 | 274 | 46 | ||
| 2025-11-13T23:53 | 8512 | 320 | -44.8 | |||
| 2025-11-13T23:54 | 8709 | 311 | -45.4 | |||
| 2025-11-13T23:54 | 8721 | 310 | 275 | 47 | ||
| 2025-11-13T23:54 | 8904 | 302 | 271 | 48 | ||
| 2025-11-13T23:54 | 8976 | 299 | -47.3 | |||
| 2025-11-13T23:55 | 9279 | 285 | 272 | 49 | ||
| 2025-11-13T23:55 | 9393 | 280 | -48.0 | |||
| 2025-11-13T23:56 | 9629 | 271 | -48.0 | |||
| 2025-11-13T23:56 | 9677 | 269 | 268 | 50 | ||
| 2025-11-13T23:56 | 9788 | 264 | -46.1 | |||
| 2025-11-13T23:57 | 10035 | 254 | 263 | 49 | ||
| 2025-11-13T23:57 | 10061 | 253 | -45.4 | |||
| 2025-11-13T23:58 | 10322 | 244 | -46.7 | |||
| 2025-11-13T23:58 | 10342 | 243 | 266 | 51 | ||
| 2025-11-13T23:59 | 10634 | 232 | 267 | 51 | ||
| 2025-11-13T23:59 | 10688 | 231 | -47.1 | |||
| 2025-11-14T00:00 | 10937 | 222 | 262 | 49 | ||
| 2025-11-14T00:01 | 11194 | 214 | 264 | 53 | ||
| 2025-11-14T00:01 | 11269 | 211 | -46.9 | |||
| 2025-11-14T00:02 | 11512 | 204 | 262 | 51 | ||
| 2025-11-14T00:02 | 11649 | 199 | -47.9 | |||
| 2025-11-14T00:03 | 11807 | 195 | 268 | 51 | ||
| 2025-11-14T00:04 | 12062 | 187 | 271 | 49 | ||
| 2025-11-14T00:05 | 12281 | 181 | -48.1 | |||
| 2025-11-14T00:05 | 12315 | 180 | 266 | 51 | ||
| 2025-11-14T00:06 | 12590 | 173 | 269 | 53 | ||
| 2025-11-14T00:06 | 12682 | 171 | -50.1 | |||
| 2025-11-14T00:07 | 12894 | 165 | 270 | 50 | ||
| 2025-11-14T00:08 | 13218 | 157 | 269 | 50 | ||
| 2025-11-14T00:08 | 13308 | 155 | -52.3 | |||
| 2025-11-14T00:09 | 13540 | 149 | 268 | 53 | ||
| 2025-11-14T00:10 | 13748 | 145 | -53.5 | |||
| 2025-11-14T00:10 | 13868 | 142 | 268 | 50 | ||
| 2025-11-14T00:10 | 13928 | 141 | -54.1 | |||
| 2025-11-14T00:11 | 14187 | 135 | 270 | 47 | ||
| 2025-11-14T00:11 | 14223 | 134 | -54.4 | |||
| 2025-11-14T00:12 | 14495 | 129 | 269 | 45 | ||
| 2025-11-14T00:12 | 14560 | 127 | -56.1 | |||
| 2025-11-14T00:13 | 14790 | 123 | 269 | 43 | ||
| 2025-11-14T00:14 | 14980 | 119 | -56.3 | |||
| 2025-11-14T00:14 | 15075 | 117 | 261 | 41 | ||
| 2025-11-14T00:15 | 15397 | 112 | 264 | 40 | ||
| 2025-11-14T00:15 | 15418 | 111 | -57.1 | |||
| 2025-11-14T00:16 | 15723 | 106 | 263 | 41 | ||
| 2025-11-14T00:17 | 16050 | 101 | 267 | 40 | ||
| 2025-11-14T00:17 | 16084 | 100 | -59.0 | |||
| 2025-11-14T00:17 | 16197 | 98 | -59.4 | |||
| 2025-11-14T00:18 | 16382 | 95 | 266 | 39 | ||
| 2025-11-14T00:19 | 16608 | 92 | 262 | 37 | ||
| 2025-11-14T00:19 | 16864 | 88 | 254 | 42 | ||
| 2025-11-14T00:20 | 17059 | 86 | -60.2 | |||
| 2025-11-14T00:20 | 17159 | 84 | 266 | 48 | ||
| 2025-11-14T00:21 | 17541 | 79 | 273 | 48 | ||
| 2025-11-14T00:22 | 17726 | 77 | -59.1 | |||
| 2025-11-14T00:22 | 17927 | 75 | -57.7 | |||
| 2025-11-14T00:22 | 17961 | 74 | 274 | 44 | ||
| 2025-11-14T00:23 | 18062 | 73 | 274 | 42 | ||
| 2025-11-14T00:23 | 18080 | 73 | -56.4 | |||
| 2025-11-14T00:23 | 18098 | 73 | 273 | 43 | ||
| 2025-11-14T00:24 | 18196 | 71 | -52.0 | |||
| 2025-11-14T00:24 | 18278 | 71 | 280 | 42 | ||
| 2025-11-14T00:24 | 18400 | 69 | -49.9 | |||
| 2025-11-14T00:25 | 18670 | 66 | -49.8 | |||
| 2025-11-14T00:25 | 18700 | 66 | 286 | 35 | ||
| 2025-11-14T00:25 | 18928 | 64 | 284 | 26 | ||
| 2025-11-14T00:26 | 19050 | 63 | -46.6 | |||
| 2025-11-14T00:26 | 19137 | 62 | -45.2 | |||
| 2025-11-14T00:26 | 19330 | 60 | 275 | 20 | ||
| 2025-11-14T00:26 | 19575 | 58 | 263 | 12 | ||
| 2025-11-14T00:27 | 19847 | 56 | 251 | 12 | ||
| 2025-11-14T00:27 | 19959 | 55 | 278 | 4 | ||
| 2025-11-14T00:27 | 20042 | 54 | 23 | 3 | ||
| 2025-11-14T00:27 | 20138 | 53 | 46 | 2 | ||
| 2025-11-14T00:28 | 20508 | 50 | 173 | 3 | ||
| 2025-11-14T00:28 | 20609 | 49 | 188 | 6 | ||
| 2025-11-14T00:28 | 20751 | 48 | -58.8 | |||
| 2025-11-14T00:28 | 20779 | 48 | 188 | 8 | ||
| 2025-11-14T00:29 | 20992 | 46 | 196 | 9 | ||
| 2025-11-14T00:29 | 21110 | 46 | -61.4 | |||
| 2025-11-14T00:29 | 21197 | 45 | -59.5 | |||
| 2025-11-14T00:30 | 21392 | 44 | 239 | 14 | ||
| 2025-11-14T00:30 | 21597 | 42 | 258 | 15 | ||
| 2025-11-14T00:30 | 21612 | 42 | -60.4 | |||
| 2025-11-14T00:31 | 21745 | 41 | 272 | 18 | ||
| 2025-11-14T00:31 | 21837 | 41 | -56.9 | |||
| 2025-11-14T00:32 | 22060 | 39 | 252 | 13 | ||
| 2025-11-14T00:33 | 22356 | 37 | -59.1 | |||
| 2025-11-14T00:33 | 22475 | 37 | 239 | 22 | ||
| 2025-11-14T00:34 | 22860 | 34 | 240 | 23 | ||
| 2025-11-14T00:34 | 22987 | 34 | -62.1 | |||
| 2025-11-14T00:35 | 23157 | 33 | 254 | 25 | ||
| 2025-11-14T00:35 | 23194 | 33 | -58.5 | |||
| 2025-11-14T00:35 | 23270 | 32 | 261 | 18 | ||
| 2025-11-14T00:35 | 23290 | 32 | -52.3 | |||
| 2025-11-14T00:36 | 23396 | 32 | 255 | 11 | ||
| 2025-11-14T00:36 | 23688 | 30 | 267 | 7 | ||
| 2025-11-14T00:37 | 23777 | 30 | -50.5 | 326 | 4 | |
| 2025-11-14T00:37 | 23885 | 29 | 60 | 1 | ||
| 2025-11-14T00:37 | 24123 | 28 | -53.6 | 71 | 1 | |
| 2025-11-14T11:30 | 18 | 1016 | 4.4 | -1.4 | 310 | 3 |
| 2025-11-14T11:30 | 22 | 1016 | 4.7 | -1.5 | 0 | 0 |
| 2025-11-14T11:30 | 152 | 1000 | 317 | 4 | ||
| 2025-11-14T11:31 | 457 | 962 | 310 | 7 | ||
| 2025-11-14T11:32 | 796 | 922 | 328 | 9 | ||
| 2025-11-14T11:33 | 895 | 911 | -3.5 | -5.5 | ||
| 2025-11-14T11:33 | 1103 | 887 | 322 | 9 | ||
| 2025-11-14T11:34 | 1230 | 873 | -6.5 | -7.0 | ||
| 2025-11-14T11:34 | 1401 | 854 | 317 | 10 | ||
| 2025-11-14T11:35 | 1564 | 836 | -8.8 | -9.6 | ||
| 2025-11-14T11:35 | 1620 | 830 | -8.7 | -9.8 | ||
| 2025-11-14T11:35 | 1699 | 822 | 315 | 10 | ||
| 2025-11-14T11:36 | 1998 | 790 | -11.5 | -12.9 | ||
| 2025-11-14T11:36 | 2036 | 786 | 322 | 11 | ||
| 2025-11-14T11:37 | 2197 | 770 | -13.4 | -15.2 | ||
| 2025-11-14T11:37 | 2243 | 765 | -13.8 | -20.7 | ||
| 2025-11-14T11:37 | 2378 | 752 | 332 | 13 | ||
| 2025-11-14T11:38 | 2542 | 736 | -16.1 | -27.5 | ||
| 2025-11-14T11:38 | 2646 | 726 | 314 | 14 | ||
| 2025-11-14T11:39 | 2926 | 699 | -17.8 | -31.2 | ||
| 2025-11-14T11:39 | 2949 | 697 | 315 | 17 | ||
| 2025-11-14T11:39 | 3041 | 688 | -16.4 | -34.7 | ||
| 2025-11-14T11:40 | 3148 | 679 | -16.2 | -32.6 | ||
| 2025-11-14T11:40 | 3210 | 673 | 299 | 21 | ||
| 2025-11-14T11:40 | 3345 | 661 | 296 | 22 | ||
| 2025-11-14T11:41 | 3583 | 641 | -16.6 | -32.9 | ||
| 2025-11-14T11:41 | 3641 | 636 | 297 | 23 | ||
| 2025-11-14T11:42 | 3954 | 610 | 289 | 25 | ||
| 2025-11-14T11:42 | 4003 | 606 | -16.7 | -35.5 | ||
| 2025-11-14T11:43 | 4289 | 583 | 294 | 27 | ||
| 2025-11-14T11:44 | 4638 | 556 | 287 | 28 | ||
| 2025-11-14T11:44 | 4730 | 549 | -20.8 | -38.4 | ||
| 2025-11-14T11:45 | 4979 | 531 | 290 | 28 | ||
| 2025-11-14T11:46 | 5324 | 507 | 288 | 29 | ||
| 2025-11-14T11:46 | 5428 | 499 | -25.8 | -40.5 | ||
| 2025-11-14T11:47 | 5660 | 484 | 282 | 29 | ||
| 2025-11-14T11:47 | 5711 | 480 | -28.3 | -42.6 | ||
| 2025-11-14T11:48 | 5899 | 468 | -29.7 | -40.3 | ||
| 2025-11-14T11:48 | 5987 | 462 | 283 | 29 | ||
| 2025-11-14T11:49 | 6209 | 448 | -31.9 | -41.8 | ||
| 2025-11-14T11:49 | 6344 | 439 | 279 | 31 | ||
| 2025-11-14T11:50 | 6649 | 421 | -35.2 | -46.1 | ||
| 2025-11-14T11:50 | 6718 | 416 | 282 | 33 | ||
| 2025-11-14T11:50 | 6797 | 412 | -36.0 | -46.8 | ||
| 2025-11-14T11:51 | 6992 | 400 | -37.2 | -47.3 | ||
| 2025-11-14T11:51 | 7073 | 396 | 278 | 33 | ||
| 2025-11-14T11:51 | 7178 | 390 | -38.9 | -50.6 | ||
| 2025-11-14T11:52 | 7339 | 381 | -40.0 | -51.0 | ||
| 2025-11-14T11:52 | 7429 | 376 | 278 | 34 | ||
| 2025-11-14T11:53 | 7592 | 367 | -41.7 | |||
| 2025-11-14T11:53 | 7685 | 362 | -42.0 | |||
| 2025-11-14T11:53 | 7691 | 361 | 280 | 34 | ||
| 2025-11-14T11:54 | 8014 | 345 | 278 | 33 | ||
| 2025-11-14T11:54 | 8113 | 340 | -45.2 | |||
| 2025-11-14T11:55 | 8352 | 327 | 274 | 34 | ||
| 2025-11-14T11:56 | 8674 | 312 | 277 | 35 | ||
| 2025-11-14T11:56 | 8707 | 310 | -48.2 | |||
| 2025-11-14T11:57 | 8998 | 297 | 279 | 36 | ||
| 2025-11-14T11:57 | 9091 | 293 | -50.5 | |||
| 2025-11-14T11:58 | 9318 | 283 | 271 | 35 | ||
| 2025-11-14T11:59 | 9626 | 270 | 270 | 37 | ||
| 2025-11-14T11:59 | 9631 | 269 | -50.9 | |||
| 2025-11-14T12:00 | 9926 | 257 | -50.7 | 273 | 39 | |
| 2025-11-14T12:00 | 10131 | 250 | 264 | 39 | ||
| 2025-11-14T12:01 | 10167 | 248 | -48.1 | |||
| 2025-11-14T12:01 | 10444 | 238 | 266 | 40 | ||
| 2025-11-14T12:02 | 10506 | 236 | -48.3 | |||
| 2025-11-14T12:02 | 10653 | 230 | -48.1 | |||
| 2025-11-14T12:02 | 10757 | 227 | 266 | 42 | ||
| 2025-11-14T12:03 | 11013 | 218 | -48.1 | |||
| 2025-11-14T12:03 | 11063 | 217 | 266 | 42 | ||
| 2025-11-14T12:04 | 11182 | 213 | -48.1 | |||
| 2025-11-14T12:04 | 11359 | 207 | 264 | 43 | ||
| 2025-11-14T12:05 | 11659 | 198 | 267 | 46 | ||
| 2025-11-14T12:06 | 11813 | 193 | -47.8 | |||
| 2025-11-14T12:06 | 11956 | 189 | 269 | 44 | ||
| 2025-11-14T12:07 | 11976 | 189 | -47.8 | |||
| 2025-11-14T12:07 | 12257 | 181 | 267 | 43 | ||
| 2025-11-14T12:08 | 12282 | 180 | -47.9 | |||
| 2025-11-14T12:08 | 12520 | 174 | -48.5 | |||
| 2025-11-14T12:08 | 12555 | 173 | 266 | 44 | ||
| 2025-11-14T12:09 | 12791 | 167 | 265 | 46 | ||
| 2025-11-14T12:10 | 13087 | 159 | 265 | 43 | ||
| 2025-11-14T12:11 | 13253 | 155 | -49.1 | |||
| 2025-11-14T12:11 | 13417 | 151 | 263 | 45 | ||
| 2025-11-14T12:12 | 13611 | 147 | 264 | 47 | ||
| 2025-11-14T12:12 | 13627 | 147 | -51.4 | |||
| 2025-11-14T12:13 | 13873 | 141 | 267 | 43 | ||
| 2025-11-14T12:14 | 14206 | 134 | 264 | 47 | ||
| 2025-11-14T12:14 | 14324 | 132 | -53.1 | |||
| 2025-11-14T12:15 | 14541 | 127 | 271 | 43 | ||
| 2025-11-14T12:15 | 14685 | 124 | -52.7 | |||
| 2025-11-14T12:16 | 14889 | 121 | 267 | 38 | ||
| 2025-11-14T12:16 | 14991 | 119 | -54.3 | |||
| 2025-11-14T12:17 | 15218 | 115 | -54.9 | 270 | 39 | |
| 2025-11-14T12:17 | 15380 | 112 | 273 | 39 | ||
| 2025-11-14T12:18 | 15567 | 108 | 267 | 37 | ||
| 2025-11-14T12:18 | 15715 | 106 | -54.4 | |||
| 2025-11-14T12:18 | 15850 | 104 | -53.8 | |||
| 2025-11-14T12:19 | 15932 | 102 | 266 | 36 | ||
| 2025-11-14T12:20 | 16323 | 96 | 260 | 40 | ||
| 2025-11-14T12:21 | 16687 | 91 | 264 | 36 | ||
| 2025-11-14T12:21 | 16695 | 91 | -58.8 | |||
| 2025-11-14T12:22 | 16991 | 87 | 261 | 37 | ||
| 2025-11-14T12:22 | 17049 | 86 | -57.9 | |||
| 2025-11-14T12:23 | 17282 | 83 | 267 | 34 | ||
| 2025-11-14T12:23 | 17384 | 81 | -55.9 | |||
| 2025-11-14T12:24 | 17591 | 79 | 262 | 36 | ||
| 2025-11-14T12:24 | 17779 | 77 | -54.5 | |||
| 2025-11-14T12:24 | 17855 | 76 | 263 | 31 | ||
| 2025-11-14T12:25 | 18019 | 74 | 264 | 36 | ||
| 2025-11-14T12:25 | 18071 | 73 | -53.3 | |||
| 2025-11-14T12:25 | 18278 | 71 | 265 | 33 | ||
| 2025-11-14T12:26 | 18297 | 71 | -53.6 | |||
| 2025-11-14T12:27 | 18650 | 67 | 269 | 38 | ||
| 2025-11-14T12:27 | 18975 | 64 | 269 | 33 | ||
| 2025-11-14T12:28 | 19180 | 62 | 270 | 35 | ||
| 2025-11-14T12:28 | 19201 | 61 | -55.4 | |||
| 2025-11-14T12:29 | 19541 | 58 | 266 | 29 | ||
| 2025-11-14T12:30 | 19947 | 55 | 260 | 27 | ||
| 2025-11-14T12:31 | 20233 | 52 | 270 | 27 | ||
| 2025-11-14T12:31 | 20545 | 50 | 274 | 32 | ||
| 2025-11-14T12:32 | 20719 | 48 | -57.9 | |||
| 2025-11-14T12:32 | 20860 | 47 | 271 | 27 | ||
| 2025-11-14T12:33 | 21203 | 45 | -59.5 | |||
| 2025-11-14T12:33 | 21229 | 45 | 260 | 24 | ||
| 2025-11-14T12:34 | 21489 | 43 | -58.5 | |||
| 2025-11-14T12:34 | 21608 | 42 | 283 | 25 | ||
| 2025-11-14T12:35 | 21924 | 40 | -58.0 | 286 | 26 | |
| 2025-11-14T23:30 | 18 | 1019 | 5.7 | -2.6 | 260 | 2 |
| 2025-11-14T23:30 | 23 | 1019 | 5.7 | -3.4 | 0 | 0 |
| 2025-11-14T23:31 | 268 | 988 | 3.7 | -6.0 | ||
| 2025-11-14T23:31 | 280 | 987 | 286 | 5 | ||
| 2025-11-14T23:31 | 475 | 963 | 292 | 5 | ||
| 2025-11-14T23:32 | 595 | 949 | 287 | 6 | ||
| 2025-11-14T23:32 | 764 | 929 | 294 | 7 | ||
| 2025-11-14T23:33 | 953 | 907 | -2.7 | -8.6 | ||
| 2025-11-14T23:33 | 958 | 907 | 297 | 8 | ||
| 2025-11-14T23:33 | 1013 | 901 | -2.9 | -10.2 | ||
| 2025-11-14T23:33 | 1095 | 891 | 304 | 12 | ||
| 2025-11-14T23:34 | 1310 | 867 | -5.5 | -10.7 | ||
| 2025-11-14T23:34 | 1405 | 857 | 300 | 10 | ||
| 2025-11-14T23:35 | 1553 | 841 | -7.7 | -11.4 | ||
| 2025-11-14T23:35 | 1721 | 823 | 289 | 11 | ||
| 2025-11-14T23:36 | 1944 | 799 | 285 | 12 | ||
| 2025-11-14T23:36 | 2079 | 785 | -12.5 | -13.0 | ||
| 2025-11-14T23:37 | 2247 | 768 | -13.6 | -15.2 | ||
| 2025-11-14T23:37 | 2262 | 767 | 290 | 12 | ||
| 2025-11-14T23:37 | 2347 | 758 | -14.2 | -25.4 | ||
| 2025-11-14T23:37 | 2389 | 754 | -11.8 | -36.4 | ||
| 2025-11-14T23:38 | 2444 | 749 | -10.3 | -38.4 | ||
| 2025-11-14T23:38 | 2481 | 745 | 308 | 16 | ||
| 2025-11-14T23:39 | 2742 | 720 | -10.8 | -31.8 | ||
| 2025-11-14T23:39 | 2774 | 717 | 299 | 15 | ||
| 2025-11-14T23:40 | 3060 | 691 | -11.7 | -33.2 | ||
| 2025-11-14T23:40 | 3086 | 689 | 296 | 16 | ||
| 2025-11-14T23:40 | 3199 | 679 | -12.3 | -34.4 | ||
| 2025-11-14T23:41 | 3391 | 662 | -12.7 | -34.7 | ||
| 2025-11-14T23:41 | 3420 | 659 | 291 | 19 | ||
| 2025-11-14T23:41 | 3637 | 641 | -14.4 | -28.6 | ||
| 2025-11-14T23:42 | 3773 | 629 | 294 | 21 | ||
| 2025-11-14T23:43 | 4029 | 608 | -17.6 | -30.3 | ||
| 2025-11-14T23:43 | 4110 | 602 | -18.1 | -30.8 | ||
| 2025-11-14T23:43 | 4122 | 601 | 289 | 21 | ||
| 2025-11-14T23:44 | 4423 | 577 | -20.9 | -32.1 | ||
| 2025-11-14T23:44 | 4456 | 574 | 288 | 21 | ||
| 2025-11-14T23:44 | 4551 | 567 | -21.8 | -29.0 | ||
| 2025-11-14T23:44 | 4674 | 558 | -22.5 | -31.7 | ||
| 2025-11-14T23:45 | 4738 | 553 | -22.7 | -34.6 | ||
| 2025-11-14T23:45 | 4775 | 550 | 291 | 22 | ||
| 2025-11-14T23:45 | 4975 | 535 | -24.1 | -39.4 | ||
| 2025-11-14T23:46 | 5088 | 527 | 293 | 20 | ||
| 2025-11-14T23:47 | 5425 | 503 | 287 | 20 | ||
| 2025-11-14T23:47 | 5508 | 497 | -28.4 | -42.0 | ||
| 2025-11-14T23:48 | 5766 | 480 | 293 | 21 | ||
| 2025-11-14T23:48 | 5978 | 465 | -32.0 | -46.2 | ||
| 2025-11-14T23:49 | 6127 | 456 | 291 | 22 | ||
| 2025-11-14T23:50 | 6474 | 434 | 287 | 24 | ||
| 2025-11-14T23:51 | 6824 | 412 | 289 | 26 | ||
| 2025-11-14T23:51 | 6965 | 404 | -39.7 | -54.1 | ||
| 2025-11-14T23:51 | 7049 | 399 | -40.0 | -53.2 | ||
| 2025-11-14T23:52 | 7184 | 391 | 292 | 28 | ||
| 2025-11-14T23:53 | 7549 | 370 | 286 | 28 | ||
| 2025-11-14T23:53 | 7561 | 370 | -44.0 | |||
| 2025-11-14T23:54 | 7813 | 356 | -45.0 | |||
| 2025-11-14T23:54 | 7891 | 352 | 280 | 31 | ||
| 2025-11-14T23:54 | 8064 | 343 | 289 | 31 | ||
| 2025-11-14T23:55 | 8406 | 325 | 284 | 33 | ||
| 2025-11-14T23:55 | 8417 | 325 | -49.6 | |||
| 2025-11-14T23:56 | 8548 | 319 | -50.0 | |||
| 2025-11-14T23:56 | 8650 | 314 | -50.1 | |||
| 2025-11-14T23:56 | 8725 | 310 | 284 | 35 | ||
| 2025-11-14T23:57 | 8974 | 298 | 280 | 35 | ||
| 2025-11-14T23:57 | 9007 | 297 | -52.0 | |||
| 2025-11-14T23:58 | 9272 | 285 | -52.9 | |||
| 2025-11-14T23:58 | 9283 | 285 | 285 | 33 | ||
| 2025-11-14T23:59 | 9570 | 272 | -53.3 | |||
| 2025-11-14T23:59 | 9601 | 271 | 285 | 30 | ||
| 2025-11-15T00:00 | 9886 | 259 | -52.5 | |||
| 2025-11-15T00:00 | 9913 | 258 | 281 | 39 | ||
| 2025-11-15T00:00 | 10046 | 253 | -51.6 | |||
| 2025-11-15T00:01 | 10213 | 246 | -49.7 | |||
| 2025-11-15T00:01 | 10224 | 246 | 279 | 39 | ||
| 2025-11-15T00:01 | 10297 | 243 | -48.3 | |||
| 2025-11-15T00:02 | 10523 | 235 | -49.0 | |||
| 2025-11-15T00:02 | 10533 | 235 | 275 | 36 | ||
| 2025-11-15T00:02 | 10622 | 232 | -47.6 | |||
| 2025-11-15T00:03 | 10863 | 223 | 276 | 43 | ||
| 2025-11-15T00:03 | 10874 | 223 | -49.2 | |||
| 2025-11-15T00:03 | 11012 | 218 | 278 | 42 | ||
| 2025-11-15T00:04 | 11331 | 208 | 282 | 42 | ||
| 2025-11-15T00:04 | 11359 | 207 | -48.0 | |||
| 2025-11-15T00:05 | 11617 | 199 | 282 | 39 | ||
| 2025-11-15T00:06 | 11790 | 194 | -48.6 | |||
| 2025-11-15T00:06 | 11947 | 189 | 281 | 43 | ||
| 2025-11-15T00:06 | 11983 | 188 | -47.2 | |||
| 2025-11-15T00:07 | 12312 | 179 | 281 | 40 | ||
| 2025-11-15T00:08 | 12471 | 175 | -50.4 | |||
| 2025-11-15T00:08 | 12591 | 172 | 282 | 40 | ||
| 2025-11-15T00:08 | 12613 | 171 | -49.8 | |||
| 2025-11-15T00:09 | 12820 | 166 | -50.7 | |||
| 2025-11-15T00:09 | 12842 | 165 | 275 | 38 | ||
| 2025-11-15T00:10 | 13163 | 157 | 269 | 40 | ||
| 2025-11-15T00:10 | 13227 | 156 | -51.7 | |||
| 2025-11-15T00:11 | 13479 | 150 | 272 | 41 | ||
| 2025-11-15T00:12 | 13700 | 145 | -54.3 | |||
| 2025-11-15T00:12 | 13779 | 143 | 274 | 40 | ||
| 2025-11-15T00:13 | 14050 | 137 | -54.2 | |||
| 2025-11-15T00:13 | 14076 | 136 | 275 | 39 | ||
| 2025-11-15T00:13 | 14183 | 134 | -54.2 | |||
| 2025-11-15T00:14 | 14400 | 130 | 272 | 38 | ||
| 2025-11-15T00:14 | 14595 | 126 | 273 | 39 | ||
| 2025-11-15T00:15 | 14838 | 121 | -54.7 | |||
| 2025-11-15T00:15 | 14932 | 119 | 272 | 40 | ||
| 2025-11-15T00:16 | 15070 | 117 | -55.3 | |||
| 2025-11-15T00:16 | 15272 | 113 | 270 | 41 | ||
| 2025-11-15T00:17 | 15325 | 112 | -56.3 | |||
| 2025-11-15T00:17 | 15518 | 109 | -56.5 | |||
| 2025-11-15T00:17 | 15602 | 107 | 276 | 45 | ||
| 2025-11-15T00:18 | 15685 | 106 | -56.4 | |||
| 2025-11-15T00:18 | 15814 | 104 | 268 | 39 | ||
| 2025-11-15T00:18 | 15907 | 102 | -53.9 | |||
| 2025-11-15T00:19 | 16137 | 99 | 263 | 42 | ||
| 2025-11-15T00:19 | 16160 | 98 | -53.3 | |||
| 2025-11-15T00:20 | 16337 | 96 | 266 | 39 | ||
| 2025-11-15T00:20 | 16512 | 93 | -52.7 | |||
| 2025-11-15T00:21 | 16667 | 91 | 266 | 39 | ||
| 2025-11-15T00:21 | 16836 | 88 | -54.2 | |||
| 2025-11-15T00:22 | 17021 | 86 | 277 | 39 | ||
| 2025-11-15T00:23 | 17385 | 81 | 282 | 32 | ||
| 2025-11-15T00:23 | 17542 | 79 | 279 | 29 | ||
| 2025-11-15T00:24 | 17673 | 78 | -55.4 | |||
| 2025-11-15T00:24 | 17906 | 75 | 275 | 29 | ||
| 2025-11-15T00:25 | 17992 | 74 | -56.1 | |||
| 2025-11-15T00:25 | 18036 | 73 | 271 | 28 | ||
| 2025-11-15T00:25 | 18176 | 72 | 268 | 22 | ||
| 2025-11-15T00:25 | 18186 | 72 | -54.8 | |||
| 2025-11-15T00:26 | 18477 | 68 | -56.2 | |||
| 2025-11-15T00:26 | 18496 | 68 | 267 | 27 | ||
| 2025-11-15T00:27 | 18870 | 64 | 260 | 27 | ||
| 2025-11-15T00:27 | 18901 | 64 | -55.5 | |||
| 2025-11-15T00:27 | 19062 | 62 | 256 | 31 | ||
| 2025-11-15T00:28 | 19393 | 59 | -57.0 | |||
| 2025-11-15T00:28 | 19437 | 59 | 254 | 28 | ||
| 2025-11-15T00:29 | 19688 | 57 | -58.6 | |||
| 2025-11-15T00:29 | 19813 | 55 | 250 | 24 | ||
| 2025-11-15T00:30 | 20196 | 52 | 258 | 24 | ||
| 2025-11-15T00:31 | 20581 | 49 | 253 | 25 | ||
| 2025-11-15T00:32 | 20739 | 48 | -57.4 | 253 | 25 | |
| 2025-11-15T11:30 | 18 | 1024 | 4.5 | -4.0 | 260 | 4 |
| 2025-11-15T11:30 | 22 | 1023 | 4.8 | -4.2 | 0 | 0 |
| 2025-11-15T11:30 | 46 | 1020 | 284 | 3 | ||
| 2025-11-15T11:30 | 94 | 1014 | 251 | 5 | ||
| 2025-11-15T11:31 | 337 | 984 | 293 | 9 | ||
| 2025-11-15T11:31 | 362 | 981 | 2.0 | -6.6 | ||
| 2025-11-15T11:32 | 715 | 939 | 307 | 11 | ||
| 2025-11-15T11:32 | 814 | 928 | -1.7 | -6.6 | ||
| 2025-11-15T11:33 | 991 | 907 | -3.2 | -6.8 | ||
| 2025-11-15T11:33 | 1092 | 896 | 317 | 12 | ||
| 2025-11-15T11:34 | 1375 | 864 | -6.6 | -9.8 | ||
| 2025-11-15T11:34 | 1444 | 856 | -7.0 | -10.7 | ||
| 2025-11-15T11:34 | 1450 | 856 | 320 | 11 | ||
| 2025-11-15T11:34 | 1583 | 841 | -7.2 | -16.6 | 301 | 13 |
| 2025-11-15T11:34 | 1632 | 836 | -6.3 | -28.8 | ||
| 2025-11-15T11:35 | 1713 | 827 | 302 | 17 | ||
| 2025-11-15T11:35 | 1816 | 817 | -6.5 | -25.8 | ||
| 2025-11-15T11:36 | 2074 | 790 | -7.3 | -26.5 | ||
| 2025-11-15T11:36 | 2093 | 788 | 311 | 15 | ||
| 2025-11-15T11:36 | 2224 | 775 | 306 | 19 | ||
| 2025-11-15T11:36 | 2358 | 762 | 309 | 16 | ||
| 2025-11-15T11:37 | 2494 | 748 | -9.0 | -26.4 | ||
| 2025-11-15T11:37 | 2602 | 738 | 305 | 17 | ||
| 2025-11-15T11:37 | 2620 | 736 | -9.4 | -24.6 | ||
| 2025-11-15T11:37 | 2682 | 730 | -9.7 | -19.4 | ||
| 2025-11-15T11:37 | 2738 | 725 | 304 | 20 | ||
| 2025-11-15T11:38 | 2924 | 708 | -10.7 | -20.3 | ||
| 2025-11-15T11:38 | 2973 | 703 | -11.0 | -20.6 | ||
| 2025-11-15T11:38 | 3106 | 691 | 300 | 20 | ||
| 2025-11-15T11:39 | 3176 | 685 | -12.2 | -23.1 | ||
| 2025-11-15T11:39 | 3249 | 678 | 296 | 21 | ||
| 2025-11-15T11:40 | 3460 | 660 | -13.5 | -30.7 | ||
| 2025-11-15T11:40 | 3597 | 648 | 298 | 23 | ||
| 2025-11-15T11:40 | 3649 | 644 | -15.1 | -26.8 | ||
| 2025-11-15T11:40 | 3737 | 636 | -15.6 | -27.0 | ||
| 2025-11-15T11:41 | 3830 | 629 | -16.1 | -32.9 | ||
| 2025-11-15T11:41 | 3943 | 619 | 296 | 21 | ||
| 2025-11-15T11:41 | 4023 | 613 | -17.1 | -34.3 | ||
| 2025-11-15T11:42 | 4179 | 600 | -17.7 | -35.8 | ||
| 2025-11-15T11:42 | 4280 | 592 | 286 | 22 | ||
| 2025-11-15T11:42 | 4423 | 581 | -17.9 | -42.2 | ||
| 2025-11-15T11:43 | 4516 | 574 | 285 | 27 | ||
| 2025-11-15T11:43 | 4719 | 558 | -19.7 | -38.6 | ||
| 2025-11-15T11:44 | 4858 | 548 | 286 | 27 | ||
| 2025-11-15T11:44 | 4941 | 542 | -21.0 | -38.1 | ||
| 2025-11-15T11:44 | 5106 | 530 | 287 | 29 | ||
| 2025-11-15T11:45 | 5275 | 518 | -23.6 | -35.1 | ||
| 2025-11-15T11:45 | 5394 | 509 | 287 | 29 | ||
| 2025-11-15T11:45 | 5414 | 508 | -24.2 | -41.8 | ||
| 2025-11-15T11:45 | 5482 | 503 | -24.7 | -38.0 | ||
| 2025-11-15T11:46 | 5590 | 496 | -25.7 | -32.3 | ||
| 2025-11-15T11:46 | 5769 | 484 | -26.9 | -35.3 | ||
| 2025-11-15T11:46 | 5795 | 482 | 286 | 33 | ||
| 2025-11-15T11:46 | 5862 | 477 | -27.6 | -34.5 | ||
| 2025-11-15T11:46 | 5951 | 471 | -28.2 | -33.6 | ||
| 2025-11-15T11:47 | 6083 | 463 | 286 | 33 | ||
| 2025-11-15T11:48 | 6454 | 439 | -32.4 | -37.9 | ||
| 2025-11-15T11:48 | 6494 | 437 | 288 | 35 | ||
| 2025-11-15T11:48 | 6598 | 430 | -33.4 | -40.1 | ||
| 2025-11-15T11:49 | 6874 | 414 | 289 | 35 | ||
| 2025-11-15T11:49 | 6935 | 410 | -36.4 | -43.1 | ||
| 2025-11-15T11:49 | 7022 | 405 | 289 | 36 | ||
| 2025-11-15T11:49 | 7149 | 398 | -38.2 | -45.5 | ||
| 2025-11-15T11:50 | 7266 | 391 | -38.9 | -58.3 | ||
| 2025-11-15T11:50 | 7401 | 383 | -40.0 | -56.8 | ||
| 2025-11-15T11:50 | 7414 | 382 | 290 | 35 | ||
| 2025-11-15T11:51 | 7803 | 361 | 290 | 36 | ||
| 2025-11-15T11:52 | 8184 | 341 | 289 | 40 | ||
| 2025-11-15T11:53 | 8379 | 331 | 290 | 44 | ||
| 2025-11-15T11:53 | 8442 | 328 | -47.9 | |||
| 2025-11-15T11:54 | 8769 | 312 | 288 | 44 | ||
| 2025-11-15T11:54 | 8954 | 303 | -51.2 | |||
| 2025-11-15T11:54 | 9140 | 295 | 287 | 44 | ||
| 2025-11-15T11:56 | 9516 | 278 | 284 | 45 | ||
| 2025-11-15T11:56 | 9688 | 271 | -53.4 | |||
| 2025-11-15T11:56 | 9810 | 266 | -52.9 | 289 | 48 | |
| 2025-11-15T11:57 | 10045 | 256 | 287 | 48 | ||
| 2025-11-15T11:57 | 10255 | 248 | 286 | 48 | ||
| 2025-11-15T11:57 | 10268 | 247 | -53.2 | |||
| 2025-11-15T11:58 | 10425 | 242 | 285 | 46 | ||
| 2025-11-15T11:59 | 10665 | 233 | -53.6 | |||
| 2025-11-15T11:59 | 10688 | 232 | 280 | 53 | ||
| 2025-11-15T11:59 | 10978 | 222 | 284 | 51 | ||
| 2025-11-15T12:00 | 11011 | 220 | -52.9 | |||
| 2025-11-15T12:00 | 11133 | 216 | 282 | 47 | ||
| 2025-11-15T12:00 | 11188 | 215 | -49.8 | |||
| 2025-11-15T12:00 | 11219 | 214 | 277 | 48 | ||
| 2025-11-15T12:01 | 11334 | 210 | 277 | 54 | ||
| 2025-11-15T12:01 | 11346 | 209 | -50.6 | |||
| 2025-11-15T12:01 | 11505 | 204 | -51.5 | |||
| 2025-11-15T12:01 | 11671 | 199 | 282 | 50 | ||
| 2025-11-15T12:02 | 11868 | 193 | -49.9 | |||
| 2025-11-15T12:02 | 11906 | 192 | 282 | 45 | ||
| 2025-11-15T12:03 | 12093 | 187 | -51.4 | |||
| 2025-11-15T12:03 | 12272 | 182 | 280 | 51 | ||
| 2025-11-15T12:03 | 12334 | 180 | -51.0 | |||
| 2025-11-15T12:04 | 12627 | 172 | 286 | 48 | ||
| 2025-11-15T12:05 | 12952 | 163 | 280 | 47 | ||
| 2025-11-15T12:05 | 13063 | 161 | -53.7 | |||
| 2025-11-15T12:06 | 13271 | 156 | 280 | 49 | ||
| 2025-11-15T12:06 | 13377 | 153 | -52.9 | |||
| 2025-11-15T12:07 | 13621 | 147 | 280 | 46 | ||
| 2025-11-15T12:08 | 13785 | 144 | -54.2 | |||
| 2025-11-15T12:08 | 14001 | 139 | 271 | 45 | ||
| 2025-11-15T12:09 | 14198 | 135 | -53.9 | |||
| 2025-11-15T12:09 | 14395 | 131 | -54.8 | 274 | 43 | |
| 2025-11-15T12:10 | 14624 | 126 | -54.9 | |||
| 2025-11-15T12:10 | 14713 | 124 | 271 | 43 | ||
| 2025-11-15T12:10 | 14769 | 123 | -55.6 | |||
| 2025-11-15T12:11 | 14986 | 119 | -55.2 | |||
| 2025-11-15T12:11 | 15010 | 119 | 272 | 46 | ||
| 2025-11-15T12:11 | 15138 | 116 | 274 | 44 | ||
| 2025-11-15T12:11 | 15163 | 116 | -55.0 | |||
| 2025-11-15T12:12 | 15291 | 114 | 278 | 44 | ||
| 2025-11-15T12:12 | 15492 | 110 | -55.1 | |||
| 2025-11-15T12:12 | 15553 | 109 | 283 | 38 | ||
| 2025-11-15T12:13 | 15709 | 106 | -56.3 | |||
| 2025-11-15T12:13 | 15932 | 103 | 278 | 37 | ||
| 2025-11-15T12:14 | 16200 | 98 | -57.6 | |||
| 2025-11-15T12:14 | 16225 | 98 | 278 | 35 | ||
| 2025-11-15T12:15 | 16601 | 92 | 278 | 34 | ||
| 2025-11-15T12:15 | 16753 | 90 | -57.5 | |||
| 2025-11-15T12:16 | 16991 | 87 | 272 | 35 | ||
| 2025-11-15T12:16 | 17055 | 86 | -57.1 | |||
| 2025-11-15T12:16 | 17177 | 84 | -56.4 | |||
| 2025-11-15T12:17 | 17328 | 82 | -56.4 | |||
| 2025-11-15T12:17 | 17429 | 81 | 271 | 35 | ||
| 2025-11-15T12:17 | 17585 | 79 | -56.1 | |||
| 2025-11-15T12:18 | 17726 | 77 | 273 | 34 | ||
| 2025-11-15T12:19 | 18080 | 73 | 280 | 26 | ||
| 2025-11-15T12:19 | 18122 | 73 | -58.8 | |||
| 2025-11-15T12:19 | 18387 | 70 | 280 | 34 | ||
| 2025-11-15T12:20 | 18424 | 69 | -57.5 | |||
| 2025-11-15T12:20 | 18592 | 67 | -54.0 | |||
| 2025-11-15T12:20 | 18708 | 66 | 266 | 36 | ||
| 2025-11-15T12:21 | 18737 | 66 | -54.2 | |||
| 2025-11-15T12:21 | 18836 | 65 | -52.6 | |||
| 2025-11-15T12:21 | 18978 | 64 | 276 | 35 | ||
| 2025-11-15T12:22 | 19287 | 61 | -54.5 | |||
| 2025-11-15T12:22 | 19404 | 59 | 280 | 26 | ||
| 2025-11-15T12:23 | 19673 | 57 | 279 | 25 | ||
| 2025-11-15T12:23 | 19760 | 56 | -54.0 | |||
| 2025-11-15T12:24 | 20026 | 54 | 263 | 19 | ||
| 2025-11-15T12:24 | 20089 | 53 | -54.8 | |||
| 2025-11-15T12:25 | 20347 | 51 | -52.2 | |||
| 2025-11-15T12:25 | 20394 | 51 | 254 | 23 | ||
| 2025-11-15T12:26 | 20757 | 48 | 239 | 23 | ||
| 2025-11-15T12:26 | 21068 | 46 | -56.7 | 256 | 25 | |
| 2025-11-15T12:27 | 21513 | 43 | 275 | 17 | ||
| 2025-11-15T12:28 | 21750 | 41 | -60.1 | 275 | 17 | |
| 2025-11-15T23:30 | 18 | 1026 | 3.8 | -1.6 | 120 | 1 |
| 2025-11-15T23:30 | 22 | 1026 | 4.3 | -1.9 | 0 | 0 |
| 2025-11-15T23:30 | 31 | 1025 | 4.1 | -2.1 | ||
| 2025-11-15T23:30 | 45 | 1023 | 3.1 | -3.0 | ||
| 2025-11-15T23:30 | 123 | 1013 | 2.7 | -3.9 | ||
| 2025-11-15T23:30 | 150 | 1010 | 4.6 | -3.9 | ||
| 2025-11-15T23:31 | 326 | 988 | 230 | 3 | ||
| 2025-11-15T23:31 | 464 | 971 | 2.5 | -5.6 | ||
| 2025-11-15T23:31 | 475 | 970 | 210 | 2 | ||
| 2025-11-15T23:32 | 796 | 932 | 279 | 3 | ||
| 2025-11-15T23:33 | 1063 | 902 | 287 | 7 | ||
| 2025-11-15T23:34 | 1212 | 885 | -3.4 | -10.9 | ||
| 2025-11-15T23:34 | 1320 | 873 | 295 | 9 | ||
| 2025-11-15T23:34 | 1336 | 871 | -2.7 | -29.2 | ||
| 2025-11-15T23:35 | 1517 | 852 | -3.7 | -17.7 | ||
| 2025-11-15T23:35 | 1641 | 838 | 302 | 9 | ||
| 2025-11-15T23:35 | 1694 | 833 | -4.9 | -16.4 | ||
| 2025-11-15T23:36 | 1897 | 811 | -6.3 | -15.3 | ||
| 2025-11-15T23:36 | 1908 | 810 | 307 | 10 | ||
| 2025-11-15T23:37 | 2150 | 786 | -6.2 | -25.0 | ||
| 2025-11-15T23:37 | 2166 | 784 | 294 | 11 | ||
| 2025-11-15T23:37 | 2247 | 776 | -5.5 | -28.1 | ||
| 2025-11-15T23:37 | 2331 | 768 | -5.5 | -23.9 | ||
| 2025-11-15T23:38 | 2446 | 757 | -6.5 | -21.2 | ||
| 2025-11-15T23:38 | 2495 | 752 | 307 | 11 | ||
| 2025-11-15T23:38 | 2668 | 735 | -8.0 | -22.9 | ||
| 2025-11-15T23:38 | 2746 | 728 | 301 | 11 | ||
| 2025-11-15T23:39 | 2883 | 715 | -9.0 | -19.3 | ||
| 2025-11-15T23:39 | 3092 | 696 | 300 | 11 | ||
| 2025-11-15T23:40 | 3412 | 667 | -12.7 | -19.9 | ||
| 2025-11-15T23:40 | 3435 | 665 | 293 | 12 | ||
| 2025-11-15T23:41 | 3631 | 648 | 290 | 14 | ||
| 2025-11-15T23:41 | 3696 | 643 | -15.1 | -20.8 | ||
| 2025-11-15T23:41 | 3760 | 638 | -15.1 | -24.1 | ||
| 2025-11-15T23:41 | 3771 | 637 | 301 | 17 | ||
| 2025-11-15T23:42 | 3926 | 624 | 302 | 18 | ||
| 2025-11-15T23:42 | 3956 | 621 | -15.9 | -30.3 | ||
| 2025-11-15T23:42 | 4102 | 609 | 295 | 21 | ||
| 2025-11-15T23:43 | 4162 | 604 | -17.4 | -30.2 | ||
| 2025-11-15T23:43 | 4465 | 580 | 285 | 22 | ||
| 2025-11-15T23:44 | 4600 | 570 | -20.7 | -32.2 | ||
| 2025-11-15T23:44 | 4814 | 554 | 287 | 20 | ||
| 2025-11-15T23:45 | 4968 | 542 | -23.5 | -34.7 | ||
| 2025-11-15T23:45 | 5052 | 536 | 283 | 23 | ||
| 2025-11-15T23:45 | 5183 | 526 | 283 | 25 | ||
| 2025-11-15T23:46 | 5253 | 521 | -25.0 | -36.6 | ||
| 2025-11-15T23:46 | 5534 | 501 | 287 | 28 | ||
| 2025-11-15T23:47 | 5575 | 499 | -27.5 | -36.8 | ||
| 2025-11-15T23:47 | 5706 | 490 | -28.4 | -32.8 | ||
| 2025-11-15T23:47 | 5786 | 484 | -29.0 | -33.4 | ||
| 2025-11-15T23:47 | 5831 | 481 | -29.3 | -34.4 | ||
| 2025-11-15T23:47 | 5843 | 480 | 285 | 33 | ||
| 2025-11-15T23:48 | 5947 | 473 | -30.2 | -33.6 | ||
| 2025-11-15T23:48 | 6045 | 467 | -31.2 | -31.8 | ||
| 2025-11-15T23:48 | 6166 | 459 | -32.0 | -34.4 | ||
| 2025-11-15T23:48 | 6189 | 457 | 285 | 34 | ||
| 2025-11-15T23:49 | 6407 | 443 | -34.2 | -36.4 | ||
| 2025-11-15T23:49 | 6495 | 438 | -34.8 | -38.6 | ||
| 2025-11-15T23:49 | 6513 | 437 | 285 | 33 | ||
| 2025-11-15T23:49 | 6572 | 433 | -35.4 | -39.6 | ||
| 2025-11-15T23:50 | 6861 | 415 | 284 | 33 | ||
| 2025-11-15T23:51 | 6946 | 410 | -38.8 | -42.4 | ||
| 2025-11-15T23:51 | 7079 | 402 | -40.0 | -43.1 | ||
| 2025-11-15T23:51 | 7200 | 395 | 288 | 35 | ||
| 2025-11-15T23:52 | 7365 | 386 | 288 | 35 | ||
| 2025-11-15T23:52 | 7392 | 384 | -42.6 | |||
| 2025-11-15T23:53 | 7670 | 369 | 287 | 34 | ||
| 2025-11-15T23:53 | 7765 | 363 | -44.3 | |||
| 2025-11-15T23:53 | 7851 | 359 | 285 | 36 | ||
| 2025-11-15T23:54 | 8117 | 345 | -45.3 | |||
| 2025-11-15T23:54 | 8141 | 344 | 283 | 39 | ||
| 2025-11-15T23:55 | 8423 | 329 | 280 | 40 | ||
| 2025-11-15T23:56 | 8559 | 323 | -48.0 | |||
| 2025-11-15T23:56 | 8720 | 315 | 276 | 42 | ||
| 2025-11-15T23:57 | 8848 | 309 | -49.5 | |||
| 2025-11-15T23:57 | 9035 | 300 | 279 | 42 | ||
| 2025-11-15T23:58 | 9344 | 286 | 282 | 41 | ||
| 2025-11-15T23:59 | 9572 | 276 | -54.2 | |||
| 2025-11-15T23:59 | 9656 | 273 | 282 | 39 | ||
| 2025-11-16T00:00 | 9843 | 265 | 274 | 41 | ||
| 2025-11-16T00:00 | 10019 | 258 | -55.7 | |||
| 2025-11-16T00:00 | 10086 | 255 | 274 | 48 | ||
| 2025-11-16T00:01 | 10300 | 246 | 277 | 52 | ||
| 2025-11-16T00:02 | 10449 | 241 | -54.6 | |||
| 2025-11-16T00:02 | 10611 | 235 | 276 | 51 | ||
| 2025-11-16T00:02 | 10685 | 232 | -54.0 | |||
| 2025-11-16T00:03 | 10926 | 223 | 277 | 54 | ||
| 2025-11-16T00:03 | 11004 | 221 | -53.5 | |||
| 2025-11-16T00:04 | 11104 | 217 | -52.2 | |||
| 2025-11-16T00:04 | 11279 | 211 | 273 | 53 | ||
| 2025-11-16T00:05 | 11446 | 206 | -53.6 | |||
| 2025-11-16T00:05 | 11527 | 204 | 270 | 53 | ||
| 2025-11-16T00:06 | 11770 | 196 | -54.0 | |||
| 2025-11-16T00:06 | 11856 | 193 | 275 | 56 | ||
| 2025-11-16T00:06 | 11930 | 191 | -53.0 | |||
| 2025-11-16T00:07 | 12172 | 184 | 271 | 55 | ||
| 2025-11-16T00:07 | 12351 | 179 | -53.3 | |||
| 2025-11-16T00:08 | 12477 | 176 | 275 | 55 | ||
| 2025-11-16T00:09 | 12702 | 170 | -52.2 | |||
| 2025-11-16T00:09 | 12778 | 168 | 276 | 56 | ||
| 2025-11-16T00:10 | 13031 | 161 | -52.2 | |||
| 2025-11-16T00:10 | 13082 | 160 | 276 | 53 | ||
| 2025-11-16T00:11 | 13283 | 155 | -52.6 | |||
| 2025-11-16T00:11 | 13392 | 152 | 276 | 55 | ||
| 2025-11-16T00:12 | 13709 | 145 | 279 | 53 | ||
| 2025-11-16T00:13 | 14029 | 138 | 279 | 50 | ||
| 2025-11-16T00:13 | 14204 | 134 | -56.9 | |||
| 2025-11-16T00:14 | 14339 | 131 | 275 | 49 | ||
| 2025-11-16T00:14 | 14397 | 130 | -56.4 | |||
| 2025-11-16T00:15 | 14657 | 125 | 278 | 52 | ||
| 2025-11-16T00:15 | 14780 | 123 | -56.6 | |||
| 2025-11-16T00:15 | 14814 | 122 | 280 | 50 | ||
| 2025-11-16T00:16 | 15001 | 118 | -56.6 | |||
| 2025-11-16T00:16 | 15146 | 116 | 280 | 40 | ||
| 2025-11-16T00:17 | 15337 | 112 | -56.8 | |||
| 2025-11-16T00:17 | 15473 | 110 | 280 | 39 | ||
| 2025-11-16T00:18 | 15581 | 108 | -56.6 | |||
| 2025-11-16T00:18 | 15717 | 106 | -57.0 | |||
| 2025-11-16T00:18 | 15801 | 104 | 268 | 34 | ||
| 2025-11-16T00:19 | 16111 | 99 | 261 | 38 | ||
| 2025-11-16T00:20 | 16318 | 96 | 262 | 43 | ||
| 2025-11-16T00:20 | 16482 | 94 | -57.1 | |||
| 2025-11-16T00:20 | 16546 | 93 | 267 | 42 | ||
| 2025-11-16T00:21 | 16670 | 91 | -56.5 | |||
| 2025-11-16T00:21 | 16806 | 89 | 270 | 36 | ||
| 2025-11-16T00:22 | 17033 | 86 | 271 | 36 | ||
| 2025-11-16T00:22 | 17059 | 85 | -55.8 | |||
| 2025-11-16T00:23 | 17386 | 81 | -57.0 | |||
| 2025-11-16T00:23 | 17418 | 81 | 272 | 41 | ||
| 2025-11-16T00:23 | 17683 | 77 | 277 | 33 | ||
| 2025-11-16T00:24 | 17824 | 76 | -56.6 | |||
| 2025-11-16T00:24 | 18020 | 73 | 280 | 33 | ||
| 2025-11-16T00:25 | 18284 | 70 | 272 | 26 | ||
| 2025-11-16T00:25 | 18339 | 70 | -55.9 | |||
| 2025-11-16T00:26 | 18430 | 69 | 276 | 25 | ||
| 2025-11-16T00:26 | 18551 | 68 | -53.7 | |||
| 2025-11-16T00:26 | 18627 | 67 | 267 | 15 | ||
| 2025-11-16T00:27 | 18911 | 64 | 256 | 15 | ||
| 2025-11-16T00:28 | 19208 | 61 | -56.0 | |||
| 2025-11-16T00:28 | 19240 | 61 | 262 | 21 | ||
| 2025-11-16T00:29 | 19553 | 58 | 257 | 21 | ||
| 2025-11-16T00:29 | 19775 | 56 | -56.3 | |||
| 2025-11-16T00:30 | 19929 | 54 | 262 | 23 | ||
| 2025-11-16T00:30 | 20069 | 53 | -53.9 | |||
| 2025-11-16T00:30 | 20240 | 52 | 275 | 23 | ||
| 2025-11-16T00:31 | 20278 | 52 | -53.7 | |||
| 2025-11-16T00:31 | 20621 | 49 | 279 | 22 | ||
| 2025-11-16T00:32 | 20927 | 47 | 286 | 21 | ||
| 2025-11-16T00:32 | 20959 | 46 | -57.0 | |||
| 2025-11-16T00:33 | 21324 | 44 | 286 | 20 | ||
| 2025-11-16T00:34 | 21713 | 41 | 260 | 16 | ||
| 2025-11-16T00:35 | 22050 | 39 | 237 | 20 | ||
| 2025-11-16T00:36 | 22437 | 37 | 274 | 18 | ||
| 2025-11-16T00:37 | 22613 | 36 | -55.2 | |||
| 2025-11-16T00:37 | 22812 | 35 | -55.3 | 280 | 16 | |
| 2025-11-16T00:37 | 22941 | 34 | -52.9 | |||
| 2025-11-16T00:38 | 22980 | 34 | 272 | 12 | ||
| 2025-11-16T00:38 | 23214 | 33 | 261 | 13 | ||
| 2025-11-16T00:39 | 23623 | 31 | -53.9 | 291 | 13 | |
| 2025-11-16T00:40 | 24038 | 29 | 290 | 19 | ||
| 2025-11-16T00:41 | 24305 | 27 | -56.8 | |||
| 2025-11-16T00:41 | 24423 | 27 | -54.3 | |||
| 2025-11-16T00:41 | 24450 | 27 | 307 | 20 | ||
| 2025-11-16T00:42 | 24668 | 26 | 320 | 14 | ||
| 2025-11-16T00:42 | 24692 | 26 | -53.8 | |||
| 2025-11-16T00:42 | 24841 | 25 | 310 | 5 | ||
| 2025-11-16T00:42 | 24946 | 25 | 295 | 4 | ||
| 2025-11-16T00:43 | 25049 | 24 | -52.9 | |||
| 2025-11-16T00:43 | 25077 | 24 | 315 | 2 | ||
| 2025-11-16T00:43 | 25208 | 24 | 299 | 3 | ||
| 2025-11-16T00:43 | 25320 | 23 | 305 | 7 | ||
| 2025-11-16T00:43 | 25404 | 23 | 300 | 7 | ||
| 2025-11-16T00:44 | 25457 | 23 | -53.5 | 280 | 4 | |
| 2025-11-16T00:44 | 25516 | 23 | 223 | 4 | ||
| 2025-11-16T00:44 | 25571 | 23 | -51.2 | |||
| 2025-11-16T00:45 | 25866 | 22 | 222 | 7 | ||
| 2025-11-16T00:45 | 26170 | 21 | 264 | 6 | ||
| 2025-11-16T00:46 | 26197 | 20 | -54.3 | 271 | 6 | |
| 2025-11-16T11:30 | 18 | 1019 | 6.7 | 2.0 | 120 | 2 |
| 2025-11-16T11:30 | 22 | 1019 | 6.8 | 1.7 | 0 | 0 |
| 2025-11-16T11:30 | 109 | 1008 | 126 | 3 | ||
| 2025-11-16T11:30 | 145 | 1004 | 6.2 | 1.1 | ||
| 2025-11-16T11:31 | 183 | 999 | 6.7 | 1.2 | ||
| 2025-11-16T11:31 | 251 | 991 | 6.7 | 1.0 | ||
| 2025-11-16T11:31 | 264 | 989 | 179 | 7 | ||
| 2025-11-16T11:32 | 585 | 951 | 5.0 | -2.6 | ||
| 2025-11-16T11:32 | 591 | 950 | 185 | 12 | ||
| 2025-11-16T11:32 | 780 | 929 | 204 | 10 | ||
| 2025-11-16T11:32 | 942 | 910 | 3.0 | -7.2 | ||
| 2025-11-16T11:33 | 1007 | 903 | 209 | 13 | ||
| 2025-11-16T11:33 | 1135 | 889 | 1.5 | -8.6 | ||
| 2025-11-16T11:33 | 1253 | 876 | 226 | 17 | ||
| 2025-11-16T11:33 | 1279 | 873 | 2.6 | -7.6 | ||
| 2025-11-16T11:34 | 1486 | 851 | 1.4 | -3.9 | ||
| 2025-11-16T11:34 | 1661 | 833 | 241 | 14 | ||
| 2025-11-16T11:35 | 1901 | 808 | -2.1 | -5.4 | ||
| 2025-11-16T11:35 | 1996 | 798 | -1.6 | -10.9 | ||
| 2025-11-16T11:35 | 2074 | 790 | 254 | 10 | ||
| 2025-11-16T11:35 | 2108 | 787 | -2.0 | -14.4 | ||
| 2025-11-16T11:36 | 2195 | 778 | 285 | 8 | ||
| 2025-11-16T11:36 | 2373 | 761 | -4.1 | -14.6 | ||
| 2025-11-16T11:36 | 2537 | 745 | 270 | 10 | ||
| 2025-11-16T11:37 | 2559 | 743 | -5.0 | -15.1 | ||
| 2025-11-16T11:37 | 2822 | 719 | -7.2 | -15.9 | ||
| 2025-11-16T11:37 | 2841 | 717 | 253 | 11 | ||
| 2025-11-16T11:38 | 3114 | 692 | 255 | 14 | ||
| 2025-11-16T11:39 | 3158 | 688 | -9.4 | -17.2 | ||
| 2025-11-16T11:39 | 3296 | 676 | -9.1 | -18.6 | ||
| 2025-11-16T11:39 | 3369 | 670 | 252 | 15 | ||
| 2025-11-16T11:40 | 3497 | 659 | 254 | 20 | ||
| 2025-11-16T11:40 | 3512 | 657 | -10.5 | -19.7 | ||
| 2025-11-16T11:40 | 3604 | 649 | 255 | 17 | ||
| 2025-11-16T11:41 | 3898 | 625 | 263 | 22 | ||
| 2025-11-16T11:42 | 4151 | 605 | -15.7 | -21.0 | ||
| 2025-11-16T11:42 | 4283 | 594 | 262 | 23 | ||
| 2025-11-16T11:43 | 4634 | 567 | -20.3 | -22.9 | ||
| 2025-11-16T11:43 | 4709 | 561 | 264 | 25 | ||
| 2025-11-16T11:44 | 5113 | 531 | -24.2 | -27.1 | ||
| 2025-11-16T11:44 | 5157 | 528 | 266 | 27 | ||
| 2025-11-16T11:44 | 5387 | 511 | -26.5 | -29.0 | ||
| 2025-11-16T11:45 | 5547 | 500 | 267 | 30 | ||
| 2025-11-16T11:45 | 5632 | 494 | -28.6 | -32.1 | ||
| 2025-11-16T11:45 | 5712 | 489 | -29.2 | -34.0 | ||
| 2025-11-16T11:45 | 5790 | 483 | 267 | 30 | ||
| 2025-11-16T11:46 | 5875 | 478 | -29.7 | -41.8 | ||
| 2025-11-16T11:46 | 5973 | 471 | 269 | 34 | ||
| 2025-11-16T11:46 | 6115 | 462 | -31.7 | -38.1 | ||
| 2025-11-16T11:47 | 6358 | 446 | -33.6 | -39.2 | ||
| 2025-11-16T11:47 | 6377 | 445 | 264 | 33 | ||
| 2025-11-16T11:47 | 6536 | 435 | -34.9 | -39.0 | ||
| 2025-11-16T11:48 | 6704 | 424 | -36.1 | -41.2 | ||
| 2025-11-16T11:48 | 6761 | 421 | 268 | 33 | ||
| 2025-11-16T11:48 | 6948 | 410 | -38.3 | -43.5 | ||
| 2025-11-16T11:49 | 7018 | 406 | -38.7 | -45.1 | ||
| 2025-11-16T11:49 | 7136 | 399 | 273 | 33 | ||
| 2025-11-16T11:49 | 7143 | 398 | -39.5 | -47.6 | ||
| 2025-11-16T11:49 | 7200 | 395 | -40.0 | -48.2 | ||
| 2025-11-16T11:50 | 7498 | 378 | 270 | 34 | ||
| 2025-11-16T11:51 | 7777 | 363 | -43.9 | |||
| 2025-11-16T11:51 | 7855 | 358 | 269 | 40 | ||
| 2025-11-16T11:52 | 8166 | 342 | -46.7 | |||
| 2025-11-16T11:52 | 8229 | 339 | 271 | 40 | ||
| 2025-11-16T11:52 | 8448 | 328 | -48.4 | |||
| 2025-11-16T11:53 | 8595 | 321 | -49.2 | |||
| 2025-11-16T11:53 | 8622 | 319 | 274 | 44 | ||
| 2025-11-16T11:54 | 8961 | 303 | -50.8 | |||
| 2025-11-16T11:54 | 9036 | 300 | 275 | 49 | ||
| 2025-11-16T11:55 | 9418 | 282 | 272 | 47 | ||
| 2025-11-16T11:56 | 9777 | 267 | 270 | 49 | ||
| 2025-11-16T11:57 | 10103 | 254 | -57.3 | |||
| 2025-11-16T11:57 | 10168 | 251 | 268 | 49 | ||
| 2025-11-16T11:58 | 10529 | 237 | 268 | 58 | ||
| 2025-11-16T11:58 | 10654 | 232 | -56.2 | |||
| 2025-11-16T11:59 | 10827 | 226 | 269 | 55 | ||
| 2025-11-16T11:59 | 11069 | 218 | 270 | 57 | ||
| 2025-11-16T12:00 | 11253 | 212 | 271 | 59 | ||
| 2025-11-16T12:00 | 11378 | 207 | 271 | 59 | ||
| 2025-11-16T12:00 | 11384 | 207 | -53.9 | |||
| 2025-11-16T12:01 | 11580 | 201 | 272 | 59 | ||
| 2025-11-16T12:02 | 11872 | 192 | 270 | 56 | ||
| 2025-11-16T12:02 | 11984 | 189 | -53.4 | |||
| 2025-11-16T12:03 | 12203 | 182 | 272 | 55 | ||
| 2025-11-16T12:03 | 12374 | 178 | 271 | 57 | ||
| 2025-11-16T12:04 | 12680 | 169 | 271 | 55 | ||
| 2025-11-16T12:05 | 12743 | 168 | -54.0 | |||
| 2025-11-16T12:05 | 12949 | 162 | 269 | 56 | ||
| 2025-11-16T12:06 | 13127 | 158 | -54.5 | |||
| 2025-11-16T12:06 | 13179 | 157 | 270 | 59 | ||
| 2025-11-16T12:06 | 13346 | 153 | 270 | 54 | ||
| 2025-11-16T12:07 | 13631 | 146 | 273 | 58 | ||
| 2025-11-16T12:07 | 13655 | 145 | -56.3 | |||
| 2025-11-16T12:08 | 13977 | 138 | 275 | 49 | ||
| 2025-11-16T12:08 | 14081 | 136 | -54.9 | |||
| 2025-11-16T12:09 | 14192 | 134 | -55.1 | |||
| 2025-11-16T12:09 | 14325 | 131 | 277 | 45 | ||
| 2025-11-16T12:10 | 14584 | 126 | -54.8 | |||
| 2025-11-16T12:10 | 14646 | 125 | 269 | 40 | ||
| 2025-11-16T12:11 | 14852 | 121 | -55.2 | |||
| 2025-11-16T12:11 | 14931 | 119 | 273 | 36 | ||
| 2025-11-16T12:12 | 15275 | 113 | 265 | 41 | ||
| 2025-11-16T12:12 | 15413 | 110 | -57.8 | |||
| 2025-11-16T12:13 | 15512 | 109 | 267 | 39 | ||
| 2025-11-16T12:13 | 15775 | 104 | -57.8 | |||
| 2025-11-16T12:14 | 15854 | 103 | 265 | 37 | ||
| 2025-11-16T12:14 | 15881 | 102 | -56.6 | |||
| 2025-11-16T12:14 | 15997 | 101 | -56.2 | |||
| 2025-11-16T12:14 | 16060 | 100 | 256 | 34 | ||
| 2025-11-16T12:15 | 16182 | 98 | 255 | 36 | ||
| 2025-11-16T12:15 | 16276 | 96 | -56.7 | |||
| 2025-11-16T12:16 | 16521 | 93 | 260 | 42 | ||
| 2025-11-16T12:17 | 16852 | 88 | -55.6 | |||
| 2025-11-16T12:17 | 16871 | 88 | 263 | 36 | ||
| 2025-11-16T12:18 | 17260 | 83 | 267 | 33 | ||
| 2025-11-16T12:18 | 17319 | 82 | -56.9 | |||
| 2025-11-16T12:18 | 17501 | 79 | 269 | 33 | ||
| 2025-11-16T12:18 | 17558 | 79 | -56.3 | |||
| 2025-11-16T12:19 | 17656 | 78 | 265 | 28 | ||
| 2025-11-16T12:19 | 17898 | 75 | -55.2 | |||
| 2025-11-16T12:20 | 18009 | 73 | 271 | 30 | ||
| 2025-11-16T12:20 | 18104 | 72 | -55.8 | |||
| 2025-11-16T12:21 | 18365 | 69 | 258 | 30 | ||
| 2025-11-16T12:21 | 18403 | 69 | -55.6 | |||
| 2025-11-16T12:22 | 18706 | 66 | -56.3 | |||
| 2025-11-16T12:22 | 18734 | 65 | 261 | 31 | ||
| 2025-11-16T12:22 | 18982 | 63 | 269 | 28 | ||
| 2025-11-16T12:23 | 19074 | 62 | -54.5 | |||
| 2025-11-16T12:23 | 19214 | 61 | -52.2 | 261 | 28 | |
| 2025-11-16T12:23 | 19276 | 60 | -51.3 | |||
| 2025-11-16T12:23 | 19332 | 60 | 268 | 27 | ||
| 2025-11-16T12:23 | 19351 | 59 | -48.0 | |||
| 2025-11-16T12:24 | 19510 | 58 | 267 | 15 | ||
| 2025-11-16T12:25 | 19860 | 55 | 242 | 14 | ||
| 2025-11-16T12:26 | 20211 | 52 | -51.3 | 237 | 13 | |
| 2025-11-16T12:27 | 20584 | 49 | 256 | 14 | ||
| 2025-11-16T12:27 | 20752 | 48 | -54.1 | |||
| 2025-11-16T12:27 | 20780 | 48 | 268 | 14 | ||
| 2025-11-16T12:28 | 20901 | 47 | 276 | 16 | ||
| 2025-11-16T12:28 | 21044 | 46 | -54.1 | |||
| 2025-11-16T12:29 | 21241 | 44 | 280 | 18 | ||
| 2025-11-16T12:30 | 21582 | 42 | 286 | 21 | ||
| 2025-11-16T12:30 | 21629 | 42 | -54.1 | |||
| 2025-11-16T12:30 | 21723 | 41 | -51.0 | |||
| 2025-11-16T12:30 | 21756 | 41 | 307 | 18 | ||
| 2025-11-16T12:31 | 22177 | 38 | 309 | 11 | ||
| 2025-11-16T12:32 | 22467 | 37 | -54.4 | 295 | 10 | |
| 2025-11-16T23:30 | 18 | 1004 | 5.3 | 3.3 | 320 | 9 |
| 2025-11-16T23:30 | 23 | 1004 | 5.2 | 3.1 | 324 | 1 |
| 2025-11-16T23:30 | 49 | 1000 | 338 | 4 | ||
| 2025-11-16T23:30 | 148 | 988 | 315 | 17 | ||
| 2025-11-16T23:31 | 242 | 977 | 2.9 | 1.3 | ||
| 2025-11-16T23:31 | 437 | 954 | 314 | 17 | ||
| 2025-11-16T23:32 | 516 | 944 | 1.5 | -0.4 | ||
| 2025-11-16T23:32 | 634 | 931 | 1.0 | -1.1 | ||
| 2025-11-16T23:32 | 677 | 926 | 302 | 15 | ||
| 2025-11-16T23:32 | 716 | 921 | 1.0 | -0.9 | ||
| 2025-11-16T23:33 | 910 | 899 | -0.4 | -1.4 | ||
| 2025-11-16T23:33 | 925 | 898 | 274 | 11 | ||
| 2025-11-16T23:33 | 945 | 895 | 0.1 | -1.0 | ||
| 2025-11-16T23:34 | 1067 | 882 | -0.2 | -1.3 | ||
| 2025-11-16T23:34 | 1218 | 865 | 270 | 8 | ||
| 2025-11-16T23:34 | 1323 | 854 | -1.4 | -2.2 | ||
| 2025-11-16T23:35 | 1453 | 840 | -2.5 | -2.9 | ||
| 2025-11-16T23:35 | 1491 | 836 | 269 | 10 | ||
| 2025-11-16T23:35 | 1624 | 822 | -3.4 | -4.2 | ||
| 2025-11-16T23:36 | 1717 | 813 | -3.8 | -4.8 | ||
| 2025-11-16T23:36 | 1751 | 809 | 236 | 17 | ||
| 2025-11-16T23:36 | 1956 | 788 | -4.7 | -6.4 | ||
| 2025-11-16T23:36 | 2034 | 781 | 245 | 19 | ||
| 2025-11-16T23:37 | 2102 | 774 | -5.9 | -7.0 | ||
| 2025-11-16T23:37 | 2189 | 765 | -5.5 | -6.9 | ||
| 2025-11-16T23:37 | 2212 | 763 | 242 | 27 | ||
| 2025-11-16T23:38 | 2267 | 758 | -5.8 | -6.2 | ||
| 2025-11-16T23:38 | 2313 | 753 | 244 | 31 | ||
| 2025-11-16T23:38 | 2332 | 752 | -6.0 | -7.1 | ||
| 2025-11-16T23:38 | 2386 | 746 | -5.8 | -7.3 | ||
| 2025-11-16T23:39 | 2447 | 741 | -5.9 | -7.4 | ||
| 2025-11-16T23:39 | 2527 | 733 | 240 | 37 | ||
| 2025-11-16T23:39 | 2546 | 731 | -6.3 | -8.0 | ||
| 2025-11-16T23:39 | 2658 | 721 | -6.9 | -8.7 | ||
| 2025-11-16T23:40 | 2835 | 705 | 242 | 42 | ||
| 2025-11-16T23:41 | 2995 | 690 | -8.8 | -11.2 | ||
| 2025-11-16T23:41 | 3158 | 676 | -9.8 | -12.4 | ||
| 2025-11-16T23:41 | 3175 | 674 | 239 | 45 | ||
| 2025-11-16T23:42 | 3332 | 661 | -10.5 | -14.2 | ||
| 2025-11-16T23:42 | 3497 | 647 | -11.5 | -14.7 | ||
| 2025-11-16T23:42 | 3520 | 645 | 235 | 45 | ||
| 2025-11-16T23:43 | 3862 | 617 | 230 | 44 | ||
| 2025-11-16T23:43 | 3868 | 616 | -13.9 | -17.9 | ||
| 2025-11-16T23:43 | 3938 | 610 | -13.9 | -21.2 | ||
| 2025-11-16T23:44 | 4087 | 599 | 233 | 47 | ||
| 2025-11-16T23:44 | 4114 | 596 | -15.4 | -24.2 | ||
| 2025-11-16T23:45 | 4400 | 574 | 237 | 48 | ||
| 2025-11-16T23:46 | 4712 | 550 | 237 | 46 | ||
| 2025-11-16T23:46 | 4820 | 542 | -21.6 | -29.3 | ||
| 2025-11-16T23:47 | 5044 | 526 | 239 | 46 | ||
| 2025-11-16T23:47 | 5167 | 517 | -24.8 | -30.0 | ||
| 2025-11-16T23:48 | 5391 | 501 | 236 | 46 | ||
| 2025-11-16T23:48 | 5540 | 491 | -28.1 | -31.9 | ||
| 2025-11-16T23:48 | 5664 | 483 | 240 | 48 | ||
| 2025-11-16T23:49 | 5917 | 466 | -31.3 | -36.0 | ||
| 2025-11-16T23:49 | 6031 | 458 | 240 | 52 | ||
| 2025-11-16T23:50 | 6244 | 445 | -34.0 | -37.7 | ||
| 2025-11-16T23:50 | 6291 | 442 | 244 | 52 | ||
| 2025-11-16T23:51 | 6485 | 430 | 237 | 55 | ||
| 2025-11-16T23:51 | 6611 | 422 | -36.9 | -38.8 | ||
| 2025-11-16T23:51 | 6817 | 409 | -38.6 | -40.6 | ||
| 2025-11-16T23:52 | 6842 | 408 | 240 | 55 | ||
| 2025-11-16T23:52 | 7020 | 397 | -40.0 | -43.2 | ||
| 2025-11-16T23:52 | 7026 | 397 | -40.0 | -43.5 | ||
| 2025-11-16T23:53 | 7186 | 388 | 242 | 58 | ||
| 2025-11-16T23:53 | 7445 | 373 | -41.2 | |||
| 2025-11-16T23:54 | 7517 | 369 | 249 | 62 | ||
| 2025-11-16T23:54 | 7653 | 362 | 252 | 65 | ||
| 2025-11-16T23:55 | 7967 | 346 | 256 | 71 | ||
| 2025-11-16T23:56 | 8264 | 331 | -46.1 | |||
| 2025-11-16T23:56 | 8294 | 329 | 256 | 73 | ||
| 2025-11-16T23:57 | 8670 | 311 | 257 | 71 | ||
| 2025-11-16T23:58 | 8956 | 298 | 257 | 72 | ||
| 2025-11-16T23:58 | 9082 | 292 | -52.3 | |||
| 2025-11-16T23:59 | 9335 | 281 | 257 | 72 | ||
| 2025-11-17T00:00 | 9646 | 267 | -55.8 | |||
| 2025-11-17T00:00 | 9661 | 267 | 258 | 75 | ||
| 2025-11-17T00:00 | 9759 | 263 | -54.7 | |||
| 2025-11-17T00:01 | 9967 | 254 | 260 | 74 | ||
| 2025-11-17T00:01 | 10035 | 251 | -55.7 | |||
| 2025-11-17T00:01 | 10216 | 244 | -55.5 | |||
| 2025-11-17T00:02 | 10249 | 243 | 264 | 68 | ||
| 2025-11-17T00:02 | 10596 | 230 | -53.7 | |||
| 2025-11-17T00:03 | 10616 | 230 | 264 | 60 | ||
| 2025-11-17T00:03 | 10831 | 222 | 261 | 57 | ||
| 2025-11-17T00:03 | 10980 | 217 | -54.4 | |||
| 2025-11-17T00:04 | 11257 | 208 | 259 | 57 | ||
| 2025-11-17T00:05 | 11507 | 200 | -54.2 | |||
| 2025-11-17T00:05 | 11558 | 198 | 258 | 53 | ||
| 2025-11-17T00:06 | 11818 | 190 | 259 | 60 | ||
| 2025-11-17T00:06 | 11938 | 187 | 262 | 57 | ||
| 2025-11-17T00:06 | 12050 | 184 | -53.6 | |||
| 2025-11-17T00:07 | 12112 | 182 | 266 | 56 | ||
| 2025-11-17T00:08 | 12278 | 177 | -51.6 | |||
| 2025-11-17T00:08 | 12285 | 177 | 261 | 56 | ||
| 2025-11-17T00:08 | 12452 | 172 | -50.6 | |||
| 2025-11-17T00:08 | 12455 | 172 | 265 | 55 | ||
| 2025-11-17T00:09 | 12591 | 169 | -49.4 | |||
| 2025-11-17T00:09 | 12696 | 166 | 266 | 55 | ||
| 2025-11-17T00:10 | 12779 | 164 | -49.0 | |||
| 2025-11-17T00:10 | 12893 | 161 | 267 | 49 | ||
| 2025-11-17T00:10 | 13004 | 159 | -47.4 | |||
| 2025-11-17T00:11 | 13257 | 153 | 263 | 48 | ||
| 2025-11-17T00:11 | 13321 | 151 | -48.2 | |||
| 2025-11-17T00:12 | 13647 | 144 | 265 | 45 | ||
| 2025-11-17T00:13 | 13828 | 140 | -50.2 | |||
| 2025-11-17T00:13 | 13847 | 140 | 265 | 44 | ||
| 2025-11-17T00:13 | 14066 | 135 | -50.3 | |||
| 2025-11-17T00:13 | 14102 | 134 | 263 | 41 | ||
| 2025-11-17T00:14 | 14375 | 129 | 264 | 38 | ||
| 2025-11-17T00:14 | 14447 | 127 | -50.3 | |||
| 2025-11-17T00:15 | 14532 | 126 | 262 | 33 | ||
| 2025-11-17T00:15 | 14581 | 125 | -51.0 | |||
| 2025-11-17T00:16 | 14864 | 119 | 254 | 29 | ||
| 2025-11-17T00:16 | 15049 | 116 | -52.3 | |||
| 2025-11-17T00:17 | 15180 | 114 | 254 | 34 | ||
| 2025-11-17T00:17 | 15391 | 110 | -53.6 | |||
| 2025-11-17T00:18 | 15513 | 108 | 258 | 28 | ||
| 2025-11-17T00:18 | 15805 | 103 | -56.1 | |||
| 2025-11-17T00:19 | 15829 | 103 | 256 | 33 | ||
| 2025-11-17T00:19 | 16022 | 100 | 256 | 32 | ||
| 2025-11-17T00:19 | 16040 | 99 | -57.0 | |||
| 2025-11-17T00:20 | 16198 | 97 | 252 | 27 | ||
| 2025-11-17T00:20 | 16220 | 97 | -56.7 | |||
| 2025-11-17T00:20 | 16298 | 95 | -54.8 | |||
| 2025-11-17T00:20 | 16390 | 94 | 255 | 30 | ||
| 2025-11-17T00:21 | 16617 | 91 | 239 | 28 | ||
| 2025-11-17T00:21 | 16625 | 91 | -55.4 | |||
| 2025-11-17T00:21 | 16788 | 88 | -55.7 | |||
| 2025-11-17T00:22 | 16889 | 87 | 256 | 29 | ||
| 2025-11-17T00:22 | 17101 | 84 | -53.0 | |||
| 2025-11-17T00:23 | 17201 | 83 | -53.5 | 264 | 37 | |
| 2025-11-17T11:30 | 18 | 1004 | -0.3 | -2.0 | 180 | 2 |
| 2025-11-17T11:30 | 22 | 1004 | -0.4 | -2.1 | 0 | 0 |
| 2025-11-17T11:30 | 50 | 1000 | 159 | 3 | ||
| 2025-11-17T11:30 | 69 | 998 | -0.1 | -2.6 | ||
| 2025-11-17T11:30 | 105 | 993 | 178 | 3 | ||
| 2025-11-17T11:31 | 176 | 984 | 227 | 5 | ||
| 2025-11-17T11:31 | 264 | 974 | -1.6 | -4.6 | ||
| 2025-11-17T11:31 | 328 | 966 | 263 | 9 | ||
| 2025-11-17T11:32 | 446 | 952 | 259 | 11 | ||
| 2025-11-17T11:32 | 601 | 933 | -4.0 | -6.8 | ||
| 2025-11-17T11:32 | 689 | 923 | 272 | 15 | ||
| 2025-11-17T11:33 | 719 | 919 | -4.9 | -8.3 | ||
| 2025-11-17T11:33 | 857 | 903 | -5.7 | -9.6 | ||
| 2025-11-17T11:33 | 981 | 889 | 279 | 19 | ||
| 2025-11-17T11:34 | 1148 | 870 | -8.1 | -11.4 | ||
| 2025-11-17T11:35 | 1334 | 850 | 290 | 20 | ||
| 2025-11-17T11:36 | 1662 | 814 | 292 | 19 | ||
| 2025-11-17T11:36 | 1777 | 802 | -13.3 | -15.4 | ||
| 2025-11-17T11:36 | 1860 | 793 | -13.9 | -16.2 | ||
| 2025-11-17T11:37 | 1955 | 784 | 290 | 17 | ||
| 2025-11-17T11:37 | 2011 | 778 | -15.1 | -17.2 | ||
| 2025-11-17T11:37 | 2044 | 774 | -14.9 | -18.5 | ||
| 2025-11-17T11:37 | 2186 | 760 | -15.9 | -20.1 | ||
| 2025-11-17T11:37 | 2240 | 755 | 286 | 18 | ||
| 2025-11-17T11:38 | 2554 | 724 | 284 | 16 | ||
| 2025-11-17T11:39 | 2570 | 722 | -18.5 | -22.9 | ||
| 2025-11-17T11:39 | 2689 | 711 | -18.9 | -25.9 | ||
| 2025-11-17T11:39 | 2896 | 691 | 282 | 18 | ||
| 2025-11-17T11:40 | 3276 | 656 | 291 | 19 | ||
| 2025-11-17T11:41 | 3508 | 636 | -25.5 | -30.8 | ||
| 2025-11-17T11:41 | 3681 | 621 | 275 | 21 | ||
| 2025-11-17T11:42 | 3702 | 619 | -25.6 | -33.4 | ||
| 2025-11-17T11:42 | 4020 | 592 | -27.6 | -36.4 | ||
| 2025-11-17T11:42 | 4097 | 586 | 273 | 24 | ||
| 2025-11-17T11:43 | 4236 | 575 | -28.4 | -39.4 | ||
| 2025-11-17T11:43 | 4359 | 565 | -27.8 | -46.5 | ||
| 2025-11-17T11:43 | 4397 | 562 | 258 | 32 | ||
| 2025-11-17T11:43 | 4451 | 558 | -27.5 | -46.9 | ||
| 2025-11-17T11:44 | 4789 | 532 | -29.9 | -46.2 | ||
| 2025-11-17T11:44 | 4847 | 528 | 257 | 35 | ||
| 2025-11-17T11:45 | 5271 | 497 | 264 | 36 | ||
| 2025-11-17T11:46 | 5578 | 476 | -36.3 | -51.2 | ||
| 2025-11-17T11:46 | 5678 | 469 | 262 | 42 | ||
| 2025-11-17T11:47 | 6031 | 445 | -40.0 | -54.4 | ||
| 2025-11-17T11:47 | 6062 | 443 | 260 | 45 | ||
| 2025-11-17T11:48 | 6378 | 423 | -42.2 | |||
| 2025-11-17T11:48 | 6445 | 419 | 261 | 45 | ||
| 2025-11-17T11:49 | 6610 | 409 | -43.0 | |||
| 2025-11-17T11:49 | 6724 | 402 | 259 | 49 | ||
| 2025-11-17T11:49 | 6793 | 398 | -43.5 | |||
| 2025-11-17T11:49 | 6894 | 392 | -44.0 | |||
| 2025-11-17T11:50 | 7018 | 385 | -43.2 | |||
| 2025-11-17T11:50 | 7025 | 384 | 260 | 53 | ||
| 2025-11-17T11:50 | 7198 | 375 | 257 | 56 | ||
| 2025-11-17T11:50 | 7297 | 369 | -44.2 | |||
| 2025-11-17T11:50 | 7427 | 362 | -44.3 | |||
| 2025-11-17T11:51 | 7570 | 354 | -44.6 | |||
| 2025-11-17T11:51 | 7609 | 352 | 257 | 57 | ||
| 2025-11-17T11:51 | 7661 | 350 | -44.9 | |||
| 2025-11-17T11:52 | 7853 | 340 | 257 | 61 | ||
| 2025-11-17T11:52 | 7897 | 337 | -45.3 | |||
| 2025-11-17T11:52 | 7961 | 334 | -44.9 | |||
| 2025-11-17T11:52 | 8095 | 328 | -45.6 | |||
| 2025-11-17T11:52 | 8121 | 326 | 259 | 59 | ||
| 2025-11-17T11:53 | 8234 | 321 | -46.0 | |||
| 2025-11-17T11:53 | 8281 | 319 | 258 | 61 | ||
| 2025-11-17T11:53 | 8353 | 315 | -45.2 | |||
| 2025-11-17T11:54 | 8593 | 304 | -46.1 | |||
| 2025-11-17T11:54 | 8632 | 302 | 260 | 69 | ||
| 2025-11-17T11:54 | 8845 | 293 | -45.6 | |||
| 2025-11-17T11:55 | 9003 | 286 | 258 | 68 | ||
| 2025-11-17T11:55 | 9179 | 278 | -45.1 | |||
| 2025-11-17T11:56 | 9344 | 272 | 259 | 64 | ||
| 2025-11-17T11:56 | 9479 | 266 | -44.7 | |||
| 2025-11-17T11:57 | 9695 | 258 | 258 | 67 | ||
| 2025-11-17T11:57 | 9746 | 256 | -46.2 | |||
| 2025-11-17T11:57 | 9898 | 250 | 258 | 66 | ||
| 2025-11-17T11:58 | 10029 | 245 | -45.1 | |||
| 2025-11-17T11:58 | 10145 | 241 | 259 | 64 | ||
| 2025-11-17T11:59 | 10344 | 234 | -44.7 | |||
| 2025-11-17T11:59 | 10458 | 230 | 260 | 60 | ||
| 2025-11-17T11:59 | 10562 | 226 | 261 | 62 | ||
| 2025-11-17T12:00 | 10712 | 221 | -45.1 | |||
| 2025-11-17T12:00 | 10783 | 219 | 264 | 65 | ||
| 2025-11-17T12:01 | 10962 | 213 | -45.1 | |||
| 2025-11-17T12:01 | 10995 | 212 | 269 | 61 | ||
| 2025-11-17T12:01 | 11077 | 209 | -44.3 | |||
| 2025-11-17T12:02 | 11118 | 208 | 271 | 57 | ||
| 2025-11-17T12:03 | 11367 | 201 | 272 | 52 | ||
| 2025-11-17T12:03 | 11448 | 198 | -43.2 | |||
| 2025-11-17T12:04 | 11677 | 192 | 265 | 52 | ||
| 2025-11-17T12:04 | 11683 | 191 | -43.6 | |||
| 2025-11-17T12:04 | 11871 | 186 | 265 | 51 | ||
| 2025-11-17T12:04 | 11898 | 185 | -44.2 | |||
| 2025-11-17T12:05 | 12229 | 176 | -45.7 | |||
| 2025-11-17T12:05 | 12285 | 175 | 263 | 42 | ||
| 2025-11-17T12:05 | 12443 | 171 | -46.0 | |||
| 2025-11-17T12:06 | 12692 | 164 | 262 | 37 | ||
| 2025-11-17T12:06 | 12794 | 162 | -46.9 | |||
| 2025-11-17T12:07 | 13054 | 156 | 253 | 43 | ||
| 2025-11-17T12:07 | 13174 | 153 | -48.3 | |||
| 2025-11-17T12:08 | 13336 | 149 | 260 | 42 | ||
| 2025-11-17T12:09 | 13556 | 144 | 260 | 42 | ||
| 2025-11-17T12:09 | 13598 | 143 | -48.0 | |||
| 2025-11-17T12:10 | 13767 | 140 | 249 | 39 | ||
| 2025-11-17T12:10 | 13850 | 138 | -46.6 | |||
| 2025-11-17T12:11 | 13970 | 135 | -45.5 | |||
| 2025-11-17T12:11 | 14047 | 134 | 249 | 40 | ||
| 2025-11-17T12:11 | 14182 | 131 | -45.7 | |||
| 2025-11-17T12:12 | 14353 | 128 | 237 | 34 | ||
| 2025-11-17T12:12 | 14441 | 126 | -45.8 | |||
| 2025-11-17T12:13 | 14731 | 121 | 233 | 34 | ||
| 2025-11-17T12:13 | 14886 | 118 | -48.5 | |||
| 2025-11-17T12:14 | 15130 | 114 | 241 | 34 | ||
| 2025-11-17T12:15 | 15412 | 109 | -50.9 | |||
| 2025-11-17T12:15 | 15534 | 107 | 242 | 31 | ||
| 2025-11-17T12:16 | 15943 | 100 | 248 | 30 | ||
| 2025-11-17T12:17 | 16327 | 95 | 256 | 29 | ||
| 2025-11-17T12:18 | 16690 | 89 | 253 | 32 | ||
| 2025-11-17T12:18 | 16856 | 87 | -58.7 | |||
| 2025-11-17T12:19 | 17033 | 85 | 250 | 36 | ||
| 2025-11-17T12:19 | 17197 | 82 | -57.0 | |||
| 2025-11-17T12:20 | 17344 | 80 | 263 | 41 | ||
| 2025-11-17T12:20 | 17483 | 79 | 256 | 39 | ||
| 2025-11-17T12:20 | 17502 | 79 | -53.7 | 255 | 38 | |
| 2025-11-17T23:30 | 18 | 1006 | 0.2 | -5.4 | 320 | 4 |
| 2025-11-17T23:30 | 22 | 1006 | 0.7 | -5.3 | 0 | 0 |
| 2025-11-17T23:30 | 47 | 1003 | -0.3 | -6.5 | ||
| 2025-11-17T23:31 | 194 | 984 | 326 | 7 | ||
| 2025-11-17T23:31 | 251 | 977 | -2.8 | -6.8 | ||
| 2025-11-17T23:31 | 381 | 962 | -3.7 | -11.2 | ||
| 2025-11-17T23:31 | 447 | 953 | 300 | 9 | ||
| 2025-11-17T23:32 | 840 | 907 | 293 | 8 | ||
| 2025-11-17T23:33 | 995 | 889 | 290 | 10 | ||
| 2025-11-17T23:33 | 1163 | 870 | -10.8 | -15.4 | ||
| 2025-11-17T23:33 | 1247 | 860 | -10.7 | -16.8 | ||
| 2025-11-17T23:33 | 1322 | 852 | 280 | 16 | ||
| 2025-11-17T23:34 | 1585 | 823 | -13.6 | -18.1 | ||
| 2025-11-17T23:34 | 1725 | 808 | 304 | 11 | ||
| 2025-11-17T23:35 | 1874 | 792 | -15.4 | -17.2 | ||
| 2025-11-17T23:35 | 2139 | 765 | -17.4 | -19.6 | ||
| 2025-11-17T23:35 | 2154 | 763 | 318 | 11 | ||
| 2025-11-17T23:35 | 2210 | 757 | -17.8 | -21.2 | ||
| 2025-11-17T23:36 | 2251 | 753 | -18.1 | -22.2 | ||
| 2025-11-17T23:36 | 2305 | 748 | -18.7 | -22.0 | ||
| 2025-11-17T23:36 | 2379 | 740 | -19.4 | -23.5 | ||
| 2025-11-17T23:36 | 2485 | 730 | 299 | 11 | ||
| 2025-11-17T23:37 | 2679 | 711 | -22.0 | -24.9 | ||
| 2025-11-17T23:37 | 2705 | 709 | 297 | 16 | ||
| 2025-11-17T23:37 | 2837 | 696 | -23.0 | -27.8 | ||
| 2025-11-17T23:38 | 3086 | 673 | -25.2 | -29.4 | ||
| 2025-11-17T23:38 | 3092 | 672 | 303 | 17 | ||
| 2025-11-17T23:38 | 3186 | 663 | -25.6 | -31.4 | ||
| 2025-11-17T23:39 | 3398 | 644 | -26.3 | -42.2 | ||
| 2025-11-17T23:39 | 3464 | 639 | 283 | 17 | ||
| 2025-11-17T23:40 | 3814 | 608 | 287 | 14 | ||
| 2025-11-17T23:40 | 3949 | 597 | -29.9 | -44.4 | ||
| 2025-11-17T23:41 | 4162 | 579 | 295 | 13 | ||
| 2025-11-17T23:41 | 4207 | 575 | -31.7 | -44.5 | ||
| 2025-11-17T23:42 | 4493 | 552 | 298 | 12 | ||
| 2025-11-17T23:42 | 4610 | 543 | -35.2 | -44.5 | ||
| 2025-11-17T23:42 | 4688 | 537 | 287 | 11 | ||
| 2025-11-17T23:43 | 4817 | 527 | -36.3 | -50.8 | ||
| 2025-11-17T23:43 | 4974 | 516 | 271 | 12 | ||
| 2025-11-17T23:43 | 5034 | 511 | -37.7 | -53.8 | ||
| 2025-11-17T23:44 | 5121 | 505 | 259 | 14 | ||
| 2025-11-17T23:44 | 5155 | 502 | -37.7 | -58.1 | ||
| 2025-11-17T23:45 | 5479 | 479 | 273 | 21 | ||
| 2025-11-17T23:45 | 5486 | 478 | -40.0 | -60.0 | ||
| 2025-11-17T23:45 | 5794 | 457 | 267 | 27 | ||
| 2025-11-17T23:46 | 5854 | 453 | -40.5 | |||
| 2025-11-17T23:46 | 6035 | 441 | 269 | 31 | ||
| 2025-11-17T23:47 | 6272 | 426 | -40.3 | |||
| 2025-11-17T23:47 | 6435 | 416 | 269 | 42 | ||
| 2025-11-17T23:47 | 6524 | 411 | -41.1 | |||
| 2025-11-17T23:48 | 6739 | 398 | 269 | 44 | ||
| 2025-11-17T23:48 | 6805 | 394 | -43.7 | |||
| 2025-11-17T23:49 | 7149 | 374 | 267 | 47 | ||
| 2025-11-17T23:49 | 7356 | 363 | -46.3 | |||
| 2025-11-17T23:50 | 7517 | 354 | 266 | 45 | ||
| 2025-11-17T23:50 | 7620 | 349 | -46.6 | |||
| 2025-11-17T23:50 | 7714 | 344 | -46.2 | |||
| 2025-11-17T23:50 | 7747 | 342 | 262 | 46 | ||
| 2025-11-17T23:51 | 7786 | 340 | -45.7 | |||
| 2025-11-17T23:51 | 7961 | 331 | -46.0 | |||
| 2025-11-17T23:51 | 8092 | 325 | 268 | 46 | ||
| 2025-11-17T23:52 | 8130 | 323 | -46.7 | |||
| 2025-11-17T23:52 | 8289 | 315 | -46.4 | |||
| 2025-11-17T23:52 | 8388 | 311 | -46.8 | |||
| 2025-11-17T23:52 | 8460 | 307 | -46.8 | |||
| 2025-11-17T23:52 | 8503 | 305 | 262 | 46 | ||
| 2025-11-17T23:53 | 8618 | 300 | -47.5 | |||
| 2025-11-17T23:54 | 8927 | 286 | 264 | 46 | ||
| 2025-11-17T23:54 | 9227 | 274 | -47.3 | |||
| 2025-11-17T23:54 | 9292 | 271 | 262 | 47 | ||
| 2025-11-17T23:55 | 9455 | 264 | -46.3 | |||
| 2025-11-17T23:55 | 9520 | 262 | -45.1 | |||
| 2025-11-17T23:55 | 9647 | 257 | 267 | 47 | ||
| 2025-11-17T23:56 | 9866 | 248 | -45.9 | |||
| 2025-11-17T23:57 | 9977 | 244 | 266 | 46 | ||
| 2025-11-17T23:57 | 10255 | 234 | 267 | 47 | ||
| 2025-11-17T23:58 | 10368 | 230 | -44.7 | |||
| 2025-11-17T23:58 | 10570 | 224 | 267 | 43 | ||
| 2025-11-17T23:59 | 10775 | 217 | -45.3 | |||
| 2025-11-17T23:59 | 10923 | 212 | 265 | 42 | ||
| 2025-11-18T00:00 | 11143 | 205 | -47.0 | |||
| 2025-11-18T00:01 | 11331 | 199 | 267 | 42 | ||
| 2025-11-18T00:01 | 11644 | 190 | -50.1 | |||
| 2025-11-18T00:01 | 11702 | 188 | 265 | 42 | ||
| 2025-11-18T00:02 | 11902 | 183 | -49.8 | |||
| 2025-11-18T00:02 | 12053 | 179 | 263 | 43 | ||
| 2025-11-18T00:03 | 12082 | 178 | -50.3 | |||
| 2025-11-18T00:03 | 12247 | 173 | 266 | 45 | ||
| 2025-11-18T00:03 | 12365 | 170 | -51.1 | |||
| 2025-11-18T00:04 | 12467 | 168 | -49.5 | |||
| 2025-11-18T00:04 | 12545 | 166 | -49.2 | |||
| 2025-11-18T00:04 | 12556 | 165 | 266 | 42 | ||
| 2025-11-18T00:04 | 12709 | 162 | 263 | 39 | ||
| 2025-11-18T00:05 | 12760 | 160 | -48.3 | |||
| 2025-11-18T00:05 | 12979 | 155 | -48.9 | |||
| 2025-11-18T00:06 | 13120 | 152 | 254 | 44 | ||
| 2025-11-18T00:06 | 13209 | 150 | -50.1 | |||
| 2025-11-18T00:07 | 13522 | 143 | 258 | 38 | ||
| 2025-11-18T00:07 | 13791 | 137 | -51.1 | |||
| 2025-11-18T00:07 | 13851 | 136 | 257 | 38 | ||
| 2025-11-18T00:08 | 13927 | 134 | -50.0 | |||
| 2025-11-18T00:08 | 14084 | 131 | 257 | 33 | ||
| 2025-11-18T00:08 | 14150 | 130 | -50.3 | |||
| 2025-11-18T00:09 | 14416 | 124 | 252 | 36 | ||
| 2025-11-18T00:10 | 14664 | 120 | -52.5 | |||
| 2025-11-18T00:10 | 14697 | 119 | 248 | 36 | ||
| 2025-11-18T00:10 | 14790 | 117 | -51.5 | |||
| 2025-11-18T00:11 | 14964 | 114 | 247 | 32 | ||
| 2025-11-18T00:12 | 15180 | 111 | -51.5 | |||
| 2025-11-18T00:12 | 15260 | 109 | 237 | 36 | ||
| 2025-11-18T00:13 | 15505 | 105 | -52.9 | |||
| 2025-11-18T00:13 | 15548 | 105 | 244 | 38 | ||
| 2025-11-18T00:14 | 15836 | 100 | 251 | 40 | ||
| 2025-11-18T00:14 | 15901 | 99 | -53.7 | |||
| 2025-11-18T00:15 | 16025 | 97 | 258 | 36 | ||
| 2025-11-18T00:15 | 16168 | 95 | -51.8 | |||
| 2025-11-18T00:16 | 16338 | 93 | -50.7 | |||
| 2025-11-18T00:16 | 16406 | 92 | 260 | 36 | ||
| 2025-11-18T00:17 | 16824 | 86 | 259 | 38 | ||
| 2025-11-18T00:17 | 17114 | 82 | -52.7 | |||
| 2025-11-18T00:17 | 17124 | 82 | 269 | 36 | ||
| 2025-11-18T00:18 | 17398 | 79 | 272 | 29 | ||
| 2025-11-18T00:19 | 17580 | 76 | -53.0 | |||
| 2025-11-18T00:19 | 17760 | 74 | 272 | 28 | ||
| 2025-11-18T00:20 | 17935 | 72 | -53.3 | |||
| 2025-11-18T00:20 | 18025 | 71 | -50.6 | |||
| 2025-11-18T00:20 | 18079 | 71 | 259 | 33 | ||
| 2025-11-18T00:21 | 18260 | 69 | 270 | 32 | ||
| 2025-11-18T00:21 | 18336 | 68 | -48.3 | |||
| 2025-11-18T00:21 | 18374 | 68 | 269 | 29 | ||
| 2025-11-18T00:21 | 18474 | 67 | -48.2 | |||
| 2025-11-18T00:22 | 18701 | 64 | 253 | 37 | ||
| 2025-11-18T00:22 | 18735 | 64 | -48.5 | 254 | 37 | |
| 2025-11-18T11:30 | 18 | 1008 | -0.6 | -3.5 | 290 | 4 |
| 2025-11-18T11:30 | 22 | 1008 | -0.5 | -4.0 | 0 | 0 |
| 2025-11-18T11:30 | 147 | 992 | 294 | 5 | ||
| 2025-11-18T11:31 | 231 | 982 | -2.3 | -6.0 | ||
| 2025-11-18T11:31 | 286 | 975 | 304 | 11 | ||
| 2025-11-18T11:32 | 601 | 937 | 311 | 13 | ||
| 2025-11-18T11:32 | 677 | 928 | -6.0 | -8.4 | ||
| 2025-11-18T11:33 | 895 | 902 | -8.0 | -9.9 | ||
| 2025-11-18T11:33 | 934 | 898 | 318 | 16 | ||
| 2025-11-18T11:34 | 1233 | 864 | 315 | 17 | ||
| 2025-11-18T11:35 | 1511 | 833 | 313 | 15 | ||
| 2025-11-18T11:36 | 1812 | 801 | 309 | 15 | ||
| 2025-11-18T11:36 | 1942 | 787 | -15.7 | -16.8 | ||
| 2025-11-18T11:37 | 2042 | 777 | 322 | 13 | ||
| 2025-11-18T11:37 | 2121 | 768 | -17.0 | -18.8 | ||
| 2025-11-18T11:37 | 2160 | 764 | -17.4 | -28.1 | ||
| 2025-11-18T11:37 | 2219 | 758 | 327 | 15 | ||
| 2025-11-18T11:37 | 2267 | 754 | -17.9 | -32.4 | ||
| 2025-11-18T11:38 | 2573 | 723 | 338 | 14 | ||
| 2025-11-18T11:39 | 2699 | 711 | -17.9 | -34.0 | ||
| 2025-11-18T11:39 | 2778 | 704 | 330 | 18 | ||
| 2025-11-18T11:39 | 2906 | 692 | -18.9 | -35.8 | ||
| 2025-11-18T11:40 | 3144 | 670 | 323 | 18 | ||
| 2025-11-18T11:41 | 3437 | 644 | -22.6 | -41.6 | ||
| 2025-11-18T11:41 | 3507 | 638 | 325 | 19 | ||
| 2025-11-18T11:41 | 3560 | 633 | -22.5 | -45.0 | ||
| 2025-11-18T11:41 | 3753 | 617 | -23.3 | -47.5 | ||
| 2025-11-18T11:42 | 3858 | 608 | 326 | 18 | ||
| 2025-11-18T11:43 | 4191 | 581 | -26.2 | -44.6 | ||
| 2025-11-18T11:43 | 4197 | 580 | 330 | 18 | ||
| 2025-11-18T11:43 | 4354 | 568 | 326 | 16 | ||
| 2025-11-18T11:44 | 4716 | 540 | 327 | 15 | ||
| 2025-11-18T11:44 | 4810 | 532 | -31.3 | -44.5 | ||
| 2025-11-18T11:45 | 5052 | 515 | 342 | 12 | ||
| 2025-11-18T11:45 | 5070 | 513 | -32.6 | -40.8 | ||
| 2025-11-18T11:46 | 5200 | 504 | -33.0 | -41.1 | ||
| 2025-11-18T11:46 | 5334 | 494 | -33.5 | -44.0 | ||
| 2025-11-18T11:46 | 5428 | 488 | 332 | 12 | ||
| 2025-11-18T11:47 | 5597 | 476 | 335 | 10 | ||
| 2025-11-18T11:47 | 5653 | 472 | -36.5 | -46.7 | ||
| 2025-11-18T11:47 | 5888 | 456 | -38.5 | -48.8 | ||
| 2025-11-18T11:48 | 5960 | 451 | 314 | 10 | ||
| 2025-11-18T11:48 | 6069 | 444 | -40.0 | -51.0 | ||
| 2025-11-18T11:49 | 6329 | 428 | 331 | 10 | ||
| 2025-11-18T11:49 | 6468 | 419 | 330 | 13 | ||
| 2025-11-18T11:50 | 6681 | 406 | 333 | 11 | ||
| 2025-11-18T11:50 | 6946 | 390 | -47.7 | |||
| 2025-11-18T11:51 | 7036 | 385 | 355 | 10 | ||
| 2025-11-18T11:52 | 7411 | 363 | 353 | 8 | ||
| 2025-11-18T11:52 | 7490 | 359 | -51.4 | |||
| 2025-11-18T11:52 | 7612 | 352 | 327 | 9 | ||
| 2025-11-18T11:52 | 7618 | 352 | -52.0 | |||
| 2025-11-18T11:53 | 7788 | 343 | -52.9 | |||
| 2025-11-18T11:53 | 7889 | 337 | 331 | 14 | ||
| 2025-11-18T11:54 | 8157 | 324 | -54.6 | |||
| 2025-11-18T11:54 | 8263 | 318 | -54.9 | |||
| 2025-11-18T11:54 | 8269 | 318 | 347 | 12 | ||
| 2025-11-18T11:54 | 8322 | 315 | -53.9 | |||
| 2025-11-18T11:54 | 8436 | 310 | -54.5 | |||
| 2025-11-18T11:54 | 8468 | 308 | 318 | 13 | ||
| 2025-11-18T11:54 | 8493 | 307 | -52.1 | |||
| 2025-11-18T11:55 | 8595 | 302 | 297 | 18 | ||
| 2025-11-18T11:55 | 8620 | 301 | -51.1 | |||
| 2025-11-18T11:55 | 8835 | 291 | -49.3 | |||
| 2025-11-18T11:55 | 8842 | 291 | 291 | 18 | ||
| 2025-11-18T11:56 | 9242 | 274 | -48.5 | |||
| 2025-11-18T11:56 | 9249 | 273 | 288 | 20 | ||
| 2025-11-18T11:57 | 9606 | 259 | -47.3 | 283 | 17 | |
| 2025-11-18T11:58 | 9783 | 252 | 273 | 19 | ||
| 2025-11-18T11:58 | 9963 | 245 | 267 | 19 | ||
| 2025-11-18T11:59 | 10190 | 237 | 279 | 22 | ||
| 2025-11-18T11:59 | 10339 | 232 | 277 | 22 | ||
| 2025-11-18T12:00 | 10617 | 222 | -48.7 | |||
| 2025-11-18T12:00 | 10702 | 219 | 271 | 28 | ||
| 2025-11-18T12:01 | 10922 | 212 | 275 | 28 | ||
| 2025-11-18T12:01 | 11146 | 205 | 278 | 28 | ||
| 2025-11-18T12:01 | 11191 | 204 | -49.8 | |||
| 2025-11-18T12:02 | 11525 | 193 | -49.7 | |||
| 2025-11-18T12:02 | 11563 | 192 | 265 | 31 | ||
| 2025-11-18T12:03 | 11805 | 185 | 262 | 33 | ||
| 2025-11-18T12:03 | 12009 | 180 | 268 | 31 | ||
| 2025-11-18T12:03 | 12020 | 179 | -50.0 | |||
| 2025-11-18T12:04 | 12121 | 177 | -49.7 | |||
| 2025-11-18T12:04 | 12250 | 173 | 278 | 33 | ||
| 2025-11-18T12:05 | 12447 | 168 | -49.9 | |||
| 2025-11-18T12:05 | 12552 | 165 | 284 | 28 | ||
| 2025-11-18T12:06 | 12698 | 162 | -48.1 | |||
| 2025-11-18T12:06 | 12942 | 156 | 257 | 27 | ||
| 2025-11-18T12:07 | 13338 | 147 | 261 | 35 | ||
| 2025-11-18T12:07 | 13400 | 145 | -51.7 | |||
| 2025-11-18T12:08 | 13496 | 143 | -50.2 | |||
| 2025-11-18T12:08 | 13609 | 141 | 266 | 35 | ||
| 2025-11-18T12:09 | 13837 | 136 | -49.5 | |||
| 2025-11-18T12:09 | 13935 | 134 | 270 | 29 | ||
| 2025-11-18T12:09 | 13941 | 134 | -48.7 | |||
| 2025-11-18T12:09 | 14055 | 131 | -48.1 | |||
| 2025-11-18T12:10 | 14305 | 126 | 261 | 32 | ||
| 2025-11-18T12:11 | 14639 | 120 | 265 | 36 | ||
| 2025-11-18T12:11 | 14671 | 119 | -53.1 | |||
| 2025-11-18T12:12 | 14845 | 116 | -52.4 | |||
| 2025-11-18T12:12 | 14918 | 115 | 268 | 35 | ||
| 2025-11-18T12:13 | 15266 | 109 | 268 | 29 | ||
| 2025-11-18T12:13 | 15504 | 105 | -53.2 | |||
| 2025-11-18T12:14 | 15608 | 103 | 260 | 30 | ||
| 2025-11-18T12:14 | 15681 | 102 | -53.8 | |||
| 2025-11-18T12:15 | 15952 | 98 | -53.6 | |||
| 2025-11-18T12:15 | 15957 | 98 | 262 | 35 | ||
| 2025-11-18T12:15 | 16175 | 95 | -52.9 | |||
| 2025-11-18T12:16 | 16300 | 93 | 269 | 35 | ||
| 2025-11-18T12:16 | 16453 | 91 | -51.8 | |||
| 2025-11-18T12:17 | 16657 | 88 | 270 | 30 | ||
| 2025-11-18T12:17 | 16798 | 86 | -53.2 | |||
| 2025-11-18T12:17 | 16873 | 85 | 268 | 32 | ||
| 2025-11-18T12:18 | 17012 | 83 | -52.7 | |||
| 2025-11-18T12:18 | 17192 | 81 | -51.6 | |||
| 2025-11-18T12:18 | 17244 | 80 | 266 | 34 | ||
| 2025-11-18T12:19 | 17653 | 75 | 260 | 29 | ||
| 2025-11-18T12:20 | 17797 | 74 | -51.9 | |||
| 2025-11-18T12:20 | 17968 | 72 | -51.0 | |||
| 2025-11-18T12:20 | 18077 | 70 | 262 | 31 | ||
| 2025-11-18T12:21 | 18288 | 68 | -49.5 | |||
| 2025-11-18T12:21 | 18315 | 68 | 258 | 26 | ||
| 2025-11-18T12:22 | 18630 | 65 | 260 | 32 | ||
| 2025-11-18T12:22 | 18763 | 63 | -50.0 | |||
| 2025-11-18T12:23 | 18963 | 62 | 263 | 26 | ||
| 2025-11-18T12:23 | 19213 | 59 | -48.7 | |||
| 2025-11-18T12:23 | 19224 | 59 | 261 | 23 | ||
| 2025-11-18T12:24 | 19580 | 56 | -49.7 | |||
| 2025-11-18T12:24 | 19651 | 55 | 241 | 19 | ||
| 2025-11-18T12:26 | 20078 | 52 | 250 | 16 | ||
| 2025-11-18T12:26 | 20276 | 50 | 248 | 17 | ||
| 2025-11-18T12:27 | 20590 | 48 | 250 | 25 | ||
| 2025-11-18T12:27 | 20616 | 48 | -54.6 | |||
| 2025-11-18T12:27 | 20699 | 47 | 258 | 27 | ||
| 2025-11-18T12:28 | 20753 | 47 | -51.7 | |||
| 2025-11-18T12:28 | 20910 | 46 | 238 | 20 | ||
| 2025-11-18T12:28 | 21012 | 45 | -50.7 | |||
| 2025-11-18T12:29 | 21104 | 44 | -50.6 | 226 | 19 | |
| 2025-11-18T23:30 | 18 | 1013 | 1.4 | -7.6 | 250 | 2 |
| 2025-11-18T23:30 | 24 | 1013 | 1.7 | -8.1 | 0 | 0 |
| 2025-11-18T23:30 | 49 | 1009 | 1.3 | -8.8 | ||
| 2025-11-18T23:30 | 62 | 1008 | 273 | 4 | ||
| 2025-11-18T23:31 | 214 | 989 | 265 | 11 | ||
| 2025-11-18T23:31 | 321 | 976 | -1.7 | -10.0 | ||
| 2025-11-18T23:31 | 373 | 969 | 278 | 8 | ||
| 2025-11-18T23:32 | 540 | 949 | -3.7 | -11.2 | ||
| 2025-11-18T23:32 | 583 | 944 | 261 | 9 | ||
| 2025-11-18T23:32 | 807 | 917 | -6.0 | -12.1 | ||
| 2025-11-18T23:33 | 931 | 903 | 295 | 8 | ||
| 2025-11-18T23:34 | 1283 | 863 | -10.0 | -14.1 | 297 | 12 |
| 2025-11-18T23:34 | 1433 | 846 | -11.2 | -14.1 | ||
| 2025-11-18T23:35 | 1601 | 828 | -12.2 | -15.2 | ||
| 2025-11-18T23:35 | 1613 | 827 | 327 | 10 | ||
| 2025-11-18T23:35 | 1821 | 804 | -13.9 | -16.9 | ||
| 2025-11-18T23:35 | 1826 | 804 | 325 | 10 | ||
| 2025-11-18T23:36 | 1915 | 794 | -14.1 | -18.5 | ||
| 2025-11-18T23:36 | 1959 | 790 | 320 | 6 | ||
| 2025-11-18T23:36 | 2067 | 779 | -15.1 | -19.9 | ||
| 2025-11-18T23:36 | 2141 | 771 | -15.0 | -24.5 | ||
| 2025-11-18T23:37 | 2226 | 762 | 307 | 9 | ||
| 2025-11-18T23:37 | 2236 | 761 | -14.1 | -35.2 | ||
| 2025-11-18T23:37 | 2300 | 755 | -12.7 | -49.2 | ||
| 2025-11-18T23:37 | 2372 | 748 | -12.6 | -49.2 | ||
| 2025-11-18T23:37 | 2427 | 742 | -11.7 | -52.0 | ||
| 2025-11-18T23:37 | 2433 | 742 | 315 | 11 | ||
| 2025-11-18T23:37 | 2477 | 737 | -11.3 | -51.8 | ||
| 2025-11-18T23:38 | 2597 | 726 | 295 | 15 | ||
| 2025-11-18T23:38 | 2699 | 716 | -12.1 | -48.8 | ||
| 2025-11-18T23:38 | 2842 | 703 | -12.9 | -46.8 | ||
| 2025-11-18T23:39 | 2864 | 701 | 301 | 9 | ||
| 2025-11-18T23:39 | 2921 | 696 | -13.0 | -46.9 | ||
| 2025-11-18T23:39 | 3087 | 681 | 297 | 9 | ||
| 2025-11-18T23:40 | 3295 | 663 | 301 | 11 | ||
| 2025-11-18T23:40 | 3319 | 660 | -14.8 | -50.7 | ||
| 2025-11-18T23:40 | 3474 | 647 | 293 | 8 | ||
| 2025-11-18T23:40 | 3497 | 645 | -15.5 | -54.6 | ||
| 2025-11-18T23:41 | 3584 | 638 | 284 | 7 | ||
| 2025-11-18T23:41 | 3743 | 624 | 295 | 7 | ||
| 2025-11-18T23:42 | 4088 | 596 | 306 | 9 | ||
| 2025-11-18T23:43 | 4279 | 581 | -21.4 | -51.1 | ||
| 2025-11-18T23:43 | 4343 | 576 | 311 | 10 | ||
| 2025-11-18T23:43 | 4537 | 561 | 296 | 10 | ||
| 2025-11-18T23:44 | 4648 | 552 | -24.4 | -51.9 | ||
| 2025-11-18T23:44 | 4714 | 548 | 307 | 9 | ||
| 2025-11-18T23:45 | 5047 | 523 | -27.2 | -55.5 | ||
| 2025-11-18T23:45 | 5059 | 522 | 298 | 10 | ||
| 2025-11-18T23:46 | 5384 | 499 | 308 | 12 | ||
| 2025-11-18T23:47 | 5725 | 475 | 321 | 12 | ||
| 2025-11-18T23:48 | 6006 | 457 | -34.8 | -61.3 | ||
| 2025-11-18T23:48 | 6064 | 453 | 327 | 12 | ||
| 2025-11-18T23:48 | 6202 | 444 | 323 | 15 | ||
| 2025-11-18T23:49 | 6335 | 436 | -37.0 | -63.0 | ||
| 2025-11-18T23:49 | 6454 | 428 | 329 | 15 | ||
| 2025-11-18T23:50 | 6681 | 414 | -39.7 | -63.7 | ||
| 2025-11-18T23:50 | 6736 | 411 | 336 | 17 | ||
| 2025-11-18T23:50 | 6817 | 406 | -40.0 | -63.9 | ||
| 2025-11-18T23:50 | 6945 | 398 | -40.2 | |||
| 2025-11-18T23:51 | 7012 | 394 | 353 | 23 | ||
| 2025-11-18T23:51 | 7046 | 392 | -40.4 | |||
| 2025-11-18T23:51 | 7299 | 378 | -41.4 | |||
| 2025-11-18T23:52 | 7335 | 376 | 348 | 26 | ||
| 2025-11-18T23:52 | 7461 | 369 | 349 | 28 | ||
| 2025-11-18T23:52 | 7631 | 360 | 347 | 29 | ||
| 2025-11-18T23:53 | 7817 | 350 | -45.2 | |||
| 2025-11-18T23:54 | 7974 | 342 | 345 | 27 | ||
| 2025-11-18T23:54 | 8282 | 326 | -48.2 | |||
| 2025-11-18T23:55 | 8316 | 325 | 347 | 30 | ||
| 2025-11-18T23:55 | 8440 | 319 | -48.4 | |||
| 2025-11-18T23:55 | 8507 | 315 | -47.7 | |||
| 2025-11-18T23:55 | 8531 | 314 | 348 | 27 | ||
| 2025-11-18T23:56 | 8751 | 304 | -48.9 | |||
| 2025-11-18T23:56 | 8899 | 297 | 342 | 25 | ||
| 2025-11-18T23:57 | 9232 | 282 | 333 | 26 | ||
| 2025-11-18T23:58 | 9568 | 268 | 333 | 24 | ||
| 2025-11-18T23:59 | 9759 | 260 | -54.1 | |||
| 2025-11-18T23:59 | 9813 | 258 | 321 | 29 | ||
| 2025-11-18T23:59 | 9977 | 251 | -55.2 | |||
| 2025-11-18T23:59 | 10015 | 250 | 315 | 27 | ||
| 2025-11-19T00:00 | 10142 | 245 | -55.0 | |||
| 2025-11-19T00:00 | 10200 | 243 | 309 | 32 | ||
| 2025-11-19T00:01 | 10350 | 237 | -55.6 | |||
| 2025-11-19T00:01 | 10472 | 233 | 309 | 34 | ||
| 2025-11-19T00:01 | 10620 | 227 | -55.4 | |||
| 2025-11-19T00:02 | 10708 | 224 | 311 | 31 | ||
| 2025-11-19T00:02 | 10853 | 219 | -56.3 | |||
| 2025-11-19T00:03 | 11042 | 213 | 309 | 32 | ||
| 2025-11-19T00:03 | 11064 | 212 | -57.2 | |||
| 2025-11-19T00:03 | 11136 | 209 | -55.3 | |||
| 2025-11-19T00:03 | 11245 | 206 | 310 | 25 | ||
| 2025-11-19T00:04 | 11374 | 202 | -55.8 | |||
| 2025-11-19T00:04 | 11581 | 195 | 300 | 24 | ||
| 2025-11-19T00:05 | 11709 | 191 | -56.6 | |||
| 2025-11-19T00:05 | 11879 | 186 | 284 | 24 | ||
| 2025-11-19T00:05 | 11909 | 186 | -55.1 | |||
| 2025-11-19T00:06 | 12019 | 182 | -55.8 | |||
| 2025-11-19T00:06 | 12120 | 180 | -56.0 | |||
| 2025-11-19T00:06 | 12233 | 176 | 290 | 30 | ||
| 2025-11-19T00:07 | 12406 | 172 | -56.4 | |||
| 2025-11-19T00:07 | 12424 | 171 | 285 | 28 | ||
| 2025-11-19T00:08 | 12773 | 162 | 278 | 34 | ||
| 2025-11-19T00:09 | 13041 | 155 | -59.2 | |||
| 2025-11-19T00:09 | 13126 | 153 | 280 | 34 | ||
| 2025-11-19T00:09 | 13267 | 150 | -60.0 | |||
| 2025-11-19T00:09 | 13383 | 147 | -57.1 | |||
| 2025-11-19T00:10 | 13450 | 145 | -56.6 | |||
| 2025-11-19T00:10 | 13491 | 144 | 281 | 37 | ||
| 2025-11-19T00:10 | 13555 | 143 | -56.6 | |||
| 2025-11-19T00:10 | 13651 | 141 | 283 | 34 | ||
| 2025-11-19T00:10 | 13721 | 139 | -55.0 | |||
| 2025-11-19T00:11 | 13796 | 138 | -54.0 | |||
| 2025-11-19T00:11 | 13802 | 138 | 288 | 28 | ||
| 2025-11-19T00:11 | 14009 | 133 | 280 | 26 | ||
| 2025-11-19T00:11 | 14064 | 132 | -55.2 | |||
| 2025-11-19T00:12 | 14136 | 131 | 274 | 28 | ||
| 2025-11-19T00:12 | 14394 | 125 | -54.4 | |||
| 2025-11-19T00:12 | 14423 | 125 | 275 | 33 | ||
| 2025-11-19T00:13 | 14651 | 120 | 278 | 29 | ||
| 2025-11-19T00:14 | 14848 | 117 | -55.5 | |||
| 2025-11-19T00:14 | 14877 | 116 | 268 | 34 | ||
| 2025-11-19T00:15 | 15275 | 109 | 279 | 35 | ||
| 2025-11-19T00:15 | 15410 | 107 | -57.1 | |||
| 2025-11-19T00:15 | 15530 | 105 | 287 | 33 | ||
| 2025-11-19T00:16 | 15772 | 101 | 290 | 28 | ||
| 2025-11-19T00:17 | 15985 | 98 | -55.8 | |||
| 2025-11-19T00:17 | 16100 | 96 | 268 | 25 | ||
| 2025-11-19T00:18 | 16446 | 91 | 267 | 30 | ||
| 2025-11-19T00:18 | 16518 | 90 | -56.0 | |||
| 2025-11-19T00:19 | 16814 | 86 | -56.4 | |||
| 2025-11-19T00:19 | 16821 | 86 | 271 | 33 | ||
| 2025-11-19T00:20 | 17101 | 82 | -57.9 | |||
| 2025-11-19T00:20 | 17148 | 81 | 275 | 31 | ||
| 2025-11-19T00:20 | 17281 | 80 | 266 | 29 | ||
| 2025-11-19T00:21 | 17338 | 79 | -56.3 | |||
| 2025-11-19T00:21 | 17476 | 77 | 275 | 32 | ||
| 2025-11-19T00:22 | 17719 | 74 | 282 | 30 | ||
| 2025-11-19T00:22 | 17738 | 74 | -54.6 | |||
| 2025-11-19T00:22 | 17941 | 72 | 280 | 21 | ||
| 2025-11-19T00:23 | 18049 | 71 | -52.5 | |||
| 2025-11-19T00:23 | 18329 | 68 | 273 | 23 | ||
| 2025-11-19T00:25 | 18734 | 63 | 254 | 20 | ||
| 2025-11-19T00:25 | 18970 | 61 | -54.3 | |||
| 2025-11-19T00:25 | 19065 | 60 | 247 | 20 | ||
| 2025-11-19T00:26 | 19312 | 58 | -55.9 | |||
| 2025-11-19T00:26 | 19434 | 57 | 260 | 27 | ||
| 2025-11-19T00:27 | 19512 | 56 | -54.5 | |||
| 2025-11-19T00:27 | 19667 | 55 | -52.5 | |||
| 2025-11-19T00:27 | 19689 | 55 | 260 | 21 | ||
| 2025-11-19T00:27 | 19832 | 53 | 250 | 17 | ||
| 2025-11-19T00:28 | 20141 | 51 | 226 | 18 | ||
| 2025-11-19T00:29 | 20452 | 49 | -55.4 | |||
| 2025-11-19T00:29 | 20492 | 48 | 223 | 23 | ||
| 2025-11-19T00:30 | 20732 | 46 | -54.5 | 236 | 24 | |
| 2025-11-19T11:30 | 18 | 1017 | 2.6 | -3.7 | 150 | 3 |
| 2025-11-19T11:30 | 22 | 1016 | 2.6 | -4.4 | 0 | 0 |
| 2025-11-19T11:30 | 76 | 1009 | 189 | 3 | ||
| 2025-11-19T11:31 | 208 | 993 | 153 | 5 | ||
| 2025-11-19T11:31 | 225 | 991 | 1.3 | -5.6 | ||
| 2025-11-19T11:31 | 341 | 977 | 196 | 4 | ||
| 2025-11-19T11:31 | 508 | 957 | 207 | 3 | ||
| 2025-11-19T11:32 | 756 | 927 | 238 | 3 | ||
| 2025-11-19T11:33 | 966 | 903 | 259 | 5 | ||
| 2025-11-19T11:33 | 1224 | 874 | 291 | 4 | ||
| 2025-11-19T11:33 | 1236 | 872 | -6.6 | -7.0 | ||
| 2025-11-19T11:34 | 1472 | 847 | -8.0 | -8.7 | ||
| 2025-11-19T11:34 | 1490 | 845 | 281 | 9 | ||
| 2025-11-19T11:34 | 1544 | 839 | -7.8 | -10.2 | ||
| 2025-11-19T11:34 | 1568 | 836 | -7.1 | -12.6 | ||
| 2025-11-19T11:34 | 1598 | 833 | -5.0 | -13.6 | ||
| 2025-11-19T11:35 | 1678 | 825 | -2.7 | -12.7 | ||
| 2025-11-19T11:35 | 1703 | 822 | 317 | 12 | ||
| 2025-11-19T11:35 | 1801 | 812 | -3.2 | -13.5 | ||
| 2025-11-19T11:36 | 2075 | 784 | 312 | 11 | ||
| 2025-11-19T11:37 | 2445 | 748 | 301 | 11 | ||
| 2025-11-19T11:37 | 2494 | 743 | -7.4 | -16.5 | ||
| 2025-11-19T11:37 | 2591 | 734 | -7.8 | -19.7 | ||
| 2025-11-19T11:38 | 2793 | 715 | -7.4 | -26.0 | ||
| 2025-11-19T11:38 | 2811 | 713 | 318 | 13 | ||
| 2025-11-19T11:38 | 3003 | 696 | -7.7 | -27.4 | ||
| 2025-11-19T11:39 | 3184 | 680 | 314 | 13 | ||
| 2025-11-19T11:39 | 3229 | 676 | -9.3 | -25.7 | ||
| 2025-11-19T11:40 | 3514 | 651 | -11.5 | -29.5 | ||
| 2025-11-19T11:40 | 3564 | 647 | 315 | 13 | ||
| 2025-11-19T11:41 | 3948 | 615 | 316 | 13 | ||
| 2025-11-19T11:42 | 4353 | 583 | 306 | 15 | ||
| 2025-11-19T11:42 | 4601 | 564 | 314 | 15 | ||
| 2025-11-19T11:42 | 4644 | 560 | -20.5 | -35.9 | ||
| 2025-11-19T11:43 | 4974 | 536 | -22.7 | -39.5 | 315 | 14 |
| 2025-11-19T11:44 | 5324 | 511 | -25.0 | -42.5 | ||
| 2025-11-19T11:44 | 5342 | 510 | 313 | 15 | ||
| 2025-11-19T11:45 | 5688 | 486 | 315 | 18 | ||
| 2025-11-19T11:45 | 5705 | 485 | -27.5 | -43.6 | ||
| 2025-11-19T11:46 | 5830 | 476 | -28.5 | -43.6 | ||
| 2025-11-19T11:46 | 6040 | 462 | 315 | 16 | ||
| 2025-11-19T11:47 | 6114 | 458 | -30.3 | -47.0 | ||
| 2025-11-19T11:47 | 6373 | 441 | 311 | 17 | ||
| 2025-11-19T11:48 | 6655 | 424 | -35.1 | -47.2 | ||
| 2025-11-19T11:48 | 6749 | 418 | 310 | 17 | ||
| 2025-11-19T11:49 | 7138 | 395 | 314 | 18 | ||
| 2025-11-19T11:49 | 7211 | 391 | -40.0 | -50.4 | ||
| 2025-11-19T11:50 | 7433 | 379 | -41.0 | |||
| 2025-11-19T11:50 | 7538 | 373 | 315 | 19 | ||
| 2025-11-19T11:51 | 7723 | 363 | 314 | 20 | ||
| 2025-11-19T11:52 | 8076 | 344 | 315 | 20 | ||
| 2025-11-19T11:52 | 8253 | 335 | -46.9 | |||
| 2025-11-19T11:53 | 8432 | 326 | 314 | 21 | ||
| 2025-11-19T11:54 | 8768 | 310 | 314 | 20 | ||
| 2025-11-19T11:55 | 9051 | 297 | -52.1 | |||
| 2025-11-19T11:55 | 9081 | 295 | 307 | 21 | ||
| 2025-11-19T11:56 | 9382 | 282 | 305 | 20 | ||
| 2025-11-19T11:56 | 9605 | 272 | -54.8 | |||
| 2025-11-19T11:57 | 9687 | 269 | 303 | 20 | ||
| 2025-11-19T11:58 | 10001 | 256 | 301 | 23 | ||
| 2025-11-19T11:59 | 10335 | 243 | 293 | 21 | ||
| 2025-11-19T11:59 | 10454 | 238 | -57.6 | |||
| 2025-11-19T12:00 | 10696 | 229 | 280 | 22 | ||
| 2025-11-19T12:00 | 10746 | 227 | -58.8 | |||
| 2025-11-19T12:00 | 10891 | 222 | -58.1 | |||
| 2025-11-19T12:01 | 11037 | 217 | 291 | 23 | ||
| 2025-11-19T12:01 | 11063 | 216 | -59.0 | |||
| 2025-11-19T12:01 | 11230 | 211 | -56.1 | |||
| 2025-11-19T12:02 | 11361 | 206 | 268 | 23 | ||
| 2025-11-19T12:02 | 11591 | 199 | -56.5 | |||
| 2025-11-19T12:02 | 11597 | 199 | 267 | 30 | ||
| 2025-11-19T12:03 | 11852 | 191 | -57.5 | |||
| 2025-11-19T12:03 | 11936 | 188 | 272 | 30 | ||
| 2025-11-19T12:04 | 12151 | 182 | 278 | 26 | ||
| 2025-11-19T12:04 | 12222 | 180 | -56.7 | |||
| 2025-11-19T12:04 | 12338 | 177 | -55.6 | |||
| 2025-11-19T12:05 | 12425 | 174 | 270 | 29 | ||
| 2025-11-19T12:05 | 12559 | 171 | -57.4 | |||
| 2025-11-19T12:05 | 12723 | 166 | 274 | 34 | ||
| 2025-11-19T12:06 | 13004 | 159 | -58.4 | |||
| 2025-11-19T12:06 | 13019 | 159 | 277 | 32 | ||
| 2025-11-19T12:07 | 13236 | 153 | -58.2 | |||
| 2025-11-19T12:07 | 13302 | 152 | 272 | 34 | ||
| 2025-11-19T12:08 | 13453 | 148 | 272 | 34 | ||
| 2025-11-19T12:08 | 13607 | 144 | 269 | 34 | ||
| 2025-11-19T12:08 | 13612 | 144 | -56.6 | |||
| 2025-11-19T12:09 | 13805 | 140 | 268 | 36 | ||
| 2025-11-19T12:10 | 14015 | 135 | -58.2 | |||
| 2025-11-19T12:10 | 14141 | 133 | 263 | 35 | ||
| 2025-11-19T12:10 | 14171 | 132 | -56.5 | |||
| 2025-11-19T12:11 | 14491 | 126 | 272 | 33 | ||
| 2025-11-19T12:11 | 14591 | 124 | -56.5 | |||
| 2025-11-19T12:12 | 14823 | 119 | 274 | 33 | ||
| 2025-11-19T12:12 | 14947 | 117 | -57.1 | |||
| 2025-11-19T12:13 | 15165 | 113 | 272 | 34 | ||
| 2025-11-19T12:14 | 15506 | 107 | 272 | 35 | ||
| 2025-11-19T12:14 | 15653 | 105 | 273 | 34 | ||
| 2025-11-19T12:15 | 15701 | 104 | -58.2 | |||
| 2025-11-19T12:15 | 15969 | 99 | 269 | 31 | ||
| 2025-11-19T12:16 | 16269 | 95 | 272 | 31 | ||
| 2025-11-19T12:17 | 16521 | 91 | -56.9 | |||
| 2025-11-19T12:17 | 16606 | 90 | 270 | 28 | ||
| 2025-11-19T12:18 | 16670 | 89 | -56.4 | |||
| 2025-11-19T12:18 | 16991 | 85 | 260 | 28 | ||
| 2025-11-19T12:19 | 17024 | 84 | -57.5 | |||
| 2025-11-19T12:19 | 17372 | 80 | -58.8 | |||
| 2025-11-19T12:19 | 17394 | 79 | 264 | 24 | ||
| 2025-11-19T12:20 | 17771 | 75 | 261 | 21 | ||
| 2025-11-19T12:21 | 18002 | 72 | -58.3 | |||
| 2025-11-19T12:21 | 18136 | 71 | 258 | 31 | ||
| 2025-11-19T12:22 | 18210 | 70 | -56.3 | |||
| 2025-11-19T12:22 | 18524 | 66 | 274 | 26 | ||
| 2025-11-19T12:23 | 18630 | 65 | -57.0 | |||
| 2025-11-19T12:23 | 18748 | 64 | 269 | 25 | ||
| 2025-11-19T12:24 | 18948 | 62 | 258 | 28 | ||
| 2025-11-19T12:24 | 19041 | 61 | -58.0 | |||
| 2025-11-19T12:25 | 19314 | 59 | 269 | 30 | ||
| 2025-11-19T12:25 | 19424 | 58 | -56.4 | |||
| 2025-11-19T12:25 | 19580 | 56 | 271 | 25 | ||
| 2025-11-19T12:26 | 19717 | 55 | -55.5 | |||
| 2025-11-19T12:26 | 19773 | 54 | 263 | 25 | ||
| 2025-11-19T12:26 | 20014 | 52 | 253 | 21 | ||
| 2025-11-19T12:27 | 20246 | 51 | -55.2 | |||
| 2025-11-19T12:27 | 20363 | 50 | -54.1 | |||
| 2025-11-19T12:27 | 20432 | 49 | 262 | 25 | ||
| 2025-11-19T12:28 | 20793 | 46 | 255 | 24 | ||
| 2025-11-19T12:29 | 20991 | 45 | -52.5 | |||
| 2025-11-19T12:29 | 21207 | 44 | -52.0 | 242 | 22 | |
| 2025-11-19T23:30 | 18 | 1017 | 2.7 | -1.5 | 130 | 3 |
| 2025-11-19T23:30 | 22 | 1017 | 2.6 | -2.1 | 156 | 1 |
| 2025-11-19T23:30 | 80 | 1009 | 130 | 3 | ||
| 2025-11-19T23:30 | 96 | 1007 | 2.2 | -2.7 | ||
| 2025-11-19T23:30 | 128 | 1003 | 4.0 | -2.0 | ||
| 2025-11-19T23:31 | 176 | 998 | 4.5 | -2.1 | ||
| 2025-11-19T23:31 | 300 | 982 | 3.7 | -2.1 | ||
| 2025-11-19T23:31 | 415 | 969 | 197 | 4 | ||
| 2025-11-19T23:32 | 504 | 958 | 2.0 | -2.0 | ||
| 2025-11-19T23:32 | 604 | 946 | 228 | 6 | ||
| 2025-11-19T23:32 | 715 | 933 | 217 | 9 | ||
| 2025-11-19T23:32 | 836 | 919 | -0.5 | -2.9 | ||
| 2025-11-19T23:33 | 1009 | 899 | -1.7 | -4.0 | ||
| 2025-11-19T23:33 | 1055 | 894 | 239 | 9 | ||
| 2025-11-19T23:33 | 1119 | 887 | -2.4 | -4.7 | ||
| 2025-11-19T23:33 | 1179 | 880 | -2.7 | -5.0 | ||
| 2025-11-19T23:34 | 1328 | 864 | -3.7 | -5.4 | ||
| 2025-11-19T23:34 | 1367 | 859 | -3.7 | -6.3 | ||
| 2025-11-19T23:34 | 1426 | 853 | 256 | 10 | ||
| 2025-11-19T23:34 | 1439 | 852 | 0.8 | -11.0 | ||
| 2025-11-19T23:35 | 1625 | 832 | 0.0 | -13.0 | ||
| 2025-11-19T23:35 | 1779 | 816 | -1.0 | -16.0 | ||
| 2025-11-19T23:35 | 1808 | 813 | 266 | 14 | ||
| 2025-11-19T23:36 | 1983 | 796 | -2.7 | -13.8 | ||
| 2025-11-19T23:36 | 2131 | 781 | 278 | 11 | ||
| 2025-11-19T23:37 | 2432 | 751 | -6.5 | -15.7 | ||
| 2025-11-19T23:37 | 2475 | 747 | 263 | 9 | ||
| 2025-11-19T23:38 | 2808 | 716 | -9.2 | -19.2 | ||
| 2025-11-19T23:38 | 2846 | 712 | 260 | 11 | ||
| 2025-11-19T23:38 | 2956 | 702 | -9.8 | -22.4 | ||
| 2025-11-19T23:39 | 3103 | 689 | 249 | 10 | ||
| 2025-11-19T23:39 | 3151 | 685 | -10.3 | -26.6 | ||
| 2025-11-19T23:39 | 3233 | 678 | -10.4 | -28.6 | ||
| 2025-11-19T23:39 | 3302 | 672 | -10.2 | -30.0 | ||
| 2025-11-19T23:40 | 3469 | 657 | 239 | 13 | ||
| 2025-11-19T23:40 | 3788 | 630 | 247 | 16 | ||
| 2025-11-19T23:40 | 3817 | 628 | -13.2 | -34.4 | ||
| 2025-11-19T23:41 | 4063 | 608 | -14.4 | -37.6 | ||
| 2025-11-19T23:41 | 4117 | 604 | 245 | 18 | ||
| 2025-11-19T23:42 | 4486 | 575 | 256 | 18 | ||
| 2025-11-19T23:43 | 4634 | 563 | -19.0 | -42.2 | ||
| 2025-11-19T23:43 | 4815 | 550 | 249 | 17 | ||
| 2025-11-19T23:44 | 4914 | 542 | -20.9 | -43.7 | ||
| 2025-11-19T23:44 | 5109 | 528 | 241 | 16 | ||
| 2025-11-19T23:45 | 5248 | 518 | -21.7 | -51.4 | ||
| 2025-11-19T23:45 | 5375 | 510 | 249 | 16 | ||
| 2025-11-19T23:46 | 5615 | 493 | -24.0 | -55.0 | ||
| 2025-11-19T23:46 | 5695 | 488 | 255 | 16 | ||
| 2025-11-19T23:47 | 6058 | 464 | 256 | 16 | ||
| 2025-11-19T23:48 | 6390 | 443 | -30.7 | -58.2 | ||
| 2025-11-19T23:48 | 6459 | 438 | 261 | 16 | ||
| 2025-11-19T23:49 | 6880 | 413 | 254 | 15 | ||
| 2025-11-19T23:50 | 7100 | 400 | -37.3 | -57.0 | ||
| 2025-11-19T23:50 | 7260 | 391 | 243 | 14 | ||
| 2025-11-19T23:50 | 7353 | 386 | -38.9 | -60.8 | ||
| 2025-11-19T23:50 | 7484 | 378 | -40.0 | -60.8 | ||
| 2025-11-19T23:51 | 7680 | 367 | 249 | 14 | ||
| 2025-11-19T23:52 | 8068 | 347 | 255 | 13 | ||
| 2025-11-19T23:53 | 8403 | 330 | 254 | 15 | ||
| 2025-11-19T23:53 | 8476 | 326 | -48.3 | |||
| 2025-11-19T23:54 | 8703 | 315 | 257 | 15 | ||
| 2025-11-19T23:55 | 9020 | 300 | 250 | 16 | ||
| 2025-11-19T23:56 | 9296 | 287 | 255 | 18 | ||
| 2025-11-19T23:57 | 9569 | 275 | 260 | 20 | ||
| 2025-11-19T23:58 | 9837 | 264 | 269 | 19 | ||
| 2025-11-19T23:58 | 9899 | 261 | -59.3 | |||
| 2025-11-19T23:59 | 10111 | 253 | 266 | 19 | ||
| 2025-11-19T23:59 | 10241 | 248 | -60.1 | |||
| 2025-11-20T00:00 | 10381 | 242 | 268 | 20 | ||
| 2025-11-20T00:01 | 10671 | 231 | 269 | 21 | ||
| 2025-11-20T00:01 | 10858 | 224 | -63.7 | |||
| 2025-11-20T00:02 | 10984 | 219 | 267 | 22 | ||
| 2025-11-20T00:02 | 11155 | 213 | -64.4 | |||
| 2025-11-20T00:03 | 11320 | 208 | 264 | 24 | ||
| 2025-11-20T00:03 | 11337 | 207 | -62.1 | |||
| 2025-11-20T00:04 | 11606 | 198 | 257 | 31 | ||
| 2025-11-20T00:04 | 11687 | 196 | -61.7 | |||
| 2025-11-20T00:04 | 11812 | 192 | -60.7 | |||
| 2025-11-20T00:04 | 11827 | 191 | 258 | 33 | ||
| 2025-11-20T00:05 | 11899 | 189 | -59.1 | |||
| 2025-11-20T00:05 | 11922 | 189 | 264 | 35 | ||
| 2025-11-20T00:05 | 12030 | 185 | -59.4 | |||
| 2025-11-20T00:05 | 12069 | 184 | 260 | 31 | ||
| 2025-11-20T00:05 | 12096 | 183 | -58.1 | |||
| 2025-11-20T00:06 | 12298 | 178 | 261 | 30 | ||
| 2025-11-20T00:06 | 12319 | 177 | -56.8 | |||
| 2025-11-20T00:06 | 12423 | 174 | -55.5 | |||
| 2025-11-20T00:07 | 12625 | 169 | -56.4 | |||
| 2025-11-20T00:07 | 12644 | 168 | 259 | 31 | ||
| 2025-11-20T00:08 | 13020 | 158 | 257 | 33 | ||
| 2025-11-20T00:08 | 13118 | 156 | -56.4 | |||
| 2025-11-20T00:09 | 13366 | 150 | 255 | 35 | ||
| 2025-11-20T00:10 | 13522 | 146 | -57.5 | |||
| 2025-11-20T00:10 | 13663 | 143 | 259 | 36 | ||
| 2025-11-20T00:10 | 13770 | 141 | -57.2 | |||
| 2025-11-20T00:11 | 13986 | 136 | 263 | 32 | ||
| 2025-11-20T00:12 | 14340 | 129 | 255 | 32 | ||
| 2025-11-20T00:12 | 14351 | 128 | -59.3 | |||
| 2025-11-20T00:13 | 14672 | 122 | 260 | 37 | ||
| 2025-11-20T00:13 | 14738 | 121 | -60.1 | |||
| 2025-11-20T00:14 | 14828 | 119 | -59.1 | |||
| 2025-11-20T00:14 | 14909 | 117 | 265 | 33 | ||
| 2025-11-20T00:15 | 15081 | 114 | 261 | 29 | ||
| 2025-11-20T00:15 | 15173 | 113 | -59.1 | |||
| 2025-11-20T00:15 | 15285 | 111 | 258 | 33 | ||
| 2025-11-20T00:16 | 15472 | 107 | 256 | 33 | ||
| 2025-11-20T00:16 | 15610 | 105 | -57.6 | |||
| 2025-11-20T00:16 | 15673 | 104 | 258 | 34 | ||
| 2025-11-20T00:17 | 15929 | 100 | 262 | 36 | ||
| 2025-11-20T00:17 | 15967 | 99 | -58.3 | |||
| 2025-11-20T00:18 | 16289 | 94 | 269 | 35 | ||
| 2025-11-20T00:19 | 16472 | 92 | -59.1 | |||
| 2025-11-20T00:19 | 16548 | 90 | 262 | 32 | ||
| 2025-11-20T00:20 | 16829 | 86 | 259 | 32 | ||
| 2025-11-20T00:20 | 16851 | 86 | -58.8 | |||
| 2025-11-20T00:20 | 17080 | 83 | 257 | 34 | ||
| 2025-11-20T00:21 | 17250 | 81 | 250 | 27 | ||
| 2025-11-20T00:21 | 17433 | 79 | -56.9 | |||
| 2025-11-20T00:22 | 17521 | 77 | 254 | 30 | ||
| 2025-11-20T00:22 | 17703 | 75 | -56.8 | |||
| 2025-11-20T00:22 | 17753 | 75 | 255 | 24 | ||
| 2025-11-20T00:23 | 18126 | 70 | 255 | 27 | ||
| 2025-11-20T00:24 | 18253 | 69 | -57.8 | |||
| 2025-11-20T00:24 | 18365 | 68 | 269 | 24 | ||
| 2025-11-20T00:24 | 18412 | 67 | -56.8 | |||
| 2025-11-20T00:25 | 18699 | 64 | 261 | 19 | ||
| 2025-11-20T00:26 | 18950 | 62 | 244 | 20 | ||
| 2025-11-20T00:26 | 18990 | 61 | -58.3 | |||
| 2025-11-20T00:27 | 19297 | 58 | 242 | 22 | ||
| 2025-11-20T00:27 | 19460 | 57 | 237 | 24 | ||
| 2025-11-20T00:27 | 19472 | 57 | -58.0 | |||
| 2025-11-20T00:28 | 19812 | 54 | 250 | 25 | ||
| 2025-11-20T00:29 | 19963 | 53 | 252 | 27 | ||
| 2025-11-20T00:29 | 20197 | 51 | 271 | 23 | ||
| 2025-11-20T00:30 | 20428 | 49 | -55.7 | 267 | 17 | |
| 2025-11-20T11:30 | 18 | 1007 | 8.0 | 4.4 | 110 | 5 |
| 2025-11-20T11:30 | 23 | 1007 | 7.9 | 3.9 | 110 | 1 |
| 2025-11-20T11:30 | 65 | 1002 | 165 | 3 | ||
| 2025-11-20T11:30 | 124 | 995 | 119 | 5 | ||
| 2025-11-20T11:30 | 135 | 993 | 7.4 | 3.6 | ||
| 2025-11-20T11:31 | 317 | 971 | 155 | 8 | ||
| 2025-11-20T11:31 | 417 | 960 | 5.0 | 2.5 | ||
| 2025-11-20T11:31 | 472 | 953 | 6.1 | 1.2 | ||
| 2025-11-20T11:31 | 507 | 949 | 171 | 14 | ||
| 2025-11-20T11:32 | 830 | 912 | 202 | 12 | ||
| 2025-11-20T11:33 | 957 | 898 | 190 | 14 | ||
| 2025-11-20T11:33 | 991 | 894 | 1.9 | -0.7 | ||
| 2025-11-20T11:33 | 1076 | 885 | 1.5 | -1.2 | ||
| 2025-11-20T11:33 | 1146 | 877 | 207 | 17 | ||
| 2025-11-20T11:34 | 1232 | 868 | 0.6 | -2.1 | ||
| 2025-11-20T11:34 | 1353 | 855 | -0.2 | -3.2 | ||
| 2025-11-20T11:34 | 1417 | 848 | 208 | 20 | ||
| 2025-11-20T11:35 | 1481 | 841 | -1.1 | -3.5 | ||
| 2025-11-20T11:35 | 1690 | 820 | -2.6 | -3.9 | ||
| 2025-11-20T11:35 | 1695 | 819 | 210 | 19 | ||
| 2025-11-20T11:36 | 1885 | 800 | -3.4 | -5.0 | ||
| 2025-11-20T11:36 | 1914 | 797 | -2.9 | -4.8 | ||
| 2025-11-20T11:36 | 1975 | 791 | 220 | 21 | ||
| 2025-11-20T11:37 | 2099 | 778 | -4.0 | -6.0 | ||
| 2025-11-20T11:37 | 2229 | 766 | -4.3 | -7.4 | ||
| 2025-11-20T11:37 | 2259 | 763 | 232 | 23 | ||
| 2025-11-20T11:38 | 2452 | 744 | -5.8 | -9.0 | ||
| 2025-11-20T11:38 | 2485 | 741 | -5.6 | -9.5 | ||
| 2025-11-20T11:38 | 2580 | 732 | 247 | 23 | ||
| 2025-11-20T11:38 | 2603 | 730 | -6.1 | -10.2 | ||
| 2025-11-20T11:39 | 2933 | 700 | 248 | 23 | ||
| 2025-11-20T11:39 | 3004 | 693 | -9.0 | -11.7 | ||
| 2025-11-20T11:40 | 3189 | 677 | -10.4 | -13.3 | ||
| 2025-11-20T11:40 | 3343 | 663 | 257 | 23 | ||
| 2025-11-20T11:41 | 3638 | 638 | -14.5 | -14.7 | ||
| 2025-11-20T11:41 | 3760 | 628 | 250 | 24 | ||
| 2025-11-20T11:42 | 3994 | 609 | -17.0 | -17.5 | ||
| 2025-11-20T11:42 | 4145 | 596 | 246 | 23 | ||
| 2025-11-20T11:43 | 4345 | 581 | -19.2 | -19.9 | ||
| 2025-11-20T11:43 | 4478 | 570 | 241 | 24 | ||
| 2025-11-20T11:44 | 4741 | 550 | -21.9 | -23.0 | ||
| 2025-11-20T11:44 | 4794 | 546 | 240 | 30 | ||
| 2025-11-20T11:45 | 5137 | 521 | -25.4 | -26.9 | 242 | 32 |
| 2025-11-20T11:46 | 5375 | 504 | -27.6 | -36.6 | ||
| 2025-11-20T11:46 | 5450 | 499 | -28.3 | -39.0 | ||
| 2025-11-20T11:46 | 5467 | 498 | 247 | 29 | ||
| 2025-11-20T11:46 | 5526 | 494 | -28.8 | -42.0 | ||
| 2025-11-20T11:47 | 5787 | 476 | 236 | 28 | ||
| 2025-11-20T11:48 | 5939 | 466 | -31.4 | -45.7 | ||
| 2025-11-20T11:48 | 6079 | 457 | 239 | 28 | ||
| 2025-11-20T11:49 | 6279 | 444 | 238 | 30 | ||
| 2025-11-20T11:49 | 6372 | 438 | 239 | 33 | ||
| 2025-11-20T11:49 | 6397 | 437 | -34.5 | -49.2 | ||
| 2025-11-20T11:50 | 6740 | 416 | -36.7 | -53.4 | ||
| 2025-11-20T11:50 | 6753 | 415 | 244 | 33 | ||
| 2025-11-20T11:51 | 7116 | 394 | -39.2 | -56.1 | ||
| 2025-11-20T11:51 | 7149 | 392 | 235 | 33 | ||
| 2025-11-20T11:51 | 7201 | 389 | -40.0 | -56.2 | ||
| 2025-11-20T11:52 | 7523 | 371 | 235 | 34 | ||
| 2025-11-20T11:52 | 7614 | 366 | -43.0 | |||
| 2025-11-20T11:53 | 7877 | 352 | 236 | 33 | ||
| 2025-11-20T11:54 | 8230 | 333 | 235 | 35 | ||
| 2025-11-20T11:54 | 8283 | 331 | -48.2 | |||
| 2025-11-20T11:55 | 8555 | 317 | -49.5 | |||
| 2025-11-20T11:55 | 8572 | 317 | 235 | 40 | ||
| 2025-11-20T11:56 | 8871 | 302 | -51.6 | |||
| 2025-11-20T11:56 | 8887 | 302 | 235 | 39 | ||
| 2025-11-20T11:56 | 8994 | 297 | -51.8 | |||
| 2025-11-20T11:57 | 9208 | 287 | 235 | 41 | ||
| 2025-11-20T11:58 | 9537 | 273 | 239 | 41 | ||
| 2025-11-20T11:59 | 9851 | 260 | 240 | 40 | ||
| 2025-11-20T11:59 | 9864 | 259 | -54.5 | |||
| 2025-11-20T12:00 | 10243 | 244 | 245 | 42 | ||
| 2025-11-20T12:00 | 10293 | 242 | -56.6 | |||
| 2025-11-20T12:01 | 10595 | 231 | 244 | 43 | ||
| 2025-11-20T12:02 | 10831 | 223 | -57.6 | |||
| 2025-11-20T12:02 | 10893 | 220 | 246 | 43 | ||
| 2025-11-20T12:03 | 11139 | 212 | -56.1 | |||
| 2025-11-20T12:03 | 11208 | 210 | 245 | 43 | ||
| 2025-11-20T12:03 | 11304 | 207 | -56.3 | |||
| 2025-11-20T12:04 | 11584 | 198 | 246 | 41 | ||
| 2025-11-20T12:04 | 11780 | 192 | -55.0 | |||
| 2025-11-20T12:05 | 11860 | 189 | 245 | 36 | ||
| 2025-11-20T12:06 | 12233 | 179 | 250 | 38 | ||
| 2025-11-20T12:06 | 12507 | 171 | -57.4 | |||
| 2025-11-20T12:06 | 12535 | 170 | 250 | 39 | ||
| 2025-11-20T12:07 | 12808 | 163 | 245 | 38 | ||
| 2025-11-20T12:08 | 13028 | 158 | -56.8 | |||
| 2025-11-20T12:08 | 13118 | 155 | 246 | 42 | ||
| 2025-11-20T12:09 | 13309 | 151 | 250 | 41 | ||
| 2025-11-20T12:09 | 13420 | 148 | -57.6 | |||
| 2025-11-20T12:09 | 13451 | 147 | 248 | 43 | ||
| 2025-11-20T12:10 | 13572 | 145 | -56.6 | |||
| 2025-11-20T12:10 | 13598 | 144 | 252 | 42 | ||
| 2025-11-20T12:10 | 13670 | 142 | -56.0 | |||
| 2025-11-20T12:10 | 13771 | 140 | 253 | 39 | ||
| 2025-11-20T12:10 | 13783 | 140 | -54.8 | |||
| 2025-11-20T12:11 | 14069 | 134 | 254 | 46 | ||
| 2025-11-20T12:11 | 14127 | 132 | -56.0 | |||
| 2025-11-20T12:12 | 14264 | 130 | -55.1 | |||
| 2025-11-20T12:12 | 14314 | 129 | 259 | 41 | ||
| 2025-11-20T12:13 | 14592 | 123 | 249 | 38 | ||
| 2025-11-20T12:13 | 14649 | 122 | -55.1 | |||
| 2025-11-20T12:14 | 14919 | 117 | 249 | 36 | ||
| 2025-11-20T12:14 | 14989 | 116 | -54.4 | |||
| 2025-11-20T12:15 | 15235 | 111 | 255 | 39 | ||
| 2025-11-20T12:15 | 15338 | 110 | -55.8 | |||
| 2025-11-20T12:16 | 15448 | 108 | 256 | 33 | ||
| 2025-11-20T12:16 | 15684 | 104 | -56.8 | |||
| 2025-11-20T12:17 | 15781 | 102 | 248 | 34 | ||
| 2025-11-20T12:17 | 15849 | 101 | -56.7 | |||
| 2025-11-20T12:18 | 16054 | 98 | 253 | 33 | ||
| 2025-11-20T12:18 | 16153 | 96 | -54.9 | |||
| 2025-11-20T12:19 | 16416 | 93 | 248 | 33 | ||
| 2025-11-20T12:19 | 16759 | 88 | -58.0 | |||
| 2025-11-20T12:20 | 16814 | 87 | 256 | 37 | ||
| 2025-11-20T12:20 | 16914 | 86 | -58.4 | |||
| 2025-11-20T12:21 | 17160 | 82 | 260 | 32 | ||
| 2025-11-20T12:21 | 17298 | 80 | -58.2 | |||
| 2025-11-20T12:22 | 17458 | 78 | 258 | 32 | ||
| 2025-11-20T12:22 | 17619 | 76 | -57.4 | |||
| 2025-11-20T12:22 | 17738 | 75 | 256 | 30 | ||
| 2025-11-20T12:23 | 17925 | 73 | -56.3 | |||
| 2025-11-20T12:23 | 18111 | 71 | 242 | 29 | ||
| 2025-11-20T12:24 | 18449 | 67 | -59.2 | |||
| 2025-11-20T12:24 | 18552 | 66 | 251 | 34 | ||
| 2025-11-20T12:25 | 18572 | 66 | -57.0 | |||
| 2025-11-20T12:25 | 18846 | 63 | -58.4 | |||
| 2025-11-20T12:25 | 18989 | 62 | 263 | 33 | ||
| 2025-11-20T12:26 | 19082 | 61 | -56.6 | |||
| 2025-11-20T12:26 | 19211 | 59 | -56.2 | |||
| 2025-11-20T12:26 | 19221 | 59 | 266 | 30 | ||
| 2025-11-20T12:27 | 19339 | 58 | -54.1 | |||
| 2025-11-20T12:27 | 19371 | 58 | 257 | 28 | ||
| 2025-11-20T12:27 | 19495 | 57 | -54.3 | |||
| 2025-11-20T12:28 | 19620 | 56 | -50.7 | |||
| 2025-11-20T12:28 | 19658 | 55 | 250 | 29 | ||
| 2025-11-20T12:28 | 19835 | 54 | -50.6 | |||
| 2025-11-20T12:29 | 20082 | 52 | 239 | 30 | ||
| 2025-11-20T12:29 | 20438 | 49 | 237 | 24 | ||
| 2025-11-20T12:29 | 20452 | 49 | -52.0 | |||
| 2025-11-20T12:30 | 20669 | 47 | 230 | 23 | ||
| 2025-11-20T12:30 | 20824 | 46 | 229 | 18 | ||
| 2025-11-20T12:31 | 20893 | 46 | -50.6 | |||
| 2025-11-20T12:31 | 21066 | 45 | 205 | 17 | ||
| 2025-11-20T12:32 | 21365 | 43 | 216 | 17 | ||
| 2025-11-20T12:33 | 21515 | 42 | -52.2 | |||
| 2025-11-20T12:33 | 21673 | 41 | 244 | 14 | ||
| 2025-11-20T12:34 | 22133 | 38 | -55.2 | |||
| 2025-11-20T12:34 | 22180 | 38 | 230 | 6 | ||
| 2025-11-20T12:35 | 22564 | 35 | 229 | 5 | ||
| 2025-11-20T12:35 | 22678 | 35 | -58.5 | |||
| 2025-11-20T12:35 | 22800 | 34 | 218 | 7 | ||
| 2025-11-20T12:35 | 23043 | 33 | -60.5 | |||
| 2025-11-20T12:36 | 23119 | 32 | 255 | 10 | ||
| 2025-11-20T12:36 | 23337 | 31 | 234 | 15 | ||
| 2025-11-20T12:36 | 23356 | 31 | -60.0 | |||
| 2025-11-20T12:37 | 23480 | 31 | 241 | 26 | ||
| 2025-11-20T12:38 | 23675 | 30 | -47.1 | 247 | 31 | |
| 2025-11-20T12:38 | 23879 | 29 | -47.1 | 255 | 34 | |
| 2025-11-20T23:30 | 18 | 1007 | 5.9 | -4.8 | 270 | 5 |
| 2025-11-20T23:30 | 23 | 1007 | 6.0 | -5.6 | 270 | 1 |
| 2025-11-20T23:30 | 54 | 1003 | 262 | 3 | ||
| 2025-11-20T23:30 | 107 | 996 | 287 | 11 | ||
| 2025-11-20T23:31 | 211 | 984 | 288 | 10 | ||
| 2025-11-20T23:31 | 288 | 974 | 269 | 8 | ||
| 2025-11-20T23:31 | 367 | 965 | 2.4 | -7.5 | ||
| 2025-11-20T23:32 | 405 | 960 | 259 | 8 | ||
| 2025-11-20T23:32 | 628 | 934 | 247 | 9 | ||
| 2025-11-20T23:33 | 872 | 906 | 246 | 8 | ||
| 2025-11-20T23:34 | 1100 | 880 | 254 | 10 | ||
| 2025-11-20T23:34 | 1105 | 880 | -4.5 | -9.5 | ||
| 2025-11-20T23:34 | 1202 | 869 | 254 | 14 | ||
| 2025-11-20T23:35 | 1455 | 841 | -7.7 | -11.0 | ||
| 2025-11-20T23:35 | 1518 | 834 | 260 | 15 | ||
| 2025-11-20T23:35 | 1578 | 828 | -8.9 | -11.4 | ||
| 2025-11-20T23:36 | 1737 | 811 | -9.9 | -12.9 | ||
| 2025-11-20T23:36 | 1778 | 807 | 274 | 18 | ||
| 2025-11-20T23:36 | 1804 | 804 | -9.9 | -14.7 | ||
| 2025-11-20T23:37 | 2087 | 775 | 287 | 16 | ||
| 2025-11-20T23:37 | 2210 | 762 | -13.3 | -16.8 | ||
| 2025-11-20T23:38 | 2357 | 748 | -14.5 | -18.0 | ||
| 2025-11-20T23:38 | 2401 | 743 | 293 | 15 | ||
| 2025-11-20T23:38 | 2412 | 742 | -14.3 | -20.0 | ||
| 2025-11-20T23:38 | 2461 | 738 | -13.5 | -25.7 | ||
| 2025-11-20T23:39 | 2571 | 727 | -13.4 | -31.1 | ||
| 2025-11-20T23:39 | 2606 | 724 | 291 | 17 | ||
| 2025-11-20T23:39 | 2793 | 706 | 282 | 19 | ||
| 2025-11-20T23:39 | 2812 | 704 | -14.8 | -32.3 | ||
| 2025-11-20T23:40 | 2943 | 692 | 271 | 19 | ||
| 2025-11-20T23:40 | 2953 | 691 | -15.1 | -35.3 | ||
| 2025-11-20T23:41 | 3255 | 664 | 259 | 21 | ||
| 2025-11-20T23:41 | 3418 | 650 | 257 | 22 | ||
| 2025-11-20T23:42 | 3474 | 645 | -18.4 | -35.9 | ||
| 2025-11-20T23:42 | 3543 | 639 | 254 | 25 | ||
| 2025-11-20T23:43 | 3871 | 611 | 250 | 23 | ||
| 2025-11-20T23:43 | 3998 | 601 | -22.3 | -40.2 | ||
| 2025-11-20T23:44 | 4220 | 583 | 255 | 28 | ||
| 2025-11-20T23:44 | 4365 | 571 | -24.5 | -45.8 | ||
| 2025-11-20T23:44 | 4438 | 566 | -24.0 | -47.1 | ||
| 2025-11-20T23:44 | 4450 | 565 | 252 | 30 | ||
| 2025-11-20T23:45 | 4548 | 557 | -24.1 | -49.1 | ||
| 2025-11-20T23:45 | 4744 | 542 | -25.6 | -50.3 | ||
| 2025-11-20T23:45 | 4811 | 537 | 249 | 35 | ||
| 2025-11-20T23:45 | 4852 | 534 | -25.1 | -53.9 | ||
| 2025-11-20T23:46 | 5085 | 517 | 250 | 39 | ||
| 2025-11-20T23:46 | 5107 | 516 | -26.6 | -44.9 | ||
| 2025-11-20T23:47 | 5240 | 506 | -27.7 | -40.0 | ||
| 2025-11-20T23:47 | 5403 | 495 | 249 | 44 | ||
| 2025-11-20T23:48 | 5632 | 479 | -30.7 | -44.0 | ||
| 2025-11-20T23:48 | 5710 | 474 | 251 | 41 | ||
| 2025-11-20T23:48 | 5784 | 469 | -31.6 | -46.7 | ||
| 2025-11-20T23:49 | 6026 | 453 | 251 | 41 | ||
| 2025-11-20T23:50 | 6332 | 434 | -36.6 | -49.5 | ||
| 2025-11-20T23:50 | 6376 | 431 | 253 | 41 | ||
| 2025-11-20T23:51 | 6546 | 421 | -38.6 | -46.5 | ||
| 2025-11-20T23:51 | 6713 | 410 | -40.0 | -47.6 | ||
| 2025-11-20T23:51 | 6758 | 408 | 258 | 42 | ||
| 2025-11-20T23:52 | 7145 | 385 | 256 | 43 | ||
| 2025-11-20T23:53 | 7288 | 377 | 257 | 44 | ||
| 2025-11-20T23:53 | 7637 | 358 | 259 | 47 | ||
| 2025-11-20T23:54 | 7716 | 353 | -48.8 | |||
| 2025-11-20T23:54 | 7967 | 340 | 259 | 47 | ||
| 2025-11-20T23:55 | 8093 | 334 | -51.4 | |||
| 2025-11-20T23:55 | 8245 | 326 | 257 | 50 | ||
| 2025-11-20T23:56 | 8492 | 314 | 255 | 51 | ||
| 2025-11-20T23:56 | 8506 | 313 | -51.6 | |||
| 2025-11-20T23:57 | 8626 | 307 | -51.2 | |||
| 2025-11-20T23:57 | 8757 | 301 | 256 | 57 | ||
| 2025-11-20T23:57 | 8794 | 299 | -50.8 | |||
| 2025-11-20T23:58 | 9061 | 287 | 260 | 58 | ||
| 2025-11-20T23:59 | 9279 | 278 | -52.7 | |||
| 2025-11-20T23:59 | 9317 | 276 | 264 | 55 | ||
| 2025-11-21T00:00 | 9643 | 262 | 262 | 52 | ||
| 2025-11-21T00:00 | 9666 | 262 | -51.9 | |||
| 2025-11-21T00:01 | 9843 | 255 | -51.4 | 260 | 50 | |
| 2025-11-21T00:01 | 9959 | 250 | 257 | 55 | ||
| 2025-11-21T00:01 | 10090 | 245 | 255 | 51 | ||
| 2025-11-21T00:02 | 10208 | 241 | 255 | 50 | ||
| 2025-11-21T00:02 | 10302 | 237 | -51.9 | |||
| 2025-11-21T00:02 | 10307 | 237 | 256 | 48 | ||
| 2025-11-21T00:02 | 10460 | 231 | -51.0 | |||
| 2025-11-21T00:03 | 10531 | 229 | -49.4 | |||
| 2025-11-21T00:03 | 10554 | 228 | 256 | 47 | ||
| 2025-11-21T00:04 | 10740 | 222 | 253 | 44 | ||
| 2025-11-21T00:04 | 10846 | 218 | -50.6 | |||
| 2025-11-21T00:04 | 10990 | 213 | 257 | 45 | ||
| 2025-11-21T00:05 | 11055 | 211 | -50.6 | |||
| 2025-11-21T00:05 | 11155 | 208 | 261 | 45 | ||
| 2025-11-21T00:05 | 11265 | 205 | -48.4 | |||
| 2025-11-21T00:06 | 11482 | 198 | 257 | 40 | ||
| 2025-11-21T00:07 | 11756 | 190 | 249 | 43 | ||
| 2025-11-21T00:07 | 11764 | 190 | -49.1 | |||
| 2025-11-21T00:07 | 12062 | 181 | 250 | 42 | ||
| 2025-11-21T00:08 | 12295 | 175 | -51.9 | |||
| 2025-11-21T00:08 | 12486 | 170 | 255 | 37 | ||
| 2025-11-21T00:09 | 12611 | 167 | -51.7 | |||
| 2025-11-21T00:09 | 12922 | 159 | 252 | 43 | ||
| 2025-11-21T00:10 | 12942 | 158 | -54.0 | |||
| 2025-11-21T00:10 | 13093 | 155 | -54.2 | |||
| 2025-11-21T00:11 | 13253 | 151 | 245 | 42 | ||
| 2025-11-21T00:11 | 13490 | 145 | -57.1 | |||
| 2025-11-21T00:11 | 13502 | 145 | 243 | 39 | ||
| 2025-11-21T00:12 | 13727 | 140 | 246 | 41 | ||
| 2025-11-21T00:13 | 13836 | 138 | -55.0 | |||
| 2025-11-21T00:13 | 13940 | 135 | 248 | 39 | ||
| 2025-11-21T00:14 | 14126 | 131 | -55.3 | |||
| 2025-11-21T00:14 | 14137 | 131 | 252 | 41 | ||
| 2025-11-21T00:15 | 14314 | 128 | -53.0 | |||
| 2025-11-21T00:15 | 14346 | 127 | 255 | 41 | ||
| 2025-11-21T00:16 | 14643 | 121 | 259 | 39 | ||
| 2025-11-21T00:16 | 14670 | 121 | -53.0 | |||
| 2025-11-21T00:17 | 14909 | 116 | -53.6 | |||
| 2025-11-21T00:17 | 15111 | 113 | 258 | 32 | ||
| 2025-11-21T00:17 | 15128 | 113 | -54.1 | |||
| 2025-11-21T00:18 | 15489 | 106 | 259 | 34 | ||
| 2025-11-21T00:19 | 15875 | 100 | -58.2 | |||
| 2025-11-21T00:19 | 16041 | 97 | 259 | 33 | ||
| 2025-11-21T00:20 | 16465 | 91 | 263 | 34 | ||
| 2025-11-21T00:21 | 16604 | 89 | -61.1 | |||
| 2025-11-21T00:21 | 16737 | 87 | 256 | 34 | ||
| 2025-11-21T00:22 | 16903 | 85 | 255 | 37 | ||
| 2025-11-21T00:22 | 16933 | 84 | -60.1 | |||
| 2025-11-21T00:23 | 17082 | 82 | 250 | 35 | ||
| 2025-11-21T00:23 | 17107 | 82 | -57.0 | |||
| 2025-11-21T00:24 | 17303 | 80 | -56.3 | |||
| 2025-11-21T00:24 | 17365 | 79 | 245 | 35 | ||
| 2025-11-21T00:24 | 17472 | 78 | -56.2 | |||
| 2025-11-21T00:25 | 17680 | 75 | 238 | 35 | ||
| 2025-11-21T00:25 | 17784 | 74 | -56.6 | |||
| 2025-11-21T00:26 | 18071 | 71 | 236 | 45 | ||
| 2025-11-21T00:26 | 18099 | 70 | -58.4 | |||
| 2025-11-21T00:27 | 18308 | 68 | -56.4 | |||
| 2025-11-21T00:27 | 18319 | 68 | 247 | 40 | ||
| 2025-11-21T00:27 | 18385 | 67 | -53.5 | |||
| 2025-11-21T00:28 | 18471 | 66 | -51.4 | 259 | 49 | |
| 2025-11-21T00:28 | 18512 | 66 | -47.8 | |||
| 2025-11-21T00:28 | 18564 | 65 | 270 | 43 | ||
| 2025-11-21T00:29 | 18673 | 64 | -46.8 | |||
| 2025-11-21T00:29 | 18697 | 64 | 270 | 42 | ||
| 2025-11-21T00:29 | 18782 | 63 | -43.6 | |||
| 2025-11-21T00:29 | 18821 | 63 | 269 | 34 | ||
| 2025-11-21T00:29 | 18951 | 62 | 276 | 27 | ||
| 2025-11-21T00:30 | 19094 | 60 | 268 | 17 | ||
| 2025-11-21T00:30 | 19330 | 58 | 234 | 10 | ||
| 2025-11-21T00:30 | 19380 | 58 | -44.3 | |||
| 2025-11-21T00:31 | 19685 | 55 | 199 | 10 | ||
| 2025-11-21T00:32 | 20143 | 52 | 214 | 15 | ||
| 2025-11-21T00:33 | 20528 | 49 | 228 | 20 | ||
| 2025-11-21T00:33 | 20598 | 48 | -53.2 | |||
| 2025-11-21T00:34 | 20830 | 46 | -51.4 | |||
| 2025-11-21T00:34 | 20958 | 45 | 253 | 21 | ||
| 2025-11-21T00:35 | 21297 | 43 | 244 | 16 | ||
| 2025-11-21T00:35 | 21405 | 42 | -50.8 | |||
| 2025-11-21T00:36 | 21603 | 41 | 229 | 12 | ||
| 2025-11-21T00:36 | 22026 | 39 | 219 | 9 | ||
| 2025-11-21T00:37 | 22456 | 36 | 223 | 16 | ||
| 2025-11-21T00:38 | 22686 | 35 | -57.1 | |||
| 2025-11-21T00:38 | 22732 | 35 | -56.9 | 231 | 20 | |
| 2025-11-21T11:30 | 18 | 1010 | 1.8 | -4.7 | 290 | 6 |
| 2025-11-21T11:30 | 23 | 1010 | 1.8 | -5.4 | 291 | 1 |
| 2025-11-21T11:30 | 40 | 1008 | 318 | 4 | ||
| 2025-11-21T11:30 | 124 | 997 | 263 | 5 | ||
| 2025-11-21T11:31 | 435 | 959 | 297 | 7 | ||
| 2025-11-21T11:32 | 770 | 919 | 290 | 11 | ||
| 2025-11-21T11:33 | 1009 | 892 | -6.8 | -10.2 | ||
| 2025-11-21T11:33 | 1085 | 883 | 299 | 11 | ||
| 2025-11-21T11:34 | 1263 | 863 | -8.8 | -11.5 | ||
| 2025-11-21T11:34 | 1370 | 851 | 296 | 15 | ||
| 2025-11-21T11:35 | 1578 | 829 | -10.7 | -15.6 | ||
| 2025-11-21T11:35 | 1656 | 820 | 296 | 16 | ||
| 2025-11-21T11:36 | 1872 | 797 | -13.2 | -18.4 | ||
| 2025-11-21T11:36 | 1972 | 787 | 283 | 19 | ||
| 2025-11-21T11:36 | 2001 | 784 | -14.2 | -19.0 | ||
| 2025-11-21T11:37 | 2280 | 756 | -16.5 | -20.9 | ||
| 2025-11-21T11:37 | 2320 | 752 | 285 | 17 | ||
| 2025-11-21T11:38 | 2581 | 726 | 287 | 18 | ||
| 2025-11-21T11:38 | 2678 | 717 | -19.5 | -24.4 | ||
| 2025-11-21T11:39 | 2899 | 696 | -21.6 | -26.3 | ||
| 2025-11-21T11:39 | 2956 | 690 | 285 | 18 | ||
| 2025-11-21T11:40 | 3136 | 674 | -23.6 | -28.7 | ||
| 2025-11-21T11:40 | 3320 | 657 | 291 | 20 | ||
| 2025-11-21T11:40 | 3373 | 652 | -25.3 | -31.0 | ||
| 2025-11-21T11:41 | 3627 | 629 | -26.3 | -34.5 | ||
| 2025-11-21T11:41 | 3659 | 627 | 284 | 20 | ||
| 2025-11-21T11:42 | 3878 | 608 | -28.1 | -36.6 | ||
| 2025-11-21T11:42 | 3951 | 602 | -28.3 | -38.2 | ||
| 2025-11-21T11:42 | 3965 | 601 | 286 | 20 | ||
| 2025-11-21T11:43 | 4150 | 585 | -29.5 | -39.1 | ||
| 2025-11-21T11:43 | 4263 | 576 | 282 | 23 | ||
| 2025-11-21T11:43 | 4294 | 573 | -30.2 | -41.3 | ||
| 2025-11-21T11:44 | 4477 | 559 | -31.5 | -42.5 | ||
| 2025-11-21T11:44 | 4576 | 551 | 288 | 22 | ||
| 2025-11-21T11:45 | 4873 | 528 | -34.3 | -46.8 | ||
| 2025-11-21T11:45 | 4884 | 527 | 281 | 24 | ||
| 2025-11-21T11:45 | 5017 | 517 | 279 | 24 | ||
| 2025-11-21T11:46 | 5050 | 515 | -35.1 | -47.5 | ||
| 2025-11-21T11:46 | 5200 | 504 | -35.2 | -49.4 | ||
| 2025-11-21T11:46 | 5366 | 492 | 275 | 24 | ||
| 2025-11-21T11:47 | 5547 | 479 | -37.4 | -49.6 | 276 | 21 |
| 2025-11-21T11:47 | 5709 | 468 | 275 | 23 | ||
| 2025-11-21T11:47 | 5729 | 467 | -37.9 | -54.5 | ||
| 2025-11-21T11:48 | 6048 | 446 | -40.0 | -54.8 | ||
| 2025-11-21T11:48 | 6140 | 440 | 274 | 26 | ||
| 2025-11-21T11:49 | 6538 | 415 | 275 | 27 | ||
| 2025-11-21T11:49 | 6552 | 414 | -43.9 | |||
| 2025-11-21T11:50 | 6717 | 404 | 275 | 27 | ||
| 2025-11-21T11:50 | 6875 | 394 | -45.7 | |||
| 2025-11-21T11:51 | 7100 | 381 | 268 | 27 | ||
| 2025-11-21T11:51 | 7316 | 369 | -48.2 | |||
| 2025-11-21T11:51 | 7342 | 367 | 266 | 30 | ||
| 2025-11-21T11:52 | 7465 | 361 | -48.2 | |||
| 2025-11-21T11:52 | 7649 | 351 | 264 | 33 | ||
| 2025-11-21T11:52 | 7674 | 349 | -48.3 | |||
| 2025-11-21T11:53 | 7814 | 342 | 263 | 36 | ||
| 2025-11-21T11:53 | 7917 | 337 | -48.9 | |||
| 2025-11-21T11:54 | 8138 | 325 | 259 | 36 | ||
| 2025-11-21T11:54 | 8167 | 324 | -49.5 | |||
| 2025-11-21T11:54 | 8302 | 317 | 264 | 36 | ||
| 2025-11-21T11:54 | 8334 | 316 | -49.4 | |||
| 2025-11-21T11:55 | 8489 | 308 | -49.1 | 263 | 37 | |
| 2025-11-21T11:55 | 8586 | 304 | -48.1 | |||
| 2025-11-21T11:55 | 8662 | 300 | -47.3 | |||
| 2025-11-21T11:56 | 8826 | 293 | 265 | 38 | ||
| 2025-11-21T11:57 | 9012 | 285 | -45.6 | |||
| 2025-11-21T11:57 | 9041 | 284 | 264 | 41 | ||
| 2025-11-21T11:58 | 9309 | 273 | 262 | 35 | ||
| 2025-11-21T11:58 | 9360 | 271 | -43.7 | |||
| 2025-11-21T11:58 | 9458 | 267 | 263 | 36 | ||
| 2025-11-21T11:59 | 9737 | 256 | -44.3 | |||
| 2025-11-21T11:59 | 9839 | 252 | 264 | 37 | ||
| 2025-11-21T12:00 | 10263 | 236 | 260 | 34 | ||
| 2025-11-21T12:01 | 10563 | 226 | 259 | 34 | ||
| 2025-11-21T12:01 | 10688 | 222 | -46.7 | |||
| 2025-11-21T12:01 | 10785 | 219 | 259 | 38 | ||
| 2025-11-21T12:02 | 10987 | 212 | 257 | 39 | ||
| 2025-11-21T12:02 | 11091 | 209 | -47.5 | |||
| 2025-11-21T12:03 | 11232 | 204 | 261 | 38 | ||
| 2025-11-21T12:03 | 11302 | 202 | -47.0 | |||
| 2025-11-21T12:04 | 11547 | 195 | 259 | 38 | ||
| 2025-11-21T12:04 | 11686 | 191 | -47.9 | |||
| 2025-11-21T12:05 | 11884 | 185 | 256 | 37 | ||
| 2025-11-21T12:05 | 12106 | 179 | -49.8 | |||
| 2025-11-21T12:06 | 12233 | 175 | 256 | 40 | ||
| 2025-11-21T12:06 | 12393 | 171 | -51.6 | |||
| 2025-11-21T12:07 | 12485 | 169 | 261 | 44 | ||
| 2025-11-21T12:07 | 12699 | 163 | -51.8 | 266 | 46 | |
| 2025-11-21T12:08 | 12871 | 159 | 269 | 42 | ||
| 2025-11-21T12:08 | 12961 | 157 | -50.7 | |||
| 2025-11-21T12:09 | 13200 | 151 | 262 | 50 | ||
| 2025-11-21T12:09 | 13418 | 146 | -52.2 | |||
| 2025-11-21T12:10 | 13556 | 143 | 262 | 46 | ||
| 2025-11-21T12:11 | 13861 | 137 | -54.5 | |||
| 2025-11-21T12:11 | 13878 | 136 | 262 | 40 | ||
| 2025-11-21T12:11 | 14006 | 133 | -54.1 | |||
| 2025-11-21T12:11 | 14035 | 133 | 261 | 36 | ||
| 2025-11-21T12:11 | 14154 | 130 | 264 | 41 | ||
| 2025-11-21T12:12 | 14292 | 128 | -52.4 | |||
| 2025-11-21T12:12 | 14486 | 124 | -52.7 | |||
| 2025-11-21T12:12 | 14571 | 122 | 255 | 38 | ||
| 2025-11-21T12:13 | 14909 | 116 | -55.0 | |||
| 2025-11-21T12:13 | 15031 | 114 | 251 | 42 | ||
| 2025-11-21T12:14 | 15158 | 112 | -55.5 | |||
| 2025-11-21T12:14 | 15459 | 106 | -57.5 | |||
| 2025-11-21T12:14 | 15466 | 106 | 254 | 40 | ||
| 2025-11-21T12:15 | 15597 | 104 | -58.3 | |||
| 2025-11-21T12:15 | 15676 | 103 | -57.8 | |||
| 2025-11-21T12:15 | 15771 | 101 | 255 | 42 | ||
| 2025-11-21T12:16 | 15908 | 99 | -58.8 | |||
| 2025-11-21T12:16 | 15966 | 98 | 256 | 46 | ||
| 2025-11-21T12:17 | 16306 | 93 | 260 | 44 | ||
| 2025-11-21T12:17 | 16354 | 92 | -59.4 | |||
| 2025-11-21T12:17 | 16482 | 90 | -59.0 | |||
| 2025-11-21T12:18 | 16716 | 87 | 259 | 45 | ||
| 2025-11-21T12:18 | 16821 | 86 | -60.3 | |||
| 2025-11-21T12:19 | 16944 | 84 | -59.5 | |||
| 2025-11-21T12:19 | 17028 | 83 | 252 | 40 | ||
| 2025-11-21T12:19 | 17065 | 82 | -58.7 | |||
| 2025-11-21T12:19 | 17237 | 80 | -57.3 | |||
| 2025-11-21T12:20 | 17275 | 80 | 249 | 43 | ||
| 2025-11-21T12:20 | 17305 | 79 | -55.6 | |||
| 2025-11-21T12:21 | 17612 | 76 | 251 | 47 | ||
| 2025-11-21T12:22 | 17988 | 71 | -53.0 | 263 | 45 | |
| 2025-11-21T12:22 | 18183 | 69 | -53.1 | |||
| 2025-11-21T12:22 | 18256 | 68 | 269 | 45 | ||
| 2025-11-21T12:22 | 18264 | 68 | -52.0 | |||
| 2025-11-21T12:23 | 18411 | 67 | -47.8 | |||
| 2025-11-21T12:23 | 18451 | 66 | 267 | 33 | ||
| 2025-11-21T12:24 | 18614 | 65 | 274 | 35 | ||
| 2025-11-21T12:24 | 18874 | 62 | -43.9 | 262 | 25 | |
| 2025-11-21T23:30 | 18 | 1016 | 3.5 | -6.5 | 270 | 4 |
| 2025-11-21T23:30 | 23 | 1016 | 3.7 | -7.1 | 274 | 1 |
| 2025-11-21T23:30 | 127 | 1003 | 2.4 | -8.9 | ||
| 2025-11-21T23:31 | 270 | 985 | 262 | 5 | ||
| 2025-11-21T23:32 | 665 | 938 | 275 | 13 | ||
| 2025-11-21T23:32 | 739 | 929 | -3.3 | -11.8 | ||
| 2025-11-21T23:32 | 906 | 909 | 286 | 16 | ||
| 2025-11-21T23:32 | 982 | 901 | -5.2 | -13.3 | ||
| 2025-11-21T23:33 | 1269 | 868 | 295 | 15 | ||
| 2025-11-21T23:34 | 1436 | 850 | -9.5 | -14.9 | ||
| 2025-11-21T23:34 | 1612 | 831 | 305 | 15 | ||
| 2025-11-21T23:34 | 1624 | 829 | -11.2 | -15.8 | ||
| 2025-11-21T23:35 | 1785 | 812 | -12.7 | -15.1 | ||
| 2025-11-21T23:35 | 1937 | 796 | 304 | 14 | ||
| 2025-11-21T23:35 | 1952 | 795 | -14.1 | -16.2 | ||
| 2025-11-21T23:36 | 2055 | 784 | -14.7 | -19.1 | ||
| 2025-11-21T23:36 | 2128 | 777 | -15.1 | -21.3 | ||
| 2025-11-21T23:36 | 2224 | 767 | -15.3 | -27.0 | ||
| 2025-11-21T23:36 | 2251 | 764 | 299 | 17 | ||
| 2025-11-21T23:37 | 2332 | 756 | -15.6 | -32.5 | ||
| 2025-11-21T23:37 | 2478 | 741 | -16.1 | -33.4 | ||
| 2025-11-21T23:37 | 2529 | 736 | 295 | 20 | ||
| 2025-11-21T23:37 | 2625 | 727 | 298 | 21 | ||
| 2025-11-21T23:37 | 2647 | 725 | -15.5 | -37.0 | ||
| 2025-11-21T23:38 | 2732 | 717 | 294 | 23 | ||
| 2025-11-21T23:38 | 2753 | 715 | -14.7 | -43.0 | ||
| 2025-11-21T23:38 | 2882 | 703 | -14.8 | -40.7 | ||
| 2025-11-21T23:38 | 2904 | 701 | 295 | 24 | ||
| 2025-11-21T23:38 | 2950 | 696 | -14.6 | -27.3 | ||
| 2025-11-21T23:39 | 3002 | 692 | -14.5 | -27.6 | ||
| 2025-11-21T23:39 | 3055 | 687 | -14.3 | -24.2 | ||
| 2025-11-21T23:39 | 3183 | 675 | -13.7 | -22.8 | ||
| 2025-11-21T23:39 | 3250 | 669 | -13.6 | -23.0 | ||
| 2025-11-21T23:39 | 3263 | 668 | 299 | 26 | ||
| 2025-11-21T23:40 | 3575 | 641 | -15.1 | -25.4 | ||
| 2025-11-21T23:40 | 3588 | 640 | 306 | 26 | ||
| 2025-11-21T23:40 | 3703 | 630 | -15.4 | -28.4 | ||
| 2025-11-21T23:41 | 3741 | 627 | 306 | 28 | ||
| 2025-11-21T23:41 | 4079 | 600 | -18.4 | -27.0 | ||
| 2025-11-21T23:42 | 4116 | 597 | 299 | 30 | ||
| 2025-11-21T23:42 | 4278 | 584 | -20.0 | -27.6 | ||
| 2025-11-21T23:43 | 4469 | 569 | 304 | 31 | ||
| 2025-11-21T23:43 | 4731 | 549 | -22.7 | -30.7 | ||
| 2025-11-21T23:44 | 4801 | 544 | 299 | 34 | ||
| 2025-11-21T23:44 | 4967 | 531 | 302 | 33 | ||
| 2025-11-21T23:45 | 5288 | 508 | -26.5 | -32.5 | ||
| 2025-11-21T23:45 | 5317 | 506 | 299 | 33 | ||
| 2025-11-21T23:46 | 5663 | 483 | 297 | 31 | ||
| 2025-11-21T23:46 | 5709 | 479 | -29.7 | -35.3 | ||
| 2025-11-21T23:47 | 5840 | 471 | -30.5 | -39.0 | ||
| 2025-11-21T23:47 | 5995 | 461 | 301 | 34 | ||
| 2025-11-21T23:47 | 6087 | 455 | -32.7 | -41.8 | ||
| 2025-11-21T23:48 | 6187 | 448 | 302 | 34 | ||
| 2025-11-21T23:48 | 6452 | 432 | -36.2 | -44.5 | ||
| 2025-11-21T23:49 | 6531 | 427 | 302 | 36 | ||
| 2025-11-21T23:49 | 6735 | 414 | 300 | 38 | ||
| 2025-11-21T23:49 | 6808 | 410 | -39.0 | -48.7 | ||
| 2025-11-21T23:50 | 6932 | 402 | -40.0 | -49.6 | ||
| 2025-11-21T23:50 | 7073 | 394 | 299 | 38 | ||
| 2025-11-21T23:50 | 7079 | 394 | -40.7 | |||
| 2025-11-21T23:51 | 7226 | 385 | -40.3 | |||
| 2025-11-21T23:51 | 7426 | 374 | 298 | 38 | ||
| 2025-11-21T23:52 | 7779 | 355 | 299 | 39 | ||
| 2025-11-21T23:53 | 8009 | 343 | -45.8 | |||
| 2025-11-21T23:53 | 8124 | 337 | 300 | 37 | ||
| 2025-11-21T23:54 | 8467 | 320 | 297 | 37 | ||
| 2025-11-21T23:55 | 8664 | 311 | 299 | 38 | ||
| 2025-11-21T23:55 | 8679 | 310 | -49.4 | |||
| 2025-11-21T23:56 | 8952 | 297 | -51.0 | |||
| 2025-11-21T23:56 | 8968 | 297 | 298 | 37 | ||
| 2025-11-21T23:57 | 9278 | 283 | 293 | 36 | ||
| 2025-11-21T23:57 | 9505 | 273 | -53.7 | |||
| 2025-11-21T23:58 | 9603 | 269 | 292 | 36 | ||
| 2025-11-21T23:59 | 9985 | 253 | 286 | 40 | ||
| 2025-11-21T23:59 | 10015 | 252 | -56.3 | |||
| 2025-11-21T23:59 | 10246 | 243 | 290 | 36 | ||
| 2025-11-22T00:00 | 10367 | 238 | -56.4 | |||
| 2025-11-22T00:00 | 10388 | 237 | 282 | 34 | ||
| 2025-11-22T00:00 | 10620 | 229 | 282 | 39 | ||
| 2025-11-22T00:01 | 10690 | 226 | -57.0 | |||
| 2025-11-22T00:01 | 10946 | 217 | 281 | 40 | ||
| 2025-11-22T00:02 | 11038 | 214 | -55.9 | |||
| 2025-11-22T00:02 | 11169 | 210 | -56.1 | |||
| 2025-11-22T00:02 | 11251 | 207 | 279 | 43 | ||
| 2025-11-22T00:02 | 11268 | 207 | -55.2 | |||
| 2025-11-22T00:03 | 11497 | 199 | -55.1 | |||
| 2025-11-22T00:03 | 11637 | 195 | -55.4 | |||
| 2025-11-22T00:03 | 11644 | 195 | 268 | 32 | ||
| 2025-11-22T00:04 | 11874 | 188 | 260 | 39 | ||
| 2025-11-22T00:04 | 12013 | 184 | -57.4 | |||
| 2025-11-22T00:05 | 12170 | 179 | 268 | 41 | ||
| 2025-11-22T00:05 | 12232 | 178 | -55.4 | |||
| 2025-11-22T00:06 | 12498 | 170 | 271 | 44 | ||
| 2025-11-22T00:06 | 12559 | 169 | -56.7 | |||
| 2025-11-22T00:06 | 12652 | 166 | -54.9 | 274 | 43 | |
| 2025-11-22T00:07 | 12906 | 160 | -55.3 | |||
| 2025-11-22T00:07 | 12951 | 159 | 276 | 42 | ||
| 2025-11-22T00:08 | 13156 | 154 | -55.3 | |||
| 2025-11-22T00:08 | 13253 | 151 | -54.4 | |||
| 2025-11-22T00:08 | 13291 | 150 | 271 | 41 | ||
| 2025-11-22T00:09 | 13408 | 148 | -53.9 | |||
| 2025-11-22T00:09 | 13509 | 145 | 270 | 40 | ||
| 2025-11-22T00:10 | 13808 | 139 | -53.9 | |||
| 2025-11-22T00:10 | 13855 | 138 | 262 | 37 | ||
| 2025-11-22T00:11 | 14197 | 131 | 264 | 33 | ||
| 2025-11-22T00:11 | 14285 | 129 | -56.7 | |||
| 2025-11-22T00:12 | 14526 | 124 | 260 | 37 | ||
| 2025-11-22T00:12 | 14675 | 121 | -59.4 | |||
| 2025-11-22T00:13 | 14763 | 119 | 267 | 39 | ||
| 2025-11-22T00:13 | 14928 | 116 | -58.8 | |||
| 2025-11-22T00:14 | 15119 | 113 | -58.2 | |||
| 2025-11-22T00:14 | 15125 | 113 | 263 | 36 | ||
| 2025-11-22T00:14 | 15284 | 110 | -58.5 | |||
| 2025-11-22T00:15 | 15441 | 107 | 267 | 34 | ||
| 2025-11-22T00:16 | 15832 | 101 | 273 | 31 | ||
| 2025-11-22T00:16 | 15955 | 99 | -59.6 | |||
| 2025-11-22T00:17 | 16184 | 95 | 266 | 38 | ||
| 2025-11-22T00:17 | 16191 | 95 | -60.4 | |||
| 2025-11-22T00:18 | 16438 | 91 | -58.9 | |||
| 2025-11-22T00:18 | 16452 | 91 | 270 | 39 | ||
| 2025-11-22T00:19 | 16734 | 87 | 278 | 34 | ||
| 2025-11-22T00:19 | 16799 | 86 | -56.2 | |||
| 2025-11-22T00:19 | 17049 | 83 | 271 | 33 | ||
| 2025-11-22T00:20 | 17396 | 78 | 280 | 29 | ||
| 2025-11-22T00:21 | 17520 | 77 | -59.0 | |||
| 2025-11-22T00:21 | 17679 | 75 | -58.8 | |||
| 2025-11-22T00:22 | 17753 | 74 | 270 | 31 | ||
| 2025-11-22T00:22 | 17986 | 71 | 269 | 31 | ||
| 2025-11-22T00:23 | 18149 | 70 | 266 | 27 | ||
| 2025-11-22T00:23 | 18320 | 68 | -58.2 | |||
| 2025-11-22T00:24 | 18471 | 66 | 262 | 28 | ||
| 2025-11-22T00:24 | 18518 | 66 | -58.0 | |||
| 2025-11-22T00:24 | 18695 | 64 | 261 | 27 | ||
| 2025-11-22T00:25 | 18878 | 62 | -56.1 | |||
| 2025-11-22T00:25 | 19020 | 61 | 271 | 25 | ||
| 2025-11-22T00:26 | 19236 | 59 | 271 | 24 | ||
| 2025-11-22T00:26 | 19359 | 58 | -54.8 | 270 | 18 | |
| 2025-11-22T11:30 | 18 | 1018 | 3.6 | -1.6 | 150 | 2 |
| 2025-11-22T11:30 | 20 | 1018 | 3.8 | -2.2 | 15 | 1 |
| 2025-11-22T11:30 | 97 | 1009 | 3.8 | -3.3 | ||
| 2025-11-22T11:30 | 118 | 1006 | 160 | 3 | ||
| 2025-11-22T11:30 | 139 | 1004 | 4.7 | -4.1 | ||
| 2025-11-22T11:31 | 412 | 970 | 232 | 2 | ||
| 2025-11-22T11:32 | 522 | 957 | 298 | 5 | ||
| 2025-11-22T11:33 | 783 | 927 | -0.3 | -4.5 | 275 | 5 |
| 2025-11-22T11:33 | 902 | 913 | 291 | 7 | ||
| 2025-11-22T11:34 | 1241 | 875 | 284 | 7 | ||
| 2025-11-22T11:34 | 1436 | 853 | -6.0 | -6.5 | ||
| 2025-11-22T11:35 | 1560 | 840 | 271 | 10 | ||
| 2025-11-22T11:36 | 1820 | 812 | 279 | 14 | ||
| 2025-11-22T11:36 | 1890 | 805 | -8.2 | -9.1 | ||
| 2025-11-22T11:36 | 1947 | 799 | -8.2 | -9.5 | ||
| 2025-11-22T11:36 | 2012 | 793 | 286 | 20 | ||
| 2025-11-22T11:36 | 2017 | 792 | -6.9 | -10.9 | ||
| 2025-11-22T11:37 | 2163 | 778 | 289 | 17 | ||
| 2025-11-22T11:37 | 2296 | 764 | -8.2 | -12.4 | ||
| 2025-11-22T11:38 | 2422 | 752 | 300 | 19 | ||
| 2025-11-22T11:38 | 2501 | 745 | -8.0 | -13.6 | ||
| 2025-11-22T11:38 | 2585 | 737 | -7.4 | -12.7 | ||
| 2025-11-22T11:39 | 2684 | 727 | -7.9 | -14.3 | ||
| 2025-11-22T11:39 | 2705 | 725 | 306 | 21 | ||
| 2025-11-22T11:39 | 2814 | 715 | -7.6 | -15.3 | ||
| 2025-11-22T11:40 | 2957 | 702 | -7.9 | -16.8 | ||
| 2025-11-22T11:40 | 3030 | 696 | 296 | 21 | ||
| 2025-11-22T11:40 | 3178 | 682 | -8.5 | -18.3 | ||
| 2025-11-22T11:41 | 3391 | 664 | 290 | 22 | ||
| 2025-11-22T11:41 | 3409 | 662 | -9.7 | -20.8 | ||
| 2025-11-22T11:42 | 3708 | 637 | 290 | 22 | ||
| 2025-11-22T11:42 | 3741 | 634 | -11.4 | -24.8 | ||
| 2025-11-22T11:42 | 3873 | 623 | 285 | 24 | ||
| 2025-11-22T11:43 | 4006 | 613 | -12.9 | -27.6 | ||
| 2025-11-22T11:43 | 4108 | 604 | 282 | 26 | ||
| 2025-11-22T11:43 | 4182 | 599 | -13.5 | -30.3 | ||
| 2025-11-22T11:44 | 4391 | 582 | -14.3 | -34.1 | ||
| 2025-11-22T11:44 | 4416 | 580 | 288 | 26 | ||
| 2025-11-22T11:45 | 4702 | 559 | 288 | 27 | ||
| 2025-11-22T11:46 | 4939 | 541 | -18.0 | -37.8 | ||
| 2025-11-22T11:46 | 5001 | 537 | 289 | 27 | ||
| 2025-11-22T11:47 | 5289 | 516 | 289 | 23 | ||
| 2025-11-22T11:47 | 5326 | 514 | -20.7 | -38.3 | ||
| 2025-11-22T11:48 | 5576 | 497 | -22.5 | -42.1 | ||
| 2025-11-22T11:48 | 5601 | 495 | 280 | 24 | ||
| 2025-11-22T11:49 | 5920 | 474 | 276 | 22 | ||
| 2025-11-22T11:49 | 6010 | 468 | -25.8 | -45.5 | ||
| 2025-11-22T11:50 | 6233 | 454 | 278 | 21 | ||
| 2025-11-22T11:51 | 6546 | 434 | 278 | 21 | ||
| 2025-11-22T11:51 | 6644 | 428 | -31.4 | -49.5 | ||
| 2025-11-22T11:52 | 6865 | 415 | 277 | 21 | ||
| 2025-11-22T11:53 | 7174 | 397 | 273 | 21 | ||
| 2025-11-22T11:53 | 7346 | 388 | -37.3 | -57.0 | ||
| 2025-11-22T11:54 | 7502 | 379 | 272 | 21 | ||
| 2025-11-22T11:54 | 7660 | 370 | -40.0 | -58.5 | ||
| 2025-11-22T11:55 | 7844 | 360 | 280 | 21 | ||
| 2025-11-22T11:56 | 8167 | 343 | 279 | 20 | ||
| 2025-11-22T11:57 | 8496 | 327 | 276 | 22 | ||
| 2025-11-22T11:57 | 8656 | 319 | -49.1 | |||
| 2025-11-22T11:58 | 8812 | 311 | 271 | 23 | ||
| 2025-11-22T11:58 | 8969 | 304 | -51.5 | |||
| 2025-11-22T11:59 | 9119 | 297 | 271 | 23 | ||
| 2025-11-22T12:00 | 9410 | 284 | 273 | 26 | ||
| 2025-11-22T12:01 | 9594 | 276 | -55.7 | |||
| 2025-11-22T12:01 | 9695 | 271 | 276 | 24 | ||
| 2025-11-22T12:02 | 9928 | 261 | -57.1 | |||
| 2025-11-22T12:02 | 9996 | 259 | 286 | 22 | ||
| 2025-11-22T12:02 | 10169 | 252 | -58.4 | |||
| 2025-11-22T12:03 | 10311 | 246 | 278 | 25 | ||
| 2025-11-22T12:04 | 10631 | 234 | 275 | 26 | ||
| 2025-11-22T12:04 | 10739 | 230 | -60.3 | |||
| 2025-11-22T12:05 | 10889 | 224 | -60.4 | |||
| 2025-11-22T12:05 | 10994 | 221 | 276 | 28 | ||
| 2025-11-22T12:06 | 11288 | 210 | -60.9 | |||
| 2025-11-22T12:06 | 11309 | 210 | 276 | 33 | ||
| 2025-11-22T12:07 | 11586 | 200 | 277 | 28 | ||
| 2025-11-22T12:07 | 11632 | 199 | -62.2 | |||
| 2025-11-22T12:07 | 11684 | 197 | -58.9 | |||
| 2025-11-22T12:07 | 11733 | 196 | 272 | 29 | ||
| 2025-11-22T12:08 | 11809 | 193 | -58.2 | |||
| 2025-11-22T12:08 | 11844 | 192 | 273 | 32 | ||
| 2025-11-22T12:08 | 11964 | 189 | -57.1 | |||
| 2025-11-22T12:09 | 12146 | 183 | 267 | 32 | ||
| 2025-11-22T12:09 | 12193 | 182 | -57.7 | |||
| 2025-11-22T12:10 | 12506 | 173 | 272 | 33 | ||
| 2025-11-22T12:10 | 12676 | 169 | -57.5 | |||
| 2025-11-22T12:11 | 12831 | 165 | 269 | 33 | ||
| 2025-11-22T12:11 | 13037 | 159 | -58.0 | |||
| 2025-11-22T12:12 | 13108 | 157 | 267 | 37 | ||
| 2025-11-22T12:13 | 13366 | 151 | 264 | 38 | ||
| 2025-11-22T12:13 | 13535 | 147 | -55.6 | |||
| 2025-11-22T12:14 | 13644 | 145 | 271 | 36 | ||
| 2025-11-22T12:14 | 13743 | 142 | -55.1 | |||
| 2025-11-22T12:15 | 13945 | 138 | 274 | 34 | ||
| 2025-11-22T12:15 | 14169 | 133 | -55.2 | |||
| 2025-11-22T12:16 | 14252 | 132 | 267 | 37 | ||
| 2025-11-22T12:17 | 14520 | 126 | -57.0 | |||
| 2025-11-22T12:17 | 14562 | 125 | 265 | 35 | ||
| 2025-11-22T12:17 | 14721 | 122 | -57.0 | |||
| 2025-11-22T12:18 | 14900 | 119 | 273 | 37 | ||
| 2025-11-22T12:18 | 14924 | 118 | -57.7 | |||
| 2025-11-22T12:19 | 15259 | 112 | 271 | 37 | ||
| 2025-11-22T12:19 | 15406 | 110 | -59.2 | |||
| 2025-11-22T12:20 | 15587 | 106 | 270 | 35 | ||
| 2025-11-22T12:20 | 15683 | 105 | -59.7 | |||
| 2025-11-22T12:21 | 15852 | 102 | 271 | 35 | ||
| 2025-11-22T12:21 | 16045 | 99 | 269 | 37 | ||
| 2025-11-22T12:21 | 16094 | 98 | -60.2 | |||
| 2025-11-22T12:22 | 16375 | 94 | 282 | 33 | ||
| 2025-11-22T12:22 | 16383 | 94 | -58.1 | |||
| 2025-11-22T12:23 | 16705 | 89 | 276 | 27 | ||
| 2025-11-22T12:23 | 16783 | 88 | -58.8 | |||
| 2025-11-22T12:24 | 16863 | 87 | 274 | 28 | ||
| 2025-11-22T12:24 | 16994 | 85 | -58.2 | |||
| 2025-11-22T12:25 | 17168 | 83 | 269 | 30 | ||
| 2025-11-22T12:25 | 17377 | 80 | -55.3 | |||
| 2025-11-22T12:26 | 17507 | 78 | 275 | 29 | ||
| 2025-11-22T12:26 | 17747 | 76 | -56.6 | |||
| 2025-11-22T12:27 | 17872 | 74 | 273 | 27 | ||
| 2025-11-22T12:28 | 18177 | 71 | 273 | 23 | ||
| 2025-11-22T12:28 | 18305 | 69 | -57.3 | |||
| 2025-11-22T12:29 | 18565 | 66 | 263 | 30 | ||
| 2025-11-22T12:29 | 18781 | 64 | 272 | 29 | ||
| 2025-11-22T12:30 | 19082 | 61 | -58.2 | |||
| 2025-11-22T12:30 | 19101 | 61 | 264 | 26 | ||
| 2025-11-22T12:31 | 19456 | 58 | 265 | 24 | ||
| 2025-11-22T12:31 | 19518 | 57 | -57.3 | |||
| 2025-11-22T12:32 | 19629 | 56 | 259 | 26 | ||
| 2025-11-22T12:32 | 19766 | 55 | -55.0 | |||
| 2025-11-22T12:32 | 19884 | 54 | 248 | 27 | ||
| 2025-11-22T12:32 | 19908 | 54 | -54.6 | |||
| 2025-11-22T12:33 | 20290 | 51 | 250 | 27 | ||
| 2025-11-22T12:34 | 20718 | 47 | 255 | 24 | ||
| 2025-11-22T12:35 | 20937 | 46 | -57.5 | |||
| 2025-11-22T12:35 | 21118 | 44 | 272 | 22 | ||
| 2025-11-22T12:35 | 21186 | 44 | -57.1 | 272 | 22 | |
| 2025-11-22T23:30 | 18 | 1018 | 7.4 | 1.0 | 110 | 2 |
| 2025-11-22T23:30 | 24 | 1017 | 7.2 | 0.6 | 0 | 0 |
| 2025-11-22T23:30 | 74 | 1011 | 93 | 2 | ||
| 2025-11-22T23:30 | 109 | 1007 | 7.3 | -0.2 | ||
| 2025-11-22T23:30 | 157 | 1001 | 155 | 3 | ||
| 2025-11-22T23:31 | 282 | 986 | 187 | 7 | ||
| 2025-11-22T23:31 | 366 | 976 | 5.7 | -0.6 | ||
| 2025-11-22T23:31 | 490 | 961 | 179 | 9 | ||
| 2025-11-22T23:32 | 613 | 947 | 4.7 | 0.5 | ||
| 2025-11-22T23:32 | 703 | 936 | 224 | 7 | ||
| 2025-11-22T23:33 | 997 | 903 | 1.8 | 0.5 | ||
| 2025-11-22T23:33 | 1056 | 896 | 234 | 11 | ||
| 2025-11-22T23:33 | 1074 | 894 | 1.6 | 0.3 | ||
| 2025-11-22T23:34 | 1280 | 872 | 234 | 8 | ||
| 2025-11-22T23:35 | 1548 | 843 | -2.1 | -2.4 | ||
| 2025-11-22T23:35 | 1617 | 835 | 235 | 8 | ||
| 2025-11-22T23:35 | 1710 | 826 | -3.0 | -3.7 | ||
| 2025-11-22T23:35 | 1722 | 824 | -2.7 | -3.8 | ||
| 2025-11-22T23:36 | 1965 | 799 | 229 | 9 | ||
| 2025-11-22T23:36 | 2085 | 787 | -4.9 | -5.7 | ||
| 2025-11-22T23:36 | 2107 | 785 | 224 | 11 | ||
| 2025-11-22T23:36 | 2203 | 775 | -5.8 | -7.0 | ||
| 2025-11-22T23:37 | 2246 | 771 | -6.2 | -9.9 | ||
| 2025-11-22T23:37 | 2330 | 763 | 256 | 14 | ||
| 2025-11-22T23:38 | 2549 | 742 | -8.3 | -14.1 | ||
| 2025-11-22T23:38 | 2643 | 733 | 265 | 13 | ||
| 2025-11-22T23:39 | 2950 | 704 | 256 | 14 | ||
| 2025-11-22T23:39 | 2965 | 703 | -10.4 | -14.3 | ||
| 2025-11-22T23:39 | 3070 | 693 | -11.0 | -15.2 | ||
| 2025-11-22T23:40 | 3261 | 676 | 258 | 13 | ||
| 2025-11-22T23:41 | 3498 | 656 | -13.7 | -19.0 | ||
| 2025-11-22T23:41 | 3572 | 649 | 261 | 15 | ||
| 2025-11-22T23:42 | 3795 | 630 | -15.5 | -21.9 | ||
| 2025-11-22T23:42 | 3911 | 621 | 253 | 18 | ||
| 2025-11-22T23:42 | 3940 | 618 | -16.8 | -24.1 | ||
| 2025-11-22T23:42 | 4121 | 604 | -17.8 | -26.6 | ||
| 2025-11-22T23:43 | 4156 | 601 | 263 | 18 | ||
| 2025-11-22T23:43 | 4256 | 593 | -18.2 | -29.6 | ||
| 2025-11-22T23:43 | 4390 | 582 | -18.3 | -32.4 | ||
| 2025-11-22T23:44 | 4522 | 572 | 269 | 19 | ||
| 2025-11-22T23:44 | 4560 | 569 | -18.5 | -32.9 | ||
| 2025-11-22T23:44 | 4888 | 545 | -20.2 | -33.7 | 280 | 20 |
| 2025-11-22T23:45 | 4948 | 540 | -20.3 | -38.5 | ||
| 2025-11-22T23:45 | 5035 | 534 | 287 | 18 | ||
| 2025-11-22T23:46 | 5348 | 512 | -23.4 | -40.1 | ||
| 2025-11-22T23:46 | 5423 | 506 | 287 | 19 | ||
| 2025-11-22T23:47 | 5779 | 482 | -27.3 | -38.4 | ||
| 2025-11-22T23:47 | 5790 | 481 | 291 | 19 | ||
| 2025-11-22T23:48 | 6139 | 459 | 289 | 21 | ||
| 2025-11-22T23:48 | 6355 | 445 | -32.3 | -42.1 | ||
| 2025-11-22T23:49 | 6481 | 437 | 282 | 20 | ||
| 2025-11-22T23:49 | 6510 | 435 | -33.4 | -46.0 | ||
| 2025-11-22T23:49 | 6567 | 432 | -33.7 | -49.4 | ||
| 2025-11-22T23:50 | 6818 | 416 | 272 | 22 | ||
| 2025-11-22T23:51 | 7113 | 399 | -37.5 | -51.0 | ||
| 2025-11-22T23:51 | 7153 | 397 | 273 | 22 | ||
| 2025-11-22T23:52 | 7492 | 378 | 266 | 22 | ||
| 2025-11-22T23:52 | 7509 | 377 | -40.0 | -52.5 | ||
| 2025-11-22T23:53 | 7836 | 359 | 260 | 23 | ||
| 2025-11-22T23:53 | 7876 | 357 | -42.8 | |||
| 2025-11-22T23:54 | 8183 | 341 | 265 | 25 | ||
| 2025-11-22T23:55 | 8527 | 324 | 261 | 23 | ||
| 2025-11-22T23:55 | 8648 | 318 | -49.0 | |||
| 2025-11-22T23:56 | 8785 | 311 | -49.9 | |||
| 2025-11-22T23:56 | 8859 | 308 | 262 | 22 | ||
| 2025-11-22T23:56 | 9042 | 299 | -51.7 | |||
| 2025-11-22T23:57 | 9147 | 294 | 262 | 24 | ||
| 2025-11-22T23:58 | 9477 | 280 | 258 | 23 | ||
| 2025-11-22T23:59 | 9797 | 266 | 256 | 23 | ||
| 2025-11-22T23:59 | 9994 | 258 | -58.3 | |||
| 2025-11-23T00:00 | 10116 | 253 | 259 | 23 | ||
| 2025-11-23T00:01 | 10410 | 241 | 260 | 25 | ||
| 2025-11-23T00:02 | 10704 | 230 | 272 | 25 | ||
| 2025-11-23T00:02 | 10861 | 225 | -58.0 | |||
| 2025-11-23T00:03 | 11011 | 219 | 269 | 24 | ||
| 2025-11-23T00:04 | 11339 | 208 | 268 | 27 | ||
| 2025-11-23T00:04 | 11502 | 203 | -58.4 | |||
| 2025-11-23T00:05 | 11690 | 197 | 267 | 29 | ||
| 2025-11-23T00:05 | 11742 | 195 | -59.6 | |||
| 2025-11-23T00:06 | 12025 | 187 | 259 | 30 | ||
| 2025-11-23T00:06 | 12104 | 184 | -59.0 | |||
| 2025-11-23T00:06 | 12218 | 181 | -58.5 | |||
| 2025-11-23T00:07 | 12337 | 178 | 267 | 32 | ||
| 2025-11-23T00:08 | 12647 | 169 | 265 | 35 | ||
| 2025-11-23T00:08 | 12679 | 168 | -57.7 | |||
| 2025-11-23T00:09 | 12925 | 162 | 269 | 39 | ||
| 2025-11-23T00:09 | 12985 | 160 | -57.0 | |||
| 2025-11-23T00:10 | 13261 | 153 | 270 | 39 | ||
| 2025-11-23T00:10 | 13323 | 152 | -57.6 | |||
| 2025-11-23T00:11 | 13596 | 145 | 272 | 36 | ||
| 2025-11-23T00:11 | 13775 | 141 | 269 | 37 | ||
| 2025-11-23T00:11 | 13791 | 141 | -57.6 | |||
| 2025-11-23T00:12 | 14028 | 136 | -57.4 | |||
| 2025-11-23T00:12 | 14050 | 135 | 267 | 41 | ||
| 2025-11-23T00:13 | 14339 | 129 | -57.2 | |||
| 2025-11-23T00:13 | 14370 | 129 | 278 | 37 | ||
| 2025-11-23T00:14 | 14605 | 124 | -56.5 | |||
| 2025-11-23T00:14 | 14702 | 122 | 271 | 38 | ||
| 2025-11-23T00:15 | 14927 | 118 | -57.4 | 273 | 34 | |
| 2025-11-23T00:16 | 15285 | 111 | -58.8 | 273 | 37 | |
| 2025-11-23T00:16 | 15425 | 109 | -58.7 | |||
| 2025-11-23T00:17 | 15548 | 107 | 276 | 39 | ||
| 2025-11-23T00:17 | 15630 | 105 | -57.1 | |||
| 2025-11-23T00:17 | 15758 | 103 | -56.2 | |||
| 2025-11-23T00:17 | 15774 | 103 | 274 | 31 | ||
| 2025-11-23T00:18 | 16098 | 98 | 269 | 28 | ||
| 2025-11-23T00:19 | 16330 | 94 | -55.8 | |||
| 2025-11-23T00:19 | 16408 | 93 | 261 | 26 | ||
| 2025-11-23T00:20 | 16713 | 89 | 267 | 28 | ||
| 2025-11-23T00:21 | 16987 | 85 | 273 | 30 | ||
| 2025-11-23T00:21 | 17263 | 81 | 264 | 28 | ||
| 2025-11-23T00:21 | 17287 | 81 | -60.6 | |||
| 2025-11-23T00:22 | 17436 | 79 | 272 | 31 | ||
| 2025-11-23T00:22 | 17635 | 77 | 274 | 27 | ||
| 2025-11-23T00:23 | 17782 | 75 | -59.6 | |||
| 2025-11-23T00:23 | 17841 | 74 | 269 | 27 | ||
| 2025-11-23T00:24 | 18207 | 70 | 249 | 23 | ||
| 2025-11-23T00:24 | 18445 | 67 | -58.5 | |||
| 2025-11-23T00:25 | 18596 | 66 | 254 | 26 | ||
| 2025-11-23T00:25 | 18763 | 64 | -55.6 | |||
| 2025-11-23T00:26 | 18955 | 62 | 263 | 24 | ||
| 2025-11-23T00:26 | 19091 | 61 | -56.2 | |||
| 2025-11-23T00:27 | 19226 | 60 | 269 | 15 | ||
| 2025-11-23T00:27 | 19539 | 57 | 269 | 12 | ||
| 2025-11-23T00:28 | 19616 | 56 | -59.2 | |||
| 2025-11-23T00:28 | 19754 | 55 | 254 | 14 | ||
| 2025-11-23T00:29 | 20080 | 52 | 245 | 18 | ||
| 2025-11-23T00:29 | 20260 | 50 | -61.8 | |||
| 2025-11-23T00:30 | 20424 | 49 | 245 | 25 | ||
| 2025-11-23T00:30 | 20550 | 48 | -60.7 | |||
| 2025-11-23T00:31 | 20777 | 46 | 268 | 33 | ||
| 2025-11-23T00:31 | 20870 | 46 | -59.2 | |||
| 2025-11-23T00:32 | 21138 | 44 | 273 | 27 | ||
| 2025-11-23T00:32 | 21268 | 43 | -57.1 | |||
| 2025-11-23T00:32 | 21324 | 43 | -56.5 | 266 | 26 | |
| 2025-11-23T11:30 | 18 | 1015 | 6.6 | 2.9 | 150 | 4 |
| 2025-11-23T11:30 | 23 | 1015 | 6.7 | 2.6 | 324 | 1 |
| 2025-11-23T11:30 | 60 | 1010 | 163 | 3 | ||
| 2025-11-23T11:30 | 76 | 1008 | 6.8 | 1.9 | ||
| 2025-11-23T11:30 | 110 | 1004 | 8.6 | 2.2 | ||
| 2025-11-23T11:30 | 148 | 1000 | 9.2 | 1.8 | 171 | 4 |
| 2025-11-23T11:31 | 234 | 989 | 184 | 4 | ||
| 2025-11-23T11:31 | 267 | 985 | 8.7 | 1.6 | ||
| 2025-11-23T11:31 | 381 | 972 | 8.5 | 0.9 | ||
| 2025-11-23T11:31 | 397 | 970 | 156 | 3 | ||
| 2025-11-23T11:32 | 513 | 956 | 209 | 4 | ||
| 2025-11-23T11:32 | 716 | 933 | 200 | 5 | ||
| 2025-11-23T11:32 | 807 | 923 | 5.1 | 1.0 | ||
| 2025-11-23T11:33 | 925 | 910 | 222 | 12 | ||
| 2025-11-23T11:34 | 1189 | 881 | 3.3 | -0.2 | ||
| 2025-11-23T11:34 | 1224 | 877 | 242 | 13 | ||
| 2025-11-23T11:35 | 1491 | 848 | 249 | 16 | ||
| 2025-11-23T11:36 | 1791 | 817 | -1.1 | -3.3 | ||
| 2025-11-23T11:36 | 1802 | 816 | 255 | 15 | ||
| 2025-11-23T11:36 | 1992 | 797 | -2.5 | -3.9 | ||
| 2025-11-23T11:37 | 2146 | 781 | 251 | 19 | ||
| 2025-11-23T11:37 | 2212 | 775 | -4.2 | -5.3 | ||
| 2025-11-23T11:38 | 2448 | 752 | -5.7 | -6.4 | ||
| 2025-11-23T11:38 | 2518 | 745 | 250 | 19 | ||
| 2025-11-23T11:38 | 2670 | 731 | -7.1 | -8.7 | ||
| 2025-11-23T11:39 | 2797 | 719 | -8.2 | -13.2 | ||
| 2025-11-23T11:39 | 2842 | 715 | -8.7 | -15.7 | ||
| 2025-11-23T11:39 | 2899 | 710 | -8.9 | -21.9 | 258 | 18 |
| 2025-11-23T11:39 | 2961 | 704 | -7.7 | -25.8 | ||
| 2025-11-23T11:40 | 3266 | 677 | -9.5 | -27.8 | 266 | 16 |
| 2025-11-23T11:41 | 3570 | 651 | -10.7 | -31.7 | ||
| 2025-11-23T11:41 | 3615 | 647 | 254 | 16 | ||
| 2025-11-23T11:41 | 3795 | 632 | -11.9 | -37.4 | ||
| 2025-11-23T11:42 | 3963 | 618 | 252 | 16 | ||
| 2025-11-23T11:42 | 4145 | 603 | 250 | 17 | ||
| 2025-11-23T11:43 | 4258 | 594 | 252 | 15 | ||
| 2025-11-23T11:43 | 4559 | 571 | 253 | 16 | ||
| 2025-11-23T11:44 | 4928 | 543 | 260 | 19 | ||
| 2025-11-23T11:45 | 5142 | 528 | -22.5 | -45.0 | ||
| 2025-11-23T11:45 | 5307 | 516 | 259 | 16 | ||
| 2025-11-23T11:46 | 5443 | 506 | 256 | 20 | ||
| 2025-11-23T11:47 | 5702 | 489 | -27.2 | -46.0 | ||
| 2025-11-23T11:47 | 5749 | 485 | 254 | 18 | ||
| 2025-11-23T11:47 | 5851 | 478 | -27.9 | -47.2 | ||
| 2025-11-23T11:47 | 5890 | 476 | 253 | 19 | ||
| 2025-11-23T11:47 | 5924 | 474 | -28.4 | -47.0 | ||
| 2025-11-23T11:48 | 6037 | 466 | -29.2 | -52.1 | ||
| 2025-11-23T11:48 | 6214 | 455 | 252 | 20 | ||
| 2025-11-23T11:48 | 6241 | 453 | -30.8 | -53.4 | ||
| 2025-11-23T11:49 | 6406 | 443 | -31.7 | -51.7 | ||
| 2025-11-23T11:49 | 6479 | 438 | -32.3 | -52.9 | ||
| 2025-11-23T11:49 | 6532 | 435 | 253 | 21 | ||
| 2025-11-23T11:50 | 6796 | 419 | -34.3 | -55.4 | ||
| 2025-11-23T11:50 | 6842 | 416 | 258 | 22 | ||
| 2025-11-23T11:51 | 6969 | 409 | -35.4 | -50.0 | ||
| 2025-11-23T11:51 | 7125 | 399 | 265 | 27 | ||
| 2025-11-23T11:51 | 7216 | 394 | -36.9 | -51.7 | ||
| 2025-11-23T11:52 | 7339 | 387 | -37.0 | -54.2 | ||
| 2025-11-23T11:52 | 7431 | 382 | 274 | 31 | ||
| 2025-11-23T11:53 | 7730 | 366 | -40.0 | -55.3 | ||
| 2025-11-23T11:53 | 7769 | 364 | 267 | 32 | ||
| 2025-11-23T11:54 | 8124 | 345 | 269 | 32 | ||
| 2025-11-23T11:55 | 8478 | 327 | 268 | 31 | ||
| 2025-11-23T11:56 | 8824 | 311 | 270 | 31 | ||
| 2025-11-23T11:56 | 8901 | 307 | -49.5 | |||
| 2025-11-23T11:57 | 9049 | 300 | 273 | 32 | ||
| 2025-11-23T11:58 | 9340 | 287 | -52.6 | |||
| 2025-11-23T11:58 | 9377 | 285 | 271 | 35 | ||
| 2025-11-23T11:59 | 9691 | 272 | 273 | 34 | ||
| 2025-11-23T12:00 | 10013 | 258 | 270 | 32 | ||
| 2025-11-23T12:00 | 10077 | 256 | -57.3 | |||
| 2025-11-23T12:01 | 10341 | 245 | 266 | 32 | ||
| 2025-11-23T12:01 | 10583 | 236 | 262 | 34 | ||
| 2025-11-23T12:02 | 10845 | 226 | 267 | 37 | ||
| 2025-11-23T12:03 | 11034 | 220 | -60.3 | |||
| 2025-11-23T12:03 | 11126 | 216 | 266 | 40 | ||
| 2025-11-23T12:03 | 11139 | 216 | -59.7 | |||
| 2025-11-23T12:04 | 11323 | 210 | 270 | 34 | ||
| 2025-11-23T12:04 | 11390 | 207 | -57.8 | |||
| 2025-11-23T12:04 | 11483 | 204 | 267 | 34 | ||
| 2025-11-23T12:04 | 11527 | 203 | -56.6 | |||
| 2025-11-23T12:05 | 11677 | 198 | 271 | 38 | ||
| 2025-11-23T12:05 | 11836 | 193 | 264 | 35 | ||
| 2025-11-23T12:05 | 11892 | 192 | -56.6 | |||
| 2025-11-23T12:06 | 12140 | 184 | 266 | 38 | ||
| 2025-11-23T12:06 | 12189 | 183 | -56.0 | |||
| 2025-11-23T12:07 | 12437 | 176 | 267 | 36 | ||
| 2025-11-23T12:07 | 12546 | 173 | -55.8 | |||
| 2025-11-23T12:08 | 12648 | 170 | -55.5 | |||
| 2025-11-23T12:08 | 12751 | 168 | 262 | 38 | ||
| 2025-11-23T12:09 | 12968 | 162 | 259 | 35 | ||
| 2025-11-23T12:10 | 13299 | 154 | 263 | 40 | ||
| 2025-11-23T12:11 | 13625 | 146 | 261 | 39 | ||
| 2025-11-23T12:11 | 13641 | 146 | -57.1 | |||
| 2025-11-23T12:12 | 13944 | 139 | 262 | 40 | ||
| 2025-11-23T12:12 | 14092 | 136 | -57.5 | |||
| 2025-11-23T12:13 | 14201 | 133 | 264 | 40 | ||
| 2025-11-23T12:13 | 14248 | 132 | -57.6 | |||
| 2025-11-23T12:13 | 14518 | 127 | -58.5 | 264 | 46 | |
| 2025-11-23T12:14 | 14742 | 122 | 266 | 44 | ||
| 2025-11-23T12:15 | 14932 | 119 | 264 | 39 | ||
| 2025-11-23T12:15 | 15120 | 115 | -56.6 | |||
| 2025-11-23T12:16 | 15248 | 113 | 260 | 37 | ||
| 2025-11-23T12:17 | 15551 | 108 | 264 | 41 | ||
| 2025-11-23T12:17 | 15583 | 107 | -56.3 | |||
| 2025-11-23T12:18 | 15819 | 103 | -55.7 | |||
| 2025-11-23T12:18 | 15859 | 103 | 273 | 36 | ||
| 2025-11-23T12:18 | 15964 | 101 | -55.7 | |||
| 2025-11-23T12:19 | 16132 | 98 | 259 | 33 | ||
| 2025-11-23T12:19 | 16190 | 97 | -55.3 | |||
| 2025-11-23T12:19 | 16322 | 95 | -54.4 | |||
| 2025-11-23T12:20 | 16417 | 94 | 264 | 37 | ||
| 2025-11-23T12:21 | 16727 | 90 | 264 | 30 | ||
| 2025-11-23T12:21 | 16989 | 86 | -56.2 | |||
| 2025-11-23T12:22 | 17069 | 85 | 264 | 31 | ||
| 2025-11-23T12:22 | 17327 | 81 | -58.4 | |||
| 2025-11-23T12:22 | 17379 | 81 | 263 | 35 | ||
| 2025-11-23T12:23 | 17564 | 78 | 269 | 36 | ||
| 2025-11-23T12:23 | 17605 | 78 | -58.3 | |||
| 2025-11-23T12:24 | 17819 | 75 | -57.8 | |||
| 2025-11-23T12:24 | 17861 | 75 | 275 | 39 | ||
| 2025-11-23T12:24 | 17999 | 73 | 273 | 33 | ||
| 2025-11-23T12:25 | 18121 | 72 | -54.8 | |||
| 2025-11-23T12:25 | 18300 | 70 | 278 | 29 | ||
| 2025-11-23T12:25 | 18325 | 70 | -56.1 | 280 | 29 | |
| 2025-11-23T23:30 | 18 | 1013 | 6.4 | 4.1 | 80 | 1 |
| 2025-11-23T23:30 | 24 | 1013 | 6.9 | 4.2 | 0 | 0 |
| 2025-11-23T23:30 | 66 | 1008 | 7.0 | 3.1 | ||
| 2025-11-23T23:30 | 151 | 997 | 8.5 | 2.1 | ||
| 2025-11-23T23:31 | 223 | 989 | 217 | 3 | ||
| 2025-11-23T23:31 | 289 | 981 | 8.4 | 0.9 | ||
| 2025-11-23T23:31 | 418 | 966 | 8.0 | -1.5 | ||
| 2025-11-23T23:31 | 472 | 959 | 257 | 5 | ||
| 2025-11-23T23:32 | 649 | 939 | 6.8 | -5.2 | ||
| 2025-11-23T23:32 | 818 | 920 | 261 | 8 | ||
| 2025-11-23T23:33 | 1011 | 898 | 4.8 | -10.9 | ||
| 2025-11-23T23:33 | 1017 | 897 | 277 | 5 | ||
| 2025-11-23T23:34 | 1332 | 863 | 2.7 | -13.2 | 263 | 11 |
| 2025-11-23T23:34 | 1587 | 836 | 261 | 11 | ||
| 2025-11-23T23:35 | 1769 | 817 | 0.2 | -18.0 | ||
| 2025-11-23T23:35 | 1948 | 799 | 263 | 11 | ||
| 2025-11-23T23:36 | 2295 | 765 | 269 | 11 | ||
| 2025-11-23T23:37 | 2638 | 732 | 258 | 14 | ||
| 2025-11-23T23:37 | 2644 | 732 | -7.2 | -20.4 | ||
| 2025-11-23T23:38 | 2807 | 717 | -8.4 | -22.5 | ||
| 2025-11-23T23:38 | 2977 | 701 | -9.6 | -24.0 | ||
| 2025-11-23T23:38 | 2986 | 700 | 260 | 17 | ||
| 2025-11-23T23:39 | 3168 | 684 | -11.0 | -24.5 | ||
| 2025-11-23T23:39 | 3192 | 682 | 254 | 17 | ||
| 2025-11-23T23:39 | 3290 | 673 | -11.5 | -28.1 | ||
| 2025-11-23T23:40 | 3526 | 653 | 251 | 17 | ||
| 2025-11-23T23:40 | 3668 | 641 | -13.9 | -25.5 | ||
| 2025-11-23T23:41 | 3846 | 626 | -14.6 | -26.4 | ||
| 2025-11-23T23:41 | 3851 | 625 | 256 | 22 | ||
| 2025-11-23T23:41 | 4015 | 612 | -15.3 | -28.0 | ||
| 2025-11-23T23:42 | 4181 | 599 | 245 | 20 | ||
| 2025-11-23T23:42 | 4303 | 589 | -17.1 | -27.0 | ||
| 2025-11-23T23:43 | 4462 | 577 | -18.0 | -27.8 | ||
| 2025-11-23T23:43 | 4504 | 573 | 253 | 20 | ||
| 2025-11-23T23:44 | 4811 | 550 | 253 | 19 | ||
| 2025-11-23T23:44 | 4832 | 549 | -20.8 | -23.6 | ||
| 2025-11-23T23:45 | 5072 | 531 | -21.7 | -24.9 | ||
| 2025-11-23T23:45 | 5148 | 526 | 257 | 20 | ||
| 2025-11-23T23:46 | 5351 | 511 | -23.8 | -26.6 | ||
| 2025-11-23T23:46 | 5407 | 507 | 261 | 22 | ||
| 2025-11-23T23:46 | 5601 | 494 | -25.6 | -28.0 | ||
| 2025-11-23T23:47 | 5751 | 484 | 262 | 25 | ||
| 2025-11-23T23:47 | 5928 | 472 | -27.9 | -31.2 | ||
| 2025-11-23T23:48 | 6103 | 461 | 257 | 26 | ||
| 2025-11-23T23:48 | 6291 | 449 | -30.4 | -33.3 | ||
| 2025-11-23T23:48 | 6358 | 444 | 258 | 28 | ||
| 2025-11-23T23:49 | 6724 | 422 | 254 | 31 | ||
| 2025-11-23T23:50 | 6901 | 411 | 256 | 32 | ||
| 2025-11-23T23:51 | 7263 | 390 | 250 | 34 | ||
| 2025-11-23T23:51 | 7293 | 389 | -38.1 | -39.8 | ||
| 2025-11-23T23:52 | 7517 | 376 | -40.0 | -41.7 | ||
| 2025-11-23T23:52 | 7614 | 371 | 251 | 33 | ||
| 2025-11-23T23:53 | 7958 | 352 | 258 | 35 | ||
| 2025-11-23T23:53 | 7975 | 352 | -43.5 | |||
| 2025-11-23T23:54 | 8287 | 336 | 255 | 41 | ||
| 2025-11-23T23:54 | 8369 | 331 | -46.2 | |||
| 2025-11-23T23:55 | 8598 | 320 | 254 | 40 | ||
| 2025-11-23T23:56 | 8906 | 306 | 252 | 40 | ||
| 2025-11-23T23:57 | 9192 | 292 | 249 | 40 | ||
| 2025-11-23T23:57 | 9342 | 285 | -54.4 | |||
| 2025-11-23T23:58 | 9478 | 279 | 251 | 40 | ||
| 2025-11-23T23:58 | 9582 | 275 | -55.5 | |||
| 2025-11-23T23:59 | 9723 | 269 | 249 | 40 | ||
| 2025-11-23T23:59 | 9791 | 266 | -54.7 | |||
| 2025-11-23T23:59 | 9850 | 264 | 253 | 41 | ||
| 2025-11-24T00:00 | 10184 | 250 | 250 | 40 | ||
| 2025-11-24T00:01 | 10369 | 243 | -57.5 | |||
| 2025-11-24T00:01 | 10537 | 237 | 253 | 39 | ||
| 2025-11-24T00:02 | 10741 | 229 | -58.5 | |||
| 2025-11-24T00:02 | 10858 | 225 | 250 | 39 | ||
| 2025-11-24T00:03 | 11025 | 219 | -56.5 | |||
| 2025-11-24T00:03 | 11175 | 214 | 251 | 38 | ||
| 2025-11-24T00:03 | 11180 | 214 | -55.5 | |||
| 2025-11-24T00:04 | 11399 | 206 | 253 | 43 | ||
| 2025-11-24T00:04 | 11509 | 203 | -55.4 | |||
| 2025-11-24T00:04 | 11543 | 202 | 253 | 39 | ||
| 2025-11-24T00:05 | 11701 | 197 | 255 | 42 | ||
| 2025-11-24T00:05 | 11900 | 191 | 253 | 39 | ||
| 2025-11-24T00:06 | 12235 | 181 | 253 | 45 | ||
| 2025-11-24T00:07 | 12328 | 179 | -55.1 | |||
| 2025-11-24T00:07 | 12556 | 172 | 263 | 43 | ||
| 2025-11-24T00:08 | 12744 | 167 | -54.2 | |||
| 2025-11-24T00:08 | 12876 | 164 | 267 | 41 | ||
| 2025-11-24T00:09 | 13151 | 157 | -55.2 | |||
| 2025-11-24T00:09 | 13222 | 155 | 266 | 40 | ||
| 2025-11-24T00:10 | 13341 | 152 | -55.7 | |||
| 2025-11-24T00:10 | 13528 | 148 | 267 | 43 | ||
| 2025-11-24T00:11 | 13737 | 143 | -56.6 | |||
| 2025-11-24T00:11 | 13846 | 141 | 265 | 38 | ||
| 2025-11-24T00:12 | 14156 | 134 | 263 | 37 | ||
| 2025-11-24T00:13 | 14331 | 130 | -56.2 | |||
| 2025-11-24T00:13 | 14478 | 127 | 259 | 37 | ||
| 2025-11-24T00:13 | 14523 | 126 | -55.6 | |||
| 2025-11-24T00:14 | 14718 | 123 | -55.5 | |||
| 2025-11-24T00:14 | 14829 | 121 | 262 | 37 | ||
| 2025-11-24T00:15 | 14990 | 118 | 268 | 34 | ||
| 2025-11-24T00:16 | 15348 | 111 | -55.2 | 266 | 34 | |
| 2025-11-24T00:16 | 15581 | 107 | -55.9 | |||
| 2025-11-24T00:17 | 15681 | 105 | 263 | 32 | ||
| 2025-11-24T00:17 | 15916 | 102 | 262 | 32 | ||
| 2025-11-24T00:17 | 15947 | 101 | -56.5 | |||
| 2025-11-24T00:18 | 16075 | 99 | 264 | 36 | ||
| 2025-11-24T00:19 | 16421 | 94 | 266 | 33 | ||
| 2025-11-24T00:20 | 16797 | 88 | 267 | 34 | ||
| 2025-11-24T00:20 | 16908 | 87 | -58.5 | |||
| 2025-11-24T00:21 | 17186 | 83 | 271 | 37 | ||
| 2025-11-24T00:21 | 17316 | 81 | -58.5 | |||
| 2025-11-24T00:21 | 17387 | 81 | -58.5 | 263 | 35 | |
| 2025-11-24T11:30 | 18 | 1013 | 4.5 | 1.9 | 200 | 1 |
| 2025-11-24T11:30 | 22 | 1012 | 4.9 | 1.6 | 228 | 1 |
| 2025-11-24T11:30 | 52 | 1008 | 6.0 | 1.5 | ||
| 2025-11-24T11:30 | 88 | 1004 | 6.2 | 1.5 | ||
| 2025-11-24T11:30 | 120 | 1000 | 8.1 | 2.1 | ||
| 2025-11-24T11:31 | 192 | 991 | 8.1 | 2.1 | ||
| 2025-11-24T11:31 | 341 | 974 | 31 | 2 | ||
| 2025-11-24T11:31 | 441 | 962 | 6.2 | 0.5 | ||
| 2025-11-24T11:32 | 507 | 954 | 6.6 | -4.2 | ||
| 2025-11-24T11:32 | 676 | 935 | 157 | 1 | ||
| 2025-11-24T11:32 | 687 | 933 | 5.3 | -4.0 | ||
| 2025-11-24T11:33 | 948 | 904 | 3.7 | -10.7 | 318 | 2 |
| 2025-11-24T11:34 | 1284 | 867 | 295 | 3 | ||
| 2025-11-24T11:34 | 1457 | 848 | 276 | 2 | ||
| 2025-11-24T11:35 | 1602 | 833 | -1.3 | -15.2 | ||
| 2025-11-24T11:35 | 1681 | 825 | 248 | 3 | ||
| 2025-11-24T11:35 | 1782 | 815 | 269 | 6 | ||
| 2025-11-24T11:36 | 2070 | 785 | -4.3 | -16.8 | ||
| 2025-11-24T11:36 | 2115 | 781 | 267 | 8 | ||
| 2025-11-24T11:37 | 2368 | 756 | 283 | 7 | ||
| 2025-11-24T11:37 | 2417 | 751 | -7.0 | -20.9 | ||
| 2025-11-24T11:37 | 2493 | 744 | -6.6 | -24.8 | ||
| 2025-11-24T11:38 | 2603 | 734 | 302 | 6 | ||
| 2025-11-24T11:38 | 2728 | 722 | -6.7 | -33.3 | ||
| 2025-11-24T11:38 | 2750 | 720 | 283 | 9 | ||
| 2025-11-24T11:39 | 2923 | 704 | -7.3 | -37.4 | ||
| 2025-11-24T11:39 | 3044 | 693 | 297 | 8 | ||
| 2025-11-24T11:40 | 3284 | 672 | -9.3 | -37.6 | ||
| 2025-11-24T11:40 | 3324 | 669 | 280 | 9 | ||
| 2025-11-24T11:41 | 3665 | 640 | 292 | 9 | ||
| 2025-11-24T11:41 | 3791 | 629 | 287 | 10 | ||
| 2025-11-24T11:41 | 3831 | 626 | -13.3 | -32.6 | ||
| 2025-11-24T11:42 | 3994 | 613 | -14.4 | -28.6 | ||
| 2025-11-24T11:42 | 4041 | 609 | -14.7 | -25.6 | ||
| 2025-11-24T11:42 | 4138 | 601 | 282 | 9 | ||
| 2025-11-24T11:43 | 4360 | 584 | 269 | 9 | ||
| 2025-11-24T11:43 | 4452 | 577 | -16.9 | -31.9 | ||
| 2025-11-24T11:44 | 4549 | 569 | 291 | 8 | ||
| 2025-11-24T11:44 | 4712 | 557 | -18.5 | -36.0 | ||
| 2025-11-24T11:44 | 4832 | 548 | -19.5 | -34.6 | ||
| 2025-11-24T11:45 | 4875 | 545 | 269 | 11 | ||
| 2025-11-24T11:45 | 4945 | 539 | -20.4 | -34.6 | ||
| 2025-11-24T11:46 | 5208 | 521 | 279 | 11 | ||
| 2025-11-24T11:47 | 5541 | 497 | 284 | 11 | ||
| 2025-11-24T11:47 | 5680 | 488 | -26.3 | -39.8 | 284 | 11 |
| 2025-11-24T11:48 | 5884 | 474 | 276 | 8 | ||
| 2025-11-24T11:48 | 5995 | 467 | -28.6 | -42.5 | ||
| 2025-11-24T11:48 | 6060 | 463 | 265 | 8 | ||
| 2025-11-24T11:49 | 6284 | 448 | 263 | 9 | ||
| 2025-11-24T11:50 | 6639 | 426 | 258 | 10 | ||
| 2025-11-24T11:50 | 6752 | 419 | -35.2 | -49.4 | ||
| 2025-11-24T11:51 | 6997 | 405 | 248 | 9 | ||
| 2025-11-24T11:51 | 7111 | 398 | -37.1 | -56.2 | ||
| 2025-11-24T11:51 | 7153 | 396 | 272 | 10 | ||
| 2025-11-24T11:51 | 7201 | 393 | -37.5 | -57.2 | ||
| 2025-11-24T11:52 | 7359 | 384 | 244 | 11 | ||
| 2025-11-24T11:52 | 7515 | 375 | -39.8 | -57.1 | ||
| 2025-11-24T11:52 | 7533 | 374 | 260 | 15 | ||
| 2025-11-24T11:52 | 7551 | 374 | -40.0 | -58.5 | ||
| 2025-11-24T11:53 | 7706 | 365 | 265 | 13 | ||
| 2025-11-24T11:53 | 7722 | 364 | -41.2 | |||
| 2025-11-24T11:53 | 7896 | 355 | -41.7 | |||
| 2025-11-24T11:54 | 8047 | 347 | 271 | 17 | ||
| 2025-11-24T11:55 | 8399 | 329 | 265 | 19 | ||
| 2025-11-24T11:55 | 8639 | 318 | -46.5 | |||
| 2025-11-24T11:56 | 8752 | 312 | 256 | 22 | ||
| 2025-11-24T11:56 | 8940 | 304 | -48.5 | |||
| 2025-11-24T11:57 | 9092 | 297 | 255 | 26 | ||
| 2025-11-24T11:58 | 9435 | 281 | 256 | 27 | ||
| 2025-11-24T11:59 | 9793 | 266 | 264 | 28 | ||
| 2025-11-24T11:59 | 9861 | 263 | -55.0 | |||
| 2025-11-24T12:00 | 10122 | 253 | 258 | 28 | ||
| 2025-11-24T12:01 | 10450 | 240 | 250 | 30 | ||
| 2025-11-24T12:01 | 10558 | 236 | -59.9 | |||
| 2025-11-24T12:02 | 10785 | 227 | 250 | 36 | ||
| 2025-11-24T12:02 | 10980 | 220 | -59.8 | |||
| 2025-11-24T12:02 | 11041 | 218 | 255 | 41 | ||
| 2025-11-24T12:03 | 11279 | 210 | -58.4 | |||
| 2025-11-24T12:03 | 11360 | 207 | 254 | 38 | ||
| 2025-11-24T12:04 | 11489 | 203 | -56.2 | |||
| 2025-11-24T12:04 | 11580 | 200 | -54.8 | |||
| 2025-11-24T12:04 | 11664 | 198 | 255 | 39 | ||
| 2025-11-24T12:05 | 11803 | 194 | -54.8 | |||
| 2025-11-24T12:05 | 11877 | 191 | 259 | 44 | ||
| 2025-11-24T12:05 | 11987 | 188 | -53.8 | |||
| 2025-11-24T12:06 | 12185 | 182 | 258 | 41 | ||
| 2025-11-24T12:07 | 12369 | 177 | -54.4 | |||
| 2025-11-24T12:07 | 12504 | 174 | 251 | 39 | ||
| 2025-11-24T12:08 | 12839 | 165 | 257 | 44 | ||
| 2025-11-24T12:09 | 13061 | 159 | -54.1 | |||
| 2025-11-24T12:09 | 13153 | 157 | 260 | 45 | ||
| 2025-11-24T12:10 | 13421 | 150 | -53.4 | |||
| 2025-11-24T12:10 | 13456 | 150 | 262 | 41 | ||
| 2025-11-24T12:11 | 13651 | 145 | 259 | 42 | ||
| 2025-11-24T12:11 | 13855 | 141 | 259 | 45 | ||
| 2025-11-24T12:11 | 13903 | 140 | -54.5 | |||
| 2025-11-24T12:12 | 14115 | 135 | 260 | 44 | ||
| 2025-11-24T12:13 | 14375 | 130 | 254 | 38 | ||
| 2025-11-24T12:13 | 14494 | 127 | -55.0 | |||
| 2025-11-24T12:14 | 14629 | 125 | -54.5 | |||
| 2025-11-24T12:14 | 14677 | 124 | 259 | 38 | ||
| 2025-11-24T12:14 | 14854 | 120 | 249 | 35 | ||
| 2025-11-24T12:15 | 15005 | 117 | -53.5 | |||
| 2025-11-24T12:15 | 15183 | 114 | 256 | 40 | ||
| 2025-11-24T12:16 | 15476 | 109 | -54.7 | |||
| 2025-11-24T12:16 | 15526 | 108 | 253 | 38 | ||
| 2025-11-24T12:17 | 15631 | 107 | -53.2 | |||
| 2025-11-24T12:17 | 15858 | 103 | 252 | 40 | ||
| 2025-11-24T12:18 | 15912 | 102 | -54.0 | |||
| 2025-11-24T12:18 | 16086 | 99 | -54.1 | |||
| 2025-11-24T12:18 | 16182 | 98 | 254 | 34 | ||
| 2025-11-24T12:19 | 16355 | 95 | -54.0 | |||
| 2025-11-24T12:19 | 16396 | 95 | 250 | 27 | ||
| 2025-11-24T12:20 | 16629 | 91 | 249 | 34 | ||
| 2025-11-24T12:20 | 16778 | 89 | -54.7 | |||
| 2025-11-24T12:21 | 16930 | 87 | -54.3 | |||
| 2025-11-24T12:21 | 16977 | 86 | 260 | 39 | ||
| 2025-11-24T12:22 | 17322 | 82 | 268 | 38 | ||
| 2025-11-24T12:22 | 17553 | 79 | -54.9 | |||
| 2025-11-24T12:22 | 17562 | 79 | 262 | 30 | ||
| 2025-11-24T12:23 | 17696 | 77 | -53.4 | 263 | 28 | |
| 2025-11-24T23:30 | 18 | 1012 | 3.8 | -0.4 | 90 | 2 |
| 2025-11-24T23:30 | 23 | 1011 | 4.0 | -1.0 | 0 | 0 |
| 2025-11-24T23:30 | 70 | 1005 | 69 | 3 | ||
| 2025-11-24T23:30 | 158 | 994 | 3.0 | -1.4 | ||
| 2025-11-24T23:31 | 182 | 991 | 117 | 2 | ||
| 2025-11-24T23:31 | 199 | 989 | 5.9 | -0.2 | ||
| 2025-11-24T23:31 | 211 | 988 | 6.9 | -0.1 | ||
| 2025-11-24T23:31 | 405 | 965 | 162 | 3 | ||
| 2025-11-24T23:31 | 429 | 962 | 5.4 | 2.1 | ||
| 2025-11-24T23:31 | 478 | 956 | 5.1 | 1.6 | ||
| 2025-11-24T23:32 | 545 | 949 | 4.9 | -2.7 | ||
| 2025-11-24T23:32 | 643 | 937 | 155 | 2 | ||
| 2025-11-24T23:32 | 661 | 935 | 4.1 | -4.9 | ||
| 2025-11-24T23:32 | 759 | 924 | 3.3 | -2.0 | ||
| 2025-11-24T23:32 | 824 | 917 | 2.8 | -1.6 | ||
| 2025-11-24T23:33 | 997 | 897 | 168 | 1 | ||
| 2025-11-24T23:33 | 1187 | 876 | 0.0 | -3.4 | ||
| 2025-11-24T23:34 | 1288 | 865 | 277 | 3 | ||
| 2025-11-24T23:34 | 1371 | 856 | -1.2 | -5.8 | ||
| 2025-11-24T23:34 | 1491 | 844 | 271 | 3 | ||
| 2025-11-24T23:34 | 1539 | 838 | -2.7 | -6.0 | ||
| 2025-11-24T23:35 | 1630 | 829 | -3.3 | -6.9 | 260 | 3 |
| 2025-11-24T23:35 | 1705 | 821 | -3.1 | -11.8 | ||
| 2025-11-24T23:35 | 1747 | 817 | -2.5 | -15.5 | ||
| 2025-11-24T23:35 | 1876 | 804 | 281 | 4 | ||
| 2025-11-24T23:35 | 1939 | 797 | -3.7 | -13.9 | ||
| 2025-11-24T23:36 | 2150 | 776 | -5.0 | -18.5 | ||
| 2025-11-24T23:36 | 2247 | 767 | 255 | 6 | ||
| 2025-11-24T23:37 | 2380 | 754 | 231 | 5 | ||
| 2025-11-24T23:37 | 2447 | 747 | -6.9 | -18.5 | ||
| 2025-11-24T23:37 | 2460 | 746 | 224 | 4 | ||
| 2025-11-24T23:37 | 2550 | 737 | 237 | 6 | ||
| 2025-11-24T23:38 | 2886 | 706 | -9.6 | -21.6 | ||
| 2025-11-24T23:38 | 2922 | 703 | 229 | 8 | ||
| 2025-11-24T23:38 | 2976 | 698 | -10.2 | -23.4 | ||
| 2025-11-24T23:38 | 3043 | 692 | 233 | 8 | ||
| 2025-11-24T23:39 | 3149 | 683 | -10.9 | -29.5 | 223 | 8 |
| 2025-11-24T23:39 | 3277 | 671 | -11.6 | -27.3 | ||
| 2025-11-24T23:39 | 3283 | 671 | 237 | 10 | ||
| 2025-11-24T23:40 | 3604 | 643 | 247 | 12 | ||
| 2025-11-24T23:40 | 3844 | 623 | -14.9 | -28.3 | ||
| 2025-11-24T23:41 | 3982 | 612 | 254 | 16 | ||
| 2025-11-24T23:41 | 4184 | 596 | -17.6 | -31.7 | ||
| 2025-11-24T23:42 | 4360 | 582 | 261 | 15 | ||
| 2025-11-24T23:42 | 4593 | 564 | 252 | 16 | ||
| 2025-11-24T23:43 | 4880 | 542 | 254 | 17 | ||
| 2025-11-24T23:43 | 4946 | 537 | -23.6 | -35.1 | ||
| 2025-11-24T23:44 | 5252 | 515 | 244 | 16 | ||
| 2025-11-24T23:45 | 5652 | 487 | 261 | 15 | ||
| 2025-11-24T23:45 | 5658 | 487 | -28.2 | -40.8 | ||
| 2025-11-24T23:46 | 5794 | 478 | -29.4 | -37.2 | ||
| 2025-11-24T23:46 | 5912 | 470 | -30.0 | -40.0 | ||
| 2025-11-24T23:46 | 5975 | 466 | -30.2 | -46.0 | ||
| 2025-11-24T23:46 | 6031 | 462 | 253 | 14 | ||
| 2025-11-24T23:47 | 6265 | 447 | 247 | 13 | ||
| 2025-11-24T23:47 | 6446 | 436 | -33.8 | -45.1 | ||
| 2025-11-24T23:48 | 6658 | 423 | 238 | 15 | ||
| 2025-11-24T23:49 | 7048 | 400 | 239 | 16 | ||
| 2025-11-24T23:49 | 7223 | 389 | -40.0 | -51.9 | ||
| 2025-11-24T23:50 | 7430 | 378 | 233 | 18 | ||
| 2025-11-24T23:51 | 7838 | 356 | 228 | 19 | ||
| 2025-11-24T23:51 | 7859 | 354 | -44.9 | |||
| 2025-11-24T23:52 | 8137 | 340 | 240 | 23 | ||
| 2025-11-24T23:52 | 8409 | 326 | -48.7 | |||
| 2025-11-24T23:52 | 8439 | 325 | 236 | 25 | ||
| 2025-11-24T23:53 | 8782 | 308 | -51.6 | |||
| 2025-11-24T23:53 | 8821 | 306 | 234 | 21 | ||
| 2025-11-24T23:54 | 8963 | 300 | -52.3 | |||
| 2025-11-24T23:54 | 9216 | 288 | 245 | 24 | ||
| 2025-11-24T23:55 | 9608 | 271 | 251 | 29 | ||
| 2025-11-24T23:55 | 9621 | 270 | -57.1 | |||
| 2025-11-24T23:56 | 9966 | 256 | 245 | 34 | ||
| 2025-11-24T23:57 | 10219 | 246 | 243 | 36 | ||
| 2025-11-24T23:57 | 10280 | 244 | -58.1 | |||
| 2025-11-24T23:57 | 10379 | 240 | 240 | 33 | ||
| 2025-11-24T23:58 | 10413 | 238 | -57.4 | |||
| 2025-11-24T23:58 | 10522 | 234 | -56.5 | |||
| 2025-11-24T23:58 | 10699 | 228 | -56.3 | 242 | 36 | |
| 2025-11-24T23:59 | 11033 | 216 | 248 | 43 | ||
| 2025-11-25T00:00 | 11150 | 212 | -55.5 | |||
| 2025-11-25T00:00 | 11341 | 206 | 250 | 41 | ||
| 2025-11-25T00:01 | 11455 | 202 | -55.5 | |||
| 2025-11-25T00:01 | 11560 | 199 | -54.4 | |||
| 2025-11-25T00:01 | 11642 | 197 | 249 | 43 | ||
| 2025-11-25T00:02 | 11752 | 193 | -54.2 | |||
| 2025-11-25T00:02 | 11964 | 187 | 250 | 44 | ||
| 2025-11-25T00:02 | 11975 | 187 | -54.4 | |||
| 2025-11-25T00:03 | 12299 | 177 | 249 | 44 | ||
| 2025-11-25T00:04 | 12511 | 172 | -54.9 | |||
| 2025-11-25T00:04 | 12631 | 169 | 256 | 47 | ||
| 2025-11-25T00:05 | 12943 | 160 | 260 | 45 | ||
| 2025-11-25T00:06 | 13068 | 157 | -55.2 | |||
| 2025-11-25T00:06 | 13174 | 155 | 257 | 42 | ||
| 2025-11-25T00:07 | 13289 | 152 | -54.8 | |||
| 2025-11-25T00:07 | 13482 | 147 | 254 | 44 | ||
| 2025-11-25T00:08 | 13621 | 144 | 254 | 48 | ||
| 2025-11-25T00:08 | 13819 | 140 | 255 | 44 | ||
| 2025-11-25T00:08 | 13853 | 139 | -54.5 | |||
| 2025-11-25T00:09 | 14023 | 136 | -53.4 | 258 | 43 | |
| 2025-11-25T00:09 | 14155 | 133 | 254 | 39 | ||
| 2025-11-25T00:10 | 14387 | 128 | -52.9 | |||
| 2025-11-25T00:10 | 14472 | 126 | 247 | 39 | ||
| 2025-11-25T00:10 | 14560 | 125 | -52.7 | |||
| 2025-11-25T00:11 | 14695 | 122 | 245 | 41 | ||
| 2025-11-25T00:11 | 14906 | 118 | -53.4 | |||
| 2025-11-25T00:12 | 14940 | 118 | 243 | 43 | ||
| 2025-11-25T00:12 | 15135 | 114 | -54.0 | |||
| 2025-11-25T00:12 | 15176 | 113 | 246 | 39 | ||
| 2025-11-25T00:13 | 15499 | 108 | -54.5 | |||
| 2025-11-25T00:13 | 15542 | 107 | 245 | 41 | ||
| 2025-11-25T00:14 | 15714 | 104 | -55.1 | |||
| 2025-11-25T00:14 | 15875 | 102 | -54.4 | |||
| 2025-11-25T00:14 | 15905 | 101 | 251 | 41 | ||
| 2025-11-25T00:15 | 16202 | 97 | -53.2 | |||
| 2025-11-25T00:15 | 16247 | 96 | 245 | 42 | ||
| 2025-11-25T00:16 | 16535 | 92 | 249 | 50 | ||
| 2025-11-25T00:16 | 16573 | 91 | -54.2 | |||
| 2025-11-25T00:17 | 16729 | 89 | 256 | 44 | ||
| 2025-11-25T00:17 | 16762 | 88 | -52.0 | |||
| 2025-11-25T00:18 | 17065 | 84 | 259 | 33 | ||
| 2025-11-25T00:19 | 17394 | 80 | 264 | 36 | ||
| 2025-11-25T00:19 | 17468 | 79 | -51.7 | |||
| 2025-11-25T00:19 | 17542 | 78 | 265 | 36 | ||
| 2025-11-25T00:19 | 17583 | 78 | -49.9 | |||
| 2025-11-25T00:20 | 17789 | 76 | 264 | 27 | ||
| 2025-11-25T00:20 | 17971 | 73 | 251 | 23 | ||
| 2025-11-25T00:20 | 18086 | 72 | -49.8 | |||
| 2025-11-25T00:21 | 18213 | 71 | 246 | 26 | ||
| 2025-11-25T00:22 | 18585 | 67 | 249 | 28 | ||
| 2025-11-25T00:22 | 18602 | 67 | -50.2 | |||
| 2025-11-25T00:23 | 18956 | 63 | 239 | 29 | ||
| 2025-11-25T00:23 | 19261 | 60 | -51.3 | |||
| 2025-11-25T00:24 | 19283 | 60 | 252 | 33 | ||
| 2025-11-25T00:24 | 19459 | 58 | -50.8 | |||
| 2025-11-25T00:24 | 19524 | 58 | 247 | 33 | ||
| 2025-11-25T00:25 | 19910 | 55 | 254 | 34 | ||
| 2025-11-25T00:26 | 20052 | 53 | 253 | 35 | ||
| 2025-11-25T00:26 | 20187 | 52 | -50.8 | 256 | 38 | |
| 2025-11-25T00:27 | 20404 | 51 | 247 | 30 | ||
| 2025-11-25T00:27 | 20466 | 50 | -50.5 | |||
| 2025-11-25T00:27 | 20577 | 49 | -47.1 | |||
| 2025-11-25T00:27 | 20646 | 49 | 245 | 32 | ||
| 2025-11-25T00:28 | 20867 | 47 | 253 | 31 | ||
| 2025-11-25T00:28 | 21123 | 45 | 244 | 26 | ||
| 2025-11-25T00:29 | 21546 | 43 | 250 | 24 | ||
| 2025-11-25T00:30 | 21813 | 41 | -49.1 | |||
| 2025-11-25T00:30 | 21939 | 40 | 261 | 25 | ||
| 2025-11-25T00:31 | 22041 | 39 | -48.6 | |||
| 2025-11-25T00:31 | 22330 | 38 | 253 | 22 | ||
| 2025-11-25T00:32 | 22382 | 37 | -49.4 | |||
| 2025-11-25T00:32 | 22507 | 37 | 253 | 17 | ||
| 2025-11-25T00:32 | 22578 | 36 | -46.7 | |||
| 2025-11-25T00:32 | 22672 | 36 | 269 | 12 | ||
| 2025-11-25T00:33 | 22937 | 34 | 256 | 9 | ||
| 2025-11-25T00:33 | 22956 | 34 | -48.8 | |||
| 2025-11-25T00:34 | 23129 | 33 | 233 | 12 | ||
| 2025-11-25T00:34 | 23351 | 32 | 239 | 15 | ||
| 2025-11-25T00:35 | 23702 | 31 | 212 | 16 | ||
| 2025-11-25T00:35 | 23768 | 30 | -49.3 | 209 | 18 | |
| 2025-11-25T11:30 | 18 | 1011 | 6.3 | 2.4 | 140 | 3 |
| 2025-11-25T11:30 | 22 | 1010 | 6.3 | 2.0 | 0 | 0 |
| 2025-11-25T11:30 | 112 | 999 | 128 | 3 | ||
| 2025-11-25T11:30 | 132 | 997 | 6.0 | 2.8 | ||
| 2025-11-25T11:31 | 245 | 983 | 115 | 1 | ||
| 2025-11-25T11:31 | 336 | 972 | 5.3 | 3.3 | ||
| 2025-11-25T11:31 | 419 | 963 | 322 | 3 | ||
| 2025-11-25T11:32 | 616 | 939 | 3.2 | 1.6 | ||
| 2025-11-25T11:32 | 746 | 925 | 2.4 | 0.5 | ||
| 2025-11-25T11:32 | 757 | 923 | 8 | 2 | ||
| 2025-11-25T11:33 | 914 | 905 | 357 | 4 | ||
| 2025-11-25T11:33 | 1025 | 893 | 30 | 3 | ||
| 2025-11-25T11:33 | 1099 | 885 | 0.0 | -1.4 | ||
| 2025-11-25T11:34 | 1260 | 867 | 358 | 3 | ||
| 2025-11-25T11:34 | 1363 | 856 | 0 | 0 | ||
| 2025-11-25T11:34 | 1419 | 850 | -2.2 | -3.6 | ||
| 2025-11-25T11:35 | 1550 | 836 | -2.7 | -4.6 | ||
| 2025-11-25T11:35 | 1629 | 828 | -2.3 | -12.6 | ||
| 2025-11-25T11:35 | 1702 | 820 | 275 | 3 | ||
| 2025-11-25T11:36 | 1835 | 807 | 322 | 5 | ||
| 2025-11-25T11:36 | 1927 | 797 | -4.1 | -14.3 | ||
| 2025-11-25T11:36 | 1959 | 794 | 311 | 3 | ||
| 2025-11-25T11:36 | 2077 | 783 | 271 | 3 | ||
| 2025-11-25T11:36 | 2110 | 779 | -5.3 | -14.9 | ||
| 2025-11-25T11:37 | 2181 | 772 | -5.8 | -12.5 | ||
| 2025-11-25T11:37 | 2302 | 760 | 281 | 3 | ||
| 2025-11-25T11:37 | 2390 | 752 | 257 | 4 | ||
| 2025-11-25T11:37 | 2407 | 750 | -7.5 | -15.4 | ||
| 2025-11-25T11:38 | 2537 | 738 | 264 | 5 | ||
| 2025-11-25T11:38 | 2736 | 719 | 264 | 5 | ||
| 2025-11-25T11:39 | 2809 | 712 | -10.7 | -13.0 | ||
| 2025-11-25T11:39 | 2872 | 706 | 250 | 7 | ||
| 2025-11-25T11:39 | 2900 | 704 | -10.9 | -19.1 | ||
| 2025-11-25T11:39 | 3142 | 682 | -12.3 | -20.8 | ||
| 2025-11-25T11:39 | 3147 | 681 | 258 | 7 | ||
| 2025-11-25T11:40 | 3289 | 669 | -13.6 | -16.9 | ||
| 2025-11-25T11:40 | 3352 | 663 | -14.1 | -16.2 | ||
| 2025-11-25T11:40 | 3398 | 659 | 264 | 9 | ||
| 2025-11-25T11:40 | 3426 | 657 | -13.0 | -23.2 | ||
| 2025-11-25T11:41 | 3536 | 647 | 271 | 9 | ||
| 2025-11-25T11:41 | 3792 | 626 | -15.0 | -27.7 | ||
| 2025-11-25T11:41 | 3837 | 622 | 263 | 12 | ||
| 2025-11-25T11:42 | 3849 | 621 | -15.4 | -26.5 | ||
| 2025-11-25T11:42 | 4110 | 600 | 255 | 10 | ||
| 2025-11-25T11:43 | 4223 | 591 | -18.4 | -30.1 | ||
| 2025-11-25T11:43 | 4421 | 575 | -19.8 | -32.3 | ||
| 2025-11-25T11:43 | 4450 | 573 | 251 | 11 | ||
| 2025-11-25T11:44 | 4518 | 568 | -20.3 | -33.1 | ||
| 2025-11-25T11:44 | 4585 | 563 | -20.9 | -27.6 | ||
| 2025-11-25T11:44 | 4619 | 560 | -20.9 | -26.3 | ||
| 2025-11-25T11:44 | 4789 | 547 | 260 | 9 | ||
| 2025-11-25T11:45 | 5009 | 531 | -24.0 | -29.4 | 249 | 11 |
| 2025-11-25T11:45 | 5132 | 522 | -25.1 | -30.6 | ||
| 2025-11-25T11:46 | 5337 | 508 | 246 | 11 | ||
| 2025-11-25T11:46 | 5404 | 503 | -27.7 | -29.2 | ||
| 2025-11-25T11:47 | 5526 | 495 | -28.4 | -30.3 | ||
| 2025-11-25T11:47 | 5599 | 490 | -29.1 | -31.1 | ||
| 2025-11-25T11:47 | 5675 | 484 | 256 | 11 | ||
| 2025-11-25T11:47 | 5798 | 476 | -30.6 | -32.8 | ||
| 2025-11-25T11:48 | 5964 | 465 | -31.9 | -36.0 | ||
| 2025-11-25T11:48 | 6031 | 461 | 252 | 13 | ||
| 2025-11-25T11:49 | 6397 | 437 | 250 | 16 | ||
| 2025-11-25T11:49 | 6610 | 424 | 245 | 19 | ||
| 2025-11-25T11:50 | 6679 | 420 | -37.3 | -41.0 | ||
| 2025-11-25T11:51 | 6977 | 402 | 246 | 20 | ||
| 2025-11-25T11:51 | 6983 | 402 | -40.0 | -44.1 | ||
| 2025-11-25T11:52 | 7357 | 380 | 239 | 23 | ||
| 2025-11-25T11:52 | 7639 | 364 | 240 | 25 | ||
| 2025-11-25T11:53 | 8010 | 344 | 243 | 26 | ||
| 2025-11-25T11:54 | 8292 | 330 | 249 | 26 | ||
| 2025-11-25T11:54 | 8411 | 324 | 250 | 29 | ||
| 2025-11-25T11:55 | 8724 | 308 | 253 | 31 | ||
| 2025-11-25T11:56 | 8858 | 302 | -57.0 | |||
| 2025-11-25T11:56 | 8960 | 297 | 250 | 35 | ||
| 2025-11-25T11:57 | 9337 | 280 | 249 | 37 | ||
| 2025-11-25T11:57 | 9383 | 277 | -60.8 | |||
| 2025-11-25T11:57 | 9491 | 273 | 250 | 36 | ||
| 2025-11-25T11:57 | 9546 | 270 | -58.3 | |||
| 2025-11-25T11:58 | 9698 | 264 | -56.5 | |||
| 2025-11-25T11:58 | 9845 | 258 | -54.8 | |||
| 2025-11-25T11:58 | 9880 | 257 | 257 | 34 | ||
| 2025-11-25T11:58 | 9934 | 254 | -54.1 | |||
| 2025-11-25T11:59 | 10118 | 247 | -54.1 | |||
| 2025-11-25T11:59 | 10160 | 246 | 256 | 34 | ||
| 2025-11-25T11:59 | 10287 | 241 | -51.6 | |||
| 2025-11-25T11:59 | 10360 | 238 | 256 | 38 | ||
| 2025-11-25T12:00 | 10473 | 234 | -51.7 | |||
| 2025-11-25T12:00 | 10645 | 228 | 257 | 33 | ||
| 2025-11-25T12:00 | 10655 | 227 | -51.5 | |||
| 2025-11-25T12:01 | 10757 | 224 | -50.2 | |||
| 2025-11-25T12:01 | 10951 | 217 | 248 | 31 | ||
| 2025-11-25T12:02 | 11237 | 208 | -50.0 | |||
| 2025-11-25T12:02 | 11246 | 208 | 246 | 34 | ||
| 2025-11-25T12:03 | 11546 | 198 | 245 | 33 | ||
| 2025-11-25T12:04 | 11641 | 196 | -50.0 | |||
| 2025-11-25T12:04 | 11871 | 189 | 248 | 35 | ||
| 2025-11-25T12:05 | 11993 | 185 | -51.7 | |||
| 2025-11-25T12:05 | 12167 | 180 | -51.4 | |||
| 2025-11-25T12:05 | 12226 | 179 | 243 | 42 | ||
| 2025-11-25T12:06 | 12571 | 170 | 246 | 43 | ||
| 2025-11-25T12:06 | 12599 | 169 | -53.0 | |||
| 2025-11-25T12:07 | 12891 | 161 | 247 | 42 | ||
| 2025-11-25T12:08 | 13066 | 157 | 251 | 43 | ||
| 2025-11-25T12:09 | 13293 | 152 | -53.7 | |||
| 2025-11-25T12:09 | 13397 | 149 | 256 | 42 | ||
| 2025-11-25T12:09 | 13533 | 146 | -54.3 | |||
| 2025-11-25T12:10 | 13757 | 141 | 258 | 39 | ||
| 2025-11-25T12:11 | 13983 | 136 | -54.8 | |||
| 2025-11-25T12:11 | 14119 | 133 | 250 | 45 | ||
| 2025-11-25T12:11 | 14195 | 132 | -55.3 | |||
| 2025-11-25T12:12 | 14468 | 126 | 251 | 45 | ||
| 2025-11-25T12:12 | 14647 | 123 | -56.1 | |||
| 2025-11-25T12:13 | 14799 | 120 | 253 | 43 | ||
| 2025-11-25T12:13 | 14909 | 118 | -55.7 | |||
| 2025-11-25T12:14 | 15070 | 115 | 256 | 42 | ||
| 2025-11-25T12:15 | 15341 | 110 | 249 | 43 | ||
| 2025-11-25T12:15 | 15368 | 109 | -55.9 | |||
| 2025-11-25T12:15 | 15547 | 106 | 247 | 48 | ||
| 2025-11-25T12:15 | 15577 | 106 | -54.9 | |||
| 2025-11-25T12:16 | 15737 | 103 | 251 | 46 | ||
| 2025-11-25T12:16 | 15964 | 100 | -53.1 | |||
| 2025-11-25T12:16 | 15983 | 99 | 252 | 47 | ||
| 2025-11-25T12:17 | 16127 | 97 | -52.4 | |||
| 2025-11-25T12:17 | 16303 | 95 | 257 | 47 | ||
| 2025-11-25T12:18 | 16482 | 92 | -50.0 | |||
| 2025-11-25T12:18 | 16633 | 90 | 258 | 49 | ||
| 2025-11-25T12:19 | 16979 | 85 | 263 | 44 | ||
| 2025-11-25T12:20 | 17316 | 81 | -48.0 | 266 | 38 | |
| 2025-11-25T12:21 | 17492 | 79 | -47.0 | |||
| 2025-11-25T12:21 | 17669 | 77 | 253 | 36 | ||
| 2025-11-25T12:22 | 17943 | 74 | 250 | 34 | ||
| 2025-11-25T12:23 | 18069 | 72 | -47.3 | |||
| 2025-11-25T12:23 | 18311 | 70 | 250 | 39 | ||
| 2025-11-25T12:24 | 18491 | 68 | -47.8 | |||
| 2025-11-25T12:24 | 18503 | 68 | 253 | 38 | ||
| 2025-11-25T12:25 | 18864 | 64 | 261 | 33 | ||
| 2025-11-25T12:26 | 19130 | 62 | -43.5 | |||
| 2025-11-25T12:26 | 19221 | 61 | 249 | 25 | ||
| 2025-11-25T12:26 | 19435 | 59 | -42.7 | |||
| 2025-11-25T12:27 | 19596 | 58 | 229 | 28 | ||
| 2025-11-25T12:27 | 19633 | 57 | -43.5 | |||
| 2025-11-25T12:28 | 19893 | 55 | -45.0 | |||
| 2025-11-25T12:28 | 19967 | 54 | 221 | 27 | ||
| 2025-11-25T12:29 | 20351 | 51 | 220 | 29 | ||
| 2025-11-25T12:30 | 20652 | 49 | -50.5 | |||
| 2025-11-25T12:30 | 20720 | 49 | 232 | 30 | ||
| 2025-11-25T12:30 | 20922 | 47 | 235 | 26 | ||
| 2025-11-25T12:31 | 21292 | 44 | 226 | 27 | ||
| 2025-11-25T12:32 | 21337 | 44 | -49.8 | |||
| 2025-11-25T12:32 | 21690 | 42 | 240 | 23 | ||
| 2025-11-25T12:33 | 21880 | 41 | -49.2 | |||
| 2025-11-25T12:33 | 22061 | 40 | 242 | 22 | ||
| 2025-11-25T12:34 | 22249 | 38 | 235 | 20 | ||
| 2025-11-25T12:34 | 22266 | 38 | -48.0 | |||
| 2025-11-25T12:35 | 22637 | 36 | 241 | 22 | ||
| 2025-11-25T12:35 | 22668 | 36 | -49.1 | |||
| 2025-11-25T12:35 | 22743 | 36 | -48.4 | 238 | 19 | |
| 2025-11-25T23:30 | 18 | 1016 | 6.1 | 2.7 | 360 | 3 |
| 2025-11-25T23:30 | 22 | 1015 | 6.2 | 2.5 | 0 | 0 |
| 2025-11-25T23:31 | 164 | 998 | 358 | 3 | ||
| 2025-11-25T23:31 | 276 | 984 | 3.6 | -0.1 | ||
| 2025-11-25T23:31 | 303 | 981 | 339 | 6 | ||
| 2025-11-25T23:31 | 388 | 971 | 2.8 | -1.0 | ||
| 2025-11-25T23:32 | 574 | 949 | 1.4 | -1.7 | 343 | 4 |
| 2025-11-25T23:33 | 913 | 909 | 333 | 5 | ||
| 2025-11-25T23:33 | 931 | 907 | -1.5 | -2.9 | ||
| 2025-11-25T23:33 | 1094 | 889 | -3.0 | -3.7 | ||
| 2025-11-25T23:34 | 1192 | 878 | -3.4 | -5.9 | ||
| 2025-11-25T23:34 | 1215 | 875 | 333 | 7 | ||
| 2025-11-25T23:34 | 1421 | 853 | -4.8 | -6.2 | ||
| 2025-11-25T23:35 | 1535 | 840 | 325 | 11 | ||
| 2025-11-25T23:35 | 1575 | 836 | -5.9 | -6.8 | ||
| 2025-11-25T23:35 | 1687 | 824 | 315 | 6 | ||
| 2025-11-25T23:35 | 1692 | 824 | -5.1 | -8.7 | ||
| 2025-11-25T23:35 | 1749 | 818 | -3.0 | -10.3 | ||
| 2025-11-25T23:36 | 1780 | 815 | 284 | 4 | ||
| 2025-11-25T23:36 | 1882 | 805 | 311 | 4 | ||
| 2025-11-25T23:37 | 2132 | 779 | 268 | 3 | ||
| 2025-11-25T23:37 | 2418 | 751 | 274 | 5 | ||
| 2025-11-25T23:38 | 2499 | 744 | -8.8 | -15.4 | ||
| 2025-11-25T23:38 | 2621 | 732 | 277 | 5 | ||
| 2025-11-25T23:38 | 2677 | 727 | -10.2 | -15.5 | ||
| 2025-11-25T23:39 | 2826 | 713 | 292 | 6 | ||
| 2025-11-25T23:39 | 2929 | 703 | 298 | 9 | ||
| 2025-11-25T23:39 | 2972 | 699 | -11.8 | -20.1 | ||
| 2025-11-25T23:40 | 3137 | 684 | -12.8 | -22.3 | ||
| 2025-11-25T23:40 | 3205 | 678 | -13.1 | -25.0 | ||
| 2025-11-25T23:40 | 3297 | 670 | 279 | 10 | ||
| 2025-11-25T23:41 | 3576 | 646 | -15.0 | -33.5 | ||
| 2025-11-25T23:41 | 3605 | 643 | 271 | 13 | ||
| 2025-11-25T23:41 | 3739 | 632 | -15.3 | -51.1 | ||
| 2025-11-25T23:41 | 3772 | 629 | 305 | 10 | ||
| 2025-11-25T23:42 | 4093 | 603 | 296 | 12 | ||
| 2025-11-25T23:43 | 4293 | 587 | -19.4 | -44.4 | ||
| 2025-11-25T23:43 | 4334 | 584 | 299 | 13 | ||
| 2025-11-25T23:44 | 4494 | 571 | 302 | 16 | ||
| 2025-11-25T23:45 | 4779 | 550 | -22.6 | -53.9 | ||
| 2025-11-25T23:45 | 4806 | 548 | 305 | 15 | ||
| 2025-11-25T23:46 | 5135 | 523 | 316 | 12 | ||
| 2025-11-25T23:46 | 5368 | 507 | -25.5 | -52.7 | ||
| 2025-11-25T23:47 | 5478 | 499 | 331 | 12 | ||
| 2025-11-25T23:47 | 5742 | 481 | 332 | 13 | ||
| 2025-11-25T23:48 | 6076 | 459 | -32.2 | -52.1 | ||
| 2025-11-25T23:48 | 6082 | 459 | 326 | 13 | ||
| 2025-11-25T23:49 | 6431 | 436 | 322 | 10 | ||
| 2025-11-25T23:50 | 6528 | 431 | -36.0 | -54.6 | ||
| 2025-11-25T23:50 | 6782 | 415 | 326 | 10 | ||
| 2025-11-25T23:51 | 6938 | 406 | -39.4 | -56.8 | ||
| 2025-11-25T23:51 | 7057 | 399 | -40.0 | -56.8 | ||
| 2025-11-25T23:51 | 7090 | 397 | 341 | 11 | ||
| 2025-11-25T23:52 | 7415 | 378 | 344 | 13 | ||
| 2025-11-25T23:53 | 7590 | 368 | 343 | 16 | ||
| 2025-11-25T23:53 | 7595 | 368 | -44.0 | |||
| 2025-11-25T23:54 | 7889 | 352 | 338 | 16 | ||
| 2025-11-25T23:55 | 8205 | 336 | 337 | 20 | ||
| 2025-11-25T23:55 | 8293 | 331 | -49.4 | |||
| 2025-11-25T23:56 | 8496 | 321 | 334 | 20 | ||
| 2025-11-25T23:56 | 8680 | 312 | -51.6 | |||
| 2025-11-25T23:57 | 8795 | 307 | 332 | 20 | ||
| 2025-11-25T23:57 | 8849 | 304 | -52.3 | |||
| 2025-11-25T23:58 | 9090 | 293 | 335 | 19 | ||
| 2025-11-25T23:59 | 9311 | 283 | -55.1 | |||
| 2025-11-25T23:59 | 9398 | 279 | 336 | 18 | ||
| 2025-11-25T23:59 | 9604 | 270 | 337 | 17 | ||
| 2025-11-26T00:00 | 9799 | 262 | -57.9 | |||
| 2025-11-26T00:00 | 9911 | 257 | 323 | 16 | ||
| 2025-11-26T00:01 | 10047 | 252 | -56.1 | |||
| 2025-11-26T00:01 | 10052 | 252 | 318 | 11 | ||
| 2025-11-26T00:02 | 10235 | 245 | -55.9 | |||
| 2025-11-26T00:02 | 10257 | 244 | 285 | 13 | ||
| 2025-11-26T00:02 | 10434 | 237 | 276 | 18 | ||
| 2025-11-26T00:02 | 10441 | 237 | -55.2 | |||
| 2025-11-26T00:02 | 10571 | 232 | -54.7 | |||
| 2025-11-26T00:03 | 10843 | 222 | 282 | 21 | ||
| 2025-11-26T00:04 | 11067 | 215 | -54.4 | |||
| 2025-11-26T00:04 | 11238 | 209 | 260 | 22 | ||
| 2025-11-26T00:04 | 11277 | 208 | -53.8 | |||
| 2025-11-26T00:05 | 11608 | 197 | 267 | 27 | ||
| 2025-11-26T00:05 | 11619 | 197 | -54.3 | |||
| 2025-11-26T00:06 | 11913 | 188 | 266 | 29 | ||
| 2025-11-26T00:06 | 12039 | 185 | -53.4 | |||
| 2025-11-26T00:07 | 12132 | 182 | 266 | 32 | ||
| 2025-11-26T00:07 | 12220 | 179 | -52.2 | |||
| 2025-11-26T00:08 | 12431 | 174 | 267 | 33 | ||
| 2025-11-26T00:08 | 12559 | 170 | -52.2 | |||
| 2025-11-26T00:09 | 12705 | 167 | 262 | 39 | ||
| 2025-11-26T00:09 | 12894 | 162 | 260 | 39 | ||
| 2025-11-26T00:09 | 12975 | 160 | -51.5 | |||
| 2025-11-26T00:10 | 13237 | 153 | 260 | 41 | ||
| 2025-11-26T00:11 | 13451 | 148 | -52.4 | |||
| 2025-11-26T00:11 | 13560 | 146 | 266 | 41 | ||
| 2025-11-26T00:12 | 13704 | 143 | -53.9 | |||
| 2025-11-26T00:12 | 13822 | 140 | 271 | 38 | ||
| 2025-11-26T00:13 | 14071 | 135 | 270 | 36 | ||
| 2025-11-26T00:13 | 14149 | 133 | -51.9 | |||
| 2025-11-26T00:14 | 14383 | 128 | 260 | 39 | ||
| 2025-11-26T00:14 | 14478 | 127 | -52.1 | |||
| 2025-11-26T00:15 | 14744 | 121 | 264 | 40 | ||
| 2025-11-26T00:16 | 15085 | 115 | 265 | 34 | ||
| 2025-11-26T00:16 | 15154 | 114 | -53.2 | |||
| 2025-11-26T00:17 | 15324 | 111 | 259 | 34 | ||
| 2025-11-26T00:17 | 15386 | 110 | -52.6 | 256 | 32 | |
| 2025-11-26T11:30 | 18 | 1021 | 5.0 | 0.9 | 80 | 2 |
| 2025-11-26T11:30 | 23 | 1020 | 5.4 | 0.8 | 0 | 0 |
| 2025-11-26T11:31 | 328 | 982 | 34 | 1 | ||
| 2025-11-26T11:31 | 435 | 969 | 1.5 | -0.9 | ||
| 2025-11-26T11:32 | 544 | 957 | 318 | 3 | ||
| 2025-11-26T11:32 | 725 | 935 | 4 | 4 | ||
| 2025-11-26T11:33 | 1054 | 897 | 353 | 6 | ||
| 2025-11-26T11:33 | 1106 | 892 | -4.0 | -4.3 | ||
| 2025-11-26T11:34 | 1361 | 863 | 338 | 6 | ||
| 2025-11-26T11:35 | 1715 | 825 | -7.4 | -8.3 | ||
| 2025-11-26T11:35 | 1720 | 824 | 303 | 7 | ||
| 2025-11-26T11:35 | 1843 | 812 | -8.7 | -10.0 | ||
| 2025-11-26T11:35 | 1891 | 807 | -9.1 | -20.0 | ||
| 2025-11-26T11:36 | 1917 | 804 | -9.1 | -22.8 | 288 | 10 |
| 2025-11-26T11:36 | 2083 | 787 | -8.7 | -23.2 | ||
| 2025-11-26T11:36 | 2139 | 781 | -8.8 | -21.5 | ||
| 2025-11-26T11:36 | 2195 | 776 | -8.6 | -22.7 | ||
| 2025-11-26T11:36 | 2218 | 773 | -8.5 | -22.6 | ||
| 2025-11-26T11:36 | 2246 | 770 | 294 | 10 | ||
| 2025-11-26T11:37 | 2497 | 746 | -9.5 | -23.5 | ||
| 2025-11-26T11:37 | 2514 | 744 | 289 | 10 | ||
| 2025-11-26T11:38 | 2684 | 728 | -8.2 | -21.3 | ||
| 2025-11-26T11:38 | 2842 | 713 | 285 | 12 | ||
| 2025-11-26T11:38 | 2848 | 713 | -8.1 | -15.1 | ||
| 2025-11-26T11:39 | 3162 | 685 | 281 | 14 | ||
| 2025-11-26T11:40 | 3263 | 676 | -9.7 | -19.2 | ||
| 2025-11-26T11:40 | 3483 | 657 | 283 | 12 | ||
| 2025-11-26T11:40 | 3499 | 655 | -11.1 | -23.6 | ||
| 2025-11-26T11:41 | 3761 | 633 | -12.7 | -25.3 | ||
| 2025-11-26T11:41 | 3819 | 628 | 287 | 14 | ||
| 2025-11-26T11:42 | 4163 | 601 | 299 | 15 | ||
| 2025-11-26T11:43 | 4375 | 584 | -16.7 | -33.5 | ||
| 2025-11-26T11:43 | 4391 | 583 | 296 | 16 | ||
| 2025-11-26T11:44 | 4716 | 558 | 292 | 17 | ||
| 2025-11-26T11:45 | 4970 | 539 | -20.4 | -43.3 | ||
| 2025-11-26T11:45 | 5030 | 535 | 293 | 17 | ||
| 2025-11-26T11:46 | 5263 | 518 | 295 | 19 | ||
| 2025-11-26T11:47 | 5572 | 497 | 287 | 17 | ||
| 2025-11-26T11:47 | 5594 | 495 | -24.8 | -52.2 | ||
| 2025-11-26T11:47 | 5769 | 483 | 292 | 18 | ||
| 2025-11-26T11:48 | 6029 | 466 | -27.9 | -60.1 | ||
| 2025-11-26T11:48 | 6075 | 463 | 296 | 21 | ||
| 2025-11-26T11:49 | 6389 | 443 | 297 | 21 | ||
| 2025-11-26T11:50 | 6654 | 427 | 293 | 23 | ||
| 2025-11-26T11:51 | 6817 | 417 | -34.8 | -54.3 | ||
| 2025-11-26T11:51 | 6951 | 409 | 292 | 23 | ||
| 2025-11-26T11:52 | 7256 | 392 | 292 | 23 | ||
| 2025-11-26T11:53 | 7351 | 386 | -39.0 | -53.1 | ||
| 2025-11-26T11:53 | 7476 | 379 | -40.0 | -53.2 | ||
| 2025-11-26T11:53 | 7563 | 374 | 293 | 21 | ||
| 2025-11-26T11:54 | 7858 | 358 | 297 | 21 | ||
| 2025-11-26T11:55 | 8143 | 343 | -45.5 | |||
| 2025-11-26T11:55 | 8148 | 343 | 297 | 23 | ||
| 2025-11-26T11:56 | 8429 | 329 | 300 | 25 | ||
| 2025-11-26T11:57 | 8708 | 315 | 301 | 25 | ||
| 2025-11-26T11:58 | 9004 | 301 | 304 | 23 | ||
| 2025-11-26T11:59 | 9208 | 292 | -53.7 | |||
| 2025-11-26T11:59 | 9306 | 288 | 301 | 24 | ||
| 2025-11-26T12:00 | 9627 | 273 | 296 | 22 | ||
| 2025-11-26T12:01 | 9956 | 260 | 290 | 23 | ||
| 2025-11-26T12:02 | 10079 | 254 | -59.6 | |||
| 2025-11-26T12:02 | 10277 | 246 | 294 | 24 | ||
| 2025-11-26T12:03 | 10433 | 240 | 287 | 25 | ||
| 2025-11-26T12:03 | 10595 | 234 | 290 | 28 | ||
| 2025-11-26T12:03 | 10610 | 234 | -61.4 | |||
| 2025-11-26T12:04 | 10793 | 227 | -61.2 | |||
| 2025-11-26T12:04 | 10887 | 223 | -60.2 | |||
| 2025-11-26T12:04 | 10898 | 223 | 284 | 29 | ||
| 2025-11-26T12:05 | 11080 | 217 | -58.2 | |||
| 2025-11-26T12:05 | 11210 | 212 | 287 | 31 | ||
| 2025-11-26T12:06 | 11364 | 207 | -57.9 | |||
| 2025-11-26T12:06 | 11529 | 202 | 288 | 26 | ||
| 2025-11-26T12:07 | 11847 | 192 | 271 | 32 | ||
| 2025-11-26T12:08 | 12048 | 186 | -57.2 | |||
| 2025-11-26T12:08 | 12154 | 183 | 273 | 35 | ||
| 2025-11-26T12:09 | 12266 | 180 | -56.2 | |||
| 2025-11-26T12:09 | 12440 | 175 | 273 | 38 | ||
| 2025-11-26T12:10 | 12565 | 171 | 273 | 35 | ||
| 2025-11-26T12:10 | 12755 | 166 | -55.1 | |||
| 2025-11-26T12:11 | 12890 | 163 | 271 | 38 | ||
| 2025-11-26T12:11 | 13028 | 159 | -55.1 | |||
| 2025-11-26T12:12 | 13201 | 155 | 270 | 38 | ||
| 2025-11-26T12:13 | 13497 | 148 | 269 | 41 | ||
| 2025-11-26T12:13 | 13536 | 147 | -54.9 | |||
| 2025-11-26T12:14 | 13780 | 142 | 275 | 41 | ||
| 2025-11-26T12:14 | 13918 | 139 | -54.4 | |||
| 2025-11-26T12:14 | 13952 | 138 | 276 | 37 | ||
| 2025-11-26T12:15 | 14249 | 132 | 265 | 36 | ||
| 2025-11-26T12:15 | 14279 | 131 | -55.4 | |||
| 2025-11-26T12:16 | 14456 | 127 | 269 | 34 | ||
| 2025-11-26T12:17 | 14749 | 122 | -55.6 | |||
| 2025-11-26T12:17 | 14760 | 122 | 272 | 34 | ||
| 2025-11-26T12:18 | 14998 | 117 | 265 | 30 | ||
| 2025-11-26T12:19 | 15285 | 112 | -54.9 | |||
| 2025-11-26T12:19 | 15325 | 111 | 258 | 35 | ||
| 2025-11-26T12:19 | 15389 | 110 | -54.2 | |||
| 2025-11-26T12:19 | 15513 | 108 | 261 | 32 | ||
| 2025-11-26T12:20 | 15659 | 106 | -53.8 | |||
| 2025-11-26T12:20 | 15723 | 104 | 259 | 37 | ||
| 2025-11-26T12:21 | 16066 | 99 | 260 | 37 | ||
| 2025-11-26T12:21 | 16082 | 99 | -54.2 | |||
| 2025-11-26T12:22 | 16397 | 94 | 255 | 37 | ||
| 2025-11-26T12:22 | 16528 | 92 | 257 | 36 | ||
| 2025-11-26T12:22 | 16613 | 91 | -54.5 | |||
| 2025-11-26T12:23 | 16732 | 89 | 258 | 36 | ||
| 2025-11-26T12:23 | 16841 | 88 | -53.4 | |||
| 2025-11-26T12:23 | 16885 | 87 | 263 | 36 | ||
| 2025-11-26T12:23 | 16924 | 87 | -51.6 | |||
| 2025-11-26T12:24 | 17050 | 85 | 257 | 31 | ||
| 2025-11-26T12:24 | 17312 | 82 | 253 | 32 | ||
| 2025-11-26T12:24 | 17327 | 81 | -49.9 | |||
| 2025-11-26T12:25 | 17597 | 78 | 261 | 32 | ||
| 2025-11-26T12:25 | 17648 | 78 | -49.2 | |||
| 2025-11-26T12:26 | 17743 | 76 | 252 | 29 | ||
| 2025-11-26T12:26 | 17925 | 74 | 250 | 33 | ||
| 2025-11-26T12:27 | 18290 | 70 | 243 | 22 | ||
| 2025-11-26T12:27 | 18311 | 70 | -47.8 | |||
| 2025-11-26T12:28 | 18647 | 67 | 239 | 21 | ||
| 2025-11-26T12:29 | 18816 | 65 | -47.7 | |||
| 2025-11-26T12:29 | 18888 | 64 | 243 | 21 | ||
| 2025-11-26T12:29 | 19068 | 63 | -45.7 | |||
| 2025-11-26T12:29 | 19142 | 62 | 221 | 23 | ||
| 2025-11-26T12:30 | 19494 | 59 | 227 | 25 | ||
| 2025-11-26T12:31 | 19793 | 56 | -48.5 | |||
| 2025-11-26T12:32 | 19867 | 55 | -48.5 | 236 | 27 | |
| 2025-11-26T23:30 | 18 | 1021 | 2.6 | -1.0 | 160 | 1 |
| 2025-11-26T23:30 | 23 | 1021 | 2.7 | -1.5 | 262 | 1 |
| 2025-11-26T23:31 | 212 | 997 | 1.1 | -3.2 | ||
| 2025-11-26T23:31 | 217 | 997 | 150 | 3 | ||
| 2025-11-26T23:31 | 338 | 982 | 0.3 | -4.2 | ||
| 2025-11-26T23:31 | 407 | 973 | 130 | 3 | ||
| 2025-11-26T23:32 | 572 | 953 | -1.3 | -4.3 | ||
| 2025-11-26T23:32 | 630 | 946 | 191 | 3 | ||
| 2025-11-26T23:32 | 641 | 945 | -0.8 | -5.8 | ||
| 2025-11-26T23:32 | 811 | 925 | -1.5 | -7.2 | ||
| 2025-11-26T23:33 | 872 | 918 | 229 | 5 | ||
| 2025-11-26T23:33 | 1009 | 902 | -3.1 | -9.4 | ||
| 2025-11-26T23:34 | 1204 | 880 | 256 | 3 | ||
| 2025-11-26T23:34 | 1344 | 865 | -5.6 | -11.7 | ||
| 2025-11-26T23:34 | 1471 | 851 | 306 | 4 | ||
| 2025-11-26T23:35 | 1680 | 828 | 277 | 7 | ||
| 2025-11-26T23:35 | 1719 | 824 | -8.3 | -14.1 | ||
| 2025-11-26T23:35 | 1779 | 818 | -7.6 | -17.0 | 261 | 6 |
| 2025-11-26T23:36 | 1830 | 812 | -7.7 | -19.0 | ||
| 2025-11-26T23:36 | 1880 | 807 | 242 | 8 | ||
| 2025-11-26T23:36 | 1902 | 805 | -6.9 | -23.2 | ||
| 2025-11-26T23:36 | 1957 | 799 | -6.0 | -30.0 | ||
| 2025-11-26T23:36 | 1989 | 796 | -4.5 | -40.7 | ||
| 2025-11-26T23:36 | 2092 | 786 | 249 | 11 | ||
| 2025-11-26T23:36 | 2140 | 781 | -4.2 | -36.6 | ||
| 2025-11-26T23:37 | 2216 | 773 | -4.2 | -40.5 | ||
| 2025-11-26T23:37 | 2402 | 755 | 237 | 8 | ||
| 2025-11-26T23:38 | 2460 | 750 | -6.1 | -30.1 | ||
| 2025-11-26T23:38 | 2557 | 741 | -6.8 | -21.5 | ||
| 2025-11-26T23:38 | 2589 | 738 | 251 | 9 | ||
| 2025-11-26T23:38 | 2750 | 723 | 248 | 15 | ||
| 2025-11-26T23:39 | 2782 | 720 | -7.0 | -23.7 | ||
| 2025-11-26T23:39 | 3030 | 697 | 252 | 15 | ||
| 2025-11-26T23:39 | 3069 | 694 | -8.9 | -24.5 | ||
| 2025-11-26T23:40 | 3341 | 669 | 257 | 15 | ||
| 2025-11-26T23:40 | 3382 | 666 | -10.5 | -29.2 | ||
| 2025-11-26T23:41 | 3681 | 640 | 258 | 16 | ||
| 2025-11-26T23:42 | 3881 | 624 | -13.8 | -33.1 | ||
| 2025-11-26T23:42 | 4010 | 613 | 263 | 16 | ||
| 2025-11-26T23:43 | 4282 | 592 | 254 | 14 | ||
| 2025-11-26T23:43 | 4401 | 582 | -18.2 | -36.8 | ||
| 2025-11-26T23:44 | 4612 | 566 | 260 | 15 | ||
| 2025-11-26T23:45 | 4920 | 543 | 251 | 15 | ||
| 2025-11-26T23:46 | 5173 | 525 | -24.2 | -42.9 | ||
| 2025-11-26T23:46 | 5244 | 519 | 253 | 20 | ||
| 2025-11-26T23:47 | 5552 | 498 | -26.5 | -52.2 | ||
| 2025-11-26T23:47 | 5562 | 497 | 251 | 22 | ||
| 2025-11-26T23:48 | 5885 | 475 | 247 | 23 | ||
| 2025-11-26T23:49 | 6222 | 453 | 249 | 25 | ||
| 2025-11-26T23:49 | 6228 | 453 | -31.9 | -50.0 | ||
| 2025-11-26T23:50 | 6558 | 432 | 245 | 22 | ||
| 2025-11-26T23:50 | 6726 | 422 | -34.0 | -62.4 | ||
| 2025-11-26T23:51 | 6898 | 412 | 249 | 21 | ||
| 2025-11-26T23:52 | 7149 | 397 | -37.4 | -67.0 | ||
| 2025-11-26T23:52 | 7227 | 392 | 249 | 20 | ||
| 2025-11-26T23:53 | 7442 | 380 | 251 | 23 | ||
| 2025-11-26T23:53 | 7481 | 378 | -40.0 | -54.8 | ||
| 2025-11-26T23:53 | 7582 | 373 | 250 | 24 | ||
| 2025-11-26T23:53 | 7712 | 366 | -41.5 | |||
| 2025-11-26T23:54 | 7921 | 354 | 253 | 26 | ||
| 2025-11-26T23:55 | 8244 | 338 | 246 | 27 | ||
| 2025-11-26T23:56 | 8566 | 322 | 248 | 25 | ||
| 2025-11-26T23:56 | 8605 | 320 | -49.4 | |||
| 2025-11-26T23:57 | 8884 | 306 | 244 | 27 | ||
| 2025-11-26T23:58 | 9077 | 297 | -52.2 | |||
| 2025-11-26T23:58 | 9192 | 292 | 243 | 27 | ||
| 2025-11-26T23:59 | 9504 | 278 | 251 | 29 | ||
| 2025-11-27T00:00 | 9803 | 266 | 255 | 28 | ||
| 2025-11-27T00:01 | 10127 | 252 | 256 | 28 | ||
| 2025-11-27T00:01 | 10173 | 250 | -59.5 | |||
| 2025-11-27T00:02 | 10457 | 239 | 250 | 30 | ||
| 2025-11-27T00:03 | 10615 | 233 | -61.1 | |||
| 2025-11-27T00:03 | 10769 | 228 | 249 | 34 | ||
| 2025-11-27T00:03 | 10814 | 226 | -60.4 | |||
| 2025-11-27T00:04 | 10928 | 222 | -59.4 | |||
| 2025-11-27T00:04 | 11028 | 218 | 252 | 39 | ||
| 2025-11-27T00:04 | 11076 | 217 | -57.8 | |||
| 2025-11-27T00:05 | 11209 | 212 | -57.6 | |||
| 2025-11-27T00:05 | 11295 | 209 | 258 | 40 | ||
| 2025-11-27T00:06 | 11505 | 202 | -55.5 | |||
| 2025-11-27T00:06 | 11587 | 200 | 265 | 45 | ||
| 2025-11-27T00:07 | 11838 | 192 | -54.9 | |||
| 2025-11-27T00:07 | 11901 | 190 | 264 | 42 | ||
| 2025-11-27T00:08 | 12166 | 182 | -55.8 | |||
| 2025-11-27T00:08 | 12177 | 182 | 260 | 45 | ||
| 2025-11-27T00:09 | 12502 | 173 | 258 | 45 | ||
| 2025-11-27T00:09 | 12608 | 170 | -56.3 | |||
| 2025-11-27T00:10 | 12802 | 165 | 255 | 46 | ||
| 2025-11-27T00:10 | 12826 | 164 | -56.6 | |||
| 2025-11-27T00:11 | 13105 | 157 | -57.1 | 256 | 46 | |
| 2025-11-27T00:12 | 13431 | 149 | 264 | 48 | ||
| 2025-11-27T00:12 | 13637 | 145 | 262 | 46 | ||
| 2025-11-27T00:13 | 13750 | 142 | -57.5 | |||
| 2025-11-27T00:13 | 13932 | 138 | 264 | 43 | ||
| 2025-11-27T00:14 | 14077 | 135 | 259 | 40 | ||
| 2025-11-27T00:14 | 14286 | 130 | 257 | 45 | ||
| 2025-11-27T00:15 | 14602 | 124 | -57.7 | 251 | 43 | |
| 2025-11-27T00:16 | 14799 | 120 | -56.8 | |||
| 2025-11-27T00:16 | 14920 | 118 | 255 | 44 | ||
| 2025-11-27T00:17 | 15113 | 114 | -57.0 | |||
| 2025-11-27T00:17 | 15249 | 112 | 256 | 44 | ||
| 2025-11-27T00:18 | 15300 | 111 | -57.7 | |||
| 2025-11-27T00:18 | 15491 | 108 | -57.7 | |||
| 2025-11-27T00:18 | 15595 | 106 | 255 | 38 | ||
| 2025-11-27T00:19 | 15942 | 100 | 253 | 40 | ||
| 2025-11-27T00:19 | 15954 | 100 | -59.5 | |||
| 2025-11-27T00:20 | 16125 | 97 | -58.7 | |||
| 2025-11-27T00:20 | 16280 | 95 | 249 | 36 | ||
| 2025-11-27T00:21 | 16383 | 94 | -56.8 | |||
| 2025-11-27T00:21 | 16580 | 91 | -56.3 | 251 | 40 | |
| 2025-11-27T00:22 | 16882 | 86 | 246 | 40 | ||
| 2025-11-27T00:23 | 17055 | 84 | 252 | 39 | ||
| 2025-11-27T00:23 | 17064 | 84 | -52.6 | |||
| 2025-11-27T00:23 | 17171 | 83 | -50.7 | |||
| 2025-11-27T00:23 | 17230 | 82 | 252 | 32 | ||
| 2025-11-27T00:24 | 17439 | 79 | -49.2 | |||
| 2025-11-27T00:24 | 17583 | 78 | 244 | 29 | ||
| 2025-11-27T00:25 | 17794 | 75 | 234 | 32 | ||
| 2025-11-27T00:25 | 17944 | 73 | -49.5 | |||
| 2025-11-27T00:26 | 18096 | 72 | 240 | 25 | ||
| 2025-11-27T00:26 | 18300 | 70 | -48.8 | |||
| 2025-11-27T00:27 | 18443 | 68 | 225 | 30 | ||
| 2025-11-27T00:27 | 18460 | 68 | -47.8 | |||
| 2025-11-27T00:27 | 18610 | 66 | -46.4 | |||
| 2025-11-27T00:28 | 18796 | 65 | 235 | 30 | ||
| 2025-11-27T00:29 | 19145 | 61 | 243 | 25 | ||
| 2025-11-27T00:30 | 19459 | 58 | -49.0 | 241 | 21 | |
| 2025-11-27T11:30 | 18 | 1010 | 5.7 | 0.3 | 140 | 4 |
| 2025-11-27T11:30 | 22 | 1009 | 5.7 | -0.2 | 140 | 1 |
| 2025-11-27T11:30 | 44 | 1006 | 127 | 3 | ||
| 2025-11-27T11:30 | 90 | 1001 | 5.3 | -0.5 | ||
| 2025-11-27T11:31 | 186 | 989 | 152 | 10 | ||
| 2025-11-27T11:31 | 198 | 988 | 5.7 | 0.5 | ||
| 2025-11-27T11:32 | 558 | 945 | 3.4 | 0.5 | ||
| 2025-11-27T11:32 | 571 | 943 | 167 | 15 | ||
| 2025-11-27T11:32 | 696 | 929 | 2.4 | 0.5 | ||
| 2025-11-27T11:32 | 851 | 911 | 1.5 | -1.1 | ||
| 2025-11-27T11:33 | 957 | 900 | 166 | 19 | ||
| 2025-11-27T11:33 | 1090 | 885 | -0.1 | -3.0 | ||
| 2025-11-27T11:33 | 1256 | 867 | -0.1 | -6.3 | ||
| 2025-11-27T11:34 | 1330 | 859 | 178 | 21 | ||
| 2025-11-27T11:34 | 1433 | 848 | -0.7 | -8.2 | ||
| 2025-11-27T11:34 | 1512 | 839 | -0.9 | -7.7 | ||
| 2025-11-27T11:35 | 1697 | 820 | 175 | 16 | ||
| 2025-11-27T11:35 | 1865 | 803 | -3.1 | -9.6 | ||
| 2025-11-27T11:35 | 1915 | 798 | 187 | 11 | ||
| 2025-11-27T11:36 | 2082 | 781 | -4.8 | -11.0 | ||
| 2025-11-27T11:36 | 2291 | 760 | 166 | 9 | ||
| 2025-11-27T11:36 | 2375 | 752 | -6.4 | -13.1 | ||
| 2025-11-27T11:37 | 2482 | 742 | -6.5 | -15.7 | ||
| 2025-11-27T11:37 | 2592 | 731 | 188 | 11 | ||
| 2025-11-27T11:37 | 2667 | 724 | -7.7 | -19.0 | ||
| 2025-11-27T11:37 | 2717 | 720 | -6.4 | -24.7 | ||
| 2025-11-27T11:37 | 2841 | 708 | 208 | 11 | ||
| 2025-11-27T11:38 | 2964 | 697 | -7.6 | -29.1 | ||
| 2025-11-27T11:38 | 3194 | 677 | -9.1 | -25.6 | ||
| 2025-11-27T11:38 | 3228 | 674 | 227 | 12 | ||
| 2025-11-27T11:39 | 3627 | 640 | 220 | 13 | ||
| 2025-11-27T11:40 | 3666 | 636 | -13.5 | -25.4 | ||
| 2025-11-27T11:40 | 3736 | 630 | -13.8 | -20.1 | ||
| 2025-11-27T11:40 | 3781 | 627 | 222 | 15 | ||
| 2025-11-27T11:41 | 4108 | 600 | -17.0 | -22.4 | ||
| 2025-11-27T11:41 | 4157 | 596 | 212 | 19 | ||
| 2025-11-27T11:41 | 4219 | 591 | -17.9 | -24.4 | ||
| 2025-11-27T11:41 | 4406 | 577 | -19.5 | -23.1 | ||
| 2025-11-27T11:42 | 4530 | 567 | -20.6 | -24.3 | ||
| 2025-11-27T11:42 | 4543 | 566 | 218 | 19 | ||
| 2025-11-27T11:42 | 4698 | 554 | -21.5 | -27.8 | ||
| 2025-11-27T11:43 | 4846 | 543 | 222 | 20 | ||
| 2025-11-27T11:43 | 4926 | 537 | -22.3 | -27.6 | ||
| 2025-11-27T11:43 | 4974 | 534 | 224 | 22 | ||
| 2025-11-27T11:44 | 5396 | 504 | 236 | 22 | ||
| 2025-11-27T11:44 | 5521 | 495 | -27.0 | -32.3 | ||
| 2025-11-27T11:45 | 5829 | 474 | 237 | 20 | ||
| 2025-11-27T11:45 | 5986 | 464 | -30.1 | -35.0 | ||
| 2025-11-27T11:46 | 6259 | 446 | 239 | 23 | ||
| 2025-11-27T11:46 | 6411 | 437 | -34.0 | -37.4 | ||
| 2025-11-27T11:47 | 6656 | 422 | 243 | 23 | ||
| 2025-11-27T11:47 | 6761 | 415 | -36.7 | -43.2 | ||
| 2025-11-27T11:48 | 7107 | 395 | -40.0 | -43.9 | ||
| 2025-11-27T11:48 | 7123 | 394 | 232 | 26 | ||
| 2025-11-27T11:49 | 7586 | 368 | 232 | 26 | ||
| 2025-11-27T11:50 | 8029 | 344 | 236 | 28 | ||
| 2025-11-27T11:50 | 8122 | 339 | -49.6 | |||
| 2025-11-27T11:51 | 8337 | 328 | 241 | 28 | ||
| 2025-11-27T11:52 | 8748 | 308 | 246 | 29 | ||
| 2025-11-27T11:53 | 9182 | 288 | 248 | 32 | ||
| 2025-11-27T11:53 | 9298 | 282 | -60.3 | |||
| 2025-11-27T11:53 | 9364 | 279 | 249 | 37 | ||
| 2025-11-27T11:53 | 9465 | 275 | -59.6 | |||
| 2025-11-27T11:53 | 9589 | 269 | -57.9 | |||
| 2025-11-27T11:54 | 9652 | 267 | -57.1 | |||
| 2025-11-27T11:54 | 9682 | 265 | 246 | 44 | ||
| 2025-11-27T11:54 | 9864 | 258 | 247 | 41 | ||
| 2025-11-27T11:55 | 10104 | 248 | -55.3 | |||
| 2025-11-27T11:55 | 10179 | 246 | 252 | 43 | ||
| 2025-11-27T11:55 | 10259 | 242 | -53.2 | |||
| 2025-11-27T11:56 | 10447 | 235 | -52.0 | |||
| 2025-11-27T11:56 | 10462 | 235 | 250 | 37 | ||
| 2025-11-27T11:57 | 10792 | 223 | -53.3 | |||
| 2025-11-27T11:57 | 10798 | 223 | 251 | 37 | ||
| 2025-11-27T11:58 | 11021 | 215 | -53.5 | |||
| 2025-11-27T11:58 | 11152 | 211 | 255 | 42 | ||
| 2025-11-27T11:59 | 11403 | 203 | 255 | 38 | ||
| 2025-11-27T11:59 | 11465 | 201 | -53.6 | |||
| 2025-11-27T12:00 | 11773 | 192 | 251 | 38 | ||
| 2025-11-27T12:01 | 12104 | 182 | -56.1 | |||
| 2025-11-27T12:01 | 12127 | 181 | 256 | 39 | ||
| 2025-11-27T12:01 | 12372 | 174 | 258 | 43 | ||
| 2025-11-27T12:02 | 12622 | 168 | -57.4 | |||
| 2025-11-27T12:02 | 12713 | 165 | 252 | 38 | ||
| 2025-11-27T12:03 | 12838 | 162 | -58.3 | |||
| 2025-11-27T12:03 | 13089 | 156 | 247 | 40 | ||
| 2025-11-27T12:04 | 13253 | 152 | -58.7 | |||
| 2025-11-27T12:04 | 13475 | 146 | -59.4 | 250 | 43 | |
| 2025-11-27T12:06 | 13841 | 138 | 242 | 43 | ||
| 2025-11-27T12:06 | 14141 | 132 | 242 | 45 | ||
| 2025-11-27T12:07 | 14198 | 130 | -60.2 | |||
| 2025-11-27T12:07 | 14333 | 128 | -58.2 | |||
| 2025-11-27T12:07 | 14413 | 126 | 243 | 51 | ||
| 2025-11-27T12:08 | 14462 | 125 | -57.7 | |||
| 2025-11-27T12:08 | 14686 | 121 | 245 | 54 | ||
| 2025-11-27T12:08 | 14716 | 120 | -57.7 | |||
| 2025-11-27T12:09 | 14776 | 119 | -57.3 | |||
| 2025-11-27T12:09 | 14843 | 118 | -56.0 | |||
| 2025-11-27T12:09 | 14998 | 115 | 250 | 51 | ||
| 2025-11-27T12:09 | 15025 | 114 | -55.8 | |||
| 2025-11-27T12:10 | 15206 | 111 | 252 | 47 | ||
| 2025-11-27T12:11 | 15463 | 107 | -53.8 | |||
| 2025-11-27T12:11 | 15530 | 106 | 250 | 42 | ||
| 2025-11-27T12:11 | 15652 | 104 | -51.4 | |||
| 2025-11-27T12:12 | 15727 | 102 | 249 | 42 | ||
| 2025-11-27T12:12 | 15955 | 99 | 248 | 46 | ||
| 2025-11-27T12:12 | 15974 | 99 | -52.2 | |||
| 2025-11-27T12:13 | 16248 | 95 | 255 | 44 | ||
| 2025-11-27T12:13 | 16370 | 93 | -52.4 | |||
| 2025-11-27T12:14 | 16476 | 91 | 258 | 44 | ||
| 2025-11-27T12:14 | 16736 | 88 | -52.3 | |||
| 2025-11-27T12:15 | 16859 | 86 | -50.5 | |||
| 2025-11-27T12:15 | 16889 | 86 | 256 | 33 | ||
| 2025-11-27T12:16 | 17288 | 81 | 256 | 29 | ||
| 2025-11-27T12:16 | 17441 | 79 | -51.3 | |||
| 2025-11-27T12:16 | 17605 | 77 | -50.0 | |||
| 2025-11-27T12:17 | 17709 | 76 | 228 | 24 | ||
| 2025-11-27T12:18 | 18115 | 71 | 222 | 31 | ||
| 2025-11-27T12:18 | 18142 | 71 | -53.0 | |||
| 2025-11-27T12:19 | 18471 | 67 | 232 | 38 | ||
| 2025-11-27T12:19 | 18570 | 66 | -49.0 | |||
| 2025-11-27T12:19 | 18754 | 64 | -45.5 | |||
| 2025-11-27T12:20 | 18836 | 64 | 229 | 28 | ||
| 2025-11-27T12:20 | 19144 | 61 | -48.1 | |||
| 2025-11-27T12:21 | 19241 | 60 | 228 | 31 | ||
| 2025-11-27T12:21 | 19502 | 57 | -48.2 | |||
| 2025-11-27T12:22 | 19663 | 56 | 230 | 27 | ||
| 2025-11-27T12:23 | 20061 | 53 | -48.9 | |||
| 2025-11-27T12:23 | 20075 | 53 | 219 | 24 | ||
| 2025-11-27T12:23 | 20319 | 51 | -49.6 | |||
| 2025-11-27T12:23 | 20394 | 50 | 203 | 18 | ||
| 2025-11-27T12:24 | 20727 | 48 | 185 | 18 | ||
| 2025-11-27T12:25 | 21114 | 45 | -54.4 | 202 | 19 | |
| 2025-11-27T23:30 | 18 | 995 | 9.2 | 7.0 | 260 | 2 |
| 2025-11-27T23:30 | 23 | 995 | 9.3 | 6.9 | 0 | 0 |
| 2025-11-27T23:30 | 71 | 989 | 9.0 | 6.1 | ||
| 2025-11-27T23:30 | 145 | 981 | 194 | 3 | ||
| 2025-11-27T23:31 | 188 | 975 | 9.3 | 4.7 | ||
| 2025-11-27T23:31 | 215 | 972 | 216 | 2 | ||
| 2025-11-27T23:31 | 390 | 952 | 284 | 3 | ||
| 2025-11-27T23:32 | 603 | 927 | 261 | 4 | ||
| 2025-11-27T23:32 | 625 | 925 | 5.9 | 2.4 | ||
| 2025-11-27T23:32 | 680 | 919 | 249 | 6 | ||
| 2025-11-27T23:32 | 786 | 907 | 252 | 7 | ||
| 2025-11-27T23:33 | 1016 | 882 | 251 | 8 | ||
| 2025-11-27T23:33 | 1103 | 872 | 2.2 | 0.7 | ||
| 2025-11-27T23:34 | 1129 | 869 | 238 | 9 | ||
| 2025-11-27T23:34 | 1301 | 851 | 0.6 | 0.0 | ||
| 2025-11-27T23:35 | 1404 | 840 | 242 | 9 | ||
| 2025-11-27T23:35 | 1571 | 823 | -1.1 | -1.1 | ||
| 2025-11-27T23:36 | 1671 | 813 | 251 | 12 | ||
| 2025-11-27T23:36 | 1926 | 787 | 253 | 12 | ||
| 2025-11-27T23:37 | 2200 | 760 | 246 | 11 | ||
| 2025-11-27T23:38 | 2439 | 738 | -6.1 | -6.6 | ||
| 2025-11-27T23:39 | 2508 | 731 | 243 | 12 | ||
| 2025-11-27T23:40 | 2816 | 703 | 242 | 13 | ||
| 2025-11-27T23:41 | 3123 | 675 | 239 | 14 | ||
| 2025-11-27T23:41 | 3174 | 671 | -10.6 | -11.4 | ||
| 2025-11-27T23:42 | 3424 | 649 | 232 | 12 | ||
| 2025-11-27T23:42 | 3502 | 643 | -12.9 | -13.8 | ||
| 2025-11-27T23:43 | 3696 | 626 | 223 | 12 | ||
| 2025-11-27T23:44 | 3956 | 605 | 203 | 12 | ||
| 2025-11-27T23:44 | 3979 | 604 | -16.7 | -18.4 | ||
| 2025-11-27T23:45 | 4258 | 581 | 202 | 13 | ||
| 2025-11-27T23:45 | 4527 | 561 | -21.3 | -23.1 | ||
| 2025-11-27T23:46 | 4572 | 557 | 223 | 16 | ||
| 2025-11-27T23:46 | 4732 | 545 | -23.2 | -26.4 | ||
| 2025-11-27T23:46 | 4789 | 541 | -23.8 | -27.6 | ||
| 2025-11-27T23:46 | 4831 | 538 | 217 | 22 | ||
| 2025-11-27T23:47 | 4908 | 532 | -24.8 | -28.7 | ||
| 2025-11-27T23:47 | 5102 | 518 | 219 | 23 | ||
| 2025-11-27T23:48 | 5370 | 499 | 217 | 26 | ||
| 2025-11-27T23:49 | 5690 | 477 | 217 | 27 | ||
| 2025-11-27T23:50 | 5905 | 463 | -33.0 | -36.9 | ||
| 2025-11-27T23:50 | 5950 | 460 | 213 | 34 | ||
| 2025-11-27T23:50 | 6093 | 451 | -34.3 | -40.2 | ||
| 2025-11-27T23:51 | 6226 | 442 | -34.9 | -42.7 | ||
| 2025-11-27T23:51 | 6295 | 438 | 201 | 35 | ||
| 2025-11-27T23:51 | 6363 | 434 | -35.8 | -42.7 | ||
| 2025-11-27T23:52 | 6486 | 426 | -36.9 | -43.7 | ||
| 2025-11-27T23:52 | 6657 | 415 | 198 | 37 | ||
| 2025-11-27T23:53 | 6849 | 404 | -40.0 | -46.6 | ||
| 2025-11-27T23:53 | 6981 | 396 | 196 | 34 | ||
| 2025-11-27T23:54 | 7290 | 379 | 192 | 36 | ||
| 2025-11-27T23:55 | 7588 | 362 | 189 | 37 | ||
| 2025-11-27T23:56 | 7911 | 345 | 190 | 39 | ||
| 2025-11-27T23:57 | 8113 | 334 | -50.7 | |||
| 2025-11-27T23:57 | 8250 | 327 | 192 | 38 | ||
| 2025-11-27T23:58 | 8471 | 316 | -53.5 | |||
| 2025-11-27T23:58 | 8578 | 311 | 195 | 35 | ||
| 2025-11-27T23:58 | 8649 | 308 | -53.1 | |||
| 2025-11-27T23:58 | 8709 | 305 | -52.1 | |||
| 2025-11-27T23:59 | 8752 | 303 | 202 | 37 | ||
| 2025-11-27T23:59 | 8866 | 298 | -52.5 | |||
| 2025-11-27T23:59 | 9020 | 291 | 209 | 35 | ||
| 2025-11-28T00:00 | 9059 | 289 | -53.6 | |||
| 2025-11-28T00:00 | 9168 | 284 | 215 | 31 | ||
| 2025-11-28T00:01 | 9465 | 271 | 227 | 37 | ||
| 2025-11-28T00:02 | 9694 | 262 | -52.9 | |||
| 2025-11-28T00:02 | 9768 | 259 | 228 | 36 | ||
| 2025-11-28T00:03 | 10077 | 247 | 227 | 34 | ||
| 2025-11-28T00:04 | 10409 | 234 | -51.7 | |||
| 2025-11-28T00:04 | 10427 | 234 | 233 | 34 | ||
| 2025-11-28T00:05 | 10770 | 222 | 235 | 39 | ||
| 2025-11-28T00:06 | 11035 | 213 | -52.9 | |||
| 2025-11-28T00:06 | 11088 | 211 | 240 | 43 | ||
| 2025-11-28T00:06 | 11212 | 207 | -52.5 | |||
| 2025-11-28T00:07 | 11401 | 201 | 241 | 38 | ||
| 2025-11-28T00:07 | 11578 | 196 | -52.3 | |||
| 2025-11-28T00:07 | 11599 | 195 | 233 | 36 | ||
| 2025-11-28T00:08 | 11687 | 192 | -52.0 | |||
| 2025-11-28T00:08 | 11911 | 186 | -51.7 | 247 | 39 | |
| 2025-11-28T00:09 | 12019 | 183 | -50.8 | |||
| 2025-11-28T00:09 | 12231 | 177 | -51.6 | |||
| 2025-11-28T00:09 | 12269 | 176 | 251 | 32 | ||
| 2025-11-28T00:10 | 12578 | 168 | 244 | 29 | ||
| 2025-11-28T00:10 | 12630 | 166 | -52.7 | |||
| 2025-11-28T00:11 | 12938 | 158 | 237 | 39 | ||
| 2025-11-28T00:11 | 13000 | 157 | -53.0 | |||
| 2025-11-28T00:12 | 13312 | 149 | 238 | 33 | ||
| 2025-11-28T00:13 | 13680 | 141 | 232 | 30 | ||
| 2025-11-28T00:13 | 13724 | 140 | -56.6 | |||
| 2025-11-28T00:14 | 14059 | 133 | -57.9 | |||
| 2025-11-28T00:14 | 14087 | 132 | 239 | 39 | ||
| 2025-11-28T00:15 | 14495 | 124 | 249 | 43 | ||
| 2025-11-28T00:16 | 14678 | 120 | 249 | 32 | ||
| 2025-11-28T00:16 | 14787 | 118 | -57.9 | |||
| 2025-11-28T00:16 | 14893 | 116 | 250 | 34 | ||
| 2025-11-28T00:17 | 15044 | 114 | -58.1 | |||
| 2025-11-28T00:17 | 15176 | 111 | 251 | 39 | ||
| 2025-11-28T00:17 | 15262 | 110 | -57.4 | |||
| 2025-11-28T00:18 | 15536 | 105 | 246 | 35 | ||
| 2025-11-28T00:19 | 15894 | 99 | 248 | 38 | ||
| 2025-11-28T00:20 | 16048 | 97 | -58.6 | |||
| 2025-11-28T00:20 | 16074 | 96 | 252 | 37 | ||
| 2025-11-28T00:20 | 16325 | 93 | -57.6 | 247 | 32 | |
| 2025-11-28T11:30 | 18 | 1001 | 3.8 | -4.9 | 330 | 5 |
| 2025-11-28T11:30 | 23 | 1001 | 4.0 | -5.5 | 310 | 1 |
| 2025-11-28T11:30 | 79 | 994 | 334 | 4 | ||
| 2025-11-28T11:31 | 241 | 974 | 327 | 6 | ||
| 2025-11-28T11:31 | 431 | 951 | 317 | 5 | ||
| 2025-11-28T11:31 | 461 | 948 | -0.2 | -7.9 | ||
| 2025-11-28T11:32 | 588 | 933 | 296 | 6 | ||
| 2025-11-28T11:32 | 805 | 908 | 294 | 7 | ||
| 2025-11-28T11:33 | 828 | 905 | -3.8 | -8.8 | ||
| 2025-11-28T11:33 | 925 | 894 | 276 | 13 | ||
| 2025-11-28T11:33 | 1046 | 880 | 275 | 13 | ||
| 2025-11-28T11:34 | 1119 | 872 | -6.1 | -10.3 | ||
| 2025-11-28T11:34 | 1193 | 864 | 263 | 14 | ||
| 2025-11-28T11:34 | 1215 | 861 | -6.8 | -11.4 | ||
| 2025-11-28T11:34 | 1252 | 858 | -5.4 | -13.7 | ||
| 2025-11-28T11:35 | 1385 | 843 | -6.1 | -15.6 | ||
| 2025-11-28T11:35 | 1422 | 839 | 281 | 13 | ||
| 2025-11-28T11:36 | 1766 | 803 | 290 | 10 | ||
| 2025-11-28T11:36 | 1821 | 797 | -10.0 | -15.9 | ||
| 2025-11-28T11:37 | 2070 | 772 | 296 | 9 | ||
| 2025-11-28T11:37 | 2176 | 761 | -13.1 | -15.2 | ||
| 2025-11-28T11:38 | 2234 | 755 | -13.2 | -14.4 | ||
| 2025-11-28T11:38 | 2409 | 738 | 302 | 3 | ||
| 2025-11-28T11:38 | 2543 | 725 | -15.1 | -16.4 | ||
| 2025-11-28T11:38 | 2562 | 723 | 319 | 3 | ||
| 2025-11-28T11:39 | 2959 | 686 | 331 | 5 | ||
| 2025-11-28T11:40 | 3041 | 679 | -19.2 | -20.9 | ||
| 2025-11-28T11:40 | 3103 | 673 | -19.8 | -24.5 | ||
| 2025-11-28T11:40 | 3171 | 667 | 277 | 3 | ||
| 2025-11-28T11:40 | 3249 | 660 | -21.3 | -28.6 | ||
| 2025-11-28T11:40 | 3327 | 653 | 269 | 7 | ||
| 2025-11-28T11:41 | 3373 | 649 | -22.1 | -33.7 | ||
| 2025-11-28T11:41 | 3497 | 638 | -21.2 | -35.7 | ||
| 2025-11-28T11:41 | 3551 | 633 | 272 | 13 | ||
| 2025-11-28T11:41 | 3702 | 620 | -22.3 | -38.7 | ||
| 2025-11-28T11:42 | 3928 | 601 | 285 | 17 | ||
| 2025-11-28T11:43 | 4274 | 574 | 277 | 17 | ||
| 2025-11-28T11:43 | 4308 | 571 | -26.4 | -35.3 | ||
| 2025-11-28T11:43 | 4428 | 561 | -27.1 | -33.6 | ||
| 2025-11-28T11:44 | 4608 | 547 | 275 | 18 | ||
| 2025-11-28T11:44 | 4734 | 538 | -29.3 | -35.5 | ||
| 2025-11-28T11:45 | 4942 | 522 | 275 | 20 | ||
| 2025-11-28T11:46 | 5309 | 496 | -34.4 | -38.8 | ||
| 2025-11-28T11:46 | 5330 | 494 | 283 | 20 | ||
| 2025-11-28T11:46 | 5464 | 485 | -35.6 | -41.1 | ||
| 2025-11-28T11:47 | 5725 | 467 | -38.0 | -42.3 | ||
| 2025-11-28T11:47 | 5753 | 465 | 278 | 21 | ||
| 2025-11-28T11:48 | 6004 | 448 | -40.0 | -46.3 | ||
| 2025-11-28T11:48 | 6127 | 440 | 274 | 25 | ||
| 2025-11-28T11:48 | 6249 | 433 | -41.2 | |||
| 2025-11-28T11:48 | 6328 | 428 | 273 | 28 | ||
| 2025-11-28T11:49 | 6595 | 411 | -41.8 | |||
| 2025-11-28T11:49 | 6687 | 406 | 269 | 31 | ||
| 2025-11-28T11:50 | 6838 | 397 | -42.6 | |||
| 2025-11-28T11:50 | 6965 | 389 | 273 | 31 | ||
| 2025-11-28T11:51 | 7086 | 382 | -43.2 | |||
| 2025-11-28T11:51 | 7275 | 372 | 275 | 32 | ||
| 2025-11-28T11:51 | 7303 | 370 | -44.6 | |||
| 2025-11-28T11:52 | 7493 | 360 | 276 | 28 | ||
| 2025-11-28T11:52 | 7525 | 358 | -44.9 | |||
| 2025-11-28T11:53 | 7758 | 346 | -46.5 | |||
| 2025-11-28T11:53 | 7784 | 344 | 273 | 36 | ||
| 2025-11-28T11:53 | 7829 | 342 | -46.0 | |||
| 2025-11-28T11:53 | 7969 | 335 | 275 | 32 | ||
| 2025-11-28T11:53 | 8052 | 331 | -45.8 | |||
| 2025-11-28T11:54 | 8243 | 321 | -44.8 | |||
| 2025-11-28T11:54 | 8355 | 316 | 263 | 32 | ||
| 2025-11-28T11:55 | 8486 | 310 | -45.4 | |||
| 2025-11-28T11:55 | 8545 | 307 | -44.7 | |||
| 2025-11-28T11:55 | 8682 | 301 | 262 | 33 | ||
| 2025-11-28T11:56 | 8935 | 290 | 272 | 31 | ||
| 2025-11-28T11:57 | 9194 | 279 | -44.0 | |||
| 2025-11-28T11:57 | 9214 | 278 | 269 | 26 | ||
| 2025-11-28T11:58 | 9541 | 265 | 272 | 29 | ||
| 2025-11-28T11:59 | 9750 | 257 | -45.6 | |||
| 2025-11-28T11:59 | 9908 | 251 | 268 | 30 | ||
| 2025-11-28T12:00 | 10209 | 239 | -46.6 | |||
| 2025-11-28T12:00 | 10272 | 237 | 262 | 31 | ||
| 2025-11-28T12:01 | 10484 | 230 | -48.1 | |||
| 2025-11-28T12:01 | 10571 | 227 | 256 | 31 | ||
| 2025-11-28T12:02 | 10767 | 220 | 258 | 35 | ||
| 2025-11-28T12:02 | 10961 | 214 | -47.6 | |||
| 2025-11-28T12:03 | 11069 | 210 | 256 | 32 | ||
| 2025-11-28T12:04 | 11412 | 200 | 258 | 33 | ||
| 2025-11-28T12:04 | 11515 | 196 | -49.0 | |||
| 2025-11-28T12:04 | 11683 | 191 | 254 | 31 | ||
| 2025-11-28T12:06 | 12072 | 180 | 258 | 34 | ||
| 2025-11-28T12:06 | 12421 | 171 | 255 | 34 | ||
| 2025-11-28T12:07 | 12463 | 170 | -52.6 | |||
| 2025-11-28T12:07 | 12677 | 164 | -53.2 | |||
| 2025-11-28T12:07 | 12719 | 163 | 256 | 38 | ||
| 2025-11-28T12:08 | 13012 | 156 | 256 | 34 | ||
| 2025-11-28T12:09 | 13205 | 151 | 257 | 36 | ||
| 2025-11-28T12:09 | 13309 | 149 | -54.3 | |||
| 2025-11-28T12:10 | 13543 | 144 | 252 | 36 | ||
| 2025-11-28T12:11 | 13738 | 139 | -54.1 | |||
| 2025-11-28T12:11 | 13812 | 138 | 247 | 38 | ||
| 2025-11-28T12:12 | 14090 | 132 | 247 | 39 | ||
| 2025-11-28T12:12 | 14102 | 132 | -55.3 | |||
| 2025-11-28T12:12 | 14172 | 130 | -54.7 | |||
| 2025-11-28T12:13 | 14321 | 127 | 251 | 46 | ||
| 2025-11-28T12:13 | 14377 | 126 | -54.2 | |||
| 2025-11-28T12:13 | 14427 | 125 | 252 | 42 | ||
| 2025-11-28T12:13 | 14471 | 124 | -52.5 | |||
| 2025-11-28T12:14 | 14544 | 123 | 253 | 39 | ||
| 2025-11-28T12:14 | 14598 | 122 | -53.1 | |||
| 2025-11-28T12:14 | 14685 | 120 | -52.8 | |||
| 2025-11-28T12:15 | 14929 | 116 | 255 | 37 | ||
| 2025-11-28T12:15 | 14997 | 114 | -54.3 | |||
| 2025-11-28T12:16 | 15373 | 108 | 246 | 34 | ||
| 2025-11-28T12:16 | 15662 | 103 | -56.1 | |||
| 2025-11-28T12:17 | 15776 | 101 | 248 | 40 | ||
| 2025-11-28T12:17 | 16038 | 97 | -57.8 | |||
| 2025-11-28T12:18 | 16103 | 96 | 252 | 46 | ||
| 2025-11-28T12:18 | 16313 | 93 | 264 | 40 | ||
| 2025-11-28T12:19 | 16334 | 93 | -56.0 | |||
| 2025-11-28T12:19 | 16458 | 91 | 266 | 38 | ||
| 2025-11-28T12:19 | 16500 | 90 | -55.2 | |||
| 2025-11-28T12:20 | 16688 | 88 | 263 | 28 | ||
| 2025-11-28T12:21 | 17063 | 83 | -54.9 | |||
| 2025-11-28T12:21 | 17077 | 83 | 246 | 30 | ||
| 2025-11-28T12:21 | 17328 | 79 | 246 | 31 | ||
| 2025-11-28T12:22 | 17544 | 77 | 246 | 31 | ||
| 2025-11-28T12:22 | 17696 | 75 | -56.4 | |||
| 2025-11-28T12:22 | 17737 | 74 | 247 | 28 | ||
| 2025-11-28T12:23 | 18038 | 71 | 233 | 26 | ||
| 2025-11-28T12:24 | 18505 | 66 | 233 | 35 | ||
| 2025-11-28T12:25 | 18711 | 64 | -57.0 | |||
| 2025-11-28T12:25 | 18759 | 63 | 233 | 35 | ||
| 2025-11-28T12:25 | 18892 | 62 | 227 | 32 | ||
| 2025-11-28T12:25 | 19061 | 60 | -53.4 | |||
| 2025-11-28T12:26 | 19144 | 60 | 223 | 34 | ||
| 2025-11-28T12:26 | 19177 | 59 | -50.8 | |||
| 2025-11-28T12:26 | 19346 | 58 | -50.8 | |||
| 2025-11-28T12:26 | 19401 | 57 | 216 | 38 | ||
| 2025-11-28T12:27 | 19823 | 54 | 218 | 36 | ||
| 2025-11-28T12:28 | 20023 | 52 | 217 | 35 | ||
| 2025-11-28T12:28 | 20087 | 52 | -56.3 | |||
| 2025-11-28T12:29 | 20415 | 49 | 217 | 33 | ||
| 2025-11-28T12:29 | 20508 | 48 | -56.4 | |||
| 2025-11-28T12:30 | 21006 | 45 | 213 | 33 | ||
| 2025-11-28T12:30 | 21120 | 44 | -53.3 | |||
| 2025-11-28T12:30 | 21391 | 42 | -52.9 | |||
| 2025-11-28T12:31 | 21687 | 40 | 207 | 24 | ||
| 2025-11-28T12:32 | 22096 | 38 | 207 | 29 | ||
| 2025-11-28T12:32 | 22231 | 37 | -58.6 | |||
| 2025-11-28T12:32 | 22420 | 36 | -57.3 | |||
| 2025-11-28T12:33 | 22474 | 35 | 222 | 32 | ||
| 2025-11-28T12:33 | 22600 | 35 | -55.0 | |||
| 2025-11-28T12:33 | 22731 | 34 | -54.0 | |||
| 2025-11-28T12:34 | 22826 | 34 | 230 | 32 | ||
| 2025-11-28T12:34 | 22863 | 33 | -54.1 | 229 | 32 | |
| 2025-11-28T23:30 | 18 | 1012 | 1.6 | -8.0 | 300 | 4 |
| 2025-11-28T23:30 | 23 | 1011 | 1.7 | -8.7 | 288 | 1 |
| 2025-11-28T23:30 | 45 | 1008 | 281 | 2 | ||
| 2025-11-28T23:30 | 77 | 1004 | 300 | 6 | ||
| 2025-11-28T23:30 | 93 | 1002 | 0.5 | -9.5 | ||
| 2025-11-28T23:30 | 168 | 993 | 303 | 7 | ||
| 2025-11-28T23:31 | 328 | 973 | 303 | 6 | ||
| 2025-11-28T23:32 | 510 | 951 | 291 | 12 | ||
| 2025-11-28T23:32 | 713 | 927 | 289 | 7 | ||
| 2025-11-28T23:33 | 865 | 909 | -7.0 | -10.7 | ||
| 2025-11-28T23:33 | 1082 | 884 | 284 | 11 | ||
| 2025-11-28T23:34 | 1388 | 850 | 283 | 12 | ||
| 2025-11-28T23:34 | 1408 | 847 | -12.0 | -12.4 | ||
| 2025-11-28T23:34 | 1491 | 838 | -12.6 | -13.5 | ||
| 2025-11-28T23:35 | 1510 | 836 | -12.9 | -15.0 | ||
| 2025-11-28T23:35 | 1543 | 833 | -12.7 | -19.5 | ||
| 2025-11-28T23:35 | 1575 | 829 | -12.9 | -18.7 | ||
| 2025-11-28T23:35 | 1608 | 826 | -11.7 | -24.8 | ||
| 2025-11-28T23:35 | 1671 | 819 | 301 | 18 | ||
| 2025-11-28T23:35 | 1680 | 818 | -10.6 | -36.4 | ||
| 2025-11-28T23:36 | 1849 | 800 | -10.4 | -41.2 | ||
| 2025-11-28T23:36 | 1927 | 792 | 307 | 20 | ||
| 2025-11-28T23:36 | 1953 | 789 | -10.8 | -38.8 | ||
| 2025-11-28T23:37 | 2136 | 771 | -11.5 | -33.7 | ||
| 2025-11-28T23:37 | 2198 | 764 | 306 | 18 | ||
| 2025-11-28T23:37 | 2317 | 753 | -12.1 | -32.2 | ||
| 2025-11-28T23:38 | 2534 | 731 | 308 | 21 | ||
| 2025-11-28T23:38 | 2679 | 718 | -15.0 | -33.0 | ||
| 2025-11-28T23:39 | 2809 | 705 | -14.8 | -38.0 | ||
| 2025-11-28T23:39 | 2881 | 699 | 310 | 24 | ||
| 2025-11-28T23:40 | 3245 | 666 | 313 | 28 | ||
| 2025-11-28T23:40 | 3364 | 655 | -17.3 | -40.8 | ||
| 2025-11-28T23:41 | 3597 | 635 | 316 | 29 | ||
| 2025-11-28T23:41 | 3626 | 633 | -18.3 | -44.6 | ||
| 2025-11-28T23:42 | 3771 | 621 | -18.6 | -47.4 | ||
| 2025-11-28T23:42 | 3786 | 619 | 308 | 30 | ||
| 2025-11-28T23:42 | 3871 | 612 | -18.6 | -47.4 | ||
| 2025-11-28T23:42 | 3890 | 611 | 309 | 33 | ||
| 2025-11-28T23:43 | 4147 | 590 | -19.6 | -41.8 | ||
| 2025-11-28T23:43 | 4151 | 590 | 310 | 33 | ||
| 2025-11-28T23:44 | 4315 | 577 | 307 | 31 | ||
| 2025-11-28T23:44 | 4469 | 565 | -21.7 | -42.1 | ||
| 2025-11-28T23:45 | 4596 | 555 | 306 | 31 | ||
| 2025-11-28T23:45 | 4897 | 533 | -24.7 | -45.3 | ||
| 2025-11-28T23:46 | 4928 | 531 | 307 | 34 | ||
| 2025-11-28T23:46 | 5112 | 517 | -26.2 | -48.0 | ||
| 2025-11-28T23:47 | 5299 | 504 | 306 | 34 | ||
| 2025-11-28T23:47 | 5408 | 496 | -27.9 | -53.2 | ||
| 2025-11-28T23:47 | 5555 | 486 | 301 | 36 | ||
| 2025-11-28T23:48 | 5722 | 475 | 302 | 39 | ||
| 2025-11-28T23:49 | 6039 | 454 | -33.1 | -49.9 | ||
| 2025-11-28T23:49 | 6080 | 451 | 301 | 40 | ||
| 2025-11-28T23:50 | 6440 | 429 | 302 | 42 | ||
| 2025-11-28T23:50 | 6493 | 425 | -36.7 | -54.0 | ||
| 2025-11-28T23:51 | 6785 | 408 | -38.7 | -55.7 | 302 | 44 |
| 2025-11-28T23:51 | 6935 | 399 | -40.0 | -55.7 | ||
| 2025-11-28T23:52 | 7135 | 387 | 302 | 49 | ||
| 2025-11-28T23:52 | 7200 | 384 | -41.9 | |||
| 2025-11-28T23:53 | 7495 | 367 | 302 | 50 | ||
| 2025-11-28T23:53 | 7693 | 356 | -45.5 | |||
| 2025-11-28T23:53 | 7810 | 350 | -45.5 | |||
| 2025-11-28T23:54 | 7874 | 347 | 301 | 50 | ||
| 2025-11-28T23:54 | 7970 | 342 | -46.8 | |||
| 2025-11-28T23:55 | 8238 | 328 | 303 | 54 | ||
| 2025-11-28T23:55 | 8267 | 327 | -48.6 | |||
| 2025-11-28T23:56 | 8617 | 310 | 302 | 53 | ||
| 2025-11-28T23:56 | 8951 | 294 | -53.6 | |||
| 2025-11-28T23:57 | 8972 | 293 | 298 | 51 | ||
| 2025-11-28T23:57 | 9197 | 283 | -54.4 | |||
| 2025-11-28T23:58 | 9383 | 275 | 293 | 46 | ||
| 2025-11-28T23:58 | 9745 | 260 | -55.1 | |||
| 2025-11-28T23:59 | 9768 | 259 | 290 | 45 | ||
| 2025-11-28T23:59 | 10004 | 250 | -54.1 | |||
| 2025-11-28T23:59 | 10053 | 248 | 282 | 41 | ||
| 2025-11-29T00:00 | 10134 | 245 | -53.1 | |||
| 2025-11-29T00:00 | 10351 | 237 | 285 | 38 | ||
| 2025-11-29T00:01 | 10442 | 233 | -50.8 | |||
| 2025-11-29T00:01 | 10535 | 230 | -50.1 | |||
| 2025-11-29T00:01 | 10624 | 227 | 280 | 38 | ||
| 2025-11-29T00:01 | 10745 | 223 | -50.5 | |||
| 2025-11-29T00:02 | 10778 | 222 | 280 | 42 | ||
| 2025-11-29T00:02 | 11139 | 210 | 279 | 41 | ||
| 2025-11-29T00:03 | 11193 | 208 | -50.5 | |||
| 2025-11-29T00:03 | 11590 | 196 | 285 | 31 | ||
| 2025-11-29T00:04 | 11808 | 189 | 279 | 35 | ||
| 2025-11-29T00:05 | 12157 | 179 | 281 | 38 | ||
| 2025-11-29T00:05 | 12471 | 170 | -55.7 | |||
| 2025-11-29T00:06 | 12574 | 168 | 275 | 36 | ||
| 2025-11-29T00:07 | 12902 | 159 | 273 | 38 | ||
| 2025-11-29T00:07 | 12983 | 157 | -56.7 | |||
| 2025-11-29T00:08 | 13129 | 154 | 274 | 37 | ||
| 2025-11-29T00:08 | 13231 | 151 | 275 | 34 | ||
| 2025-11-29T00:08 | 13245 | 151 | -56.5 | |||
| 2025-11-29T00:09 | 13430 | 147 | 270 | 36 | ||
| 2025-11-29T00:10 | 13583 | 143 | 265 | 39 | ||
| 2025-11-29T00:10 | 13710 | 140 | -55.0 | |||
| 2025-11-29T00:10 | 13834 | 138 | 263 | 39 | ||
| 2025-11-29T00:11 | 14117 | 132 | 266 | 37 | ||
| 2025-11-29T00:12 | 14361 | 127 | 270 | 35 | ||
| 2025-11-29T00:12 | 14563 | 122 | -60.2 | |||
| 2025-11-29T00:12 | 14626 | 121 | 270 | 38 | ||
| 2025-11-29T00:13 | 14958 | 115 | -61.7 | |||
| 2025-11-29T00:13 | 14979 | 115 | 263 | 37 | ||
| 2025-11-29T00:14 | 15194 | 111 | 262 | 39 | ||
| 2025-11-29T00:14 | 15370 | 108 | -61.0 | |||
| 2025-11-29T00:15 | 15440 | 106 | 261 | 48 | ||
| 2025-11-29T00:15 | 15538 | 105 | -61.3 | |||
| 2025-11-29T00:15 | 15610 | 103 | -60.2 | |||
| 2025-11-29T00:16 | 15848 | 100 | 266 | 46 | ||
| 2025-11-29T00:16 | 16204 | 94 | 265 | 41 | ||
| 2025-11-29T00:16 | 16235 | 94 | -62.4 | |||
| 2025-11-29T00:17 | 16376 | 91 | 254 | 37 | ||
| 2025-11-29T00:18 | 16724 | 86 | -61.0 | |||
| 2025-11-29T00:18 | 16752 | 86 | 251 | 46 | ||
| 2025-11-29T00:19 | 17050 | 82 | 255 | 47 | ||
| 2025-11-29T00:19 | 17276 | 79 | 257 | 48 | ||
| 2025-11-29T00:20 | 17422 | 77 | 260 | 47 | ||
| 2025-11-29T00:20 | 17499 | 76 | -56.2 | |||
| 2025-11-29T00:20 | 17533 | 76 | 260 | 44 | ||
| 2025-11-29T00:20 | 17660 | 75 | 263 | 43 | ||
| 2025-11-29T00:21 | 17719 | 74 | -54.5 | |||
| 2025-11-29T00:21 | 17969 | 71 | 265 | 27 | ||
| 2025-11-29T00:22 | 18267 | 68 | 253 | 18 | ||
| 2025-11-29T00:22 | 18278 | 68 | -52.6 | |||
| 2025-11-29T00:23 | 18628 | 64 | 242 | 18 | ||
| 2025-11-29T00:24 | 19070 | 60 | -55.2 | |||
| 2025-11-29T00:24 | 19095 | 60 | 218 | 24 | ||
| 2025-11-29T00:26 | 19600 | 55 | 195 | 30 | ||
| 2025-11-29T00:26 | 19871 | 53 | -59.6 | |||
| 2025-11-29T00:26 | 19915 | 52 | 199 | 35 | ||
| 2025-11-29T00:27 | 20273 | 49 | 218 | 33 | ||
| 2025-11-29T00:28 | 20387 | 49 | -60.0 | |||
| 2025-11-29T00:28 | 20651 | 47 | 233 | 33 | ||
| 2025-11-29T00:29 | 20873 | 45 | 244 | 34 | ||
| 2025-11-29T00:29 | 20956 | 44 | -57.2 | |||
| 2025-11-29T00:29 | 21021 | 44 | -56.1 | 244 | 32 | |
| 2025-11-29T11:30 | 18 | 1014 | 1.2 | -3.9 | 120 | 2 |
| 2025-11-29T11:30 | 22 | 1014 | 1.4 | -4.5 | 0 | 0 |
| 2025-11-29T11:30 | 36 | 1012 | 2.9 | -4.3 | ||
| 2025-11-29T11:30 | 55 | 1010 | 151 | 3 | ||
| 2025-11-29T11:30 | 99 | 1004 | 2.7 | -5.2 | ||
| 2025-11-29T11:30 | 147 | 998 | 2.7 | -5.4 | ||
| 2025-11-29T11:31 | 222 | 989 | 113 | 3 | ||
| 2025-11-29T11:31 | 311 | 978 | 162 | 1 | ||
| 2025-11-29T11:32 | 509 | 954 | 231 | 3 | ||
| 2025-11-29T11:32 | 640 | 939 | -0.6 | -8.5 | ||
| 2025-11-29T11:32 | 662 | 936 | 267 | 5 | ||
| 2025-11-29T11:32 | 793 | 921 | 292 | 1 | ||
| 2025-11-29T11:33 | 900 | 909 | 302 | 4 | ||
| 2025-11-29T11:33 | 1101 | 886 | -3.9 | -12.6 | ||
| 2025-11-29T11:33 | 1113 | 885 | 298 | 7 | ||
| 2025-11-29T11:34 | 1213 | 873 | -4.2 | -14.1 | ||
| 2025-11-29T11:34 | 1249 | 869 | 301 | 10 | ||
| 2025-11-29T11:34 | 1304 | 863 | -4.7 | -16.3 | ||
| 2025-11-29T11:34 | 1360 | 857 | -4.5 | -19.9 | ||
| 2025-11-29T11:35 | 1582 | 833 | -4.9 | -21.5 | ||
| 2025-11-29T11:35 | 1612 | 830 | 301 | 9 | ||
| 2025-11-29T11:35 | 1770 | 814 | -5.9 | -21.1 | ||
| 2025-11-29T11:36 | 1961 | 794 | 291 | 14 | ||
| 2025-11-29T11:36 | 2107 | 779 | -7.8 | -22.0 | ||
| 2025-11-29T11:37 | 2225 | 768 | -7.8 | -24.9 | ||
| 2025-11-29T11:37 | 2298 | 760 | 289 | 14 | ||
| 2025-11-29T11:37 | 2371 | 753 | -8.9 | -17.2 | ||
| 2025-11-29T11:38 | 2631 | 728 | 277 | 18 | ||
| 2025-11-29T11:39 | 2863 | 706 | -11.7 | -17.3 | ||
| 2025-11-29T11:39 | 2928 | 701 | 278 | 20 | ||
| 2025-11-29T11:39 | 3104 | 685 | -13.6 | -18.8 | ||
| 2025-11-29T11:40 | 3240 | 672 | 284 | 17 | ||
| 2025-11-29T11:40 | 3261 | 671 | -12.8 | -19.3 | ||
| 2025-11-29T11:41 | 3568 | 644 | 282 | 16 | ||
| 2025-11-29T11:41 | 3643 | 638 | -14.4 | -23.0 | ||
| 2025-11-29T11:41 | 3737 | 630 | -14.6 | -24.4 | ||
| 2025-11-29T11:41 | 3835 | 622 | 276 | 20 | ||
| 2025-11-29T11:42 | 3959 | 612 | -16.0 | -24.3 | ||
| 2025-11-29T11:42 | 4079 | 602 | -16.8 | -25.2 | ||
| 2025-11-29T11:42 | 4214 | 591 | 276 | 24 | ||
| 2025-11-29T11:43 | 4368 | 579 | -18.7 | -26.8 | ||
| 2025-11-29T11:43 | 4444 | 573 | 267 | 22 | ||
| 2025-11-29T11:43 | 4519 | 568 | -19.3 | -29.5 | ||
| 2025-11-29T11:43 | 4582 | 563 | 263 | 25 | ||
| 2025-11-29T11:44 | 4614 | 560 | -19.9 | -28.8 | ||
| 2025-11-29T11:44 | 4751 | 550 | -21.0 | -32.2 | ||
| 2025-11-29T11:44 | 4857 | 542 | 270 | 21 | ||
| 2025-11-29T11:45 | 5008 | 531 | -22.6 | -31.3 | ||
| 2025-11-29T11:45 | 5099 | 525 | -22.9 | -30.3 | ||
| 2025-11-29T11:45 | 5243 | 515 | 271 | 26 | ||
| 2025-11-29T11:46 | 5585 | 491 | -26.8 | -32.9 | ||
| 2025-11-29T11:46 | 5603 | 490 | 278 | 22 | ||
| 2025-11-29T11:47 | 5738 | 481 | -27.7 | -37.7 | ||
| 2025-11-29T11:47 | 5762 | 479 | 277 | 23 | ||
| 2025-11-29T11:47 | 5895 | 470 | -28.9 | -40.1 | ||
| 2025-11-29T11:47 | 6028 | 461 | -29.8 | -40.1 | ||
| 2025-11-29T11:48 | 6098 | 457 | 274 | 26 | ||
| 2025-11-29T11:48 | 6158 | 453 | -30.4 | -42.1 | ||
| 2025-11-29T11:48 | 6286 | 445 | 268 | 29 | ||
| 2025-11-29T11:49 | 6605 | 425 | -34.5 | -43.4 | ||
| 2025-11-29T11:49 | 6610 | 425 | 271 | 29 | ||
| 2025-11-29T11:50 | 6857 | 410 | -36.1 | -47.8 | ||
| 2025-11-29T11:50 | 6932 | 406 | 271 | 30 | ||
| 2025-11-29T11:51 | 7159 | 392 | -38.6 | -49.7 | ||
| 2025-11-29T11:51 | 7257 | 387 | 275 | 32 | ||
| 2025-11-29T11:52 | 7372 | 380 | -40.0 | -52.5 | ||
| 2025-11-29T11:52 | 7587 | 369 | 270 | 35 | ||
| 2025-11-29T11:53 | 7857 | 354 | 273 | 37 | ||
| 2025-11-29T11:54 | 8156 | 339 | 269 | 38 | ||
| 2025-11-29T11:55 | 8476 | 323 | 272 | 40 | ||
| 2025-11-29T11:55 | 8505 | 321 | -48.5 | |||
| 2025-11-29T11:56 | 8776 | 308 | 269 | 41 | ||
| 2025-11-29T11:56 | 8799 | 307 | -50.6 | |||
| 2025-11-29T11:57 | 9123 | 292 | 272 | 43 | ||
| 2025-11-29T11:58 | 9452 | 277 | 273 | 45 | ||
| 2025-11-29T11:58 | 9478 | 276 | -55.2 | |||
| 2025-11-29T11:59 | 9723 | 266 | 272 | 46 | ||
| 2025-11-29T12:00 | 9962 | 256 | 273 | 44 | ||
| 2025-11-29T12:00 | 10055 | 252 | -58.2 | |||
| 2025-11-29T12:01 | 10213 | 246 | 270 | 45 | ||
| 2025-11-29T12:01 | 10250 | 245 | -58.2 | |||
| 2025-11-29T12:02 | 10505 | 235 | 267 | 42 | ||
| 2025-11-29T12:02 | 10641 | 230 | -58.0 | |||
| 2025-11-29T12:02 | 10682 | 228 | 266 | 48 | ||
| 2025-11-29T12:03 | 10894 | 221 | -56.9 | |||
| 2025-11-29T12:03 | 10906 | 220 | 268 | 46 | ||
| 2025-11-29T12:04 | 11136 | 213 | 260 | 41 | ||
| 2025-11-29T12:04 | 11270 | 208 | -56.8 | |||
| 2025-11-29T12:05 | 11431 | 203 | 266 | 49 | ||
| 2025-11-29T12:05 | 11478 | 201 | -55.8 | |||
| 2025-11-29T12:06 | 11696 | 195 | 272 | 42 | ||
| 2025-11-29T12:07 | 11966 | 186 | 268 | 45 | ||
| 2025-11-29T12:07 | 12129 | 182 | -54.6 | |||
| 2025-11-29T12:08 | 12284 | 177 | 268 | 44 | ||
| 2025-11-29T12:08 | 12511 | 171 | -55.8 | |||
| 2025-11-29T12:09 | 12661 | 167 | 272 | 49 | ||
| 2025-11-29T12:09 | 12949 | 160 | -56.7 | |||
| 2025-11-29T12:10 | 13032 | 158 | 273 | 48 | ||
| 2025-11-29T12:10 | 13301 | 151 | -57.9 | |||
| 2025-11-29T12:11 | 13332 | 150 | 275 | 47 | ||
| 2025-11-29T12:12 | 13574 | 145 | 275 | 45 | ||
| 2025-11-29T12:12 | 13673 | 143 | -57.3 | |||
| 2025-11-29T12:13 | 13838 | 139 | 275 | 44 | ||
| 2025-11-29T12:13 | 13879 | 138 | -58.0 | |||
| 2025-11-29T12:14 | 14173 | 132 | 269 | 43 | ||
| 2025-11-29T12:14 | 14228 | 131 | -59.8 | |||
| 2025-11-29T12:14 | 14492 | 125 | 265 | 41 | ||
| 2025-11-29T12:15 | 14843 | 118 | -61.8 | |||
| 2025-11-29T12:15 | 14855 | 118 | 261 | 44 | ||
| 2025-11-29T12:16 | 15114 | 113 | -62.0 | |||
| 2025-11-29T12:16 | 15160 | 112 | 261 | 47 | ||
| 2025-11-29T12:17 | 15298 | 110 | -60.9 | |||
| 2025-11-29T12:17 | 15443 | 107 | 261 | 49 | ||
| 2025-11-29T12:18 | 15517 | 106 | -59.5 | |||
| 2025-11-29T12:18 | 15795 | 101 | 261 | 48 | ||
| 2025-11-29T12:19 | 16216 | 95 | 261 | 48 | ||
| 2025-11-29T12:20 | 16608 | 89 | -62.0 | |||
| 2025-11-29T12:20 | 16631 | 89 | 264 | 50 | ||
| 2025-11-29T12:21 | 16924 | 85 | 270 | 44 | ||
| 2025-11-29T12:22 | 17188 | 81 | -60.8 | |||
| 2025-11-29T12:22 | 17249 | 80 | 270 | 44 | ||
| 2025-11-29T12:23 | 17373 | 79 | -60.1 | |||
| 2025-11-29T12:23 | 17504 | 77 | 270 | 38 | ||
| 2025-11-29T12:24 | 17800 | 73 | 265 | 38 | ||
| 2025-11-29T12:25 | 18106 | 70 | -60.2 | |||
| 2025-11-29T12:25 | 18132 | 70 | 264 | 34 | ||
| 2025-11-29T12:25 | 18334 | 67 | 241 | 31 | ||
| 2025-11-29T12:26 | 18402 | 67 | -57.1 | |||
| 2025-11-29T12:26 | 18651 | 64 | 238 | 38 | ||
| 2025-11-29T12:27 | 18794 | 63 | -57.5 | |||
| 2025-11-29T12:27 | 18955 | 61 | 249 | 39 | ||
| 2025-11-29T12:28 | 19230 | 59 | -56.7 | |||
| 2025-11-29T12:28 | 19329 | 58 | 253 | 40 | ||
| 2025-11-29T12:29 | 19599 | 55 | 259 | 37 | ||
| 2025-11-29T12:30 | 19844 | 53 | -57.0 | |||
| 2025-11-29T12:30 | 20041 | 52 | 268 | 27 | ||
| 2025-11-29T12:31 | 20416 | 49 | 256 | 21 | ||
| 2025-11-29T12:31 | 20439 | 48 | -58.3 | |||
| 2025-11-29T12:32 | 20681 | 47 | 239 | 18 | ||
| 2025-11-29T12:33 | 21065 | 44 | 223 | 22 | ||
| 2025-11-29T12:33 | 21253 | 42 | -61.7 | |||
| 2025-11-29T12:33 | 21357 | 42 | 233 | 28 | ||
| 2025-11-29T12:34 | 21536 | 41 | -59.1 | 232 | 27 | |
| 2025-11-29T23:30 | 18 | 1010 | 4.4 | 2.4 | 140 | 4 |
| 2025-11-29T23:30 | 23 | 1009 | 4.4 | 2.1 | 0 | 0 |
| 2025-11-29T23:30 | 51 | 1006 | 120 | 3 | ||
| 2025-11-29T23:30 | 107 | 999 | 145 | 3 | ||
| 2025-11-29T23:31 | 227 | 984 | 168 | 7 | ||
| 2025-11-29T23:31 | 282 | 978 | 3.0 | 1.0 | ||
| 2025-11-29T23:31 | 366 | 967 | 171 | 12 | ||
| 2025-11-29T23:31 | 424 | 961 | 3.6 | 0.6 | ||
| 2025-11-29T23:32 | 611 | 939 | 191 | 9 | ||
| 2025-11-29T23:32 | 631 | 936 | 3.5 | 0.2 | ||
| 2025-11-29T23:33 | 920 | 904 | 213 | 12 | ||
| 2025-11-29T23:33 | 944 | 901 | 1.2 | -0.6 | ||
| 2025-11-29T23:34 | 1116 | 882 | 231 | 15 | ||
| 2025-11-29T23:34 | 1230 | 869 | -0.5 | -1.5 | ||
| 2025-11-29T23:34 | 1385 | 853 | -1.4 | -2.8 | ||
| 2025-11-29T23:35 | 1458 | 845 | 251 | 17 | ||
| 2025-11-29T23:35 | 1531 | 837 | -2.2 | -3.6 | ||
| 2025-11-29T23:36 | 1765 | 813 | -3.7 | -6.0 | ||
| 2025-11-29T23:36 | 1807 | 809 | 259 | 20 | ||
| 2025-11-29T23:36 | 1866 | 803 | -3.6 | -8.6 | ||
| 2025-11-29T23:37 | 2150 | 774 | 274 | 19 | ||
| 2025-11-29T23:38 | 2519 | 738 | 271 | 18 | ||
| 2025-11-29T23:38 | 2608 | 730 | -10.4 | -11.3 | ||
| 2025-11-29T23:38 | 2659 | 725 | -10.7 | -12.0 | ||
| 2025-11-29T23:38 | 2699 | 721 | -10.3 | -14.7 | ||
| 2025-11-29T23:39 | 2858 | 707 | -11.0 | -19.4 | ||
| 2025-11-29T23:39 | 2864 | 706 | 271 | 22 | ||
| 2025-11-29T23:39 | 2931 | 700 | -10.4 | -29.1 | ||
| 2025-11-29T23:39 | 3066 | 688 | -11.1 | -39.0 | ||
| 2025-11-29T23:39 | 3116 | 683 | 262 | 23 | ||
| 2025-11-29T23:40 | 3252 | 671 | -12.0 | -42.4 | ||
| 2025-11-29T23:40 | 3431 | 656 | 250 | 27 | ||
| 2025-11-29T23:41 | 3590 | 642 | -14.4 | -45.9 | ||
| 2025-11-29T23:41 | 3747 | 629 | 251 | 24 | ||
| 2025-11-29T23:42 | 4031 | 605 | 262 | 26 | ||
| 2025-11-29T23:43 | 4376 | 578 | 256 | 27 | ||
| 2025-11-29T23:44 | 4501 | 568 | -22.2 | -44.8 | ||
| 2025-11-29T23:44 | 4600 | 560 | -22.9 | -43.8 | ||
| 2025-11-29T23:44 | 4631 | 558 | 252 | 28 | ||
| 2025-11-29T23:44 | 4692 | 554 | -22.3 | -51.8 | ||
| 2025-11-29T23:45 | 5006 | 530 | 265 | 27 | ||
| 2025-11-29T23:45 | 5046 | 528 | -23.9 | -65.7 | ||
| 2025-11-29T23:46 | 5375 | 504 | 270 | 29 | ||
| 2025-11-29T23:46 | 5544 | 492 | -27.4 | -62.9 | ||
| 2025-11-29T23:47 | 5665 | 484 | -27.6 | -59.9 | ||
| 2025-11-29T23:47 | 5723 | 480 | 274 | 36 | ||
| 2025-11-29T23:48 | 5986 | 463 | -29.1 | -56.9 | ||
| 2025-11-29T23:48 | 6024 | 460 | 271 | 41 | ||
| 2025-11-29T23:48 | 6197 | 449 | -30.9 | -54.5 | ||
| 2025-11-29T23:49 | 6333 | 441 | 271 | 42 | ||
| 2025-11-29T23:50 | 6521 | 429 | -33.9 | -52.8 | ||
| 2025-11-29T23:50 | 6634 | 422 | 270 | 43 | ||
| 2025-11-29T23:51 | 6957 | 403 | 275 | 47 | ||
| 2025-11-29T23:51 | 6984 | 401 | -37.4 | -47.5 | ||
| 2025-11-29T23:52 | 7267 | 385 | -40.0 | -48.5 | ||
| 2025-11-29T23:52 | 7291 | 384 | 272 | 47 | ||
| 2025-11-29T23:53 | 7658 | 364 | 271 | 47 | ||
| 2025-11-29T23:53 | 7726 | 360 | -43.8 | |||
| 2025-11-29T23:54 | 8019 | 345 | 274 | 49 | ||
| 2025-11-29T23:54 | 8083 | 341 | -45.8 | |||
| 2025-11-29T23:55 | 8291 | 331 | 276 | 51 | ||
| 2025-11-29T23:56 | 8601 | 315 | -49.2 | |||
| 2025-11-29T23:56 | 8612 | 315 | 275 | 55 | ||
| 2025-11-29T23:56 | 8696 | 311 | -49.3 | |||
| 2025-11-29T23:57 | 8937 | 300 | 277 | 56 | ||
| 2025-11-29T23:58 | 9253 | 285 | 281 | 58 | ||
| 2025-11-29T23:58 | 9265 | 285 | -51.9 | |||
| 2025-11-29T23:58 | 9526 | 273 | 283 | 61 | ||
| 2025-11-29T23:59 | 9623 | 269 | -53.5 | |||
| 2025-11-29T23:59 | 9852 | 260 | 284 | 59 | ||
| 2025-11-30T00:00 | 10004 | 254 | 281 | 58 | ||
| 2025-11-30T00:00 | 10047 | 252 | -54.5 | |||
| 2025-11-30T00:00 | 10139 | 249 | -53.7 | |||
| 2025-11-30T00:01 | 10236 | 245 | 277 | 52 | ||
| 2025-11-30T00:01 | 10491 | 235 | 278 | 49 | ||
| 2025-11-30T00:02 | 10772 | 225 | 278 | 49 | ||
| 2025-11-30T00:02 | 10841 | 223 | -57.5 | |||
| 2025-11-30T00:03 | 11075 | 215 | -58.3 | |||
| 2025-11-30T00:03 | 11144 | 212 | 275 | 46 | ||
| 2025-11-30T00:03 | 11275 | 208 | -58.3 | |||
| 2025-11-30T00:04 | 11486 | 201 | -58.6 | |||
| 2025-11-30T00:04 | 11544 | 199 | 271 | 50 | ||
| 2025-11-30T00:04 | 11594 | 197 | -58.6 | |||
| 2025-11-30T00:04 | 11715 | 194 | 273 | 52 | ||
| 2025-11-30T00:05 | 11783 | 192 | -58.0 | |||
| 2025-11-30T00:05 | 12023 | 185 | 271 | 50 | ||
| 2025-11-30T00:06 | 12091 | 183 | -55.4 | |||
| 2025-11-30T00:06 | 12199 | 180 | -54.7 | |||
| 2025-11-30T00:06 | 12272 | 178 | 269 | 54 | ||
| 2025-11-30T00:07 | 12560 | 170 | 267 | 52 | ||
| 2025-11-30T00:07 | 12572 | 169 | -53.9 | |||
| 2025-11-30T00:08 | 12745 | 165 | -53.0 | 268 | 53 | |
| 2025-11-30T00:08 | 13099 | 156 | 271 | 51 | ||
| 2025-11-30T00:09 | 13290 | 151 | -54.2 | |||
| 2025-11-30T00:09 | 13338 | 150 | 271 | 48 | ||
| 2025-11-30T00:10 | 13795 | 140 | 271 | 48 | ||
| 2025-11-30T00:10 | 13931 | 137 | -56.0 | |||
| 2025-11-30T00:11 | 14166 | 132 | 267 | 47 | ||
| 2025-11-30T00:12 | 14487 | 125 | -59.4 | 270 | 47 | |
| 2025-11-30T00:13 | 14745 | 120 | 268 | 50 | ||
| 2025-11-30T00:14 | 14878 | 118 | -61.0 | |||
| 2025-11-30T00:14 | 14962 | 116 | 272 | 50 | ||
| 2025-11-30T00:15 | 15132 | 113 | 275 | 44 | ||
| 2025-11-30T00:16 | 15416 | 108 | 276 | 41 | ||
| 2025-11-30T00:17 | 15730 | 103 | 274 | 41 | ||
| 2025-11-30T00:17 | 15783 | 102 | -61.2 | |||
| 2025-11-30T00:18 | 16065 | 97 | 260 | 41 | ||
| 2025-11-30T00:19 | 16422 | 92 | 261 | 43 | ||
| 2025-11-30T00:19 | 16667 | 88 | 269 | 42 | ||
| 2025-11-30T00:20 | 16724 | 87 | -64.5 | |||
| 2025-11-30T00:20 | 17052 | 83 | 273 | 42 | ||
| 2025-11-30T00:21 | 17169 | 81 | -65.9 | |||
| 2025-11-30T00:21 | 17442 | 78 | 268 | 37 | ||
| 2025-11-30T00:22 | 17501 | 77 | -67.6 | |||
| 2025-11-30T00:22 | 17723 | 74 | 262 | 42 | ||
| 2025-11-30T00:23 | 18022 | 71 | -68.1 | |||
| 2025-11-30T00:23 | 18082 | 70 | 259 | 50 | ||
| 2025-11-30T00:24 | 18448 | 66 | 266 | 48 | ||
| 2025-11-30T00:24 | 18513 | 65 | -66.2 | |||
| 2025-11-30T00:25 | 18808 | 62 | -64.1 | |||
| 2025-11-30T00:25 | 18859 | 61 | 264 | 50 | ||
| 2025-11-30T00:25 | 18929 | 61 | -62.3 | |||
| 2025-11-30T00:26 | 19051 | 60 | -62.0 | |||
| 2025-11-30T00:26 | 19093 | 59 | 267 | 44 | ||
| 2025-11-30T00:26 | 19230 | 58 | -60.6 | |||
| 2025-11-30T00:26 | 19275 | 57 | 271 | 44 | ||
| 2025-11-30T00:27 | 19453 | 56 | -58.2 | 272 | 35 | |
| 2025-11-30T00:27 | 19508 | 55 | -56.5 | |||
| 2025-11-30T00:27 | 19544 | 55 | 260 | 28 | ||
| 2025-11-30T00:28 | 19683 | 54 | 246 | 32 | ||
| 2025-11-30T00:28 | 19828 | 53 | 246 | 29 | ||
| 2025-11-30T00:29 | 20073 | 51 | -57.8 | |||
| 2025-11-30T00:29 | 20299 | 49 | 236 | 31 | ||
| 2025-11-30T00:30 | 20826 | 45 | -57.3 | |||
| 2025-11-30T00:30 | 20840 | 45 | 243 | 31 | ||
| 2025-11-30T00:31 | 21188 | 42 | 254 | 23 | ||
| 2025-11-30T00:31 | 21247 | 42 | -56.8 | |||
| 2025-11-30T00:31 | 21549 | 40 | -58.1 | |||
| 2025-11-30T00:32 | 21619 | 40 | 261 | 27 | ||
| 2025-11-30T00:32 | 21863 | 38 | -58.0 | |||
| 2025-11-30T00:33 | 22014 | 37 | 245 | 25 | ||
| 2025-11-30T00:33 | 22098 | 37 | -59.2 | |||
| 2025-11-30T00:33 | 22183 | 36 | 255 | 29 | ||
| 2025-11-30T00:33 | 22220 | 36 | -55.6 | |||
| 2025-11-30T00:34 | 22344 | 35 | 248 | 21 | ||
| 2025-11-30T00:34 | 22421 | 35 | -51.6 | |||
| 2025-11-30T00:34 | 22547 | 34 | -50.3 | 259 | 21 | |
| 2025-11-30T00:35 | 22706 | 33 | -48.2 | |||
| 2025-11-30T00:35 | 22784 | 33 | 252 | 18 | ||
| 2025-11-30T00:36 | 23111 | 31 | 256 | 19 | ||
| 2025-11-30T00:37 | 23433 | 30 | -51.2 | 248 | 25 | |
| 2025-11-30T11:30 | 18 | 1012 | 7.0 | -2.2 | 200 | 5 |
| 2025-11-30T11:30 | 23 | 1011 | 6.9 | -2.8 | 289 | 1 |
| 2025-11-30T11:30 | 49 | 1008 | 7.2 | -3.1 | ||
| 2025-11-30T11:30 | 77 | 1005 | 206 | 3 | ||
| 2025-11-30T11:30 | 148 | 996 | 7.3 | -4.8 | ||
| 2025-11-30T11:31 | 241 | 985 | 7.3 | -6.8 | 187 | 7 |
| 2025-11-30T11:32 | 550 | 948 | 208 | 6 | ||
| 2025-11-30T11:32 | 661 | 936 | 234 | 5 | ||
| 2025-11-30T11:33 | 947 | 903 | 246 | 7 | ||
| 2025-11-30T11:33 | 993 | 898 | 1.8 | -13.2 | ||
| 2025-11-30T11:33 | 1191 | 876 | 285 | 7 | ||
| 2025-11-30T11:34 | 1433 | 850 | -1.4 | -13.0 | ||
| 2025-11-30T11:34 | 1496 | 843 | 267 | 12 | ||
| 2025-11-30T11:35 | 1687 | 823 | 268 | 14 | ||
| 2025-11-30T11:35 | 1836 | 808 | -4.5 | -12.9 | ||
| 2025-11-30T11:35 | 1861 | 805 | 274 | 16 | ||
| 2025-11-30T11:35 | 1886 | 803 | -4.3 | -20.5 | ||
| 2025-11-30T11:36 | 2111 | 780 | -5.3 | -21.4 | ||
| 2025-11-30T11:36 | 2250 | 766 | 286 | 14 | ||
| 2025-11-30T11:37 | 2515 | 740 | -9.2 | -24.4 | ||
| 2025-11-30T11:37 | 2597 | 732 | -9.3 | -25.7 | ||
| 2025-11-30T11:37 | 2621 | 730 | 272 | 14 | ||
| 2025-11-30T11:38 | 2858 | 708 | -10.7 | -26.5 | ||
| 2025-11-30T11:38 | 2948 | 700 | -9.7 | -30.2 | ||
| 2025-11-30T11:38 | 2953 | 699 | 261 | 24 | ||
| 2025-11-30T11:39 | 3266 | 671 | 264 | 22 | ||
| 2025-11-30T11:40 | 3561 | 646 | -15.0 | -34.6 | ||
| 2025-11-30T11:40 | 3579 | 644 | 268 | 23 | ||
| 2025-11-30T11:40 | 3666 | 637 | -14.6 | -28.4 | ||
| 2025-11-30T11:41 | 3741 | 631 | 263 | 27 | ||
| 2025-11-30T11:41 | 3920 | 616 | 254 | 27 | ||
| 2025-11-30T11:41 | 4006 | 609 | -16.5 | -26.2 | ||
| 2025-11-30T11:42 | 4187 | 595 | -17.4 | -25.1 | ||
| 2025-11-30T11:42 | 4271 | 588 | 254 | 34 | ||
| 2025-11-30T11:42 | 4338 | 583 | -18.4 | -25.2 | ||
| 2025-11-30T11:43 | 4573 | 565 | -19.9 | -27.0 | ||
| 2025-11-30T11:43 | 4632 | 560 | 258 | 36 | ||
| 2025-11-30T11:44 | 4848 | 544 | -22.0 | -28.4 | ||
| 2025-11-30T11:44 | 4979 | 534 | 256 | 38 | ||
| 2025-11-30T11:44 | 5065 | 528 | -23.3 | -29.1 | ||
| 2025-11-30T11:45 | 5342 | 508 | 262 | 39 | ||
| 2025-11-30T11:46 | 5453 | 501 | -26.6 | -29.6 | ||
| 2025-11-30T11:46 | 5481 | 499 | 259 | 42 | ||
| 2025-11-30T11:46 | 5654 | 487 | -27.1 | -29.9 | ||
| 2025-11-30T11:47 | 5822 | 476 | 263 | 45 | ||
| 2025-11-30T11:47 | 6047 | 461 | -29.6 | -32.5 | ||
| 2025-11-30T11:48 | 6160 | 454 | 261 | 46 | ||
| 2025-11-30T11:48 | 6407 | 438 | 259 | 49 | ||
| 2025-11-30T11:49 | 6558 | 429 | -33.8 | -37.4 | ||
| 2025-11-30T11:49 | 6740 | 418 | 256 | 49 | ||
| 2025-11-30T11:49 | 6757 | 417 | -35.0 | -38.5 | ||
| 2025-11-30T11:50 | 7082 | 398 | 258 | 51 | ||
| 2025-11-30T11:51 | 7193 | 391 | -38.5 | -42.6 | ||
| 2025-11-30T11:51 | 7390 | 380 | -40.0 | -44.8 | ||
| 2025-11-30T11:51 | 7412 | 379 | 259 | 51 | ||
| 2025-11-30T11:52 | 7708 | 363 | 257 | 53 | ||
| 2025-11-30T11:53 | 8033 | 346 | 257 | 56 | ||
| 2025-11-30T11:53 | 8091 | 343 | -45.0 | |||
| 2025-11-30T11:54 | 8287 | 333 | -45.3 | |||
| 2025-11-30T11:54 | 8342 | 330 | 258 | 57 | ||
| 2025-11-30T11:55 | 8641 | 315 | -47.0 | 259 | 59 | |
| 2025-11-30T11:56 | 8843 | 306 | -48.2 | |||
| 2025-11-30T11:56 | 8945 | 301 | 259 | 58 | ||
| 2025-11-30T11:56 | 9036 | 297 | -49.3 | |||
| 2025-11-30T11:57 | 9257 | 287 | 260 | 58 | ||
| 2025-11-30T11:57 | 9350 | 283 | -51.6 | |||
| 2025-11-30T11:58 | 9581 | 273 | 257 | 59 | ||
| 2025-11-30T11:59 | 9894 | 260 | 258 | 59 | ||
| 2025-11-30T11:59 | 9957 | 258 | -52.9 | |||
| 2025-11-30T12:00 | 10183 | 249 | 261 | 60 | ||
| 2025-11-30T12:00 | 10246 | 246 | -53.1 | |||
| 2025-11-30T12:01 | 10479 | 238 | 261 | 60 | ||
| 2025-11-30T12:02 | 10765 | 227 | -54.0 | |||
| 2025-11-30T12:02 | 10780 | 227 | 263 | 60 | ||
| 2025-11-30T12:03 | 10964 | 220 | -53.4 | |||
| 2025-11-30T12:03 | 11095 | 216 | 257 | 58 | ||
| 2025-11-30T12:03 | 11226 | 212 | -51.7 | |||
| 2025-11-30T12:04 | 11458 | 204 | 256 | 61 | ||
| 2025-11-30T12:04 | 11497 | 203 | -48.7 | |||
| 2025-11-30T12:05 | 11747 | 195 | -49.7 | |||
| 2025-11-30T12:05 | 11839 | 193 | 257 | 62 | ||
| 2025-11-30T12:05 | 11893 | 191 | -49.4 | |||
| 2025-11-30T12:06 | 12146 | 184 | -50.0 | |||
| 2025-11-30T12:06 | 12185 | 183 | 259 | 62 | ||
| 2025-11-30T12:07 | 12371 | 178 | -50.6 | |||
| 2025-11-30T12:07 | 12492 | 174 | 260 | 65 | ||
| 2025-11-30T12:07 | 12548 | 173 | -51.1 | |||
| 2025-11-30T12:08 | 12755 | 167 | 262 | 64 | ||
| 2025-11-30T12:09 | 12859 | 165 | -51.2 | |||
| 2025-11-30T12:09 | 12988 | 162 | 259 | 63 | ||
| 2025-11-30T12:10 | 13149 | 158 | -51.8 | |||
| 2025-11-30T12:10 | 13255 | 155 | 258 | 64 | ||
| 2025-11-30T12:11 | 13474 | 150 | 257 | 62 | ||
| 2025-11-30T12:12 | 13774 | 143 | -55.0 | |||
| 2025-11-30T12:12 | 13837 | 142 | 259 | 62 | ||
| 2025-11-30T12:13 | 14224 | 133 | 263 | 62 | ||
| 2025-11-30T12:13 | 14244 | 133 | -57.9 | |||
| 2025-11-30T12:14 | 14565 | 126 | -58.3 | |||
| 2025-11-30T12:14 | 14602 | 125 | 260 | 59 | ||
| 2025-11-30T12:15 | 14965 | 118 | 258 | 59 | ||
| 2025-11-30T12:16 | 15307 | 112 | -63.0 | |||
| 2025-11-30T12:16 | 15319 | 112 | 261 | 61 | ||
| 2025-11-30T12:17 | 15686 | 105 | 261 | 60 | ||
| 2025-11-30T12:17 | 15802 | 103 | -66.0 | |||
| 2025-11-30T12:18 | 16043 | 99 | 263 | 61 | ||
| 2025-11-30T12:18 | 16141 | 98 | -66.4 | |||
| 2025-11-30T12:19 | 16379 | 94 | 270 | 58 | ||
| 2025-11-30T12:19 | 16514 | 92 | 271 | 57 | ||
| 2025-11-30T12:20 | 16708 | 89 | -67.6 | |||
| 2025-11-30T12:20 | 16782 | 88 | 268 | 56 | ||
| 2025-11-30T12:21 | 16979 | 85 | -65.9 | |||
| 2025-11-30T12:21 | 17057 | 84 | 273 | 50 | ||
| 2025-11-30T12:22 | 17390 | 79 | 273 | 45 | ||
| 2025-11-30T12:23 | 17734 | 75 | -67.2 | |||
| 2025-11-30T12:23 | 17757 | 75 | 270 | 41 | ||
| 2025-11-30T12:24 | 17978 | 72 | -67.8 | |||
| 2025-11-30T12:24 | 18151 | 70 | 264 | 46 | ||
| 2025-11-30T12:25 | 18538 | 66 | 256 | 51 | ||
| 2025-11-30T12:26 | 18707 | 64 | -67.5 | |||
| 2025-11-30T12:26 | 18900 | 62 | 250 | 57 | ||
| 2025-11-30T12:26 | 18948 | 61 | -66.4 | |||
| 2025-11-30T12:27 | 19158 | 59 | 263 | 56 | ||
| 2025-11-30T12:28 | 19307 | 58 | 267 | 51 | ||
| 2025-11-30T12:28 | 19446 | 57 | -62.4 | |||
| 2025-11-30T12:28 | 19613 | 55 | 269 | 55 | ||
| 2025-11-30T12:29 | 19817 | 53 | -62.7 | |||
| 2025-11-30T12:29 | 19935 | 52 | -62.4 | |||
| 2025-11-30T12:29 | 20033 | 51 | 263 | 49 | ||
| 2025-11-30T12:30 | 20079 | 51 | -57.3 | |||
| 2025-11-30T12:30 | 20451 | 48 | -56.3 | |||
| 2025-11-30T12:30 | 20484 | 48 | -56.6 | 267 | 34 | |
| 2025-11-30T23:30 | 18 | 1001 | 11.7 | 6.4 | 170 | 11 |
| 2025-11-30T23:30 | 23 | 1001 | 11.7 | 6.2 | 169 | 1 |
| 2025-11-30T23:30 | 75 | 995 | 181 | 3 | ||
| 2025-11-30T23:30 | 96 | 992 | 11.7 | 5.1 | ||
| 2025-11-30T23:30 | 127 | 988 | 12.1 | 4.8 | ||
| 2025-11-30T23:30 | 157 | 985 | 178 | 16 | ||
| 2025-11-30T23:31 | 287 | 969 | 10.8 | 4.3 | ||
| 2025-11-30T23:31 | 313 | 966 | 190 | 18 | ||
| 2025-11-30T23:31 | 349 | 962 | 10.2 | 4.1 | ||
| 2025-11-30T23:32 | 435 | 952 | 10.1 | 3.4 | ||
| 2025-11-30T23:32 | 461 | 949 | 10.4 | 3.0 | ||
| 2025-11-30T23:32 | 496 | 945 | 10.2 | 2.5 | ||
| 2025-11-30T23:32 | 505 | 944 | 192 | 23 | ||
| 2025-11-30T23:32 | 583 | 936 | 9.9 | 1.8 | ||
| 2025-11-30T23:33 | 797 | 912 | 200 | 24 | ||
| 2025-11-30T23:33 | 839 | 907 | 7.6 | 1.0 | ||
| 2025-11-30T23:34 | 1139 | 875 | 205 | 26 | ||
| 2025-11-30T23:34 | 1163 | 872 | 4.7 | -0.3 | ||
| 2025-11-30T23:35 | 1507 | 836 | 1.9 | -2.6 | ||
| 2025-11-30T23:35 | 1554 | 831 | 206 | 23 | ||
| 2025-11-30T23:35 | 1820 | 804 | -1.1 | -3.1 | ||
| 2025-11-30T23:35 | 1890 | 797 | 213 | 28 | ||
| 2025-11-30T23:36 | 1951 | 791 | -2.3 | -3.9 | ||
| 2025-11-30T23:36 | 2070 | 779 | -2.0 | -8.5 | ||
| 2025-11-30T23:36 | 2137 | 772 | -1.8 | -12.5 | ||
| 2025-11-30T23:36 | 2209 | 765 | -1.9 | -18.0 | ||
| 2025-11-30T23:36 | 2343 | 753 | -2.7 | -16.8 | ||
| 2025-11-30T23:36 | 2382 | 749 | 230 | 34 | ||
| 2025-11-30T23:37 | 2766 | 713 | -6.4 | -16.9 | ||
| 2025-11-30T23:37 | 2841 | 706 | 229 | 36 | ||
| 2025-11-30T23:38 | 2945 | 697 | -7.8 | -19.1 | ||
| 2025-11-30T23:38 | 3122 | 681 | 232 | 36 | ||
| 2025-11-30T23:38 | 3171 | 677 | -9.2 | -19.8 | ||
| 2025-11-30T23:39 | 3420 | 656 | -11.2 | -20.1 | ||
| 2025-11-30T23:39 | 3526 | 647 | -11.8 | -20.9 | ||
| 2025-11-30T23:39 | 3547 | 645 | 241 | 36 | ||
| 2025-11-30T23:39 | 3689 | 633 | -13.1 | -19.0 | ||
| 2025-11-30T23:40 | 3811 | 623 | -14.1 | -18.2 | ||
| 2025-11-30T23:40 | 4007 | 607 | 242 | 36 | ||
| 2025-11-30T23:40 | 4023 | 606 | -15.7 | -18.7 | ||
| 2025-11-30T23:40 | 4183 | 593 | -16.9 | -21.8 | ||
| 2025-11-30T23:41 | 4263 | 587 | 239 | 38 | ||
| 2025-11-30T23:41 | 4270 | 586 | -17.8 | -21.8 | ||
| 2025-11-30T23:41 | 4327 | 582 | -18.0 | -19.6 | ||
| 2025-11-30T23:41 | 4480 | 570 | -18.7 | -21.6 | ||
| 2025-11-30T23:41 | 4580 | 562 | 242 | 41 | ||
| 2025-11-30T23:42 | 4677 | 555 | -19.9 | -25.3 | ||
| 2025-11-30T23:42 | 4747 | 550 | -20.4 | -27.1 | ||
| 2025-11-30T23:42 | 4956 | 534 | 242 | 41 | ||
| 2025-11-30T23:42 | 4962 | 534 | -22.0 | -30.1 | ||
| 2025-11-30T23:43 | 5029 | 529 | -22.6 | -30.6 | ||
| 2025-11-30T23:43 | 5076 | 526 | -22.8 | -39.2 | ||
| 2025-11-30T23:43 | 5177 | 518 | -23.7 | -37.8 | ||
| 2025-11-30T23:43 | 5247 | 514 | -24.3 | -29.7 | ||
| 2025-11-30T23:43 | 5292 | 510 | -24.7 | -29.4 | ||
| 2025-11-30T23:43 | 5309 | 509 | 241 | 42 | ||
| 2025-11-30T23:44 | 5366 | 505 | -25.3 | -36.9 | ||
| 2025-11-30T23:44 | 5405 | 503 | -25.6 | -42.5 | ||
| 2025-11-30T23:44 | 5478 | 497 | -26.2 | -38.7 | ||
| 2025-11-30T23:44 | 5539 | 493 | -26.6 | -42.0 | ||
| 2025-11-30T23:44 | 5644 | 486 | 239 | 45 | ||
| 2025-11-30T23:45 | 5748 | 479 | -28.7 | -36.1 | ||
| 2025-11-30T23:45 | 5813 | 475 | -29.0 | -33.7 | ||
| 2025-11-30T23:45 | 5881 | 470 | 238 | 42 | ||
| 2025-11-30T23:45 | 5906 | 469 | -29.9 | -39.0 | ||
| 2025-11-30T23:45 | 5956 | 465 | -30.5 | -44.2 | ||
| 2025-11-30T23:46 | 6174 | 451 | -32.4 | -44.8 | ||
| 2025-11-30T23:46 | 6179 | 451 | 240 | 43 | ||
| 2025-11-30T23:47 | 6348 | 440 | -33.9 | -44.4 | ||
| 2025-11-30T23:47 | 6384 | 438 | -34.0 | -38.9 | ||
| 2025-11-30T23:47 | 6485 | 432 | 237 | 45 | ||
| 2025-11-30T23:47 | 6490 | 431 | -35.0 | -38.7 | ||
| 2025-11-30T23:47 | 6547 | 428 | -35.5 | -39.6 | ||
| 2025-11-30T23:48 | 6637 | 422 | -35.7 | -39.4 | ||
| 2025-11-30T23:48 | 6719 | 417 | -36.4 | -40.8 | ||
| 2025-11-30T23:48 | 6774 | 414 | -36.7 | -44.1 | ||
| 2025-11-30T23:48 | 6807 | 412 | 242 | 45 | ||
| 2025-11-30T23:48 | 6896 | 407 | -37.9 | -49.4 | ||
| 2025-11-30T23:49 | 6951 | 404 | -38.4 | -53.0 | ||
| 2025-11-30T23:49 | 7017 | 400 | -39.0 | -55.4 | ||
| 2025-11-30T23:49 | 7129 | 393 | -40.0 | -57.3 | ||
| 2025-11-30T23:49 | 7135 | 393 | 242 | 46 | ||
| 2025-11-30T23:50 | 7474 | 374 | 242 | 48 | ||
| 2025-11-30T23:51 | 7833 | 354 | 243 | 46 | ||
| 2025-11-30T23:51 | 7851 | 353 | -46.0 | |||
| 2025-11-30T23:52 | 8203 | 335 | 244 | 46 | ||
| 2025-11-30T23:53 | 8435 | 323 | -50.2 | |||
| 2025-11-30T23:53 | 8573 | 317 | 244 | 45 | ||
| 2025-11-30T23:54 | 8752 | 308 | -52.4 | |||
| 2025-11-30T23:54 | 8917 | 300 | -53.0 | |||
| 2025-11-30T23:54 | 8950 | 299 | 242 | 43 | ||
| 2025-11-30T23:55 | 9264 | 284 | 240 | 47 | ||
| 2025-11-30T23:56 | 9555 | 272 | -57.1 | |||
| 2025-11-30T23:56 | 9586 | 270 | 239 | 47 | ||
| 2025-11-30T23:57 | 9834 | 260 | 240 | 51 | ||
| 2025-11-30T23:58 | 10044 | 251 | 244 | 53 | ||
| 2025-11-30T23:58 | 10072 | 250 | -57.5 | |||
| 2025-11-30T23:58 | 10308 | 241 | 242 | 54 | ||
| 2025-11-30T23:59 | 10520 | 233 | -56.9 | |||
| 2025-11-30T23:59 | 10708 | 226 | 242 | 59 |
